ECMWFFLT1_925_thetae_000.txt.gz
Theta_e
310 309 308 308 310 311 313 314 314 313 315 316 316 317 317 318 317 317 318 318 316 315 315 316 316 316 316 317 317 318 319 320 321 323 323 324 325 326 326 327 327 328 328 328 328 328 329 329 327 327 327 326 327 327 327 328 327 327 327 327 327 327 326
310 310 309 308 309 310 312 314 314 314 315 316 317 317 316 315 313 313 315 314 310 309 309 309 309 309 309 310 312 313 315 316 317 318 319 319 320 321 322 323 324 325 327 328 328 327 327 328 327 327 326 325 325 325 326 327 327 327 327 328 327 327 327
311 311 309 308 308 309 310 313 313 313 315 316 316 316 315 311 307 308 309 307 306 306 305 304 304 304 305 306 307 308 310 312 313 314 316 316 317 318 318 319 321 322 324 325 325 324 325 327 327 326 326 327 326 326 325 325 325 325 326 326 327 327 328
312 312 310 308 308 308 308 310 311 312 314 315 315 316 314 310 306 306 305 305 305 305 305 303 303 304 305 305 306 306 308 309 310 311 312 313 314 315 315 316 317 319 320 321 321 321 323 324 325 325 325 326 326 326 325 323 322 323 324 324 324 325 327
312 312 311 309 308 307 306 307 309 311 312 313 313 313 313 310 306 305 305 306 306 306 306 304 303 303 303 304 305 305 306 306 307 308 309 310 310 311 312 312 314 315 316 317 318 320 321 322 323 324 324 324 324 325 324 324 323 322 322 322 322 323 325
312 313 312 311 309 308 307 306 307 309 309 309 308 310 310 309 306 306 307 307 308 308 308 305 304 303 303 304 304 304 305 305 306 306 307 307 308 309 309 310 310 311 312 312 313 316 317 319 320 322 322 323 324 325 325 325 325 324 323 322 322 322 323
312 313 313 312 311 310 308 307 306 307 307 306 306 307 308 308 307 307 309 309 309 309 309 307 304 303 304 304 304 304 304 305 305 305 305 306 306 306 306 307 307 308 308 309 309 311 312 313 315 317 319 320 322 323 324 325 326 326 325 324 323 322 322
313 312 313 313 312 311 309 308 307 306 307 306 306 307 308 308 308 309 310 311 311 310 310 307 304 304 305 304 304 304 304 304 304 304 304 304 304 304 304 304 304 305 305 305 306 307 308 308 310 311 314 318 320 321 322 324 325 325 326 326 324 322 321
312 312 313 314 313 312 310 310 309 308 307 306 307 308 308 308 309 310 311 312 312 311 311 307 305 305 306 305 304 304 304 304 304 304 304 304 304 304 304 303 304 303 303 303 303 304 305 306 307 308 310 315 318 319 319 320 322 323 323 325 325 323 322
312 313 313 314 314 312 311 310 310 310 308 307 307 308 308 309 310 311 313 313 312 311 310 307 305 306 306 305 304 304 304 304 304 304 304 304 304 303 303 302 303 303 303 303 303 303 304 304 305 306 307 310 314 317 318 318 320 320 321 322 323 322 322
313 313 313 314 315 314 311 310 310 310 309 308 308 309 310 311 311 313 314 313 312 311 310 307 306 306 306 305 305 304 305 304 304 304 304 303 303 302 302 302 302 302 302 302 302 303 303 304 305 305 306 307 309 314 317 318 318 319 320 320 321 322 323
314 314 314 314 315 314 313 311 311 311 311 309 308 309 310 312 312 313 313 312 312 310 309 307 307 307 306 305 305 305 304 304 304 303 303 302 302 302 301 301 301 301 301 302 302 303 303 304 304 304 305 305 306 309 313 316 317 317 318 320 320 321 321
314 315 315 315 315 315 313 313 312 312 312 310 309 309 311 312 312 313 313 312 311 309 308 307 307 306 306 305 305 304 304 303 303 303 302 302 302 302 301 301 301 301 301 301 302 302 302 303 303 304 304 304 305 306 308 312 315 315 316 317 317 318 319
315 315 315 315 315 315 314 314 313 313 312 311 310 310 311 312 312 312 312 311 310 308 307 307 306 306 306 305 304 304 303 303 302 302 301 301 301 301 301 301 301 301 301 301 301 302 302 302 303 303 304 304 305 305 306 308 311 313 313 313 315 316 316
316 316 315 316 316 315 314 314 313 313 313 312 312 311 311 312 312 312 311 310 308 306 306 307 306 306 306 305 304 303 302 302 301 301 300 300 300 300 300 300 301 301 301 301 301 302 302 302 302 302 303 304 304 304 304 305 307 309 310 310 312 313 314
317 316 316 316 316 316 315 314 313 314 313 313 312 312 311 312 311 311 310 308 306 306 307 307 307 306 306 304 303 302 301 301 300 300 299 299 298 298 298 299 299 300 301 301 301 301 302 301 301 302 302 302 303 303 303 303 304 306 308 308 309 311 313
316 316 317 317 317 317 315 314 314 314 314 313 312 312 312 311 311 310 308 307 306 306 307 307 306 306 304 303 302 301 301 300 300 299 299 298 298 297 298 298 298 299 300 301 301 301 301 301 301 302 302 302 302 302 302 303 303 305 306 307 308 309 310
315 316 317 316 317 317 316 315 315 315 313 313 313 312 312 311 310 309 307 306 306 306 307 307 306 304 302 301 301 301 300 299 299 299 298 298 298 298 298 298 298 298 299 299 300 300 300 300 301 301 301 302 302 302 302 303 303 304 304 305 306 306 306
316 316 316 317 316 316 316 315 315 315 313 313 313 312 311 311 309 307 306 306 306 307 307 306 304 302 301 301 300 299 299 299 298 298 298 298 298 298 298 298 298 298 298 298 298 298 298 298 299 300 300 301 301 302 302 302 303 303 303 303 303 304 305
316 316 317 317 317 316 316 316 315 314 314 313 313 312 311 309 308 307 307 307 307 307 305 304 302 301 300 300 299 299 298 298 297 297 297 297 297 297 297 297 298 298 298 298 297 297 297 297 298 298 298 299 299 300 300 301 301 301 301 301 302 303 304
316 316 316 317 317 316 316 315 315 314 314 313 312 311 310 308 308 307 308 307 306 305 303 302 301 300 300 299 298 297 296 296 296 295 295 296 296 296 296 297 297 297 297 297 297 297 297 297 297 297 297 297 297 298 298 299 299 300 300 301 301 302 303
315 315 316 316 317 317 315 315 315 314 313 312 311 310 309 308 308 308 307 305 304 303 302 301 300 299 298 296 294 293 292 292 293 293 293 293 294 294 295 295 296 296 296 297 297 297 297 297 297 296 296 296 296 297 297 298 299 299 300 301 301 302 303
315 315 315 316 317 316 315 315 314 313 312 311 310 310 309 308 308 307 306 304 303 302 301 301 300 297 295 292 291 290 290 291 291 291 292 292 292 292 293 293 294 294 295 296 296 296 296 296 296 296 296 296 296 296 296 297 297 298 299 300 301 302 302
315 315 315 315 315 315 315 315 313 312 312 310 309 309 309 309 308 306 305 303 302 302 301 299 297 294 292 291 290 290 290 290 291 291 291 291 291 292 292 292 292 293 293 294 295 295 295 295 295 295 295 295 295 296 296 296 296 297 297 298 299 300 301
315 315 315 315 314 313 314 314 312 312 311 310 309 309 309 308 306 304 303 303 302 301 300 298 295 293 291 291 290 290 290 290 290 291 291 291 291 291 292 292 292 292 292 293 293 294 294 295 295 295 295 295 295 295 295 295 296 296 297 297 298 298 299
315 314 314 313 311 311 311 311 311 310 310 310 310 309 308 306 305 304 303 303 302 301 299 296 293 292 292 291 290 290 290 290 290 290 290 290 290 291 291 291 292 292 292 292 293 293 293 294 294 294 294 294 294 295 295 295 295 295 295 296 296 297 298
315 313 313 311 310 310 310 310 310 310 310 310 310 309 307 305 304 304 303 303 302 300 298 295 293 292 292 292 291 291 290 290 290 290 290 290 290 290 291 291 291 291 292 292 292 292 293 293 293 294 294 294 294 294 294 295 295 295 295 295 295 296 297
315 313 312 311 310 310 310 310 310 310 310 310 309 308 306 305 304 304 303 302 302 299 296 294 293 293 293 292 291 291 291 290 290 290 290 290 290 290 291 291 291 291 291 291 291 292 292 292 293 293 293 294 294 294 294 294 294 294 294 294 295 295 296
315 313 311 310 309 310 310 310 310 310 310 309 308 307 306 305 304 303 303 302 300 297 295 294 293 293 293 292 291 291 291 290 290 290 290 290 290 290 291 291 291 291 291 291 291 291 291 292 292 293 293 293 293 293 294 294 294 294 294 294 294 294 295
314 313 311 310 309 309 310 309 310 310 309 308 308 307 306 305 304 303 302 300 297 296 295 294 294 293 294 293 292 291 291 290 290 290 290 290 290 290 290 291 291 291 291 291 291 291 291 291 292 292 293 293 293 293 294 294 294 294 294 294 294 294 294
313 312 311 309 308 309 309 309 310 309 308 308 307 306 305 304 303 302 300 297 296 296 296 295 294 294 294 293 292 291 291 290 290 290 290 290 290 290 290 290 290 290 291 291 290 290 290 290 291 291 291 292 292 292 293 293 293 293 294 294 294 294 294
312 311 309 309 309 310 310 310 309 308 307 306 306 305 305 304 302 300 298 297 296 296 296 296 295 295 294 293 292 291 291 291 291 290 290 290 290 290 290 290 290 290 290 290 290 290 290 290 290 290 290 291 291 291 292 292 292 292 293 293 293 293 294
311 310 309 309 310 311 310 308 307 306 305 304 304 305 305 303 300 299 298 297 297 297 296 296 296 295 295 294 292 291 291 291 291 291 290 290 290 290 290 290 290 290 290 290 290 290 290 290 290 290 290 290 291 291 291 291 291 292 292 292 293 293 293
310 309 308 309 309 308 306 305 303 303 304 304 304 305 304 301 299 298 298 298 297 297 296 296 296 295 295 294 293 291 291 292 292 291 290 290 290 290 290 290 290 290 290 289 289 289 289 289 289 289 290 290 290 290 291 291 291 291 291 292 292 292 293
309 308 307 306 305 303 302 302 302 303 305 305 304 303 301 299 299 298 298 298 298 297 297 296 296 295 295 294 293 292 292 292 292 291 290 290 290 290 290 290 289 289 289 289 289 288 288 288 289 289 289 289 290 290 290 290 290 290 290 291 291 291 292
307 305 304 303 302 301 302 303 303 304 305 304 302 300 299 298 298 298 298 298 297 297 296 296 295 295 294 294 293 292 292 292 292 291 290 290 290 290 289 289 289 289 288 288 288 288 288 288 288 288 288 288 289 289 289 289 289 289 289 290 290 291 291
305 302 300 302 303 303 304 305 305 303 302 301 299 298 298 298 298 298 297 297 296 295 295 294 294 294 293 293 293 293 292 292 291 291 290 290 290 289 289 289 288 288 288 288 287 287 287 287 288 288 288 288 289 289 289 289 289 289 290 290 290 290 290

ECMWFFLT1_925_thetae_003.txt.gz
Theta_e
308 308 309 311 312 313 314 314 313 315 317 317 317 317 316 316 317 317 315 314 314 313 313 314 314 315 316 316 317 319 320 322 323 324 325 325 326 326 327 328 329 328 328 328 328 329 330 330 328 327 327 327 327 327 327 328 328 327 326 327 328 327 327
308 308 309 310 312 313 314 314 313 315 316 316 316 314 313 314 314 311 308 307 306 305 305 306 306 307 309 310 312 314 316 317 318 320 320 321 322 322 323 324 325 326 326 326 326 326 327 328 328 327 327 327 327 328 327 327 327 327 326 325 325 326 326
310 309 309 310 311 313 314 314 313 314 315 316 315 312 310 311 309 306 305 305 303 303 303 303 303 304 305 306 308 310 311 312 313 315 315 317 318 319 320 321 321 322 323 324 324 324 325 326 325 326 326 326 326 327 327 327 326 327 327 325 324 325 326
312 311 309 310 311 312 313 314 313 313 314 315 314 311 309 308 306 305 306 306 304 303 302 302 303 303 303 304 305 306 307 308 309 310 310 312 313 315 316 317 319 319 320 320 321 321 322 323 323 323 324 323 324 324 325 326 326 326 327 326 326 327 326
313 312 311 310 310 310 311 313 313 313 315 315 313 312 310 307 306 307 307 307 306 304 303 302 302 303 303 303 304 304 305 306 307 308 308 308 310 312 313 314 314 315 316 316 317 318 319 319 320 321 321 321 321 322 323 324 325 325 325 326 326 326 326
314 314 312 311 310 308 308 311 312 312 314 314 312 312 310 308 307 308 308 309 308 305 304 303 303 303 303 303 304 304 305 306 306 306 307 306 307 308 309 310 310 311 312 312 313 314 314 315 317 318 319 319 319 320 319 320 322 323 323 324 325 325 326
313 314 313 312 311 309 308 308 308 308 310 310 309 309 310 309 309 309 309 309 309 307 305 304 304 303 303 304 305 304 305 306 305 306 306 306 305 305 306 306 307 308 308 308 310 311 311 312 314 315 315 316 317 318 317 316 318 321 321 322 323 324 324
312 313 313 312 312 312 309 307 306 306 306 306 306 307 309 310 310 310 311 310 310 309 306 305 305 304 303 304 304 304 305 305 305 306 306 306 305 305 304 304 305 306 306 306 307 308 308 309 311 312 313 314 314 315 316 315 316 318 318 319 320 322 324
312 313 314 313 312 312 311 309 307 307 306 306 306 307 308 310 311 312 312 311 311 309 307 305 305 305 304 304 305 305 305 306 306 306 306 306 305 305 304 304 304 305 304 305 306 306 307 307 308 309 311 312 313 313 314 315 315 317 317 317 318 320 322
314 313 314 313 312 312 313 312 309 308 307 306 307 308 308 310 312 313 312 312 312 310 307 306 305 305 305 305 305 306 306 306 306 306 306 306 305 305 305 304 304 304 304 304 305 305 306 307 308 308 309 310 311 312 312 313 314 316 317 318 318 318 320
314 313 313 313 313 312 313 313 311 309 308 307 308 308 309 310 312 314 313 313 312 310 308 306 306 305 305 305 305 305 306 306 306 305 305 304 304 304 304 304 304 305 304 304 304 305 305 306 306 307 308 308 309 310 311 312 313 314 316 317 318 319 321
315 314 313 313 313 312 312 313 313 311 309 308 308 308 309 310 312 313 314 313 312 310 308 306 306 306 305 305 306 305 305 305 305 305 304 304 304 304 304 304 304 304 304 304 304 304 305 305 305 306 307 307 308 309 310 311 311 312 314 316 317 319 319
315 314 313 313 313 312 312 313 314 313 310 309 308 308 309 310 311 313 314 313 312 310 308 306 306 306 306 306 306 305 304 304 304 304 304 303 303 303 303 303 303 304 304 304 304 304 304 304 304 305 305 306 307 307 308 309 310 311 312 313 315 315 316
315 315 314 313 312 312 313 312 314 314 312 310 309 309 309 310 311 313 314 313 311 309 307 306 306 306 306 305 305 304 303 303 303 303 303 302 302 302 302 302 302 303 303 304 304 304 304 304 304 304 304 305 306 306 307 307 309 310 310 311 312 312 313
314 314 314 313 312 312 313 313 314 314 313 312 311 310 309 310 312 313 314 313 310 308 307 306 306 306 306 305 304 303 303 303 303 302 302 302 301 301 301 301 301 301 302 303 304 304 304 304 303 303 304 304 304 305 305 306 307 308 309 309 310 310 311
314 314 313 314 313 313 313 313 314 314 314 313 311 311 310 310 312 313 313 311 309 307 306 306 306 306 305 305 304 303 303 303 303 302 302 301 301 301 301 301 301 301 301 302 303 304 304 304 303 303 303 303 303 304 304 304 304 305 306 307 308 308 309
314 314 314 314 314 314 314 314 314 314 315 314 312 312 311 311 312 313 312 310 308 307 306 306 306 305 304 304 303 303 302 302 302 302 302 301 301 301 301 301 301 300 301 301 302 302 303 303 303 303 303 303 303 303 303 303 304 304 305 305 306 306 307
315 314 314 314 315 315 315 314 314 315 315 314 313 312 312 312 312 312 311 309 307 307 306 306 305 304 303 303 302 302 301 301 301 301 301 300 300 300 300 300 300 300 300 301 301 301 301 301 301 301 302 302 302 303 303 303 303 303 304 305 305 305 305
316 315 314 314 315 315 315 315 315 315 316 315 313 312 312 312 312 312 310 308 307 306 306 306 305 304 303 302 301 301 300 300 299 299 298 299 299 299 299 299 300 300 300 300 300 301 300 300 300 300 301 301 301 301 302 302 302 303 303 303 303 303 304
317 316 315 315 315 315 315 315 315 315 315 315 313 313 312 312 312 311 309 307 306 306 306 305 305 304 303 302 301 300 299 297 296 295 295 296 296 297 298 298 299 299 299 299 300 300 300 300 300 300 300 300 300 300 301 301 301 301 302 302 302 303 303
317 317 316 316 315 315 315 315 315 315 315 314 313 313 312 312 311 309 308 307 307 306 306 305 305 304 303 302 301 299 297 294 293 292 293 294 295 295 296 296 297 297 298 298 298 298 299 299 300 300 300 300 300 300 300 300 300 301 301 302 302 302 303
317 317 317 316 316 315 315 315 315 315 315 313 313 312 312 312 310 308 307 307 307 306 306 305 305 303 302 301 300 297 294 292 291 292 293 294 294 294 294 295 295 294 294 294 294 294 295 296 297 298 299 299 299 299 299 299 300 300 300 301 301 302 303
317 316 316 316 316 315 315 315 314 314 313 312 311 310 310 310 310 308 308 307 307 306 306 305 304 303 301 300 297 294 292 291 291 292 293 294 294 294 294 294 294 292 291 292 293 293 293 293 294 295 296 297 298 298 299 299 299 299 300 300 301 301 302
317 316 316 315 315 315 314 314 313 312 310 310 310 310 310 310 309 308 308 307 306 306 305 304 303 301 300 297 294 292 292 291 291 292 293 293 294 294 294 294 294 293 292 293 293 293 293 293 294 294 294 295 295 296 297 298 298 299 299 299 300 300 301
316 316 315 315 314 314 313 312 311 310 310 310 310 310 309 309 309 308 307 307 306 305 305 303 302 300 298 295 293 292 292 292 291 292 293 293 294 294 294 294 294 293 293 292 292 293 294 294 294 294 294 294 294 294 294 295 296 297 298 298 299 299 300
316 316 315 315 314 313 312 312 311 311 310 310 310 310 309 309 308 307 307 306 306 305 304 302 301 299 296 294 293 293 292 292 292 292 293 293 293 293 293 293 293 294 293 292 293 294 294 294 294 294 294 294 294 294 294 294 294 295 295 297 297 298 299
315 316 315 314 313 312 311 311 311 310 310 310 310 310 309 308 308 307 307 306 305 304 303 302 300 297 294 293 294 293 292 292 291 292 292 292 292 293 293 293 293 293 293 293 293 293 293 293 293 293 294 294 294 295 295 295 295 294 294 295 296 297 297
313 315 314 313 312 311 311 311 311 310 310 310 310 309 308 308 308 307 306 305 305 303 302 301 299 295 294 294 294 293 292 292 291 292 292 292 292 292 292 292 293 293 293 293 293 292 292 292 293 293 293 293 294 294 295 295 295 295 295 295 296 296 296
312 314 314 313 312 311 311 311 310 310 309 309 309 309 308 308 307 306 306 305 304 302 302 300 297 295 294 295 294 293 293 292 292 292 292 292 292 293 293 292 292 293 293 293 293 292 291 291 292 292 293 293 293 293 294 294 294 294 295 295 295 295 296
312 313 313 312 311 311 311 311 310 309 309 308 308 308 308 308 307 306 305 304 303 303 301 298 296 295 295 295 294 293 293 293 293 293 292 292 293 293 293 292 292 292 292 293 292 292 291 291 291 292 292 292 293 293 293 293 293 293 293 293 294 294 294
311 312 313 312 311 311 310 310 309 309 308 308 308 308 308 307 306 305 304 304 303 301 299 297 296 296 296 295 294 293 293 293 293 293 293 293 293 293 293 292 291 291 292 292 292 291 291 290 291 291 292 292 292 292 292 292 292 292 293 293 293 293 293
311 312 312 312 312 311 310 310 309 308 308 308 308 307 306 305 305 304 304 303 301 298 297 296 296 296 296 295 294 293 293 294 294 293 294 294 294 293 293 292 291 291 291 291 291 290 290 290 290 291 291 291 291 291 291 292 291 292 292 292 292 293 293
311 312 312 312 311 311 310 309 307 307 307 308 307 305 305 305 304 304 303 301 299 297 297 297 297 296 296 296 294 293 293 293 294 294 294 294 293 293 293 293 292 292 291 291 290 290 290 289 290 290 290 290 291 291 291 291 291 291 291 291 292 292 292
311 312 312 311 311 310 308 307 307 307 307 306 304 304 305 305 304 303 301 299 297 297 297 297 296 296 296 296 295 294 293 293 294 294 294 293 293 293 293 293 292 292 291 291 290 290 289 289 288 289 289 289 289 289 289 290 290 290 290 290 290 291 291
311 311 311 310 310 308 307 307 307 306 305 305 305 305 305 304 302 300 299 298 298 297 297 297 297 296 296 295 295 294 293 293 293 293 293 293 293 293 293 293 292 292 291 290 290 289 288 288 288 288 288 288 288 288 288 288 289 289 289 290 290 290 290
311 310 309 309 308 307 306 305 305 304 304 304 304 304 304 303 302 299 298 298 298 297 297 296 296 295 294 293 293 293 292 292 292 292 292 292 293 293 292 292 292 291 290 289 288 288 287 287 287 288 288 288 288 288 288 288 288 289 289 289 290 290 290
309 308 307 306 306 305 304 303 303 303 303 303 302 302 303 302 300 298 298 297 297 296 295 294 293 293 292 292 292 292 292 292 292 291 291 291 292 292 291 291 290 289 288 288 287 287 287 287 288 288 288 288 288 288 288 288 289 289 289 290 290 290 290

ECMWFFLT1_925_thetae_006.txt.gz
Theta_e
317 318 319 320 319 319 319 319 321 322 321 321 321 321 320 319 319 319 319 319 318 318 319 319 320 321 321 321 322 323 323 324 325 325 326 326 325 325 327 327 327 328 328 329 329 329 329 329 329 330 329 328 328 329 329 329 330 331 331 331 331 331 331
317 318 317 319 319 319 319 320 320 321 320 319 319 320 319 317 315 315 315 315 314 314 314 315 317 318 319 320 321 321 321 321 322 322 323 323 323 324 324 324 325 326 326 328 327 326 328 328 328 329 329 327 327 327 329 329 329 329 330 331 330 330 330
317 317 317 319 319 319 319 319 320 319 318 318 318 317 315 313 313 312 312 312 312 311 311 312 313 314 316 317 318 319 319 320 320 320 320 320 321 321 321 322 322 322 323 325 324 323 324 325 325 325 326 325 325 326 326 326 325 326 327 328 329 328 328
317 317 318 319 320 319 319 318 319 319 317 316 316 316 313 313 313 313 312 312 312 311 311 311 312 312 313 313 314 315 316 317 317 317 318 318 319 319 319 319 319 320 320 321 320 320 321 322 321 322 321 321 320 321 322 323 323 324 324 323 325 327 328
318 317 318 319 319 319 319 318 318 318 317 316 316 315 314 314 314 313 313 312 312 312 311 311 311 311 312 312 313 313 313 314 314 314 315 315 316 316 316 316 316 317 318 318 318 318 318 319 319 318 318 317 316 317 318 319 320 321 321 320 320 323 325
320 318 318 319 319 318 318 318 317 317 317 317 316 315 314 314 314 314 314 312 312 311 311 311 311 311 311 311 312 312 312 312 313 313 313 313 313 313 313 313 313 314 315 315 315 316 316 316 317 317 317 316 316 316 315 315 316 316 317 319 320 321 323
321 319 318 319 319 318 318 318 316 316 317 317 317 316 314 314 315 315 314 313 312 311 311 311 311 311 311 311 311 312 312 312 312 312 312 311 311 311 311 311 311 312 312 312 313 313 314 314 315 315 315 314 314 314 313 312 314 315 316 318 319 320 320
321 320 319 319 320 319 318 318 316 316 317 317 317 317 315 315 316 315 315 314 313 312 311 311 311 311 311 311 311 312 312 312 311 311 311 311 310 310 309 309 310 310 310 310 310 311 311 311 313 313 313 312 312 313 313 313 313 314 316 317 317 317 318
323 321 319 319 321 321 320 318 316 316 316 316 318 318 316 315 316 316 315 315 314 313 312 312 311 311 311 311 311 312 312 311 312 312 311 311 310 310 309 309 309 309 309 308 309 309 310 310 311 311 312 312 312 313 313 313 313 314 316 317 317 318 318
324 322 322 321 319 320 320 319 317 317 316 317 318 319 317 316 316 316 316 315 314 313 312 312 311 311 311 311 311 312 312 311 311 311 311 311 311 310 310 309 309 309 309 308 309 309 310 310 310 310 311 312 312 312 312 313 314 314 314 315 316 317 318
322 322 324 323 319 317 318 320 319 318 318 318 318 318 318 317 317 317 316 316 315 314 312 312 312 311 311 311 311 311 311 311 311 310 309 309 309 309 309 308 309 309 309 309 309 309 309 310 310 310 311 311 311 312 312 313 313 314 315 314 315 316 318
322 323 324 325 323 319 316 317 320 320 319 318 317 317 318 317 317 317 317 316 315 314 313 312 312 312 312 312 311 311 310 310 310 309 309 308 308 308 308 308 308 308 308 308 309 309 309 309 310 310 310 311 311 312 312 313 313 314 315 314 315 315 316
323 324 324 325 325 322 319 317 317 319 319 318 316 317 317 317 317 317 317 317 316 315 313 313 312 312 312 312 311 310 310 309 309 309 308 308 307 307 307 307 307 307 307 307 308 308 308 308 308 308 309 310 310 311 311 312 312 313 314 313 314 314 314
323 324 324 324 324 323 322 320 318 318 319 318 317 317 317 317 317 317 317 316 316 315 314 313 312 312 312 311 311 310 309 309 308 308 308 307 307 306 306 306 306 306 306 306 307 307 307 308 308 308 308 308 309 310 310 311 311 312 312 312 313 313 313
323 323 323 324 324 323 322 322 320 319 319 318 317 317 317 317 317 317 317 316 316 315 313 312 312 311 311 311 310 309 309 308 308 308 308 307 306 306 306 306 306 305 305 306 307 307 307 307 307 307 308 308 307 308 308 309 309 310 311 311 311 311 311
322 323 323 323 323 323 322 322 321 320 319 319 318 317 317 318 317 317 317 316 316 314 313 312 312 311 311 310 310 309 309 308 308 308 308 307 306 306 306 306 305 305 305 305 306 306 306 307 307 306 307 307 307 307 307 307 307 308 309 309 309 309 310
323 323 323 323 322 323 322 322 322 320 320 320 319 318 318 318 317 317 317 317 315 314 313 312 311 311 311 310 309 309 308 308 308 307 307 306 305 305 305 305 305 305 304 305 305 305 305 306 306 305 305 306 306 307 307 307 307 307 307 308 308 308 309
323 324 324 323 322 322 322 322 322 320 320 320 320 319 319 319 317 317 317 316 315 314 313 312 311 311 310 309 309 309 308 308 307 306 306 305 304 304 304 304 304 304 304 304 305 305 305 305 304 304 304 304 305 305 306 307 307 307 307 307 308 308 308
324 324 324 323 322 322 321 321 321 321 320 320 320 320 320 319 318 318 317 316 315 314 312 311 311 310 310 309 308 308 307 307 306 305 304 303 303 302 302 302 302 303 303 303 304 304 304 304 304 304 304 304 304 304 305 305 306 306 306 307 307 307 307
324 324 324 324 323 322 322 321 322 321 320 320 320 320 320 319 319 318 317 316 314 313 312 311 311 310 309 309 308 307 307 306 305 304 302 301 301 301 301 301 301 301 302 302 302 303 303 303 303 303 304 304 304 304 304 304 304 305 305 306 306 306 307
324 324 324 323 323 323 322 322 321 321 320 320 320 320 319 319 318 318 316 315 314 313 312 311 310 309 309 308 308 307 306 304 303 302 301 300 300 300 299 300 299 300 300 299 298 298 299 299 300 301 302 302 303 303 303 303 304 304 304 305 305 305 306
321 322 323 323 323 322 322 322 322 321 320 320 320 320 319 317 317 316 315 314 313 312 311 311 310 309 308 308 307 305 304 302 301 301 300 299 299 299 299 299 299 298 296 294 293 293 293 294 295 297 298 300 301 302 302 303 303 303 303 304 305 305 305
318 319 320 321 322 322 321 321 321 321 320 320 319 319 318 317 316 315 314 313 312 311 311 310 309 307 307 306 304 303 302 301 300 299 299 299 299 299 298 298 299 297 294 293 294 294 293 293 293 294 295 296 298 299 301 301 302 302 303 303 304 304 304
314 316 318 319 321 321 320 320 320 320 320 320 319 317 316 315 314 313 313 313 311 311 310 309 307 306 304 303 303 302 301 300 299 299 298 298 298 299 299 298 298 298 297 297 297 295 294 294 295 295 294 294 294 295 297 298 300 301 302 302 303 303 304
311 314 316 318 319 320 319 319 319 319 319 318 317 315 314 313 313 312 313 312 311 310 308 307 306 304 303 303 301 300 300 299 299 298 298 298 298 298 298 298 298 298 298 297 297 296 296 296 296 295 295 295 294 294 294 295 296 298 299 300 301 302 303
309 312 315 317 318 318 318 318 318 318 318 317 315 314 314 314 313 313 312 311 309 308 307 306 305 304 303 302 299 298 299 299 298 298 298 298 298 298 297 298 298 298 298 297 296 296 297 297 296 296 295 295 295 295 295 295 295 295 296 297 299 300 301
308 310 313 315 317 317 317 318 318 317 317 316 316 315 314 314 314 312 311 310 309 307 306 306 304 303 302 300 296 297 299 299 298 298 298 297 297 297 297 297 297 297 297 297 297 297 297 296 295 295 296 296 297 297 297 297 296 296 296 296 296 298 298
308 309 311 313 315 316 316 317 317 316 316 316 316 315 315 314 314 312 311 310 309 307 306 305 304 302 300 297 295 296 298 298 298 298 297 297 297 297 297 298 297 297 297 297 297 296 295 295 294 294 295 296 296 297 297 297 297 297 297 297 297 297 298
308 309 310 311 313 314 315 315 315 315 316 316 315 315 315 314 313 312 311 310 309 306 305 304 303 301 297 295 294 295 297 298 298 298 298 298 298 298 297 297 297 297 297 297 296 295 294 294 294 294 295 295 296 296 296 296 296 296 296 296 296 297 297
308 309 310 311 312 314 315 315 315 315 315 315 315 315 314 313 312 311 310 309 307 305 303 302 301 298 295 294 294 296 298 298 298 298 298 298 298 297 297 297 297 297 297 296 296 294 293 293 293 294 295 295 295 296 296 296 296 295 295 295 294 294 294
308 309 310 310 312 313 314 314 314 314 314 314 314 314 313 312 311 309 308 307 305 304 303 302 299 296 294 294 294 296 297 298 298 298 298 298 298 298 297 297 296 296 296 296 295 294 293 292 293 293 294 294 295 295 295 295 295 295 295 295 294 294 294
308 309 309 310 312 313 314 314 314 314 313 314 314 313 311 310 309 308 306 305 304 304 303 300 297 295 295 294 294 295 297 297 297 298 298 298 298 298 297 297 296 296 296 295 294 293 292 292 292 293 293 293 293 294 294 294 294 294 294 294 294 294 294
309 309 310 311 312 313 314 313 313 313 313 314 314 312 310 309 308 307 305 304 303 303 302 299 296 295 295 294 294 294 296 297 297 298 298 298 297 297 297 297 296 296 295 294 293 293 292 291 291 292 292 292 292 293 293 293 293 293 293 293 293 293 293
309 309 311 311 312 313 313 313 313 313 313 312 312 310 309 308 306 305 305 305 303 302 301 300 298 296 295 295 295 294 295 297 297 297 297 296 296 296 296 296 296 296 295 294 293 292 292 291 291 291 291 291 291 291 291 291 291 291 291 291 291 291 292
308 309 311 311 312 312 312 312 313 312 311 310 309 308 307 306 305 305 304 303 302 300 299 299 299 297 296 295 295 294 294 295 295 295 295 295 295 295 295 295 296 295 294 293 293 292 291 291 290 290 290 289 289 289 289 289 289 289 290 290 290 291 291
308 309 311 311 311 311 312 312 311 310 309 309 307 305 304 304 305 304 302 301 300 300 299 298 297 295 294 294 293 293 292 292 292 292 293 294 294 294 295 295 295 295 294 293 292 291 290 289 289 289 289 289 288 288 288 288 289 289 289 290 290 290 291
308 309 310 310 310 311 311 310 309 308 307 306 304 303 304 304 303 301 300 300 299 299 298 298 296 294 292 291 291 291 291 291 291 291 292 293 294 294 294 294 293 293 292 290 289 289 288 288 289 289 289 289 289 289 289 289 289 289 290 290 290 291 291

ECMWFFLT1_925_thetae_009.txt.gz
Theta_e
321 321 321 320 319 320 321 322 323 323 323 322 322 322 321 321 320 320 320 320 320 319 320 321 321 322 322 322 323 323 324 324 326 327 326 326 328 328 327 327 328 327 327 327 327 327 326 328 329 329 328 327 327 327 327 327 328 328 328 327 328 328 329
320 320 320 319 319 320 321 322 322 321 322 322 322 320 318 318 318 317 317 316 316 316 316 317 319 320 321 322 323 323 323 323 324 324 324 324 325 326 325 325 326 327 326 326 326 325 325 327 328 328 328 327 326 326 325 325 326 325 324 323 326 328 329
319 318 319 319 319 320 321 321 321 320 320 321 319 317 315 315 315 314 314 314 314 313 314 314 315 317 318 319 320 321 321 322 322 322 322 322 321 322 322 323 324 324 325 325 325 324 324 325 325 325 326 325 325 325 323 322 323 323 321 320 322 324 325
319 318 319 320 320 320 320 320 319 318 319 319 317 316 315 315 315 314 314 314 314 314 314 314 315 315 316 317 317 318 318 319 319 319 319 319 320 319 319 319 319 320 321 321 321 321 320 321 321 321 320 318 318 318 318 320 322 322 320 319 317 316 319
319 319 320 320 320 320 320 320 320 319 318 318 317 316 316 316 315 315 315 314 314 315 314 314 314 314 315 316 316 316 317 317 317 317 317 316 317 317 317 316 316 317 318 318 317 317 317 318 317 316 315 315 315 315 315 315 316 318 318 319 317 315 316
320 320 321 320 320 320 319 320 320 319 318 318 316 317 317 316 316 316 315 315 315 315 315 314 314 315 315 315 315 316 316 316 316 316 315 315 314 314 314 314 314 315 316 315 315 316 316 316 316 316 315 315 315 315 313 313 312 313 315 317 317 317 318
320 320 321 320 320 320 319 319 319 319 318 318 317 317 316 316 317 316 315 314 314 315 315 315 315 315 315 314 315 316 315 315 316 315 315 314 314 313 313 313 312 313 313 313 314 314 314 314 315 316 315 314 314 314 313 313 312 312 314 315 316 317 318
321 320 319 320 320 320 320 319 318 319 319 318 318 317 316 317 318 317 315 314 314 314 314 314 314 314 314 314 314 315 315 315 315 314 314 313 314 313 312 312 312 312 312 311 312 312 312 313 313 314 314 314 314 314 314 315 313 313 314 315 317 318 318
321 320 319 320 320 320 320 320 318 318 319 319 319 317 316 318 318 316 316 315 314 314 314 314 314 314 314 314 314 315 315 315 315 315 314 314 314 314 312 312 312 313 311 311 311 312 312 312 313 313 313 314 313 313 314 314 314 315 315 314 316 317 318
322 321 320 320 321 321 320 320 318 318 319 319 320 318 317 318 318 317 317 316 315 314 314 314 314 314 314 314 315 315 315 315 315 314 314 313 313 313 312 311 311 312 311 310 311 312 312 312 312 312 313 313 313 313 313 313 314 315 315 315 315 315 316
324 323 321 320 322 322 322 320 319 318 318 319 321 319 317 318 318 318 318 317 316 315 315 314 314 313 314 314 314 314 314 314 314 314 313 313 312 311 311 311 310 311 311 310 311 312 312 312 312 312 313 313 313 314 314 314 314 314 315 316 315 315 315
325 325 323 322 323 323 322 321 320 319 319 319 321 320 318 318 318 318 318 318 317 316 315 315 314 314 314 314 314 313 314 314 314 313 312 312 312 312 311 311 310 310 310 309 310 312 312 312 311 311 311 311 312 313 314 314 314 314 314 315 316 315 315
325 324 323 323 324 323 322 320 320 320 320 319 321 320 319 319 318 318 318 318 317 316 316 315 315 315 315 314 314 313 313 313 313 313 312 311 311 311 311 311 310 310 309 308 309 310 310 310 311 311 310 310 311 312 312 313 313 313 313 314 314 314 314
324 322 321 322 324 324 322 320 320 321 320 320 321 320 319 319 318 318 318 318 318 317 316 316 315 315 315 314 314 313 312 312 312 312 312 311 311 310 310 309 309 310 309 309 309 309 309 310 310 310 310 311 311 311 311 312 312 312 312 312 313 313 313
325 323 321 322 324 324 322 321 321 320 319 320 321 321 319 319 319 318 318 318 318 317 316 316 315 315 315 314 314 313 312 312 311 311 311 311 311 310 310 309 309 310 309 308 309 308 308 309 309 308 309 310 310 310 310 310 310 310 310 310 310 311 311
323 323 321 321 322 323 322 322 322 321 320 319 320 320 319 319 319 318 318 318 318 317 317 316 315 315 315 315 314 313 313 312 311 311 311 310 310 310 310 310 309 309 309 308 309 309 308 308 308 308 308 308 308 309 309 310 310 310 311 310 310 310 310
323 323 322 321 321 321 322 323 322 322 322 321 320 319 318 319 319 319 318 318 318 317 317 316 315 314 314 315 314 313 313 312 312 312 311 310 309 309 309 309 309 309 308 308 308 308 308 308 308 308 307 307 307 307 308 309 310 310 310 311 310 310 310
325 324 322 322 323 323 323 323 322 322 323 322 321 320 318 318 319 319 319 318 318 318 317 317 316 315 314 314 314 313 313 312 312 312 311 310 309 308 308 308 308 307 307 307 308 308 308 307 307 307 306 306 306 306 306 307 307 308 308 309 309 309 309
324 323 322 321 322 324 324 324 323 323 323 322 321 321 320 319 319 320 319 319 318 318 317 317 316 315 315 314 314 313 313 312 312 311 310 310 308 308 307 307 306 306 306 306 306 307 307 307 307 306 306 306 306 306 306 307 306 307 307 307 307 308 308
324 324 324 323 323 324 325 324 324 323 322 322 322 321 320 320 319 319 319 319 319 319 318 317 316 315 315 314 314 313 313 312 311 311 309 308 307 306 306 305 305 305 304 305 305 305 305 305 305 304 304 305 305 305 306 306 306 306 306 306 307 307 307
317 317 320 323 324 324 325 324 324 324 322 322 322 321 320 319 320 319 319 319 319 319 318 317 316 315 315 314 314 313 312 312 311 310 308 307 305 305 304 304 304 303 303 304 303 302 301 300 300 300 301 301 302 303 304 304 305 306 306 306 306 306 307
313 314 316 320 322 323 324 324 324 324 323 323 323 322 321 320 320 320 320 320 319 319 318 317 316 315 315 314 313 313 312 311 310 309 307 306 304 304 303 303 303 302 302 302 299 295 294 294 294 296 298 299 300 301 302 302 303 304 305 305 305 306 306
314 315 317 319 320 321 322 322 323 323 324 324 323 323 322 321 320 320 321 321 319 319 318 317 315 315 314 313 313 312 311 310 308 307 306 305 304 303 303 302 302 302 301 299 296 295 294 293 294 294 295 297 298 298 299 300 301 301 302 303 303 304 304
310 312 314 316 318 319 320 320 321 321 322 323 323 322 322 321 321 321 321 320 319 318 317 316 315 313 312 312 312 311 309 308 307 305 305 304 304 303 303 302 302 302 301 299 299 299 298 296 296 296 296 296 296 296 296 297 298 299 300 301 301 302 303
308 309 310 312 315 316 318 318 319 320 320 320 321 322 322 322 321 321 320 319 318 317 316 314 313 312 311 310 309 308 308 306 306 304 304 303 303 303 302 302 302 302 301 301 300 300 299 298 298 298 297 296 296 295 295 296 297 298 298 299 300 301 301
307 308 309 310 312 314 316 316 317 318 319 319 320 321 321 321 321 320 319 318 316 315 314 313 312 311 310 309 307 306 307 306 305 304 303 303 302 302 302 302 301 301 301 301 300 299 299 299 300 299 298 297 297 297 297 297 297 297 297 298 299 299 300
308 308 308 308 310 312 314 314 316 317 317 318 319 319 319 319 319 319 318 317 316 314 313 312 310 310 309 307 305 305 305 305 304 303 303 302 302 302 301 301 301 301 301 301 300 300 300 300 300 299 298 298 298 298 298 298 298 298 297 297 298 298 299
308 308 308 308 309 310 312 314 315 316 316 316 317 317 317 318 318 318 317 317 315 312 310 310 310 308 307 305 303 303 304 304 303 302 302 302 301 301 301 301 301 300 301 300 300 300 300 299 299 298 297 297 297 297 298 298 299 299 298 298 298 299 299
308 308 308 308 309 309 310 313 314 315 315 315 316 316 317 317 318 317 317 317 314 311 309 310 308 306 304 302 300 300 302 303 302 302 302 302 301 301 301 301 301 301 301 301 301 300 298 298 297 297 296 296 297 297 298 298 298 298 298 298 298 298 298
307 307 307 307 308 309 309 311 313 314 315 315 315 315 315 316 317 317 317 316 313 310 308 307 305 303 302 299 298 299 301 302 302 302 302 302 302 301 301 301 301 300 300 300 300 299 298 297 297 296 296 296 297 297 297 297 297 297 297 297 297 297 297
307 307 307 307 307 308 309 310 311 313 314 314 314 314 315 315 316 316 316 315 312 308 306 304 303 301 299 297 297 299 301 301 301 302 302 301 301 301 301 301 300 299 300 299 299 298 297 297 296 296 296 296 296 297 297 297 297 297 297 297 297 296 296
308 308 308 308 307 308 308 309 311 312 313 313 313 313 314 314 315 315 315 312 309 306 305 303 301 299 297 295 297 299 300 300 300 301 300 300 301 301 300 300 300 299 299 298 298 297 297 296 295 295 296 296 296 296 296 296 296 295 296 296 296 296 296
308 309 309 309 308 309 309 309 310 312 312 312 313 313 313 314 314 314 312 309 306 304 303 301 299 297 295 295 296 297 297 298 299 300 300 300 300 300 300 299 299 298 297 297 296 296 295 294 294 294 294 295 295 295 295 295 294 294 293 294 294 294 294
307 308 309 309 309 309 309 309 310 311 312 311 312 312 313 313 313 311 309 307 305 304 302 299 297 295 295 295 295 295 295 298 299 299 299 298 298 298 297 297 297 297 296 296 295 294 293 293 292 291 292 293 293 293 293 292 292 292 292 292 292 292 293
307 308 309 309 309 309 309 310 311 311 311 312 312 312 312 312 310 308 306 305 304 302 300 297 296 295 294 295 295 295 296 298 298 296 296 296 296 296 296 297 297 297 296 295 294 293 292 291 291 290 290 291 291 290 290 290 290 290 290 291 291 291 292
306 307 309 310 310 310 310 310 310 311 311 312 313 313 312 310 308 306 305 304 302 301 299 297 296 296 295 295 295 294 294 294 293 293 294 295 295 296 297 297 297 297 296 295 294 293 291 291 290 290 290 290 290 290 289 289 290 290 290 290 291 291 291
306 307 308 310 310 310 310 310 310 311 312 312 312 310 308 307 306 304 303 303 302 301 299 297 296 295 294 293 292 292 291 291 291 292 294 295 296 296 297 297 296 295 294 293 292 291 291 290 290 291 290 290 290 290 290 290 290 290 291 291 291 291 291

ECMWFFLT1_925_thetae_012.txt.gz
Theta_e
322 322 321 320 320 322 323 323 323 323 322 322 322 321 321 320 320 320 319 317 318 319 320 321 322 322 323 323 323 323 323 325 326 326 326 326 326 326 327 328 328 328 327 327 329 329 332 333 330 328 329 327 325 325 325 325 326 325 323 323 322 323 326
322 321 321 320 321 322 323 322 322 322 322 321 319 317 317 317 316 316 316 315 314 315 316 318 319 320 321 322 322 322 322 322 323 323 324 324 324 325 325 326 328 329 327 327 327 326 327 330 329 328 328 328 327 327 323 320 320 319 318 320 321 321 324
321 320 320 320 321 322 322 322 321 321 321 319 316 315 315 315 315 315 314 314 314 314 315 315 316 317 318 319 320 320 320 319 319 320 320 320 320 320 320 321 322 325 326 325 325 324 324 326 327 326 324 324 326 326 321 317 316 318 319 319 319 317 317
320 320 320 320 321 322 321 321 320 320 320 317 315 316 316 315 314 314 314 314 315 315 315 315 316 317 317 318 317 318 318 318 317 316 317 319 317 316 317 316 317 318 319 319 319 319 319 320 322 321 317 315 317 317 317 317 316 317 318 316 313 313 313
319 320 320 320 321 321 321 320 320 320 319 317 317 317 316 315 314 315 315 315 315 315 315 315 315 316 316 317 317 317 316 316 315 312 312 315 315 315 315 314 315 316 314 314 315 316 316 316 317 318 315 314 315 315 314 315 314 313 313 312 312 314 315
319 320 320 320 321 320 320 320 319 319 318 317 317 317 317 316 315 315 316 315 314 315 315 315 315 315 315 316 316 316 315 315 314 312 310 311 312 314 314 313 314 314 313 313 314 314 315 315 315 317 316 315 315 315 314 313 313 312 312 312 313 315 316
319 321 321 320 321 320 320 320 320 319 318 317 317 317 317 317 317 316 316 315 314 315 315 315 315 315 315 316 316 316 316 315 313 312 312 312 312 311 312 313 313 312 312 312 312 313 313 314 314 315 315 315 315 314 314 314 314 313 313 313 314 314 316
320 321 322 321 321 321 320 320 320 319 318 317 317 317 316 317 318 316 315 315 315 314 314 314 314 315 314 314 315 315 314 313 312 312 311 312 312 309 310 314 312 310 309 309 311 312 312 312 313 313 313 315 316 315 315 314 314 314 315 314 314 314 315
320 321 322 321 321 321 320 320 320 320 319 318 318 316 315 318 318 316 315 315 315 314 314 314 314 314 314 313 313 313 314 315 316 314 312 313 313 310 311 312 313 311 308 309 312 312 311 312 312 313 313 314 316 316 316 316 316 316 315 314 315 314 315
321 321 321 321 321 321 320 320 319 320 320 319 319 316 316 318 318 316 316 315 314 314 315 315 314 314 315 314 314 314 315 314 313 312 313 314 312 311 311 311 312 312 309 310 312 311 311 312 311 312 313 313 314 316 316 317 317 316 314 314 315 315 315
321 320 320 321 321 320 321 320 318 320 320 319 319 317 316 319 318 316 317 315 315 315 315 315 314 314 315 315 315 315 314 313 312 313 313 312 311 310 310 310 311 312 310 310 311 311 312 312 311 311 312 311 312 314 315 316 316 315 313 314 314 314 314
323 321 320 321 321 320 321 321 319 319 320 320 320 318 316 319 319 317 318 317 316 316 315 315 314 314 315 314 315 314 313 313 314 314 312 311 311 311 311 310 311 311 309 308 309 312 312 311 311 311 310 310 310 311 312 314 316 315 313 313 313 312 313
323 323 322 322 323 322 321 322 320 319 319 320 321 320 317 319 319 318 318 318 317 316 316 315 314 314 315 314 314 313 313 314 315 313 312 311 311 312 311 311 311 310 308 307 309 310 309 310 311 311 310 311 310 310 310 311 314 314 312 312 312 311 312
324 324 323 323 323 323 322 322 321 320 320 319 321 321 318 318 319 319 319 319 318 317 316 315 314 315 315 314 314 314 313 313 314 313 313 312 311 311 310 310 310 311 309 308 308 308 308 309 309 310 311 311 311 311 311 311 312 312 310 310 310 310 310
324 323 323 322 323 323 322 322 321 321 321 320 320 322 320 319 319 319 319 319 319 317 316 316 315 315 316 315 314 315 313 312 313 313 312 311 311 311 310 309 310 311 310 308 307 308 308 308 308 309 309 309 309 309 309 309 310 310 310 310 310 310 310
325 325 324 323 323 322 322 321 321 321 322 320 320 321 322 321 320 319 319 319 319 318 317 317 316 316 316 315 315 315 313 312 313 312 312 311 312 312 311 310 310 310 310 309 309 309 308 308 308 309 308 308 308 307 307 308 309 310 311 311 311 311 310
323 325 325 325 325 324 323 322 322 322 322 321 321 321 322 321 320 320 319 319 319 319 318 317 316 316 316 315 316 315 314 313 312 312 312 311 311 311 311 311 311 310 310 309 309 309 308 309 309 308 307 307 307 307 307 307 307 308 309 309 309 309 309
323 325 326 325 324 323 322 322 322 321 321 321 319 320 321 321 321 320 320 319 319 319 318 317 317 316 316 315 316 315 314 313 313 312 312 312 311 310 310 310 309 309 309 308 308 308 308 308 308 307 307 307 306 307 306 306 307 307 307 307 307 307 307
325 326 325 323 323 323 322 321 321 320 320 320 319 319 319 321 321 320 320 320 319 319 319 318 317 316 316 315 316 315 314 313 313 312 312 312 311 310 309 309 308 308 308 307 307 307 307 307 307 306 306 306 306 305 305 305 306 306 306 307 307 307 306
326 326 324 323 322 322 322 321 320 319 320 320 320 320 321 321 321 320 320 319 319 320 319 319 318 317 316 316 315 315 314 313 313 313 312 312 310 310 309 308 308 307 307 306 306 306 306 306 305 304 303 302 302 302 302 303 303 304 304 305 305 306 306
322 324 324 324 323 322 321 320 319 319 320 320 320 321 321 321 321 320 320 320 320 320 319 319 318 318 316 316 315 315 315 314 313 313 312 311 310 309 308 307 306 306 306 305 305 305 305 302 300 298 297 298 299 300 301 301 301 302 302 303 304 304 305
316 318 318 318 320 321 321 321 322 322 322 321 321 321 321 320 321 320 320 320 320 320 320 320 319 318 317 316 316 315 315 314 313 313 311 310 309 307 307 306 305 305 304 304 304 304 302 298 295 293 293 295 297 298 299 298 299 299 299 300 301 302 302
316 317 317 316 318 319 319 321 323 323 323 323 322 322 322 321 321 320 320 321 321 320 319 319 319 318 317 317 316 315 315 314 313 312 311 309 307 306 305 305 304 304 303 303 303 302 300 298 296 294 294 294 295 296 297 297 297 297 298 299 299 300 301
312 313 314 316 317 318 319 320 321 322 322 323 323 323 323 323 322 321 321 321 321 319 318 318 318 318 318 317 316 315 314 314 313 312 310 308 307 306 305 304 304 304 303 302 301 301 300 299 298 297 297 297 297 297 297 296 296 297 297 298 299 299 299
308 309 310 311 312 315 316 317 318 319 319 320 321 322 323 323 323 322 322 322 320 319 318 318 318 318 317 316 315 315 313 313 311 310 308 307 306 306 305 304 304 304 303 303 302 301 301 300 299 299 299 299 299 298 297 297 297 297 297 298 298 299 299
308 308 309 309 309 311 312 314 315 316 317 318 319 320 320 321 322 322 322 322 321 319 318 318 318 318 317 315 314 313 312 311 309 307 307 306 305 305 304 304 304 304 303 303 302 302 301 301 300 300 300 299 299 298 298 298 298 297 297 297 298 298 299
309 309 308 309 308 309 309 311 313 314 316 316 317 318 319 319 320 321 322 321 320 320 319 318 317 316 315 314 313 312 310 309 307 306 306 305 305 304 304 303 303 303 302 302 302 302 301 301 301 301 301 300 299 299 298 298 298 298 298 298 298 298 298
308 309 308 308 308 308 309 309 311 313 315 315 315 316 317 318 319 319 320 320 319 318 318 318 317 315 313 313 311 310 308 307 306 306 305 304 304 304 303 303 302 302 302 302 301 301 301 301 301 301 300 299 299 298 298 297 297 297 298 298 298 298 298
308 308 308 308 308 308 308 309 310 311 313 315 315 315 315 316 317 318 319 319 318 317 316 316 315 314 312 311 310 308 307 306 305 305 304 303 303 303 302 302 302 302 302 301 302 301 301 301 300 300 299 298 298 297 297 297 297 297 298 298 298 298 298
308 308 308 308 308 307 308 308 309 310 311 313 314 315 315 315 315 316 317 318 318 316 315 315 314 312 312 311 310 307 306 305 304 304 303 303 303 303 302 302 302 302 302 301 302 301 301 300 299 299 298 298 298 297 297 297 297 297 297 297 297 297 297
308 308 308 308 307 307 307 307 308 308 309 311 313 314 314 314 314 315 316 317 317 316 315 313 312 311 310 310 308 305 304 303 303 303 303 303 303 303 302 302 302 302 301 301 301 300 299 299 298 298 298 298 297 297 297 297 297 297 297 296 296 296 296
308 308 308 308 308 308 308 308 308 308 308 310 312 313 313 313 313 313 314 316 316 315 314 311 308 308 308 306 304 302 301 302 302 302 302 302 302 302 302 302 301 301 301 300 300 299 298 297 297 296 296 296 296 296 296 296 296 296 295 295 295 295 294
307 307 308 308 309 309 309 308 308 308 308 309 311 312 312 312 313 313 313 314 313 313 312 309 306 306 304 302 300 301 301 300 300 300 301 301 301 301 301 300 300 299 299 299 298 297 296 296 295 294 294 294 294 294 294 294 294 293 293 292 292 292 292
306 307 307 308 309 309 309 309 308 308 308 309 310 311 311 313 313 311 310 310 309 310 310 307 304 301 299 298 298 299 299 298 299 299 299 299 299 298 298 298 297 297 297 297 296 296 295 295 294 293 293 292 292 292 292 291 291 291 290 291 291 291 291
306 306 307 307 308 309 309 309 308 308 308 309 310 311 312 313 312 309 306 306 306 306 306 304 301 298 296 296 296 296 296 297 299 299 298 296 296 296 296 297 297 297 296 296 295 295 294 293 292 292 291 291 291 291 291 290 290 290 290 290 291 291 291
305 306 306 306 307 308 309 310 309 309 309 309 311 312 313 311 309 306 304 303 302 302 302 300 298 296 295 295 296 296 295 295 296 295 294 294 295 296 296 297 297 296 296 295 294 294 293 292 292 291 291 291 291 291 291 290 290 290 290 291 291 291 291
305 305 306 306 306 307 309 310 310 310 309 310 312 313 312 310 307 305 303 301 300 300 298 297 296 296 296 296 295 294 294 292 292 292 292 294 295 296 296 297 296 296 295 294 293 293 292 292 292 292 291 291 291 291 291 291 291 291 291 291 291 291 291

ECMWFFLT1_925_thetae_015.txt.gz
Theta_e
319 321 322 321 321 321 321 322 321 321 321 321 321 320 321 320 317 317 320 321 321 322 322 323 322 323 323 324 325 325 326 326 326 326 327 327 326 326 327 327 328 328 327 327 327 329 331 332 330 328 327 327 327 325 325 324 322 322 320 319 320 320 322
320 321 321 321 321 321 322 323 322 321 319 318 318 318 318 319 315 314 317 317 318 318 319 320 320 320 321 322 323 324 324 325 325 325 325 324 325 325 325 327 327 328 327 327 327 326 327 330 331 329 325 323 323 324 325 323 319 317 317 317 318 318 318
320 320 320 322 322 323 322 322 320 318 316 315 315 315 315 316 314 314 315 314 314 313 314 315 314 317 319 319 320 321 322 321 322 323 320 319 320 320 322 325 326 327 326 324 323 323 323 324 327 325 319 316 316 318 322 321 318 317 316 317 318 317 314
320 319 321 322 322 322 320 319 319 316 315 314 314 314 314 314 313 314 315 315 314 315 315 315 314 315 317 317 316 317 318 319 319 318 317 316 316 316 317 319 320 319 319 317 316 317 317 317 321 320 315 313 314 314 315 316 315 315 314 314 315 315 313
320 319 320 321 321 321 319 319 319 317 315 315 314 314 313 313 313 313 314 314 315 315 316 317 316 317 317 315 313 310 310 314 317 316 315 315 315 315 315 315 313 313 313 314 314 314 315 315 317 317 313 313 314 313 312 313 313 313 313 312 313 313 314
319 319 319 321 321 320 319 319 319 317 315 315 314 312 312 314 314 313 314 315 314 315 314 314 314 314 313 311 309 306 305 308 311 312 312 313 313 313 314 313 312 312 312 312 313 313 314 314 314 313 313 313 314 314 313 313 313 313 313 314 314 315 315
319 318 319 321 320 319 320 319 318 317 315 315 314 312 313 315 315 313 312 312 314 314 315 314 313 311 310 308 306 304 304 304 304 305 306 309 312 312 312 311 310 311 311 311 312 312 313 313 313 313 313 313 314 313 312 313 314 314 314 314 315 315 315
319 318 319 320 320 319 320 319 318 317 315 315 315 313 315 316 315 313 309 309 311 314 316 316 314 313 310 307 305 304 304 304 303 303 303 307 311 312 311 310 308 308 310 311 311 311 311 312 312 313 313 315 316 315 313 313 313 313 313 313 314 314 314
319 318 319 320 319 320 320 319 318 317 316 316 315 314 316 317 315 313 309 308 308 311 314 315 315 313 309 306 307 307 308 308 306 304 305 307 311 312 312 312 309 307 309 311 311 309 309 311 312 313 313 313 316 317 317 317 316 313 312 312 313 313 312
320 319 319 320 319 320 320 319 319 318 317 317 316 314 316 318 315 311 310 309 307 309 312 313 313 312 309 307 309 312 313 313 310 307 306 307 309 311 312 312 312 309 307 309 310 309 309 310 311 311 311 311 312 315 317 320 318 314 311 312 312 312 311
321 320 319 320 320 320 320 320 320 319 318 318 317 314 314 317 316 311 310 309 308 309 313 314 312 312 311 310 311 313 313 313 312 311 310 308 307 309 310 311 312 310 308 308 310 311 310 310 310 310 310 309 310 311 313 316 317 315 311 312 311 311 310
321 321 321 320 321 320 320 320 320 319 319 318 318 316 314 316 316 313 312 311 309 309 314 315 313 313 314 312 311 312 310 309 311 311 311 309 306 308 309 310 311 309 307 308 310 311 311 310 309 309 309 309 309 310 309 311 314 313 311 311 310 310 309
320 321 321 320 320 321 320 319 319 319 319 319 319 318 315 315 315 314 314 314 312 311 313 315 313 313 315 313 312 313 309 310 313 310 309 309 308 308 310 310 310 308 306 307 309 310 309 309 309 309 310 310 310 310 310 310 311 311 310 309 309 308 308
322 322 322 321 320 321 321 319 318 319 319 319 319 319 318 316 316 315 314 315 315 313 312 314 313 313 314 314 313 313 311 313 315 312 309 311 310 309 310 310 311 309 308 305 305 307 308 308 308 309 309 310 309 309 309 309 309 309 308 308 308 309 309
322 322 323 322 320 321 321 320 318 319 319 319 319 319 319 319 317 316 315 315 316 316 314 314 313 313 313 314 314 313 312 313 315 313 311 312 311 309 309 309 310 310 310 306 304 307 308 307 307 308 308 308 308 307 307 307 308 308 308 308 308 308 308
322 322 323 323 322 322 322 321 320 320 320 320 320 320 320 320 319 318 317 316 317 317 316 315 314 313 313 314 314 313 313 313 313 313 313 312 311 310 309 309 309 310 310 308 306 307 308 308 308 308 308 307 307 306 306 306 307 307 307 307 307 307 307
322 323 323 322 322 322 322 321 321 321 321 321 321 321 320 320 320 319 318 318 318 318 318 317 316 315 313 314 315 314 314 313 312 312 313 312 311 311 311 310 309 310 310 309 307 307 308 308 308 308 307 306 306 306 306 305 305 306 306 305 305 306 306
322 323 322 320 321 323 322 321 321 321 321 321 321 322 322 321 320 320 319 319 318 319 319 318 318 316 315 314 315 315 315 314 312 312 313 312 310 311 311 311 310 310 310 309 308 307 308 309 308 307 306 306 305 305 305 304 304 304 304 303 304 304 304
321 321 320 319 321 323 323 321 321 322 321 321 321 321 321 321 320 321 320 319 319 319 319 319 319 318 317 316 315 315 315 315 313 312 312 312 311 311 311 310 310 309 309 309 308 307 308 308 307 306 305 305 304 303 302 302 302 302 302 302 302 302 302
319 320 322 322 322 324 323 321 320 320 321 321 320 320 320 320 320 320 320 320 319 319 319 319 319 318 318 317 316 315 315 316 314 312 312 312 312 311 310 309 309 308 308 308 307 307 307 306 306 305 303 301 300 299 299 299 300 300 300 299 299 299 299
321 322 324 324 323 323 323 321 321 320 321 321 320 320 319 319 319 319 319 319 319 319 319 319 319 318 318 317 316 316 315 315 314 313 312 312 312 311 310 310 309 308 307 307 306 306 305 306 305 302 299 297 295 295 297 298 298 297 297 296 296 296 296
324 324 324 324 323 323 322 322 322 321 320 319 319 319 319 318 319 319 319 319 319 319 319 318 319 319 318 317 317 316 316 315 315 313 313 312 312 311 310 309 308 307 306 306 305 305 305 305 303 300 297 295 293 293 295 295 296 296 296 296 296 296 297
320 320 320 320 320 320 320 320 320 320 320 320 320 320 320 319 319 319 320 320 320 320 319 319 319 319 319 318 317 316 316 315 315 314 313 312 312 311 309 308 307 306 305 304 304 304 304 303 302 300 298 297 295 296 296 296 297 297 297 296 296 297 297
316 316 316 316 317 317 318 319 318 320 321 322 322 322 322 322 321 321 321 321 321 321 320 320 320 320 319 318 317 317 316 316 315 314 313 313 311 310 309 307 306 305 304 304 304 303 302 302 301 300 299 298 298 298 298 298 298 297 297 297 297 297 297
313 314 314 315 315 316 317 318 319 320 322 322 322 322 322 322 322 321 321 322 322 321 321 320 320 320 320 318 318 317 316 315 315 314 313 312 311 310 308 307 306 305 304 304 303 303 303 302 302 301 300 299 299 299 299 298 298 297 297 297 297 297 297
309 309 310 310 310 311 312 314 315 316 318 319 320 321 321 321 321 321 321 322 322 322 321 321 321 320 320 318 318 318 316 315 315 314 313 312 311 309 308 306 305 304 304 304 303 303 303 302 302 301 300 300 300 299 299 298 298 298 298 297 297 297 297
308 308 308 308 308 308 309 309 310 311 313 316 317 318 318 318 319 319 319 320 321 322 322 321 321 321 319 318 318 317 316 315 314 313 311 310 309 307 306 305 305 304 304 304 303 303 303 302 302 301 301 301 300 300 299 298 298 298 297 297 297 297 297
308 308 308 308 308 308 308 308 309 309 311 313 314 314 315 316 317 317 317 318 319 320 321 320 320 320 318 317 317 317 315 314 312 310 308 308 307 306 305 304 304 303 303 303 302 302 302 301 301 301 301 301 300 300 299 298 298 297 297 297 297 297 297
308 308 308 307 307 307 307 307 308 308 309 310 312 313 314 314 315 317 318 318 317 318 319 318 318 318 317 316 315 314 313 312 310 309 307 306 305 305 304 304 303 303 303 302 302 301 301 301 301 301 300 300 299 299 298 298 298 297 297 297 297 297 297
308 308 307 307 307 307 307 307 307 308 308 308 309 311 313 313 314 314 316 318 318 318 317 318 318 316 314 313 313 311 310 309 308 307 305 304 304 304 304 304 303 303 302 302 302 302 302 301 301 300 300 299 298 298 298 298 297 297 297 297 297 297 296
308 308 307 307 307 307 307 307 306 306 307 308 308 309 311 312 313 313 314 316 317 318 317 317 317 314 312 311 311 308 307 306 306 305 305 304 303 303 303 303 303 302 302 302 302 301 301 301 299 298 298 297 297 297 297 296 296 296 296 296 296 296 295
307 307 307 307 307 307 307 307 307 307 307 307 307 307 309 310 311 312 312 313 315 317 318 317 314 312 310 309 309 307 306 305 304 304 303 303 303 303 302 302 302 302 302 301 301 300 299 298 297 297 296 295 295 295 295 294 294 294 293 293 293 293 292
306 306 307 307 306 307 308 308 308 307 306 306 307 307 308 310 311 312 312 312 314 316 317 315 311 309 308 307 307 306 304 303 302 301 301 301 300 299 299 299 299 299 299 299 298 297 296 296 296 295 295 294 293 293 293 292 292 291 291 291 291 291 290
305 305 306 307 307 307 308 308 309 308 308 308 307 307 308 310 312 312 312 313 313 314 315 313 309 306 306 306 305 304 302 301 300 300 300 299 298 297 296 297 296 297 297 296 296 296 295 295 294 294 293 293 292 292 291 291 291 291 290 290 290 291 291
305 305 305 306 306 307 307 308 309 309 308 307 307 308 310 310 310 310 311 312 313 313 312 310 307 304 304 305 304 302 301 301 300 299 300 299 297 296 296 296 296 296 296 296 296 295 294 294 293 293 292 292 292 291 291 291 291 291 291 291 291 291 291
305 305 305 305 306 306 307 307 307 308 308 308 308 309 310 310 309 308 307 308 310 309 307 305 304 303 302 302 302 300 299 298 298 298 298 297 295 295 296 296 296 296 296 296 295 294 293 293 293 292 292 292 291 292 291 292 291 292 291 291 291 291 291
305 305 305 305 305 305 306 306 306 307 308 309 309 310 310 308 307 305 304 303 303 303 302 301 300 300 300 300 299 298 296 295 295 294 294 293 293 294 295 296 296 296 296 295 294 293 293 293 292 292 292 292 292 292 291 291 291 291 292 291 291 291 291

ECMWFFLT1_925_thetae_018.txt.gz
Theta_e
321 322 322 322 322 322 321 321 321 320 320 320 320 320 321 323 322 322 322 323 326 326 324 324 325 325 325 326 326 327 327 326 327 327 327 327 328 328 328 328 327 327 326 327 327 328 331 331 328 326 323 323 325 325 325 326 324 323 321 319 318 319 319
321 322 322 322 321 321 320 320 320 320 320 320 320 318 319 322 322 322 322 323 325 324 323 324 324 324 324 325 325 325 325 326 326 327 327 327 327 327 327 327 327 327 326 326 326 325 327 329 330 327 319 315 319 321 323 324 323 322 319 318 318 318 317
322 322 322 321 320 320 320 320 320 320 319 319 318 316 316 319 319 319 319 320 322 322 322 322 322 323 323 323 324 324 325 325 324 324 323 324 325 326 327 327 327 326 323 320 320 322 323 322 324 323 315 313 315 315 315 316 316 317 317 317 319 319 317
322 321 321 320 321 321 320 319 318 317 316 316 316 316 314 315 315 314 313 312 314 316 316 317 318 319 321 322 322 322 323 322 319 318 318 319 320 322 323 323 322 320 317 315 314 315 317 316 319 318 313 312 314 313 312 313 313 314 314 315 317 318 318
321 320 321 321 321 321 320 317 315 314 314 314 314 314 314 314 314 313 311 311 312 311 310 310 313 314 316 319 321 321 320 319 317 317 316 316 317 317 316 316 316 315 314 314 314 313 313 314 316 314 311 312 314 312 311 313 313 314 314 313 314 314 316
320 319 321 323 322 321 319 316 314 313 313 313 313 313 313 314 314 312 312 313 313 311 308 307 307 308 309 312 316 318 318 317 316 316 316 315 315 315 314 312 312 312 313 313 313 313 314 313 313 312 311 313 313 312 312 312 313 313 313 313 313 312 313
320 319 320 322 322 320 317 315 314 312 311 311 311 311 312 312 312 312 314 314 313 310 308 306 305 305 305 305 308 310 313 314 313 313 314 313 313 312 312 311 311 311 311 312 312 312 313 313 312 312 313 313 313 311 311 312 313 313 312 312 313 312 311
319 318 320 322 321 319 316 315 314 311 309 308 308 310 311 311 311 313 314 314 313 312 310 306 305 305 304 303 303 304 306 308 310 312 312 312 311 309 308 308 309 310 310 309 309 309 310 312 312 312 312 314 316 314 312 312 312 312 312 311 312 312 310
319 318 320 321 320 317 316 316 314 311 309 308 309 311 311 311 311 312 314 314 314 315 313 309 306 305 304 303 303 303 304 304 306 310 312 311 310 309 308 307 307 308 308 307 305 305 308 311 312 311 311 312 315 317 315 316 315 312 311 310 310 310 308
319 318 319 321 320 317 317 317 314 312 311 309 310 312 312 311 308 309 312 314 315 315 315 314 310 305 304 304 305 304 304 304 304 307 310 311 311 310 311 311 308 307 309 308 307 307 308 309 310 310 310 309 311 315 317 319 318 313 311 310 309 309 307
319 317 318 320 320 318 318 318 315 314 313 311 310 312 312 311 308 306 307 311 314 314 314 314 311 307 305 305 306 306 305 304 303 304 306 308 310 311 311 311 309 307 309 310 310 309 309 309 309 309 309 309 309 311 312 315 316 313 310 310 309 308 307
319 317 318 319 319 319 319 318 317 315 315 313 311 311 312 311 308 306 305 306 309 312 312 312 311 309 307 307 307 307 309 308 305 305 306 306 308 310 310 309 308 307 307 310 310 310 309 309 309 309 309 310 309 310 310 310 312 311 309 308 308 307 307
320 319 318 319 319 319 319 319 318 317 316 315 313 311 312 311 309 307 305 305 306 307 309 311 312 311 310 310 308 308 310 309 307 306 307 307 307 309 309 309 308 307 307 308 309 309 308 308 309 309 310 310 309 309 309 309 310 309 308 307 307 307 307
320 319 319 319 319 319 320 320 319 318 317 317 315 313 312 311 309 308 307 306 306 306 307 310 311 310 311 312 311 309 309 309 309 309 308 308 308 308 309 309 310 309 307 305 306 308 308 308 308 308 309 309 308 307 307 307 307 307 307 307 307 306 306
320 320 320 320 320 320 320 320 320 319 318 318 317 316 314 313 312 310 309 308 308 307 307 307 308 309 310 312 312 311 311 310 311 312 311 310 309 308 309 309 309 310 309 306 304 306 308 307 307 308 308 307 307 306 306 306 306 306 306 306 306 305 305
320 320 321 320 320 321 320 320 319 319 318 319 318 318 317 316 315 314 312 312 311 311 310 309 308 309 309 310 311 312 312 310 311 312 313 312 311 309 308 308 309 309 309 308 305 305 307 307 308 308 307 307 306 306 305 305 304 304 304 304 304 304 303
320 320 321 322 321 321 321 320 319 320 319 319 319 318 318 317 317 316 315 315 314 314 313 312 311 310 310 310 310 311 312 311 310 311 312 313 312 311 309 309 309 309 309 309 307 305 306 308 308 308 308 307 306 305 304 304 303 303 302 302 302 302 301
320 320 321 322 322 321 321 320 320 320 319 319 319 319 318 318 318 318 317 317 317 316 316 314 314 313 313 312 311 311 311 311 312 312 312 312 313 312 311 311 310 310 309 309 309 307 306 307 308 308 307 306 304 303 302 301 300 300 300 299 299 298 296
321 321 320 322 322 321 321 321 321 321 320 320 319 318 319 318 318 318 318 318 319 318 317 316 316 316 316 315 313 312 312 312 312 313 312 312 312 312 312 311 311 310 309 309 309 308 307 306 307 307 306 305 302 299 297 297 297 297 297 296 295 295 295
321 322 322 322 321 321 321 322 322 321 321 321 320 320 320 319 319 319 318 319 319 319 318 318 318 318 317 317 316 315 314 313 313 313 314 312 312 312 311 310 311 310 309 309 308 307 306 306 306 306 305 303 300 298 295 294 295 295 295 295 295 296 296
321 322 323 322 321 320 320 321 322 322 321 320 320 321 321 321 320 319 319 319 319 319 319 318 318 319 319 318 317 316 315 315 314 314 314 313 312 312 311 311 310 310 309 308 307 307 307 305 305 305 304 302 300 298 295 293 294 295 296 296 296 296 296
320 320 321 320 320 320 319 321 323 322 321 320 320 320 320 320 320 319 320 320 320 319 319 319 318 319 319 318 318 317 316 316 315 315 315 314 313 312 312 311 310 309 309 308 307 306 306 304 304 304 303 302 300 298 296 295 296 297 297 297 296 296 296
320 320 321 320 321 321 321 322 322 322 322 321 321 320 320 320 320 320 319 320 319 320 319 319 319 319 318 318 318 318 317 316 316 315 315 315 313 312 312 311 310 309 309 308 307 306 305 304 304 303 302 301 300 298 298 298 298 298 298 297 297 297 297
323 323 324 323 322 322 321 321 321 321 320 320 319 319 320 320 321 321 320 320 320 320 320 320 320 320 319 319 318 318 318 317 316 316 315 315 313 312 312 311 310 310 309 308 306 305 304 303 303 302 302 302 300 299 299 299 299 298 298 297 297 297 297
322 322 322 320 319 318 318 318 319 318 318 319 319 320 320 321 322 322 322 322 321 321 321 321 321 320 320 319 319 319 318 317 317 316 315 315 314 313 312 311 310 310 309 308 306 305 304 303 303 302 302 302 301 300 300 300 299 299 298 297 297 297 297
316 316 317 317 316 315 316 317 318 318 318 319 319 320 320 320 320 321 321 321 321 321 320 320 321 321 321 320 319 319 319 318 316 316 315 315 314 313 312 310 309 308 308 307 305 304 303 303 303 303 302 301 301 301 300 300 300 299 298 298 297 297 297
313 312 314 313 311 311 311 313 314 314 315 316 317 319 319 319 318 319 319 319 318 318 317 317 318 320 321 321 320 319 319 318 316 316 315 314 313 312 310 309 309 308 307 306 304 304 304 303 303 302 302 301 301 301 301 300 300 299 298 298 297 297 297
310 310 310 309 308 308 308 309 309 309 311 312 314 315 316 316 316 315 316 317 317 316 315 315 316 317 318 319 319 318 318 317 316 315 314 313 312 311 310 309 309 308 306 305 304 304 303 303 302 302 301 301 301 301 301 300 300 299 298 297 297 297 296
308 308 308 307 307 307 307 307 308 308 309 309 310 311 312 313 314 313 313 314 316 316 315 315 315 316 317 317 317 318 317 316 314 313 313 312 310 309 309 308 306 305 305 304 303 302 302 302 301 301 301 301 301 300 300 299 298 298 297 297 297 296 296
307 307 307 306 306 306 307 307 307 307 307 307 308 309 309 310 311 312 313 313 314 315 315 316 316 316 317 317 316 316 315 313 312 311 310 309 308 306 306 305 304 303 303 303 302 302 301 301 301 300 300 300 299 299 298 298 297 297 297 296 296 296 295
308 307 307 306 306 306 306 306 306 306 305 305 306 306 307 307 308 310 311 312 312 313 314 316 316 316 317 316 315 314 313 311 309 308 307 305 305 304 304 303 303 303 302 302 301 301 301 300 300 300 299 298 298 297 297 296 295 295 295 295 294 294 293
307 307 307 306 306 307 307 306 306 306 305 305 305 305 305 306 306 307 309 310 311 311 312 315 316 316 316 315 314 313 311 309 308 306 305 304 303 303 303 303 303 302 302 302 301 300 299 299 299 298 297 297 296 295 295 294 293 293 293 292 292 292 292
306 306 307 307 307 306 306 306 306 306 307 306 305 305 305 306 306 307 308 309 311 311 312 314 315 314 313 312 312 311 310 308 307 305 304 304 303 302 302 302 302 301 301 300 299 298 298 297 297 297 296 295 294 294 293 292 292 292 291 291 292 291 292
306 305 305 305 306 305 306 306 307 307 308 307 307 307 307 307 307 307 309 310 311 312 313 314 313 311 310 309 309 309 308 306 305 304 303 303 302 301 300 300 299 298 298 297 297 296 296 296 296 295 294 294 293 292 292 292 292 291 291 291 291 291 291
305 305 305 305 305 305 306 306 307 308 308 308 308 307 307 307 307 309 309 310 311 312 312 312 311 308 307 307 307 307 306 304 303 303 302 300 299 298 297 297 297 296 296 296 296 295 295 295 294 294 293 293 292 292 292 291 291 291 291 291 291 291 291
305 305 305 305 305 305 305 306 307 307 308 308 307 307 307 307 308 308 308 309 310 310 309 308 307 305 305 305 304 303 303 301 300 300 299 298 297 296 296 296 296 296 296 295 295 294 294 293 293 293 292 292 292 292 291 291 291 290 290 290 290 290 290
305 305 305 304 304 304 304 304 305 306 306 306 306 306 307 308 308 307 307 307 307 307 305 304 303 303 303 302 302 301 301 299 298 298 298 297 296 295 295 295 296 295 295 294 293 293 293 293 293 293 292 292 291 291 291 290 290 290 290 290 290 290 290

ECMWFFLT1_925_thetae_021.txt.gz
Theta_e
321 321 320 321 321 320 320 320 320 320 320 321 321 323 323 323 323 323 324 326 326 325 325 325 325 325 326 327 327 327 328 328 327 327 326 327 326 327 327 327 327 327 326 326 326 327 330 331 326 324 321 321 323 323 323 325 325 325 324 322 322 320 318
319 318 318 320 320 320 320 320 320 319 319 320 320 321 323 322 322 322 323 325 325 324 324 324 324 325 325 325 326 326 326 327 326 327 327 326 326 326 327 327 327 326 326 326 326 324 326 329 329 325 318 315 316 315 315 319 319 319 318 320 321 320 318
316 316 318 320 321 320 320 319 319 319 318 318 319 320 322 322 321 321 322 324 324 323 323 323 323 323 323 324 324 325 325 326 325 326 326 326 326 326 327 327 327 325 322 321 323 324 322 320 322 320 313 313 315 313 312 313 313 314 315 316 317 317 316
316 317 319 321 321 320 320 319 319 319 317 317 318 320 321 321 321 320 321 322 323 322 322 322 321 321 322 322 323 323 323 323 323 323 323 325 326 326 326 326 325 321 317 315 317 320 318 315 316 316 311 311 313 312 312 313 312 312 313 312 312 312 312
316 317 319 320 320 320 319 319 319 318 317 316 316 317 317 317 317 316 316 315 318 319 318 317 317 319 320 321 322 322 320 318 318 318 320 321 323 323 322 320 319 316 314 314 313 314 314 312 313 313 310 311 312 311 312 312 312 312 311 311 310 310 310
317 317 317 317 318 319 319 319 318 316 315 315 315 315 314 314 314 313 310 308 309 311 310 309 311 315 318 319 320 319 317 316 316 316 316 316 316 316 315 314 314 313 313 313 312 312 313 312 310 311 311 312 311 311 312 312 312 312 311 311 310 308 307
318 318 317 315 317 319 319 319 318 314 313 314 315 315 314 314 314 311 308 307 307 306 306 306 307 310 315 318 319 318 316 315 315 315 314 313 313 312 311 311 311 311 311 311 312 312 312 311 310 310 311 311 311 310 310 312 312 311 310 311 310 307 306
316 319 317 315 318 320 319 318 315 312 311 313 314 314 314 314 312 309 308 307 307 306 305 305 304 305 308 312 314 314 313 312 313 313 312 312 311 309 309 309 309 308 307 307 308 310 311 311 311 310 310 311 313 312 310 310 311 311 310 309 309 307 305
316 319 318 317 319 320 319 317 313 311 311 312 313 314 313 313 310 308 308 308 306 305 304 304 304 303 304 305 306 306 307 309 311 312 312 310 307 305 305 306 306 305 306 306 306 309 310 310 310 309 309 310 314 316 314 314 313 310 309 308 307 307 306
319 319 317 317 320 320 319 316 313 311 311 311 312 313 313 312 310 309 308 308 307 306 305 304 304 304 304 303 303 303 303 306 308 310 310 308 305 305 305 305 305 306 307 308 308 309 309 309 309 309 309 309 310 313 316 318 315 311 309 308 307 307 306
320 319 317 317 319 320 319 316 313 313 311 310 311 312 313 313 312 312 310 308 309 309 307 305 304 304 304 304 303 303 303 304 306 307 308 307 306 307 306 305 306 308 308 308 309 309 309 309 309 309 309 309 310 311 311 314 314 311 309 307 306 306 306
320 319 318 317 318 319 318 315 315 314 311 309 309 310 311 311 311 313 312 311 311 311 310 308 306 304 304 304 304 304 303 304 304 306 308 308 308 308 306 305 306 308 309 309 308 309 308 309 309 309 310 309 309 310 309 310 312 310 307 307 306 305 305
320 319 318 317 316 316 316 316 316 315 313 310 309 310 311 310 309 310 312 313 313 313 313 312 309 306 305 305 305 304 304 304 304 305 307 308 309 309 307 306 307 307 307 308 308 308 308 308 308 308 309 309 307 307 307 307 308 308 306 306 305 304 304
319 319 318 317 317 316 316 317 317 317 315 312 311 310 311 311 310 308 309 311 313 313 313 312 311 308 306 306 306 305 305 305 305 305 305 307 308 309 309 309 309 307 306 306 307 308 308 307 307 308 308 307 306 306 305 305 305 305 305 304 303 302 301
319 319 318 317 317 316 315 317 318 318 317 315 314 312 311 311 311 309 308 307 310 312 312 312 312 311 309 309 308 307 306 305 306 306 306 306 307 308 309 309 309 309 308 305 305 306 307 307 307 307 307 307 306 306 305 304 303 303 303 302 301 299 297
320 320 319 317 318 317 315 316 319 319 318 317 315 315 313 311 311 311 309 307 307 309 310 310 312 312 311 311 311 309 308 307 307 307 308 309 308 308 308 308 308 309 309 307 306 305 306 306 307 307 307 307 307 305 303 301 300 300 300 299 297 296 294
320 320 319 318 318 318 318 318 319 319 319 318 316 316 315 313 312 312 311 310 308 307 308 308 310 312 311 312 312 312 311 310 309 309 309 310 310 310 308 308 308 308 308 308 307 305 305 306 307 308 307 307 306 303 300 298 297 297 297 296 295 295 295
320 320 319 319 319 318 318 318 319 319 319 319 318 318 316 315 314 314 313 313 312 311 310 309 310 310 310 310 311 311 311 312 311 311 310 310 311 311 310 309 309 309 309 308 308 307 306 306 306 307 307 305 303 300 299 297 296 295 294 294 295 295 295
320 319 319 319 319 318 317 317 319 320 319 320 319 318 317 316 316 315 315 316 315 314 314 313 313 313 312 311 311 311 311 311 312 312 311 311 311 312 312 311 310 310 310 309 308 308 307 306 306 306 305 304 301 299 298 297 295 294 294 295 296 296 296
320 320 319 320 320 319 318 319 320 320 319 319 319 318 318 317 317 317 316 316 316 316 315 315 315 315 314 314 313 313 313 312 312 312 312 312 312 312 312 312 312 311 310 310 309 308 307 306 306 305 304 303 301 300 299 297 295 295 296 297 297 296 297
320 320 320 321 321 321 321 321 320 320 320 320 320 319 318 318 318 317 317 317 316 316 316 316 317 317 316 316 315 315 315 314 314 313 313 313 313 312 312 312 312 311 310 310 309 308 307 306 306 305 304 303 302 301 299 297 296 297 298 298 297 297 297
320 320 320 321 321 321 321 320 320 320 321 320 320 320 319 319 319 319 318 318 317 316 316 317 319 318 318 317 317 317 317 317 317 315 315 314 313 313 312 312 312 311 310 310 309 309 308 306 305 304 303 303 302 301 300 299 298 299 299 298 298 298 297
319 319 319 320 320 320 320 319 319 320 321 320 320 320 320 319 319 319 319 319 318 317 316 318 320 319 319 318 318 318 318 318 318 317 316 315 314 314 313 313 312 311 311 310 309 309 308 306 305 303 303 302 302 301 301 299 299 299 299 299 298 298 298
319 318 318 319 320 320 319 319 318 318 320 319 318 319 319 319 319 319 319 319 318 318 318 319 320 319 319 319 318 318 318 318 318 318 317 317 316 315 314 313 312 311 311 310 309 308 307 305 304 303 303 302 302 302 301 300 300 300 299 299 298 298 297
319 318 318 319 320 320 320 320 320 319 320 320 318 318 319 319 319 319 319 318 318 319 320 320 320 320 320 319 319 319 318 318 318 318 318 317 316 315 315 314 312 311 311 309 309 308 307 305 304 303 303 302 302 301 301 300 300 300 299 299 298 298 297
320 320 320 321 321 322 322 321 320 320 320 320 319 319 319 319 320 319 319 319 319 320 320 319 319 319 319 320 320 320 319 319 318 318 317 317 316 315 314 314 312 311 309 309 308 307 306 304 303 303 303 302 302 301 301 300 300 299 299 298 298 297 297
322 321 322 322 321 320 318 317 317 317 316 317 317 318 318 319 319 319 319 319 320 320 318 317 316 316 316 317 318 319 319 319 319 318 318 316 316 315 314 313 312 310 309 308 307 306 305 304 303 303 303 302 301 301 301 300 300 299 299 298 298 297 297
317 317 317 317 315 313 312 312 312 312 313 314 315 315 316 317 317 317 317 316 316 316 317 316 316 315 314 315 316 317 317 318 318 318 317 316 315 314 313 312 310 309 308 307 306 305 304 304 303 303 302 302 301 301 301 300 300 299 299 298 298 297 297
311 312 312 312 310 309 308 309 309 309 309 310 310 311 311 312 312 313 313 313 313 313 314 314 315 315 315 315 316 316 316 317 317 317 316 314 313 313 311 310 308 308 307 306 306 305 304 304 303 303 302 301 301 301 300 300 299 298 298 297 297 296 296
308 309 309 308 307 307 307 307 307 307 307 307 307 307 307 308 308 309 310 311 312 312 312 313 313 314 315 316 316 316 316 316 315 315 313 312 311 310 309 308 307 307 307 306 306 305 304 303 302 302 301 301 300 300 299 298 297 296 295 295 294 294 294
307 308 308 307 306 306 306 306 306 306 306 305 305 305 305 305 306 306 307 308 309 310 311 312 312 313 314 316 316 316 315 314 313 312 311 310 309 308 308 307 306 306 306 305 304 303 303 302 301 301 301 300 299 298 297 296 295 294 294 293 293 292 292
307 307 307 306 306 305 304 304 305 305 305 305 304 305 304 304 303 304 304 305 305 306 308 310 312 313 314 315 316 315 314 313 312 310 309 308 307 306 306 305 304 304 303 302 302 301 301 300 300 299 298 298 297 296 295 294 294 293 293 292 292 292 292
306 307 307 306 306 306 305 305 305 305 305 305 305 306 305 304 304 304 303 303 304 305 307 309 311 313 313 314 314 314 313 312 311 309 308 307 306 305 303 303 302 301 301 300 300 299 299 298 298 297 296 296 295 294 294 293 293 292 292 291 291 291 291
306 306 306 306 306 306 306 306 306 305 306 306 306 307 307 306 306 304 303 303 304 306 307 309 311 312 312 312 312 312 311 311 310 309 307 305 304 303 302 301 300 299 299 298 298 297 297 296 296 295 295 294 293 293 292 292 292 291 291 290 290 290 290
305 305 305 305 305 305 305 305 305 305 306 307 307 307 308 307 306 305 304 304 305 307 308 310 311 311 310 310 309 310 310 309 309 308 305 303 302 301 300 299 298 297 297 297 296 296 295 295 294 294 293 293 292 292 292 291 291 291 290 290 290 290 290
305 305 305 305 304 305 305 304 305 305 306 307 308 308 308 307 306 306 305 305 306 307 308 310 310 309 308 307 307 307 307 307 306 306 305 303 301 299 298 297 297 296 296 296 295 295 294 293 293 293 293 292 292 292 291 291 290 290 290 290 290 290 289
304 304 304 304 304 304 304 304 304 304 304 305 306 306 306 306 306 306 306 306 307 307 308 309 308 307 305 305 305 304 305 304 304 303 303 301 299 298 297 296 296 296 295 295 294 293 293 293 293 292 292 292 291 290 290 290 290 290 290 289 289 289 289

ECMWFFLT1_925_thetae_024.txt.gz
Theta_e
322 322 322 322 322 321 320 320 320 320 321 321 321 322 322 322 321 323 326 326 325 324 324 325 326 326 327 328 328 328 328 327 327 326 326 327 327 326 327 326 326 325 325 325 325 326 330 329 323 317 314 314 316 317 318 318 319 319 320 319 319 319 318
322 321 321 321 320 320 320 320 319 320 320 320 321 322 322 322 321 322 325 325 324 324 324 324 324 324 325 326 326 326 327 327 326 327 327 327 326 326 326 326 326 326 325 325 325 323 324 329 327 319 314 312 312 312 313 313 313 313 314 313 314 314 315
321 320 320 320 319 319 319 319 319 319 319 319 320 321 322 322 321 322 324 325 324 323 323 323 323 323 323 324 325 325 326 326 326 326 326 326 326 325 325 326 325 325 324 323 323 322 318 319 321 316 312 312 312 311 310 310 310 310 310 310 310 310 311
320 319 319 319 319 320 319 319 318 318 318 318 318 320 321 321 321 321 323 324 323 322 322 322 322 322 322 322 323 324 324 324 324 324 325 326 326 326 326 326 323 320 318 317 318 318 315 313 315 314 310 311 312 310 310 310 309 309 308 308 308 309 309
319 317 317 319 319 319 319 318 318 318 318 318 319 320 321 321 320 320 322 322 321 321 321 319 319 319 321 322 321 320 319 320 321 323 324 324 325 324 323 321 317 314 314 313 312 313 312 311 313 312 310 310 311 311 311 311 310 310 308 306 307 308 308
318 316 318 320 320 319 319 318 318 317 317 317 318 319 318 318 317 316 317 319 319 319 317 316 316 318 320 321 319 318 317 317 317 319 320 320 320 319 317 315 314 313 313 312 311 311 311 309 309 310 310 310 310 311 311 311 310 310 309 307 306 307 307
316 316 317 316 317 319 318 317 318 316 315 315 316 315 314 314 313 311 310 312 313 312 312 312 315 318 319 319 318 317 316 315 315 315 315 315 314 314 314 313 312 312 311 311 312 311 309 307 307 309 310 309 309 310 311 310 309 308 309 308 306 306 306
315 313 313 310 312 317 319 317 317 315 314 314 314 314 314 314 312 310 307 307 307 306 306 308 311 316 318 318 318 316 314 313 313 313 313 312 311 309 309 309 308 307 307 308 309 308 307 306 306 307 308 310 309 308 308 309 309 308 307 307 306 305 305
314 312 312 309 310 316 318 318 317 314 312 313 314 314 314 314 312 310 308 307 305 304 304 304 305 310 313 314 314 312 311 311 311 311 310 308 306 305 305 305 304 303 304 306 307 307 308 307 308 307 306 307 308 310 312 312 310 308 307 306 306 305 304
312 312 311 310 314 317 318 319 317 313 310 311 313 313 314 313 312 311 310 308 307 305 304 303 303 304 305 306 306 306 307 309 310 310 307 305 303 303 304 304 304 305 307 308 308 308 308 308 308 309 309 307 307 312 318 316 311 308 307 305 305 304 303
313 313 311 312 317 317 317 319 317 313 311 310 311 312 313 313 312 313 312 311 310 308 306 304 303 303 303 303 303 303 305 307 308 308 306 304 304 305 306 306 306 307 308 309 308 308 309 309 309 309 310 309 308 310 313 313 311 308 306 305 304 303 301
315 315 313 315 318 315 311 314 316 314 312 310 309 309 311 312 312 313 312 312 312 312 310 306 303 303 303 303 303 304 307 308 307 308 307 306 305 305 306 308 308 308 309 308 308 308 308 309 309 309 309 309 308 307 307 308 310 308 305 304 303 300 297
316 316 315 317 318 313 308 308 311 313 312 311 309 307 309 310 311 311 312 312 312 312 313 311 307 305 305 305 304 304 306 308 307 308 309 309 307 305 305 307 308 308 309 308 308 308 308 308 308 309 308 307 306 306 305 305 306 306 305 303 300 297 294
317 317 317 319 318 314 310 309 310 312 314 313 310 308 308 309 310 309 309 310 311 312 312 313 312 308 307 307 306 305 305 305 306 306 308 309 309 308 307 306 306 306 307 307 308 307 307 307 308 307 307 306 306 305 303 301 302 304 303 300 297 294 294
317 317 318 319 318 315 313 312 312 314 316 316 314 311 309 309 309 309 309 308 309 310 312 313 312 311 309 308 308 308 308 307 307 306 306 307 308 309 309 307 307 306 305 305 306 307 307 307 307 307 306 306 305 302 299 298 299 300 299 297 295 294 295
317 318 319 319 319 317 315 314 313 313 316 317 316 315 313 311 311 311 312 310 308 308 310 311 312 311 310 310 309 309 309 309 308 307 307 307 307 308 308 308 308 308 307 305 305 305 306 306 307 307 306 306 304 300 299 299 298 297 295 295 295 295 296
319 318 319 319 319 317 316 315 312 311 316 318 318 318 317 315 313 312 313 314 312 309 309 311 312 312 312 312 312 311 310 310 309 308 308 308 308 308 308 308 308 308 308 307 306 305 305 306 306 306 305 305 303 301 300 300 299 296 294 295 296 296 297
319 319 319 319 319 318 317 315 313 312 315 318 318 318 318 317 316 315 314 314 315 313 311 310 311 312 312 313 313 313 313 312 311 311 310 311 310 310 309 309 308 308 308 308 307 306 305 305 305 305 305 304 302 301 301 301 300 297 296 296 296 297 297
320 320 319 319 320 319 317 316 315 315 316 318 319 319 319 318 318 317 316 315 315 315 314 312 311 311 312 312 312 313 313 313 312 312 312 312 312 311 311 311 309 309 309 309 308 307 307 306 305 305 305 303 302 301 300 301 299 298 297 298 297 297 298
319 320 320 319 320 319 317 317 317 317 317 318 319 319 319 319 319 318 318 316 316 315 315 314 314 314 314 314 313 313 313 313 312 312 312 312 312 312 311 312 311 310 310 310 310 309 308 307 306 305 304 303 302 301 301 300 299 298 298 298 298 298 298
320 320 320 319 319 319 318 318 318 318 318 318 319 320 319 319 319 319 318 318 317 316 316 316 316 316 316 316 315 315 314 314 313 313 313 314 313 313 312 312 312 312 311 311 310 310 309 307 306 305 304 303 301 301 301 301 300 299 299 299 299 299 299
320 320 320 319 319 319 318 319 318 318 319 319 319 320 320 319 319 319 319 318 318 317 316 316 316 316 317 317 317 316 316 315 315 314 315 315 315 315 314 313 313 312 312 311 311 310 310 308 307 306 304 303 302 301 302 301 300 299 299 299 299 299 299
320 320 320 319 319 319 319 319 320 319 320 320 320 320 320 320 319 319 319 319 318 317 314 314 314 315 316 317 316 317 317 316 316 316 316 316 316 317 316 315 315 314 313 312 311 310 310 309 307 306 305 303 302 302 302 301 300 299 299 299 299 299 299
320 319 319 320 320 320 320 320 320 320 320 319 319 319 319 318 317 318 319 318 318 316 314 313 314 316 317 318 318 318 318 317 317 317 317 317 317 318 317 317 316 315 313 312 311 311 310 309 307 306 304 303 302 302 302 301 300 300 300 300 299 299 298
320 319 319 319 319 320 320 320 320 320 319 319 318 318 317 317 316 316 317 318 318 317 316 317 317 318 319 319 319 319 318 318 318 318 318 318 318 318 318 317 316 315 314 313 312 311 309 308 307 305 304 303 302 302 302 301 300 300 300 300 299 299 298
319 319 319 318 318 318 319 319 319 319 319 318 317 315 314 315 314 314 316 318 318 318 318 319 319 319 319 319 320 319 319 319 319 319 319 319 318 318 318 318 317 316 315 313 312 311 309 308 306 304 303 303 302 302 302 301 301 300 300 299 299 298 297
320 320 320 318 318 318 319 320 320 319 319 318 317 316 315 315 315 316 317 319 319 319 319 319 319 318 317 317 317 316 317 317 318 318 319 319 319 318 318 318 317 316 314 313 311 309 308 307 306 304 303 302 302 302 302 301 301 300 300 299 298 298 297
320 321 321 320 319 320 320 320 319 318 318 318 318 318 317 317 318 318 319 319 318 318 318 318 318 317 317 316 315 314 314 315 316 316 317 318 318 318 318 317 316 315 314 312 310 308 308 307 305 303 302 302 302 302 301 301 300 299 299 299 298 297 297
315 318 320 320 320 319 318 316 315 314 315 315 316 316 316 315 315 316 315 315 315 314 315 315 316 316 316 316 316 315 315 315 315 315 316 317 317 317 316 316 314 313 312 310 308 307 307 305 304 303 302 302 301 301 300 299 299 298 297 297 296 296 295
309 313 314 315 315 313 312 310 309 310 310 310 310 310 310 309 309 310 310 310 310 311 311 312 313 313 314 315 316 316 316 315 314 314 315 315 314 314 314 313 311 310 309 308 306 306 305 304 304 303 302 301 300 300 299 298 297 296 295 295 294 294 293
307 309 311 311 310 308 307 307 307 306 306 305 306 306 306 305 305 305 305 305 306 307 307 308 310 310 311 312 313 315 315 315 314 314 313 313 312 311 310 309 307 307 306 305 305 305 304 304 304 303 301 300 300 298 297 296 295 295 294 293 293 292 292
306 307 309 308 307 306 306 306 305 305 305 305 304 304 304 304 303 303 303 303 303 303 303 305 306 308 309 311 312 314 315 314 314 313 312 311 310 308 307 306 305 305 305 305 304 304 303 302 302 301 300 299 298 297 296 295 294 293 293 292 292 292 291
306 307 307 306 306 305 305 305 305 305 305 305 305 305 305 305 305 304 304 303 302 302 303 303 304 306 308 311 312 313 314 314 313 312 310 309 308 306 305 304 303 303 303 302 302 301 300 300 299 299 298 298 296 295 294 293 293 292 292 292 291 291 291
306 306 306 306 305 305 305 306 305 305 305 306 306 306 306 306 306 306 304 304 303 303 303 304 304 306 308 311 312 312 313 312 312 311 309 307 306 305 303 302 301 301 300 300 300 299 299 298 297 297 296 295 294 293 293 292 292 291 291 291 290 290 290
305 305 306 306 305 305 305 305 305 305 305 306 306 306 307 307 307 306 305 304 304 304 305 305 306 308 310 311 311 311 311 311 310 310 308 305 303 302 301 300 299 299 299 298 298 298 297 296 296 295 294 293 293 292 292 291 291 291 290 290 290 290 289
304 304 305 305 305 305 305 304 305 305 305 306 306 307 307 307 306 305 304 304 305 305 305 306 307 309 310 310 309 309 309 309 309 308 307 305 302 301 300 299 298 297 297 297 296 295 295 294 294 293 293 293 292 291 291 291 290 290 290 289 289 289 288
304 304 305 305 305 305 304 304 304 304 304 304 305 305 306 305 304 304 304 304 305 305 305 306 307 308 308 308 307 306 307 307 307 306 305 303 301 300 299 298 297 296 295 295 294 294 293 293 293 292 292 292 291 291 290 290 289 289 289 288 288 288 287

ECMWFFLT1_925_thetae_027.txt.gz
Theta_e
323 322 322 322 322 321 320 319 319 320 321 321 321 322 322 321 321 323 324 324 324 324 325 326 327 327 328 328 328 328 328 328 328 328 327 327 327 326 324 324 324 323 324 326 327 328 327 321 317 316 315 314 314 315 315 315 315 315 315 314 313 313 313
322 322 321 322 321 320 319 319 320 320 320 320 321 321 321 321 321 323 324 324 323 323 324 324 324 325 326 327 328 328 328 328 327 327 327 327 328 328 326 327 327 326 326 325 325 327 326 322 319 317 315 313 312 312 312 312 311 311 311 310 310 310 311
321 321 321 320 320 319 319 319 320 319 319 319 320 320 321 321 320 321 324 324 323 323 323 322 322 322 324 326 327 327 327 327 326 326 327 327 327 327 327 328 328 327 327 327 325 325 324 322 320 317 316 315 313 312 312 311 310 310 309 309 309 309 309
321 321 320 319 319 319 318 319 319 319 319 319 319 320 321 321 320 321 323 324 323 323 322 322 322 321 321 323 324 325 325 325 325 325 325 325 325 326 327 327 325 325 326 326 325 323 323 321 318 317 316 315 314 313 312 311 310 309 309 308 308 308 308
321 319 318 318 319 319 318 318 319 318 318 318 319 320 321 321 320 321 322 323 322 322 321 320 319 320 321 321 321 322 323 324 324 325 325 325 325 325 323 320 319 320 320 319 319 320 321 320 317 317 315 315 314 313 312 312 310 308 308 308 307 307 306
319 318 317 318 319 319 318 318 318 317 317 318 319 321 320 320 320 320 321 321 320 320 318 317 318 320 320 319 318 318 319 320 321 322 323 324 324 321 317 315 315 316 314 312 313 314 316 317 317 316 315 315 315 314 313 313 311 309 308 307 307 306 305
318 316 314 315 317 318 318 317 317 316 317 318 319 318 317 315 315 315 316 317 316 316 315 316 319 320 318 317 317 316 316 317 317 318 319 319 318 316 314 314 313 312 310 310 311 311 312 313 314 315 314 315 315 314 313 312 311 311 309 306 305 305 303
318 314 312 312 311 314 316 316 316 315 315 316 316 314 313 313 311 310 311 311 310 310 312 317 319 318 316 316 316 315 314 314 314 314 314 314 313 313 312 311 310 310 309 308 309 309 310 311 313 314 314 314 314 315 314 312 311 310 309 308 305 303 301
316 312 312 311 309 313 317 317 316 314 313 314 314 313 313 313 311 309 309 308 306 305 308 314 317 316 315 315 314 313 313 312 312 311 310 309 308 307 307 306 307 309 307 307 307 307 307 308 310 312 312 313 313 314 314 313 312 310 308 308 305 301 299
315 311 312 311 310 314 317 317 316 313 311 312 314 314 314 313 312 309 308 307 306 304 304 309 313 314 314 313 312 311 311 310 308 307 306 305 305 304 303 303 307 308 307 307 308 307 307 308 309 310 310 311 312 312 312 312 312 311 308 306 304 301 298
316 312 311 310 311 315 316 316 316 313 310 310 311 313 314 313 312 310 309 308 307 305 303 304 306 308 309 309 309 310 310 308 306 305 305 305 305 305 306 306 308 309 308 308 309 308 308 308 308 308 308 310 311 311 312 311 311 311 310 306 302 300 298
316 312 312 310 312 315 314 314 314 312 311 310 308 309 311 312 311 310 310 310 310 308 306 303 303 303 304 306 307 308 309 308 307 306 306 306 307 307 307 308 309 309 309 309 309 309 308 308 308 308 308 308 309 310 311 311 310 310 310 306 301 298 297
316 312 313 312 313 315 312 308 309 310 311 310 308 307 308 309 310 311 311 311 311 311 310 307 305 304 304 304 305 307 308 308 308 308 307 306 306 308 308 308 308 308 309 308 308 308 308 308 308 309 309 308 307 307 309 310 310 310 307 303 300 298 297
317 314 314 313 314 316 313 307 306 310 312 312 309 307 306 307 308 309 311 311 312 312 312 312 309 307 306 305 305 305 305 307 308 308 308 306 306 306 307 307 307 307 308 308 308 308 308 308 308 308 308 307 306 306 307 308 309 309 306 301 299 299 297
319 316 315 314 315 317 316 309 306 310 314 313 311 309 307 307 307 307 309 310 311 312 313 313 312 310 308 307 307 306 305 305 305 306 307 307 307 307 306 306 305 305 306 306 307 307 307 308 308 307 307 306 304 303 304 306 306 306 305 301 300 299 298
319 318 316 315 315 317 318 313 308 310 314 315 314 312 309 308 308 308 308 309 309 310 311 312 313 312 311 310 309 309 308 307 307 306 306 306 306 307 308 307 306 306 306 305 306 307 307 307 307 306 305 303 302 301 302 304 304 304 303 301 300 301 300
318 317 316 316 316 317 319 316 312 313 315 316 316 315 313 312 311 310 310 310 310 309 309 310 311 312 312 312 312 312 311 311 310 309 308 307 307 307 308 308 308 307 307 306 305 305 306 307 307 306 304 302 301 301 302 302 302 302 303 302 301 300 301
317 317 317 317 317 318 319 318 315 314 315 316 316 317 316 316 315 314 313 313 312 312 312 311 311 311 311 312 312 313 313 313 312 312 311 310 309 308 308 308 308 308 308 307 306 306 306 306 306 305 304 302 301 301 302 302 301 302 303 304 302 300 300
318 317 318 319 318 318 319 319 317 315 315 315 316 317 317 317 317 317 316 315 314 314 314 314 313 312 312 312 312 312 312 312 312 312 312 312 312 311 311 310 309 308 308 308 308 307 306 306 306 305 304 303 301 301 302 302 301 302 303 303 302 302 302
320 319 319 319 319 319 319 319 318 317 316 316 315 316 318 318 318 318 317 316 315 315 315 315 315 314 314 314 314 313 313 313 313 313 313 313 313 313 312 312 312 310 309 309 309 309 308 306 306 305 304 303 302 302 302 302 302 303 303 303 303 303 303
321 320 320 319 320 319 319 319 318 318 317 316 316 317 318 318 318 318 318 318 317 317 316 316 316 316 316 316 316 316 315 315 315 315 315 315 314 314 313 312 312 312 311 311 311 310 310 309 308 306 305 303 302 302 302 302 303 303 304 304 304 303 303
320 320 319 319 319 319 319 319 318 318 318 317 317 318 318 319 318 318 318 318 318 318 318 317 317 317 317 317 316 316 316 316 316 317 317 317 317 316 315 314 313 312 312 312 312 311 311 311 309 307 306 303 302 302 302 302 303 304 304 304 304 304 304
320 320 320 319 319 319 319 319 318 318 318 318 318 318 319 319 319 319 319 318 318 319 318 317 318 317 315 315 315 315 316 317 317 317 317 318 318 317 317 316 314 313 313 313 313 312 312 312 310 308 306 304 302 302 303 303 304 304 304 304 304 304 304
320 320 319 319 320 319 319 319 319 318 319 318 319 319 319 319 319 319 318 317 317 318 318 317 316 316 314 313 314 316 317 318 318 318 318 318 318 318 317 317 316 315 314 314 314 313 313 312 310 308 306 304 303 302 303 304 304 303 303 304 303 303 303
320 320 319 319 319 320 320 319 319 319 319 319 319 319 319 319 319 317 316 315 315 316 317 316 315 316 316 315 316 317 318 319 319 319 318 318 318 318 317 317 317 316 315 315 315 314 313 312 309 308 306 303 302 302 303 303 303 302 302 303 302 302 303
319 319 319 319 319 319 319 319 319 319 318 318 317 317 318 318 317 316 315 315 314 315 317 317 316 317 317 318 318 319 319 320 320 319 319 319 318 318 317 317 317 317 316 314 313 313 312 311 309 306 304 302 301 302 302 302 302 302 302 301 301 303 302
320 320 319 318 318 318 318 318 318 318 318 317 316 316 316 316 315 314 314 314 315 315 317 317 318 318 318 318 318 318 318 318 318 318 318 318 318 318 317 317 317 316 316 314 313 312 311 309 308 305 302 301 301 301 302 302 302 302 301 300 300 301 300
314 318 320 320 319 319 318 317 318 318 317 317 317 316 316 316 314 314 314 315 316 317 318 318 318 318 317 316 315 314 314 314 314 315 315 316 317 317 317 317 317 316 315 314 312 311 310 309 307 303 301 301 301 301 301 302 301 301 300 299 299 299 298
307 311 317 320 321 320 320 319 319 319 319 318 318 318 317 316 315 316 316 317 318 318 318 318 318 318 316 314 314 314 314 314 314 314 314 314 315 316 316 316 316 315 313 312 311 310 308 307 305 302 301 300 301 301 301 301 300 299 299 298 298 297 296
305 306 309 315 319 319 319 319 318 317 318 317 317 318 318 317 317 317 317 316 316 315 316 316 316 316 316 315 315 315 315 315 315 315 314 313 314 314 315 314 313 312 311 310 309 308 306 305 304 302 302 301 301 302 301 300 299 298 297 296 296 295 294
306 306 306 309 314 315 314 314 314 314 315 316 316 316 315 314 313 311 310 310 310 310 311 311 312 313 313 314 314 314 315 315 315 315 313 313 312 312 312 311 310 309 308 308 307 305 304 303 303 302 302 302 301 300 299 298 297 296 295 294 294 293 292
305 306 306 307 310 311 311 311 311 312 313 312 311 310 308 307 305 304 304 304 304 304 305 306 307 309 310 310 311 312 314 315 314 313 312 311 310 309 309 308 307 306 306 305 304 303 302 302 303 303 302 301 300 298 297 295 295 294 294 293 293 293 292
305 305 306 307 308 308 308 308 308 308 308 307 306 305 304 303 303 303 303 303 303 303 303 303 304 305 307 309 311 312 314 314 313 312 310 309 308 306 306 306 305 304 304 304 303 303 303 302 302 302 301 300 299 297 295 294 293 293 293 293 292 292 292
304 304 304 305 306 306 306 306 305 305 305 305 304 304 304 304 304 304 303 303 303 303 303 303 304 305 307 310 311 313 313 312 312 311 309 307 306 305 304 303 302 302 302 302 302 301 301 300 300 299 298 297 296 295 294 293 293 292 292 292 292 292 292
302 303 304 304 305 305 305 305 305 304 305 304 304 304 305 305 306 305 304 303 304 304 304 305 305 306 308 309 311 312 312 311 311 310 308 306 304 303 302 301 300 299 300 300 300 299 299 298 297 296 295 295 294 293 293 293 292 292 292 292 292 292 292
300 301 303 304 304 304 305 305 305 305 305 305 305 306 306 306 306 305 304 303 304 304 304 304 305 305 306 308 310 311 311 311 310 310 308 306 304 302 301 300 299 298 299 299 298 298 297 296 295 294 294 293 293 292 292 292 292 292 292 292 292 292 292
300 300 301 302 304 304 304 304 305 305 305 306 306 306 306 307 306 305 303 303 303 303 303 304 304 305 306 308 310 311 310 310 309 308 307 306 304 302 301 300 299 298 298 298 297 296 295 294 294 293 293 292 292 292 291 291 291 291 292 292 292 292 292

ECMWFFLT1_925_thetae_030.txt.gz
Theta_e
327 327 327 326 325 323 322 323 324 325 326 326 326 326 325 326 326 327 327 327 327 327 327 327 328 328 329 329 330 330 331 331 331 331 330 330 330 330 329 330 329 327 329 330 327 327 328 325 323 322 322 322 322 321 321 320 320 319 318 317 317 317 317
327 327 325 325 324 323 323 324 324 324 325 326 326 326 326 326 326 326 326 327 326 326 325 325 327 327 327 328 328 329 331 331 331 331 330 330 330 330 330 330 329 328 329 329 327 327 327 325 323 321 321 321 320 319 318 318 318 317 317 316 315 316 316
327 326 324 324 323 323 323 324 324 323 324 324 325 326 325 325 325 326 326 326 326 325 325 325 326 326 326 326 327 328 329 329 329 330 330 330 330 330 330 330 329 328 328 328 328 327 326 325 323 321 321 321 320 318 317 316 316 315 315 315 314 315 314
327 326 324 323 323 322 322 323 323 323 323 323 324 325 325 325 325 325 325 325 325 324 325 324 324 325 325 325 326 327 327 328 328 328 329 329 329 329 329 328 327 327 327 327 326 326 326 326 324 322 321 320 319 318 316 315 314 313 313 313 313 313 312
328 326 323 323 322 321 321 322 322 322 322 323 324 324 325 325 324 323 324 324 324 324 323 323 322 323 323 324 325 325 325 326 327 328 328 329 329 329 328 327 326 327 326 325 326 325 326 325 324 323 321 319 319 317 315 314 313 312 312 311 311 310 311
327 325 323 322 322 322 321 321 320 320 321 323 324 324 324 324 322 322 323 323 322 322 321 322 322 322 322 322 323 324 324 324 325 326 327 328 327 326 325 324 323 324 323 322 323 324 324 323 322 321 319 318 318 317 315 314 313 312 311 311 310 309 308
327 324 323 323 322 322 321 321 320 320 321 323 323 323 322 321 320 320 321 320 320 320 321 322 322 322 321 320 321 322 321 322 323 324 324 325 324 323 322 321 320 319 317 317 317 318 319 319 319 319 318 318 317 316 315 314 314 313 312 309 308 307 307
326 324 323 323 322 321 321 320 320 320 321 322 322 321 320 319 318 317 317 318 318 319 321 322 321 321 320 318 318 319 319 320 321 321 322 322 322 321 320 318 316 314 314 313 313 313 314 316 317 317 316 316 315 315 315 314 314 314 312 309 306 305 305
325 324 324 322 321 321 320 320 319 319 320 320 320 319 320 318 316 315 315 314 316 318 320 320 320 319 319 317 316 317 317 317 318 318 318 318 318 318 317 315 313 313 313 313 313 313 313 313 315 315 315 315 315 315 315 314 314 313 311 309 306 304 303
326 325 322 321 320 321 321 319 318 319 319 319 319 319 319 318 316 315 314 312 313 315 317 317 317 317 317 316 316 316 316 315 315 315 315 315 315 315 316 315 314 314 315 315 314 314 314 313 313 314 314 315 315 316 315 315 316 313 310 307 306 304 302
326 322 318 319 321 322 321 319 317 318 319 319 319 319 319 317 316 315 314 312 312 313 315 315 315 316 315 314 314 314 313 312 312 313 313 314 314 315 316 315 315 315 316 316 316 316 315 314 313 313 314 314 315 316 315 315 314 314 311 307 304 304 303
325 320 316 319 322 322 322 319 317 317 319 318 319 319 318 317 316 315 314 314 313 313 313 314 314 315 314 313 313 313 312 312 312 312 313 313 314 314 315 315 315 316 316 315 315 315 315 315 314 313 313 314 314 315 315 315 314 313 312 308 304 303 303
324 319 316 318 321 322 321 319 317 318 318 317 317 318 318 317 317 317 316 316 315 313 313 313 314 314 314 314 313 313 313 313 312 313 313 313 314 314 314 315 314 315 315 315 315 315 315 315 314 313 313 313 314 314 314 315 314 312 310 307 305 304 303
323 320 316 317 321 322 321 319 318 317 317 318 317 317 317 317 317 317 317 317 316 314 313 313 313 314 313 314 314 314 314 313 313 312 312 313 314 314 314 314 314 314 315 314 314 314 314 314 314 313 312 312 313 314 314 315 314 312 308 306 305 304 303
323 322 320 320 322 323 319 318 318 318 318 318 317 316 316 316 316 316 316 317 317 316 315 314 315 314 313 313 313 314 314 313 312 312 312 312 313 313 313 313 313 313 313 313 313 313 313 312 312 312 311 312 312 312 313 313 314 314 310 307 306 305 304
324 325 325 323 323 323 320 318 318 319 319 318 317 317 316 316 316 315 316 316 316 317 316 316 316 316 315 314 314 314 314 313 313 313 313 312 312 313 313 313 312 312 313 313 312 312 312 311 311 311 310 311 311 311 312 312 313 313 312 309 308 307 306
325 325 325 324 323 324 323 321 318 317 319 319 317 318 317 316 316 316 316 316 316 317 317 317 317 316 316 316 315 315 315 314 314 314 313 313 313 313 314 313 313 313 313 313 312 312 312 312 311 311 310 310 310 310 310 310 311 312 312 311 309 308 307
325 325 324 324 323 323 324 324 321 318 319 320 319 319 318 317 317 317 316 316 316 316 316 316 316 316 316 316 317 317 316 316 316 316 315 314 314 314 314 314 314 313 314 314 313 312 312 311 311 310 309 309 309 309 309 309 310 311 312 312 310 309 308
324 324 324 323 323 323 323 324 323 321 320 321 320 320 320 318 318 318 318 317 317 317 316 316 317 317 317 317 317 318 318 318 318 317 317 316 315 315 315 315 315 314 314 314 314 314 312 312 312 310 310 309 308 309 310 310 310 311 311 312 311 310 309
325 324 324 324 323 323 323 323 324 322 321 321 321 321 320 320 320 320 320 320 319 319 319 318 318 318 318 319 319 319 319 319 319 318 318 318 317 317 317 317 316 315 315 315 315 315 314 313 312 311 310 309 308 309 310 310 310 311 311 311 311 311 310
326 325 325 324 324 323 323 324 324 323 322 322 321 321 321 321 321 321 321 321 320 321 320 320 320 320 320 320 320 321 321 320 320 320 320 320 319 319 318 318 318 317 316 315 315 315 314 313 314 312 310 309 308 309 310 310 310 311 311 312 312 311 311
325 325 325 324 324 323 323 324 324 324 324 323 322 322 322 321 321 321 321 321 321 322 321 322 321 321 321 322 321 321 321 321 321 321 322 321 321 321 320 319 319 318 317 315 314 314 313 313 314 313 312 310 309 309 309 310 311 312 312 312 312 311 311
325 324 324 324 324 323 323 324 325 324 324 324 324 323 322 322 322 321 322 322 322 322 322 323 321 319 320 321 321 321 321 321 321 321 322 322 322 322 321 321 320 318 316 315 313 313 313 312 312 313 313 311 309 309 310 310 311 311 312 312 312 311 311
324 324 324 323 323 324 324 324 325 324 324 324 324 323 323 322 322 322 322 323 322 322 323 322 319 317 318 318 318 319 320 320 320 320 321 322 322 322 322 321 321 319 317 315 313 312 312 312 312 312 311 310 308 308 309 310 311 311 311 311 311 310 309
323 323 323 323 323 324 324 324 324 324 324 324 323 323 322 322 323 322 322 322 322 322 322 320 317 316 317 316 315 316 319 321 321 321 322 322 322 322 322 322 321 320 318 316 315 313 313 312 312 311 310 309 306 305 306 308 310 310 309 310 309 308 308
323 323 323 323 323 324 323 323 323 323 323 323 322 322 322 322 322 322 322 322 321 322 321 319 317 316 316 315 314 316 318 320 321 322 322 323 322 322 322 322 321 321 319 317 316 316 315 313 312 312 310 308 304 303 303 304 305 306 306 307 307 307 307
320 322 323 322 322 323 323 323 323 322 322 321 320 320 320 321 322 322 321 321 320 320 320 319 316 316 316 316 316 317 318 320 321 321 322 321 321 321 320 320 320 320 319 318 316 317 316 313 312 311 309 305 303 302 302 302 303 303 304 305 306 306 307
314 317 320 321 322 322 322 323 322 321 321 320 318 317 318 320 320 320 319 320 319 319 319 318 316 316 317 317 318 318 319 319 320 319 319 319 318 318 318 318 318 318 317 317 316 316 315 312 310 309 307 305 304 303 303 303 303 304 304 304 304 304 304
311 312 315 318 321 321 322 322 322 321 321 320 318 317 318 319 319 318 319 319 318 319 319 318 316 316 317 318 319 318 318 318 317 317 318 318 318 318 317 317 317 317 316 316 315 314 312 310 309 308 306 305 305 304 302 302 302 302 302 302 302 301 301
310 311 311 313 317 319 321 321 323 322 321 321 320 320 320 319 319 319 319 318 319 320 320 319 317 317 318 318 317 316 316 315 316 316 317 317 316 316 316 316 316 317 316 315 314 312 310 309 309 308 307 306 305 303 301 301 302 302 301 301 300 299 298
310 310 310 311 313 316 318 319 320 321 321 321 322 321 320 320 319 319 320 320 320 321 320 319 319 318 318 317 315 314 315 314 315 316 316 315 314 313 313 314 314 315 314 312 312 311 309 308 309 308 307 307 306 304 302 301 301 300 299 298 298 297 296
309 309 310 310 311 313 315 317 318 318 319 321 321 320 318 318 318 318 318 318 318 318 317 317 317 317 317 316 315 314 314 314 315 315 315 314 313 311 311 311 311 311 311 310 310 309 307 308 309 309 308 307 306 305 303 301 301 300 300 299 299 298 297
308 308 309 310 310 312 313 315 316 317 317 318 319 317 315 315 315 314 313 311 312 314 314 312 313 314 314 314 315 314 314 314 314 314 314 313 312 310 309 309 308 308 308 308 308 306 305 306 308 308 307 307 307 305 302 301 299 299 299 300 299 298 298
307 307 308 309 309 310 311 313 315 315 314 315 315 314 313 312 312 310 309 309 307 307 307 307 307 308 309 310 312 312 312 313 314 313 313 313 312 310 308 306 306 307 306 306 305 304 303 304 306 306 305 305 305 302 300 300 298 297 297 299 298 298 298
306 306 307 308 308 309 309 312 313 313 312 313 314 314 312 311 310 308 309 309 307 303 302 303 303 303 304 306 309 310 312 314 314 313 313 311 311 309 306 305 305 304 304 304 303 303 303 302 303 303 302 301 300 298 297 298 298 297 297 298 298 297 297
304 305 306 307 307 308 309 310 311 311 311 312 312 312 312 310 310 309 309 309 308 304 302 303 302 302 303 305 308 311 312 314 313 312 312 311 309 307 304 303 303 302 301 301 301 301 301 300 300 299 298 297 296 294 295 297 297 297 297 297 297 297 297
303 304 305 306 306 307 308 309 309 310 310 310 309 309 309 309 309 309 308 308 307 305 304 304 304 304 304 307 310 311 312 312 312 312 311 310 308 305 303 303 302 300 299 299 299 298 298 297 297 296 295 294 294 294 295 297 297 297 297 297 297 297 297

ECMWFFLT1_925_thetae_033.txt.gz
Theta_e
328 327 327 326 325 324 324 324 326 327 326 326 327 327 326 326 327 328 328 328 327 326 326 327 328 330 331 331 331 330 330 331 332 329 329 331 331 331 332 331 329 328 329 330 329 328 328 328 326 326 326 325 325 324 323 322 321 320 319 319 319 319 319
327 326 325 324 324 324 326 326 326 327 327 327 327 326 326 326 327 327 327 327 327 326 326 326 327 328 329 330 331 331 331 331 331 330 329 331 330 329 331 331 330 329 328 329 329 328 328 327 324 324 325 324 323 322 322 321 319 319 318 317 317 317 318
325 325 324 324 324 324 326 326 326 326 326 326 326 326 326 326 326 326 327 327 327 326 326 326 326 327 328 329 329 331 332 331 331 332 332 331 328 329 330 330 329 329 328 329 328 328 328 327 325 324 325 324 322 321 320 320 319 317 316 316 316 316 317
326 325 324 324 324 324 324 325 326 326 326 326 326 326 327 326 326 326 326 326 326 326 326 326 326 326 326 327 328 329 330 330 331 331 331 330 329 330 330 329 329 328 328 328 327 326 327 328 326 324 324 323 322 321 319 317 316 315 314 314 314 314 315
327 325 324 324 324 324 324 324 324 324 325 325 326 326 327 326 325 325 324 325 325 325 325 324 325 325 325 326 327 327 328 329 330 330 331 331 330 330 329 328 328 327 326 326 326 326 326 326 326 323 322 321 320 319 317 315 314 313 313 312 312 313 314
326 324 323 323 323 323 324 324 323 323 324 325 326 326 325 324 325 325 325 324 324 324 323 323 323 323 324 325 326 326 326 327 327 329 330 330 329 328 327 326 326 325 324 324 325 325 325 324 324 322 321 319 318 316 315 314 313 313 312 311 310 311 311
325 323 323 322 323 323 322 323 322 322 324 325 326 325 323 323 323 324 323 322 322 323 323 324 322 322 322 323 324 324 325 325 326 327 327 327 326 325 324 323 322 321 320 321 321 322 322 322 321 320 319 318 317 317 315 314 314 312 311 309 308 309 309
326 323 323 323 324 322 322 322 322 323 325 325 324 323 321 320 321 321 320 321 322 322 323 322 322 322 320 321 322 322 322 323 324 324 325 325 323 321 320 318 317 316 316 316 316 318 318 319 319 318 318 317 316 317 316 315 314 313 311 309 307 308 308
326 324 323 324 324 323 322 323 322 323 324 324 323 321 319 318 319 319 319 320 322 322 322 321 321 320 318 318 319 319 319 320 320 321 321 321 320 318 317 316 315 316 315 315 315 316 316 317 317 316 316 316 316 315 315 315 314 313 312 310 308 307 307
327 325 325 325 324 323 322 322 322 323 323 323 321 319 318 318 317 317 317 319 320 320 320 320 319 318 318 318 318 318 318 317 317 317 317 318 317 317 317 316 316 317 317 317 316 316 316 315 315 316 316 316 316 316 316 316 316 313 311 309 308 307 306
328 327 325 324 324 323 321 321 321 322 322 321 320 319 318 317 316 315 315 316 317 317 317 317 317 317 316 316 316 315 316 315 316 316 317 317 317 318 319 318 319 319 318 318 318 317 316 316 315 316 316 317 317 317 316 317 317 315 312 309 308 308 306
328 326 324 323 324 323 321 319 320 321 321 320 319 318 317 316 315 314 314 315 315 316 316 316 316 315 315 315 314 313 314 314 315 315 315 316 317 319 319 319 318 318 318 318 318 318 317 316 315 315 316 317 317 317 317 317 317 315 313 310 308 307 307
327 324 323 324 324 322 320 319 320 320 320 319 319 317 316 315 315 314 314 314 314 314 315 315 315 315 314 314 313 313 314 314 314 315 315 315 316 318 318 318 318 318 317 317 317 317 317 316 316 315 315 316 317 317 317 317 316 314 312 311 309 308 308
325 321 321 322 323 321 320 319 319 320 319 318 318 317 316 315 315 315 314 313 313 314 315 315 315 315 315 314 315 314 314 314 314 315 315 316 316 316 316 317 317 318 317 316 315 315 315 315 315 314 315 316 317 317 317 317 316 314 312 311 310 309 309
325 320 319 321 322 321 319 319 319 319 319 318 317 317 316 316 315 316 315 314 313 313 314 315 315 315 315 315 315 316 315 314 313 314 315 316 316 316 316 316 316 317 316 316 316 314 314 314 314 313 314 315 316 316 316 317 316 315 314 312 311 310 309
326 323 320 320 323 322 320 319 318 318 319 318 317 317 316 316 316 316 316 315 314 314 314 315 316 315 315 315 316 317 316 315 315 315 315 314 315 315 315 315 315 316 315 315 315 315 314 314 313 313 313 314 316 316 316 316 316 316 315 313 313 311 310
327 326 323 321 322 322 320 319 317 317 318 317 317 317 316 316 316 316 316 316 315 315 315 316 316 315 314 314 315 316 316 315 315 316 315 314 314 314 315 315 314 314 315 315 314 314 313 313 313 313 312 313 314 315 315 315 315 316 315 315 314 313 312
327 327 325 323 323 323 321 320 318 318 318 317 317 318 316 315 316 315 315 316 316 316 316 317 316 316 316 316 315 316 316 316 316 316 316 315 315 315 316 316 315 315 315 316 315 314 314 314 313 313 312 312 313 314 314 314 314 315 316 315 314 313 313
327 327 326 325 324 324 323 322 319 318 318 318 317 318 317 316 316 315 315 315 316 316 316 316 316 317 317 318 317 317 317 317 317 317 317 316 316 316 317 317 316 316 316 316 316 315 314 314 314 313 313 312 312 313 314 314 314 314 315 315 315 314 313
327 326 326 325 325 324 324 324 322 319 318 319 318 318 317 317 316 315 315 315 315 316 316 316 316 317 317 318 319 319 319 320 319 319 318 318 317 317 318 318 317 316 316 317 317 316 316 315 315 314 313 312 311 312 313 313 314 314 314 315 314 314 313
327 326 326 325 325 325 324 324 324 322 320 320 319 319 318 318 317 317 316 316 316 316 316 317 317 318 318 319 320 320 321 321 321 321 320 320 320 320 319 319 319 319 318 317 318 318 317 316 315 314 314 313 311 311 312 313 313 314 314 314 314 314 313
327 326 326 325 325 326 325 324 325 324 322 321 319 319 319 319 319 319 318 318 317 317 318 318 318 319 320 320 322 322 322 322 322 322 322 322 321 321 321 320 320 320 319 318 317 318 318 317 316 316 316 314 313 313 313 313 313 314 314 314 314 314 313
327 326 325 324 324 325 325 325 325 325 324 322 320 319 319 319 320 320 320 320 320 321 321 321 321 320 321 322 323 323 323 323 323 323 323 323 323 323 323 322 321 321 320 318 317 317 317 316 316 317 317 316 315 314 314 313 314 314 315 314 314 313 313
326 326 325 324 324 324 324 325 325 326 326 325 323 322 321 320 320 320 320 321 322 323 324 324 323 322 321 323 324 324 324 323 323 323 323 323 324 324 323 322 322 322 320 318 317 316 316 315 314 315 315 315 315 314 314 314 315 315 315 314 314 313 312
325 325 325 325 325 325 325 325 326 326 326 326 325 325 323 322 322 321 321 322 323 325 325 324 324 322 321 321 322 323 324 323 323 323 322 322 322 323 322 322 322 321 319 318 317 316 315 314 313 313 313 314 313 312 312 313 313 313 314 314 313 312 312
324 324 325 324 325 326 326 325 326 326 326 326 325 325 325 324 324 323 322 322 324 325 324 323 324 323 320 319 319 320 321 322 322 322 322 322 322 322 321 320 319 319 319 318 317 317 315 314 313 313 312 312 312 310 310 310 310 310 311 312 312 312 312
321 323 324 324 324 325 326 326 326 325 325 325 324 324 325 324 324 324 324 323 324 324 324 323 323 321 318 317 317 317 318 320 322 322 323 322 321 321 320 319 318 318 319 319 317 317 317 315 314 313 312 311 311 310 309 308 306 306 307 308 310 311 311
315 318 320 321 322 323 324 325 326 325 325 324 324 323 323 323 324 324 323 323 324 324 323 323 322 321 319 318 317 315 316 319 322 323 323 321 319 319 319 319 318 318 318 318 318 318 318 317 316 314 312 311 310 309 307 306 305 306 307 308 309 309 309
313 313 315 316 318 320 321 323 325 325 325 324 323 322 322 322 322 323 323 323 322 322 321 322 321 320 319 318 317 315 316 319 322 322 321 320 318 318 318 317 317 316 317 318 318 317 318 317 315 314 313 311 309 308 307 306 306 306 306 306 306 306 305
313 313 313 313 314 316 319 321 323 324 324 323 323 322 322 321 321 321 322 321 321 321 321 321 320 320 319 318 316 317 318 319 320 319 319 318 317 317 317 317 317 316 316 318 317 316 316 316 315 314 312 311 310 308 307 306 305 303 303 304 304 303 302
311 312 313 312 313 314 315 317 319 321 323 323 323 322 322 322 321 321 321 321 321 321 321 320 320 320 319 317 316 317 319 318 317 317 317 317 316 316 316 316 316 316 317 317 316 316 316 315 315 314 312 311 311 309 307 304 303 302 303 303 302 301 300
310 311 311 312 312 313 313 313 314 316 319 321 322 322 322 322 322 322 322 322 322 321 320 321 321 320 319 317 317 318 318 316 315 315 316 315 316 315 313 313 315 316 316 316 315 315 314 313 313 313 312 311 311 310 307 305 304 304 304 303 302 302 302
308 309 310 311 311 312 312 312 312 314 316 317 318 320 321 322 322 322 322 322 322 320 319 320 320 319 318 318 318 317 316 314 315 316 315 314 315 314 312 312 313 314 313 313 313 312 311 311 312 312 311 311 310 310 308 306 305 305 304 304 304 303 302
306 307 308 309 309 310 311 311 311 312 313 314 315 317 318 320 320 319 319 320 320 318 318 319 319 319 318 318 317 314 313 314 315 315 315 314 314 313 311 310 310 310 310 310 310 310 309 310 311 311 310 309 309 309 307 306 304 302 302 302 303 302 302
304 305 306 306 307 309 310 311 311 311 312 313 313 314 315 316 316 316 316 316 316 317 317 317 317 317 317 316 315 314 313 314 314 315 314 314 314 313 310 308 309 309 307 307 308 308 308 308 309 310 309 307 307 306 305 304 303 302 301 302 302 301 301
303 304 305 305 306 307 308 309 310 311 312 312 312 313 314 314 313 313 313 314 314 315 315 314 312 313 313 313 313 314 313 312 313 314 313 313 313 312 309 308 308 307 306 306 306 305 305 306 307 306 305 305 304 302 301 301 301 301 301 301 300 300 300
302 303 304 304 305 306 307 308 309 310 311 312 311 312 313 313 312 312 312 312 312 312 312 309 307 307 308 308 309 311 311 311 312 312 311 312 312 309 308 308 308 306 306 305 305 304 304 303 303 302 301 300 299 298 298 300 301 300 300 300 300 300 300

ECMWFFLT1_925_thetae_036.txt.gz
Theta_e
329 327 327 327 325 324 325 326 326 327 327 327 327 326 326 327 328 328 328 327 327 327 328 328 329 330 331 331 331 331 331 330 330 329 328 327 327 328 329 328 329 331 331 330 330 329 329 329 327 326 325 325 325 324 324 323 321 321 320 320 320 319 319
328 327 328 326 324 324 325 326 326 327 327 327 326 326 326 327 328 328 328 327 326 326 326 327 329 330 330 330 331 331 331 330 330 330 328 327 327 327 327 327 329 330 330 330 329 328 328 328 327 326 324 323 322 321 321 320 318 318 318 319 318 317 317
327 326 325 324 324 326 327 327 327 327 328 327 327 326 326 327 327 327 327 327 326 326 326 327 328 329 330 330 330 330 330 330 330 329 329 329 328 327 327 328 328 329 329 329 328 328 328 328 327 325 323 323 322 321 320 318 317 316 316 317 317 317 317
325 324 324 324 325 327 328 328 327 327 327 327 327 327 327 326 326 326 326 326 326 326 326 326 326 328 329 329 330 330 330 330 330 330 329 329 328 328 327 327 326 327 327 327 328 328 328 328 327 325 323 322 321 321 320 317 315 315 315 315 316 317 316
325 325 324 324 324 325 326 326 326 327 327 327 327 327 326 326 326 325 326 326 325 325 325 325 325 326 328 328 328 329 329 330 330 330 330 329 329 328 328 326 325 327 326 326 327 327 327 327 325 324 323 321 320 319 316 315 313 313 314 313 314 315 315
326 325 325 325 324 324 325 325 325 326 326 326 326 326 325 325 325 325 325 325 324 324 324 324 324 325 326 327 327 327 328 329 329 328 328 328 327 327 327 326 326 326 326 325 325 326 327 325 324 323 321 319 317 315 313 312 312 311 311 311 311 312 313
326 324 325 324 324 325 325 324 324 324 326 326 325 325 324 325 325 324 323 323 324 324 323 323 323 324 325 325 326 326 326 327 327 327 325 325 324 323 323 323 323 324 324 324 323 325 324 323 324 322 318 317 316 314 313 312 310 309 309 308 310 310 310
325 324 324 324 324 323 323 323 323 325 325 326 325 323 323 323 323 322 322 323 323 323 323 322 322 323 323 324 324 325 325 326 326 325 323 321 320 319 318 317 318 319 321 320 321 322 321 321 322 319 316 319 320 316 314 313 310 309 308 308 308 309 309
324 323 323 324 324 322 323 323 324 325 326 324 323 320 320 321 321 321 323 323 322 322 322 321 320 320 321 321 321 322 323 323 322 322 320 318 317 316 316 316 315 315 317 316 316 318 319 319 318 316 315 318 321 320 317 316 313 310 309 308 308 308 308
324 323 324 324 324 323 323 323 324 325 325 323 320 319 319 319 319 321 321 322 321 321 320 319 318 319 319 319 319 319 319 318 319 319 318 317 317 316 316 317 317 316 316 315 315 316 316 316 317 317 317 317 318 321 320 319 316 311 309 308 308 307 308
324 324 325 324 324 323 323 323 324 324 323 321 319 318 318 317 317 319 319 319 319 318 318 318 318 318 317 318 317 317 317 317 318 318 318 318 319 319 319 319 318 318 317 316 316 316 316 316 316 317 318 317 318 320 319 319 318 313 308 308 308 307 307
326 326 325 324 323 323 322 322 323 323 322 320 319 318 317 316 315 316 316 317 317 317 316 316 316 316 315 315 315 316 316 316 316 317 318 319 320 319 319 318 318 318 318 317 317 316 316 316 316 316 317 317 317 319 317 317 318 314 309 309 309 308 308
327 326 324 324 323 322 321 321 322 322 321 320 318 317 316 315 315 315 315 315 315 316 316 315 315 314 314 314 314 314 315 315 315 315 318 319 319 318 318 318 318 317 317 317 316 316 315 316 316 316 317 317 317 317 316 315 315 314 311 310 309 309 309
327 325 324 324 324 322 320 321 322 321 320 319 318 316 315 315 315 314 314 314 315 315 316 315 315 315 314 314 314 314 314 315 315 315 317 318 318 318 318 317 317 316 315 315 315 314 314 314 315 316 317 318 317 317 316 314 313 313 312 311 310 310 310
325 324 324 323 323 321 320 320 321 320 319 318 317 316 315 315 315 314 314 314 315 315 316 316 316 316 315 315 314 314 314 315 316 316 317 317 317 317 317 317 317 316 316 316 315 314 314 314 314 316 317 317 317 317 316 315 314 313 313 312 311 310 310
324 323 323 323 322 321 320 320 320 320 319 318 317 316 315 315 315 314 314 313 314 315 315 316 316 316 316 316 316 315 314 315 316 316 316 316 316 316 316 316 316 316 316 316 315 314 314 314 314 314 316 316 316 316 316 316 315 315 314 312 313 311 311
323 321 322 323 323 321 320 319 319 319 319 317 317 317 316 315 316 315 315 314 314 315 315 316 316 315 316 316 317 316 315 315 316 315 315 315 316 315 316 316 315 315 315 315 315 314 314 314 313 313 314 315 315 315 316 316 316 316 315 314 313 312 312
324 322 321 322 323 322 320 319 318 318 318 317 317 317 316 316 316 315 315 315 314 315 316 316 315 315 315 316 316 317 316 316 316 315 315 315 315 315 315 315 315 315 315 315 314 314 314 314 313 313 313 314 314 314 315 315 315 316 316 315 314 314 314
326 326 324 322 323 323 321 319 318 318 318 317 317 318 316 315 316 315 316 315 315 316 316 316 316 315 315 315 316 316 316 316 316 316 316 315 315 315 316 316 315 315 316 316 314 315 314 313 314 313 313 313 314 314 314 315 314 315 315 315 315 315 314
325 327 326 323 324 323 322 320 319 318 318 318 318 318 316 316 316 316 315 315 316 316 316 316 316 316 316 317 316 316 316 316 316 316 317 316 315 316 317 317 316 316 316 316 316 316 315 314 314 314 313 313 313 314 314 314 314 314 315 315 314 314 314
325 326 326 326 325 324 323 323 321 319 319 318 317 318 317 316 316 316 315 315 315 316 316 316 316 317 317 318 318 318 318 318 318 318 318 317 317 317 317 318 318 317 316 317 317 317 316 315 315 314 314 313 312 312 313 313 314 314 314 314 315 314 314
327 327 327 327 326 325 324 324 323 321 320 319 319 318 318 317 317 316 316 316 315 316 316 316 316 317 318 318 319 319 320 320 320 319 319 319 319 319 319 319 319 319 318 318 318 318 317 316 315 314 314 314 312 312 313 313 314 314 314 315 315 315 314
327 327 327 327 326 326 325 324 324 322 321 321 321 319 318 318 318 317 317 317 316 316 316 317 317 317 318 318 319 320 321 322 321 321 322 321 321 321 321 321 320 319 319 318 318 318 318 317 316 316 316 315 313 313 313 313 314 314 315 315 315 314 314
326 326 326 326 326 325 325 324 324 323 323 323 321 320 320 319 318 318 318 318 318 318 318 318 318 317 318 319 320 321 321 322 323 323 323 323 323 322 322 322 321 320 320 320 318 317 318 317 316 317 317 316 315 315 315 314 314 315 315 316 315 314 313
325 325 325 325 325 324 324 324 324 324 323 323 322 322 320 319 319 319 319 318 319 320 320 320 320 321 320 319 320 322 322 323 324 324 324 323 322 321 320 321 321 319 318 319 319 317 317 317 317 316 316 316 316 316 315 315 315 315 315 314 314 313 312
324 324 324 324 324 324 323 323 324 324 324 324 324 324 322 320 321 321 320 320 320 320 321 321 322 323 322 321 321 322 323 324 324 324 324 323 321 320 320 320 320 318 317 319 320 318 317 317 317 316 316 316 315 315 314 314 314 314 313 313 313 313 312
321 322 323 323 323 324 324 323 322 322 322 323 323 324 324 323 322 323 322 321 321 321 322 322 321 321 321 321 322 321 322 324 323 323 323 322 321 321 321 320 318 318 317 319 320 319 318 317 317 316 316 315 314 313 313 312 311 311 311 310 310 311 312
316 317 319 321 321 322 323 323 322 322 321 322 324 324 324 325 324 323 323 323 323 323 323 323 322 320 318 320 322 322 321 322 321 320 321 321 320 320 321 319 317 317 317 318 319 319 319 318 316 316 315 313 312 312 312 311 310 309 309 308 308 310 311
313 314 314 316 317 319 321 322 323 323 323 323 325 324 324 324 324 324 324 324 324 325 324 324 323 321 320 321 322 322 320 319 318 318 319 320 320 320 320 319 318 317 317 317 318 319 318 317 317 316 314 312 311 311 311 310 309 308 308 308 309 309 308
311 312 313 314 314 315 317 319 321 323 323 323 324 324 324 323 323 323 324 324 324 325 324 324 323 322 322 322 322 321 319 318 317 317 319 320 321 320 319 318 317 316 316 316 317 317 317 317 317 316 314 312 311 310 309 308 308 307 308 308 307 306 305
308 310 311 312 313 313 314 315 316 319 321 322 323 323 323 323 322 323 323 323 323 323 323 322 322 322 322 322 322 321 320 318 317 318 319 320 319 318 318 317 317 316 316 316 316 317 318 317 317 316 314 313 311 310 309 308 307 307 307 306 304 304 304
307 308 309 310 311 312 312 313 313 314 316 318 321 322 322 322 321 321 321 321 321 321 321 321 321 321 321 321 321 321 319 318 318 319 319 318 317 317 317 317 317 316 317 317 317 317 317 317 316 315 314 313 311 310 310 309 308 307 306 304 304 304 304
305 307 307 308 309 310 310 311 312 312 312 313 316 318 320 320 321 321 321 321 321 321 321 320 320 321 321 320 320 319 319 318 318 318 317 317 316 315 315 315 315 316 317 317 317 317 316 316 316 314 313 313 312 311 310 309 307 306 305 305 305 305 304
305 305 305 306 307 307 308 308 309 311 311 312 312 314 316 318 319 320 320 320 321 321 321 320 320 320 320 320 320 319 319 318 317 316 316 316 315 314 313 312 313 315 316 315 315 315 315 315 314 312 312 312 312 311 310 308 307 306 305 305 305 304 303
303 303 304 304 304 305 306 306 308 309 311 311 312 312 313 316 317 316 317 318 319 320 320 320 319 318 319 320 320 319 318 318 317 316 315 314 314 313 311 311 312 313 313 312 313 314 314 313 312 311 310 310 310 309 308 306 306 304 303 303 303 303 302
303 303 303 304 304 304 305 305 306 308 309 310 311 311 312 314 315 315 315 317 318 318 318 318 318 317 317 318 318 318 317 316 315 315 315 314 313 312 310 310 311 311 310 310 311 312 311 310 310 309 308 308 308 307 305 303 303 303 302 302 302 301 301
302 302 302 303 303 303 304 304 305 306 307 308 309 311 312 313 315 315 315 316 317 316 316 316 316 315 316 316 317 317 317 316 315 314 314 313 313 312 310 310 309 308 308 308 309 309 309 308 308 307 306 306 305 304 303 302 302 302 301 301 301 301 300

ECMWFFLT1_925_thetae_039.txt.gz
Theta_e
328 327 326 325 327 328 328 328 329 328 328 327 326 326 326 327 328 327 328 328 328 328 329 330 330 330 331 331 331 330 330 330 330 330 329 329 329 329 329 329 330 331 329 328 327 326 326 327 327 326 326 326 325 324 324 324 322 322 322 322 321 320 318
327 326 325 325 326 326 325 326 327 327 327 326 326 326 326 327 328 327 327 327 327 328 328 329 329 330 331 331 331 332 331 330 330 330 329 328 329 329 329 329 331 330 328 328 326 325 325 326 327 326 326 326 325 324 323 323 322 320 320 320 319 317 314
327 325 324 324 324 324 324 326 327 327 326 326 326 326 325 327 327 327 327 326 326 327 327 328 329 330 330 331 331 331 331 330 330 329 328 328 328 328 329 329 330 329 327 326 325 324 324 325 325 324 324 324 323 321 320 320 320 319 318 318 317 316 314
326 325 324 324 324 325 326 327 327 327 326 326 327 326 326 327 326 325 326 326 326 326 326 327 329 329 329 330 330 330 330 329 330 329 328 328 327 327 329 329 329 328 326 325 324 325 324 323 323 323 322 321 320 318 316 317 318 318 317 317 316 315 314
325 324 324 324 326 327 327 327 326 326 326 326 326 327 326 326 326 326 326 325 325 325 326 326 327 328 329 329 329 329 330 329 329 329 328 327 327 328 328 328 328 328 327 326 325 325 323 322 323 322 320 320 319 318 316 315 316 316 316 315 315 314 313
324 323 323 324 326 327 326 327 327 326 326 326 326 326 325 325 325 325 325 325 325 324 325 326 327 327 328 328 329 329 330 329 328 328 327 326 326 326 326 327 327 327 326 327 326 325 323 322 322 320 319 320 319 318 316 314 314 314 315 314 313 313 312
324 323 323 323 324 324 325 326 326 326 326 326 326 325 325 325 324 325 325 324 324 323 323 325 326 326 327 327 328 329 329 328 328 328 328 327 326 325 325 325 326 326 326 326 326 324 323 322 322 320 319 317 315 313 312 311 311 311 312 313 312 312 312
324 323 323 323 324 324 324 325 325 326 326 325 325 324 324 325 324 324 324 322 323 322 322 324 325 326 326 326 327 327 326 326 326 325 325 325 325 324 324 325 325 325 325 325 325 324 323 322 322 319 317 316 314 312 310 308 309 309 309 311 310 310 310
325 324 324 324 324 324 323 323 324 326 326 324 324 324 324 324 323 322 321 320 322 322 321 322 324 325 325 326 326 326 325 325 323 320 318 319 319 319 321 323 324 323 322 323 325 325 323 322 322 319 315 314 315 314 312 309 307 307 308 309 308 308 307
324 323 324 324 323 323 323 324 325 325 325 324 323 322 321 321 322 321 320 321 322 321 319 320 322 322 322 323 323 324 324 322 319 316 316 316 315 316 317 319 319 318 317 319 321 322 321 321 320 317 314 313 313 314 314 313 309 307 308 308 308 308 307
324 323 324 324 323 322 324 325 325 325 324 323 320 319 319 320 321 321 321 321 321 319 318 318 319 319 319 320 320 320 320 319 317 317 317 316 316 316 316 315 316 316 316 316 317 318 317 317 318 316 315 314 313 312 312 314 313 309 307 308 308 308 307
323 323 324 324 323 323 324 324 324 324 323 320 318 317 319 320 321 321 320 320 319 318 318 317 318 318 318 318 317 317 317 317 318 319 319 318 317 317 316 316 316 316 316 315 315 316 316 316 317 317 317 315 313 311 310 311 314 310 307 307 307 307 307
324 324 324 324 323 323 323 324 323 323 320 318 317 317 317 318 319 319 318 318 318 317 317 316 316 316 316 316 316 317 317 317 318 319 318 318 317 317 317 317 317 316 316 315 315 315 315 316 317 317 317 315 312 311 310 310 312 311 308 308 308 307 307
324 325 324 323 322 321 322 323 323 321 319 318 317 316 315 315 316 316 316 316 316 316 316 315 314 313 314 315 315 315 316 317 318 318 317 317 317 317 317 316 316 316 316 315 315 315 315 316 317 317 317 315 313 312 312 311 311 310 309 308 309 309 308
325 325 324 323 321 321 321 322 322 321 319 317 317 315 314 314 314 315 315 315 315 315 314 314 313 313 314 314 313 314 315 316 318 317 318 317 317 317 316 315 315 315 315 314 314 315 315 315 317 317 316 316 315 314 314 313 311 310 310 309 309 310 310
325 325 324 322 321 320 320 321 321 320 319 317 316 315 314 314 314 314 314 315 315 315 314 314 314 314 313 313 314 314 315 316 317 318 317 317 317 316 316 315 315 315 315 314 314 314 314 315 316 317 316 316 315 314 314 313 312 311 311 310 310 310 311
325 324 323 322 321 320 320 321 320 319 319 317 316 316 315 314 314 313 314 314 315 315 315 316 315 314 314 315 315 315 316 316 317 317 316 316 317 316 316 315 315 316 315 314 314 313 313 314 315 316 316 316 315 315 314 314 314 313 312 311 310 310 312
324 323 322 322 321 319 320 320 319 319 318 317 317 316 315 315 314 313 313 314 315 315 316 316 315 314 316 316 315 315 316 316 316 316 315 316 316 315 314 314 314 314 315 314 313 313 313 313 313 314 314 315 315 315 315 315 315 314 313 312 311 311 312
323 323 322 322 321 320 319 319 319 319 318 316 317 317 315 315 315 314 314 313 314 315 315 315 315 315 316 316 315 315 315 315 315 315 315 315 315 315 314 313 312 312 313 313 313 314 313 313 313 313 313 314 314 314 314 315 315 314 314 313 312 312 313
321 321 322 322 322 320 319 318 318 319 318 316 317 317 315 315 315 315 314 314 314 315 315 315 314 315 316 316 316 315 315 315 315 315 315 315 315 315 315 315 314 313 313 314 314 314 314 313 313 313 313 314 314 314 314 314 314 314 314 314 314 314 314
322 322 323 324 324 321 319 318 317 318 318 317 317 318 315 315 316 315 315 314 315 315 315 315 315 315 315 315 316 316 315 316 316 316 316 315 316 316 316 316 315 314 315 315 315 315 314 313 314 313 313 313 314 314 313 313 314 314 314 314 314 314 314
323 324 324 324 325 322 321 319 318 318 319 317 317 318 316 315 315 315 315 315 315 316 316 316 315 316 316 316 316 316 316 316 316 317 317 316 316 316 317 317 316 315 316 316 316 317 316 314 314 314 313 313 313 313 312 313 313 314 314 314 314 314 314
323 324 324 324 324 324 323 322 319 318 320 320 318 318 317 317 316 316 315 315 315 316 316 316 316 316 317 317 317 317 318 318 318 318 318 318 317 317 317 317 318 317 316 317 317 318 317 316 316 315 314 313 313 312 311 312 313 313 314 314 314 314 313
323 323 324 324 324 324 323 323 322 320 321 321 320 319 318 318 317 316 315 316 316 317 316 316 316 316 316 317 318 318 319 319 320 320 320 320 319 319 318 318 319 319 318 318 318 318 318 317 317 317 315 314 315 313 312 312 313 314 314 315 314 313 312
322 323 323 323 323 323 321 321 323 323 322 322 321 320 320 320 319 318 316 316 316 317 317 317 316 316 316 317 317 318 319 320 321 321 322 321 320 320 320 319 320 320 320 319 319 318 318 317 317 317 316 316 316 315 314 314 314 314 314 314 314 313 312
321 322 323 322 321 321 321 322 324 324 323 323 322 322 321 320 320 320 319 317 317 317 318 319 318 317 318 318 318 319 320 321 321 322 323 323 322 322 321 319 318 319 320 320 319 319 318 317 317 317 316 317 316 316 315 315 314 314 314 314 313 312 312
316 319 321 321 322 323 323 323 323 324 324 324 323 323 322 322 321 321 321 320 319 319 318 319 319 319 319 319 319 320 321 322 323 323 323 323 323 322 322 320 318 317 318 319 319 318 318 317 317 316 316 316 316 316 316 315 313 312 312 312 312 312 311
309 311 314 316 319 321 323 323 322 322 323 323 323 323 323 323 323 323 323 322 322 321 320 320 320 320 320 320 321 321 321 322 323 323 323 323 322 322 322 322 320 319 319 319 318 317 317 318 318 317 316 316 316 316 315 314 313 311 310 310 310 310 310
307 307 308 310 312 314 317 321 322 322 321 320 320 321 321 322 323 323 324 323 323 323 322 321 321 321 321 321 321 321 321 321 322 321 321 321 321 320 321 321 320 319 318 319 318 317 317 318 318 317 316 316 315 315 314 312 311 311 310 309 309 309 309
305 306 306 308 309 310 311 314 317 319 320 320 320 319 318 319 320 323 324 324 323 323 323 323 322 322 322 322 322 322 321 321 321 320 319 319 319 319 319 319 318 318 318 319 319 317 317 318 318 317 317 316 314 312 311 311 310 310 310 309 309 309 308
303 304 305 306 307 308 309 309 311 312 314 317 319 319 320 318 317 320 323 323 323 323 323 323 323 323 323 323 323 323 322 321 322 320 318 317 318 319 318 317 317 318 318 319 318 317 318 318 318 317 316 314 312 310 310 310 310 309 308 309 308 307 306
303 303 304 304 305 305 306 307 308 308 309 310 312 315 318 320 320 321 322 322 322 322 322 323 323 323 323 322 322 322 322 322 321 319 317 317 318 318 318 318 318 318 318 317 316 317 318 318 317 317 316 314 312 311 311 310 310 309 308 308 307 305 304
302 302 302 303 303 303 304 304 305 305 306 305 305 308 311 315 318 320 321 321 321 321 321 322 322 322 321 321 321 321 321 321 320 319 318 318 318 317 317 318 318 317 317 316 315 316 317 317 317 317 315 314 313 312 311 311 310 309 307 306 305 304 304
301 301 301 302 302 302 302 303 303 303 304 304 305 306 308 310 312 315 319 321 321 321 321 321 321 321 320 319 319 320 320 321 320 319 318 318 317 317 317 317 317 316 316 316 315 316 317 317 317 316 315 314 313 312 311 311 309 307 306 305 304 304 303
300 300 300 301 301 301 301 302 302 303 303 304 304 305 306 307 308 310 314 318 319 320 320 320 320 320 319 319 319 319 320 320 320 319 318 316 316 316 316 315 315 315 316 316 316 316 317 317 316 315 315 314 313 312 311 310 308 306 305 304 303 302 302
300 300 300 300 300 300 300 300 301 301 302 303 303 304 305 305 306 306 309 312 316 317 317 318 319 319 318 318 318 318 319 320 319 319 318 316 314 314 314 313 313 314 315 316 316 316 316 316 315 313 313 313 312 311 310 308 306 304 303 302 302 301 301
299 299 299 299 299 299 300 300 300 300 301 301 302 302 304 305 306 307 308 309 312 314 315 315 316 316 316 316 317 318 319 319 319 318 317 316 315 314 313 311 311 313 314 314 315 314 314 313 312 311 310 310 309 308 306 305 304 303 302 301 301 300 300

ECMWFFLT1_925_thetae_042.txt.gz
Theta_e
330 330 331 330 328 329 330 331 331 330 329 327 326 326 326 326 326 327 328 328 330 330 330 330 330 331 331 332 332 330 330 329 329 329 329 329 329 329 329 330 329 327 327 326 326 326 327 327 326 327 327 326 326 326 325 326 326 325 324 321 317 313 309
330 331 331 331 329 329 329 329 329 329 328 326 326 327 327 327 327 326 327 328 329 329 329 329 330 330 330 331 330 330 330 329 329 330 330 329 329 329 329 330 329 327 327 326 325 325 325 327 327 326 326 326 325 325 324 324 325 323 321 317 313 309 306
328 329 331 331 329 329 328 328 327 326 326 325 326 327 327 327 327 326 326 327 328 328 329 329 329 330 330 331 330 330 331 330 329 329 329 329 329 329 330 330 329 327 326 325 324 324 324 325 326 325 325 325 325 324 323 322 322 320 317 315 313 310 305
326 327 329 329 327 327 327 327 326 326 326 325 326 326 327 327 326 326 326 326 328 328 328 329 329 330 330 330 330 330 330 329 329 329 328 328 328 329 330 329 328 327 327 325 324 324 323 322 324 325 324 324 322 321 321 320 319 317 316 314 313 310 305
325 325 326 326 325 325 326 327 326 326 326 326 326 326 327 326 325 326 326 326 327 327 327 328 329 329 329 330 330 329 330 329 329 328 327 327 327 329 330 329 328 327 326 326 324 324 323 322 324 323 322 321 318 317 318 318 316 315 315 314 313 310 306
325 325 325 324 323 324 326 327 326 326 326 326 326 326 326 326 325 325 325 325 326 326 326 326 327 328 328 328 329 329 329 328 328 328 327 327 327 328 329 328 327 327 326 325 323 323 323 322 322 320 319 318 316 315 316 316 315 314 315 313 312 311 307
325 324 323 323 324 326 326 326 326 325 325 326 326 325 325 325 325 325 324 324 324 325 326 326 327 327 327 328 328 328 328 327 327 327 326 327 327 328 329 328 327 326 326 325 323 322 322 322 321 319 318 317 315 313 313 315 315 314 314 313 312 311 308
325 323 323 325 327 327 326 326 326 325 325 325 325 325 324 325 325 324 324 323 323 325 326 326 326 327 327 328 328 328 328 328 327 327 326 326 326 326 327 328 327 326 326 325 323 322 322 321 320 319 317 316 314 310 309 311 312 313 314 313 312 310 308
324 322 324 327 326 326 326 326 326 325 325 324 325 324 324 324 324 323 324 323 322 324 325 325 326 326 327 328 328 328 327 327 327 326 326 326 326 325 325 326 327 326 325 325 323 322 321 320 320 319 317 315 312 310 309 308 308 310 313 312 311 310 307
322 321 324 325 324 324 325 326 326 325 325 325 324 324 323 324 324 323 323 322 321 323 324 325 325 325 326 326 326 325 323 322 322 322 322 323 323 324 325 325 325 326 326 325 324 322 321 321 319 318 317 315 312 310 310 310 308 307 310 310 309 308 306
322 322 323 324 323 324 324 325 326 325 325 324 324 323 323 323 322 321 320 320 320 322 324 325 325 324 325 325 325 322 318 317 317 317 317 318 319 321 320 320 322 325 326 326 324 322 321 320 319 319 318 315 312 310 309 310 309 308 308 308 308 308 306
323 323 324 324 323 323 324 325 325 325 324 324 322 321 321 321 320 320 320 320 319 320 322 323 323 323 323 324 324 321 317 315 316 315 315 316 317 317 316 316 319 322 324 324 324 323 322 320 319 319 317 313 311 311 308 308 310 308 307 308 307 307 307
324 324 323 323 322 323 324 325 325 324 323 321 318 318 320 320 320 321 321 319 318 318 319 320 320 320 319 320 321 319 317 316 316 316 316 315 315 315 315 316 317 319 320 321 320 320 321 320 320 320 317 311 309 310 308 307 308 308 307 307 307 307 307
323 323 323 322 322 323 324 324 324 323 321 317 316 318 320 321 321 321 319 318 318 317 317 318 318 318 318 318 317 317 318 317 317 317 315 315 314 314 315 315 316 316 317 317 317 317 317 317 318 320 317 312 309 309 308 308 307 307 308 307 307 307 307
323 323 323 323 322 323 324 324 323 322 318 316 316 318 319 320 320 319 318 317 317 316 316 316 316 317 317 317 316 317 318 318 318 317 316 315 315 314 315 315 315 315 315 316 317 316 316 316 316 317 316 313 311 309 308 309 308 308 308 307 307 307 307
323 323 323 323 322 323 323 323 322 320 317 316 316 316 316 317 317 317 316 316 316 315 315 314 314 316 315 316 316 316 318 318 317 316 316 317 316 315 315 315 314 314 314 315 316 316 316 316 316 315 314 312 311 309 309 310 309 308 308 308 308 308 307
323 322 322 321 321 322 322 322 321 319 317 316 315 314 314 314 315 315 315 315 315 314 313 313 313 314 314 314 314 316 317 317 317 317 317 317 316 315 315 315 314 314 313 313 314 315 316 316 316 315 313 312 311 311 311 311 311 311 309 308 309 309 309
324 323 321 321 320 321 321 321 320 319 317 316 315 314 314 314 314 314 314 314 315 314 313 313 313 313 313 313 314 315 317 317 317 317 317 316 316 315 315 314 314 313 313 313 313 314 315 316 316 316 315 314 314 313 313 312 312 312 311 309 309 310 310
324 321 319 320 320 320 321 321 320 319 318 316 316 315 314 314 313 314 314 314 315 314 314 314 313 313 314 314 314 315 316 317 317 317 316 316 315 315 314 314 314 314 313 313 313 313 314 315 315 315 316 315 315 314 314 313 313 313 312 310 309 310 310
323 322 320 321 321 320 320 320 319 319 319 317 317 316 315 314 314 313 313 314 315 315 315 315 314 314 315 315 314 315 316 316 317 316 316 316 315 315 314 314 314 315 314 313 313 313 313 313 313 314 315 315 315 315 315 314 314 314 313 311 310 310 310
323 322 320 321 322 321 319 320 319 319 319 317 316 317 315 314 314 314 313 314 315 315 315 315 314 315 315 315 315 316 316 316 316 315 315 315 314 314 313 313 313 313 313 313 313 313 313 312 312 313 313 313 314 314 314 314 314 314 313 312 311 311 311
322 320 319 321 323 323 320 319 319 319 319 317 316 317 316 314 315 315 313 313 314 315 315 314 314 315 316 315 315 315 315 315 315 315 315 314 314 314 314 314 313 312 312 312 312 313 313 313 312 312 313 313 313 313 314 313 313 314 314 313 312 312 313
321 320 321 322 323 323 321 320 319 319 319 317 316 317 316 314 315 315 315 314 313 314 315 314 314 314 315 316 315 315 314 315 315 315 314 314 314 315 315 315 315 315 314 313 313 314 314 314 313 313 312 313 313 313 313 313 313 313 313 313 314 314 313
321 321 322 323 323 322 321 321 321 321 321 320 319 318 317 316 315 315 315 314 314 314 314 315 315 314 314 315 315 315 315 315 315 315 315 315 315 316 316 316 316 316 316 315 315 315 316 316 315 314 314 313 313 313 313 313 312 313 313 313 314 314 313
321 321 322 322 321 322 322 322 322 322 321 321 321 320 319 318 318 317 316 315 315 315 315 315 315 315 315 315 315 316 316 315 316 316 316 316 316 316 316 316 317 316 316 316 316 316 317 317 317 316 316 316 315 313 313 313 312 312 313 314 314 313 312
321 321 321 321 321 321 321 322 322 322 321 322 322 322 321 320 320 319 318 317 316 315 315 316 316 315 315 316 316 317 317 317 317 317 317 317 317 317 316 316 317 317 317 317 317 317 317 317 317 317 317 317 316 315 314 313 313 312 313 314 314 313 312
314 316 317 318 318 319 320 321 320 320 320 320 321 322 322 322 322 321 320 319 319 318 317 317 317 316 315 316 317 317 317 318 318 318 318 318 318 318 318 318 318 318 318 318 318 318 318 318 317 317 317 317 316 316 315 315 314 313 314 314 314 313 312
306 307 308 308 310 312 316 318 320 320 320 320 320 321 321 321 322 321 321 321 321 320 320 319 319 318 317 317 317 317 317 318 319 319 319 319 319 320 320 320 319 319 319 319 319 319 319 319 318 317 316 316 316 315 315 315 314 314 314 313 313 313 312
303 304 304 305 305 306 308 310 312 314 314 315 316 318 319 319 320 320 321 322 322 322 322 321 321 321 320 320 320 319 319 319 320 320 321 321 321 321 320 321 321 320 320 320 319 318 318 319 318 317 316 316 315 315 315 315 315 314 313 311 311 311 311
302 302 303 303 303 304 304 304 305 306 306 307 308 309 310 313 316 318 320 321 322 322 322 323 323 322 322 322 322 321 321 321 321 321 321 322 322 321 319 320 322 322 321 322 321 319 318 319 318 317 316 315 314 314 314 314 314 313 311 309 309 310 310
301 301 301 302 302 302 303 303 303 303 303 304 304 304 304 306 308 311 314 317 320 321 322 323 323 323 322 322 322 323 322 322 321 321 320 320 320 320 319 320 321 322 321 321 321 320 319 319 318 317 316 315 313 313 313 312 312 311 309 309 308 308 307
300 300 300 300 301 301 301 302 302 303 303 303 303 303 303 304 305 306 308 310 313 316 319 321 322 321 322 322 322 322 323 323 322 321 321 320 319 319 319 320 319 320 320 320 319 319 318 318 318 317 317 315 313 312 312 311 311 310 309 308 307 306 305
300 300 300 300 300 300 300 300 301 301 302 302 302 302 303 303 304 304 305 306 307 309 313 317 320 321 321 321 321 321 322 322 322 321 321 320 318 318 318 318 318 318 318 318 317 317 318 318 318 318 317 315 314 313 312 310 310 310 309 307 306 305 304
299 299 299 299 299 299 299 300 300 300 300 301 301 302 302 302 303 303 304 304 305 305 307 311 316 319 321 321 321 321 321 321 321 320 320 319 319 318 317 317 318 317 317 317 317 317 318 318 317 318 317 316 315 315 312 310 309 308 307 306 305 304 303
298 298 298 298 298 299 299 299 299 299 300 300 300 301 301 301 302 302 303 303 304 304 305 306 309 314 317 319 320 320 320 320 319 319 319 319 319 318 318 318 318 317 317 317 317 317 317 317 317 317 317 316 315 314 312 310 308 307 306 305 304 303 302
298 298 298 298 297 298 298 298 298 298 298 299 299 299 300 300 300 301 301 302 302 303 304 305 306 308 312 315 318 319 319 319 319 319 319 319 319 319 318 318 318 318 317 317 317 317 316 316 316 317 316 316 314 313 311 309 307 306 305 304 303 302 301
297 297 297 297 297 297 297 297 297 297 297 297 297 298 298 298 298 299 299 300 301 301 302 302 303 305 307 310 314 316 318 319 319 319 319 318 318 319 319 319 318 316 316 315 315 315 316 316 316 316 316 315 314 312 310 308 306 305 304 302 301 300 299

ECMWFFLT1_925_thetae_045.txt.gz
Theta_e
333 333 333 333 332 331 331 330 330 329 327 327 328 328 328 329 329 329 330 330 331 331 330 331 330 330 331 331 331 331 331 329 329 328 328 329 329 329 328 328 329 327 326 326 326 326 327 328 327 327 326 326 326 326 327 327 325 324 322 319 315 311 309
332 332 332 331 331 330 329 330 330 328 326 325 326 326 326 326 327 327 328 329 330 330 330 330 330 330 331 330 330 330 330 329 329 329 329 328 329 329 328 329 328 326 326 326 325 325 325 327 328 326 325 324 323 325 327 326 323 321 316 313 309 307 305
331 331 330 330 329 330 329 330 330 329 327 326 326 326 326 326 326 326 326 327 328 329 329 329 330 330 330 330 330 329 329 329 329 329 329 329 328 328 328 329 327 326 325 324 324 325 324 325 326 325 324 323 321 321 323 324 321 316 311 309 306 303 302
330 329 329 330 329 329 329 329 330 329 327 326 326 327 327 326 326 326 326 326 327 328 328 328 329 330 330 331 330 329 329 329 329 329 329 329 329 328 328 329 328 326 325 325 324 325 324 323 325 324 322 322 320 318 319 320 317 312 310 309 305 302 301
329 329 330 330 329 328 328 327 328 327 325 325 326 327 326 326 326 326 325 326 327 327 327 327 328 329 330 330 330 330 330 329 329 329 329 329 329 329 329 329 328 327 326 326 325 325 325 324 324 323 320 319 318 316 317 317 312 310 311 308 304 302 301
329 330 330 330 328 327 327 326 326 325 325 325 326 327 326 325 325 325 325 326 326 326 326 327 328 329 329 329 329 330 330 330 329 329 328 327 328 329 329 329 328 327 326 326 325 325 325 324 324 320 317 318 317 314 314 313 309 310 310 308 305 303 301
328 328 329 329 328 327 326 326 325 325 325 325 326 326 325 325 325 325 326 326 325 325 325 327 328 328 328 328 329 329 329 329 329 328 327 327 327 328 329 329 328 327 326 325 325 324 324 324 323 319 315 316 315 313 313 312 311 311 311 309 307 304 303
326 326 328 328 327 326 326 326 325 325 325 325 325 325 325 325 325 324 325 325 325 325 324 325 326 327 328 328 328 328 328 328 328 328 327 326 327 328 329 329 328 327 326 325 324 324 323 323 322 319 316 315 314 311 311 312 312 312 312 311 309 307 305
325 325 326 326 324 324 325 326 326 325 325 325 325 325 325 325 324 324 324 324 324 325 324 323 324 326 327 328 328 328 327 327 327 327 326 326 327 327 328 329 328 327 326 325 323 323 323 322 321 319 318 317 314 311 310 310 310 311 313 311 310 308 305
324 325 325 324 324 325 325 325 325 325 324 324 324 324 324 324 324 323 323 323 323 326 325 322 323 325 327 328 328 327 327 327 327 326 325 325 326 327 328 328 327 326 326 325 323 322 322 320 318 317 317 317 315 313 312 313 311 310 312 311 309 308 305
325 324 323 323 325 326 326 326 326 325 325 324 324 323 323 323 323 323 323 322 322 325 325 322 323 325 327 327 327 327 326 325 325 325 324 324 325 325 327 327 327 326 325 324 323 322 321 319 317 316 316 316 314 313 312 314 313 311 311 311 308 307 306
324 323 323 325 327 326 325 326 326 325 325 324 324 323 323 323 323 322 322 321 321 324 325 323 323 325 326 325 322 321 321 321 321 321 321 322 323 324 325 326 326 326 325 324 323 322 320 320 318 316 315 314 313 312 311 311 312 310 309 309 308 307 307
323 322 324 326 325 324 325 325 325 325 324 324 324 323 322 321 321 321 320 320 321 324 325 324 323 323 325 324 320 316 316 317 317 318 319 319 319 320 323 324 325 325 325 325 324 323 321 320 318 317 315 313 312 311 311 310 309 309 308 308 307 307 307
322 322 324 324 323 323 324 324 325 325 324 324 322 321 320 320 320 320 319 319 320 322 324 324 323 322 322 324 322 317 315 316 316 317 317 316 316 316 320 323 325 325 325 325 324 323 322 320 319 318 316 315 313 312 311 309 307 307 307 307 307 307 307
322 323 323 324 323 323 323 324 325 324 323 321 319 318 319 320 320 320 319 318 318 319 320 321 321 320 319 321 321 318 316 316 315 316 315 315 315 316 318 322 324 324 324 324 323 323 322 321 319 318 318 318 317 314 311 308 307 307 307 307 307 307 307
323 323 323 323 323 323 324 324 324 323 321 318 317 318 319 319 320 320 318 318 317 317 317 317 318 318 318 318 318 318 317 316 315 315 315 315 315 316 317 320 322 322 321 320 320 320 321 320 320 319 318 318 318 316 312 309 308 308 307 307 307 307 307
323 323 323 323 323 323 324 323 323 321 318 315 317 318 318 318 318 318 317 317 316 316 315 315 316 316 317 316 316 317 318 317 316 315 314 314 315 315 316 317 318 318 317 317 316 317 317 317 318 318 318 320 319 315 311 308 308 309 308 307 306 307 307
322 322 323 323 323 323 323 322 321 319 316 315 316 316 315 315 316 316 316 316 316 315 314 313 314 315 316 316 315 316 317 317 316 316 316 315 315 315 315 315 316 316 316 316 316 316 316 315 316 316 317 319 317 312 309 308 308 309 309 308 307 307 307
322 322 322 322 322 322 322 321 320 319 316 314 314 314 313 313 313 314 314 314 314 314 314 312 313 314 314 314 314 315 317 317 316 316 317 316 315 315 314 314 314 314 315 315 315 315 316 316 315 314 314 315 314 311 309 308 308 309 309 309 309 308 308
322 321 320 320 319 320 321 321 320 319 317 315 314 314 314 313 313 313 313 314 314 314 313 313 313 313 313 313 313 314 316 317 317 317 317 316 315 314 314 314 313 313 313 313 314 314 315 316 315 314 313 312 311 310 309 310 310 310 310 310 309 309 309
322 321 320 318 317 319 321 320 319 319 318 317 315 315 315 314 313 313 313 314 314 314 313 314 314 313 313 313 313 313 315 317 317 317 317 316 315 315 314 314 314 313 313 313 313 313 314 315 315 314 313 313 312 311 311 312 312 311 311 311 309 309 309
321 322 321 319 318 320 320 319 319 319 319 318 317 316 316 315 314 313 313 313 314 314 314 315 315 314 314 314 314 314 315 316 316 317 317 316 315 315 314 314 314 313 313 313 313 313 313 314 314 314 314 314 314 314 314 314 313 313 312 312 310 309 309
321 322 322 321 321 321 320 319 319 319 319 318 317 316 316 316 315 314 314 313 313 314 314 315 315 314 314 315 314 314 315 315 316 316 316 316 315 315 314 314 313 312 312 312 312 312 312 313 313 313 313 313 314 314 314 314 314 314 313 313 311 310 310
320 321 322 322 322 321 320 320 320 320 320 319 318 317 317 317 315 314 314 314 313 313 313 314 314 314 314 314 315 315 315 315 315 315 315 315 315 314 314 313 313 313 313 312 312 312 312 312 313 313 312 312 313 313 313 313 313 313 313 313 313 312 311
320 321 321 321 321 321 320 320 321 321 321 321 320 320 319 319 318 317 315 315 314 314 313 314 314 313 313 314 314 315 314 314 314 314 315 315 314 314 314 314 315 315 314 314 314 313 313 313 313 314 313 313 313 313 313 313 313 313 313 313 313 313 313
316 317 318 319 320 320 320 320 321 321 320 321 321 321 321 321 321 321 320 318 316 315 314 314 314 314 313 314 314 314 314 314 314 314 314 315 315 314 314 314 315 315 315 315 315 315 315 315 315 315 315 314 314 314 313 313 313 313 312 312 312 313 313
307 308 310 313 314 315 316 317 319 319 319 319 319 320 320 320 321 321 322 321 320 318 316 315 315 315 314 314 314 314 314 314 314 314 314 314 314 315 315 315 315 315 315 315 315 316 316 316 316 316 316 316 316 316 316 315 315 314 313 313 312 312 313
303 303 304 305 307 307 308 310 311 311 311 312 312 313 314 316 317 319 320 321 321 321 321 319 318 317 316 315 315 314 314 314 314 314 315 315 315 315 315 315 316 316 316 316 316 316 316 316 316 316 317 317 317 317 317 316 316 316 315 314 313 312 313
301 302 302 303 303 303 303 304 305 305 305 305 306 307 308 309 311 313 316 318 319 321 322 322 322 321 320 318 316 315 314 314 314 315 315 315 316 316 316 317 317 317 317 317 317 317 317 317 317 317 317 317 317 316 316 316 316 315 315 315 314 313 312
300 300 301 301 301 301 301 302 302 303 303 304 304 304 305 305 305 307 310 312 315 317 319 320 321 322 322 322 320 319 317 316 315 316 316 317 317 317 317 317 317 318 318 318 318 318 318 318 317 317 317 317 316 316 315 315 314 313 313 314 313 313 312
299 299 299 300 299 299 300 300 300 301 301 302 302 302 302 303 303 304 305 307 308 311 314 316 317 318 320 321 322 322 321 320 319 318 319 319 319 319 319 319 319 319 319 319 320 319 319 319 318 317 318 317 316 315 315 314 313 312 311 311 312 312 310
299 299 299 299 299 299 299 299 299 299 300 300 300 301 301 302 302 302 303 304 304 306 308 310 311 312 314 318 320 321 322 321 321 321 321 321 321 320 319 319 319 320 319 320 320 319 320 319 317 315 317 317 316 315 316 315 312 311 310 310 310 310 309
298 298 298 298 298 298 298 298 298 299 299 299 299 300 300 300 301 301 302 302 303 303 304 306 307 307 309 311 315 318 319 320 321 321 322 322 322 320 319 319 320 320 320 319 319 319 319 320 317 314 315 316 316 316 317 314 311 310 310 310 310 309 308
297 297 297 297 297 298 298 298 298 298 298 298 298 299 299 299 300 300 300 301 301 302 302 303 304 305 305 306 308 311 314 317 319 320 320 321 321 320 320 320 319 318 318 318 319 319 319 319 319 316 316 316 316 317 316 312 309 310 310 309 309 307 305
297 297 297 297 297 297 297 297 297 297 298 298 298 298 298 298 298 299 299 300 300 301 301 301 302 303 304 304 305 305 307 311 314 316 318 319 319 320 320 320 318 316 316 317 318 319 319 319 318 318 317 317 316 316 314 311 309 309 308 307 306 304 301
297 297 297 297 297 297 297 296 296 296 296 297 297 297 298 297 298 298 298 299 299 299 300 300 301 302 302 303 303 304 305 306 308 311 314 316 318 319 319 319 318 317 317 317 318 319 319 318 318 317 317 317 316 315 313 310 309 308 307 305 303 302 301
296 296 296 296 296 296 296 296 296 296 296 296 296 296 297 297 297 297 297 297 298 298 299 299 300 300 301 301 302 303 304 305 306 307 310 312 314 316 317 317 317 318 318 318 318 318 318 318 318 317 317 316 315 313 311 309 308 306 304 303 303 303 302

ECMWFFLT1_925_thetae_048.txt.gz
Theta_e
334 333 333 332 332 332 332 332 331 330 331 331 331 330 330 329 329 330 330 330 331 331 330 330 331 331 331 331 331 331 330 329 329 328 328 328 328 328 328 328 328 327 326 326 325 326 327 327 324 324 324 325 326 326 326 325 324 321 316 312 310 308 307
334 333 333 333 332 331 331 330 329 328 328 329 329 329 328 328 329 329 330 330 331 330 330 330 331 331 331 331 331 330 330 329 329 328 328 328 328 328 328 328 327 326 326 326 325 325 326 326 326 323 321 323 324 324 325 323 319 315 311 308 307 306 305
333 332 333 333 332 331 330 329 327 326 326 326 326 326 326 326 327 327 328 329 330 330 330 330 330 330 330 331 331 330 330 330 329 329 328 328 328 328 328 328 327 325 325 324 324 325 325 325 326 323 322 322 321 321 322 320 314 310 307 305 304 303 303
332 332 332 332 331 331 329 329 327 325 325 325 324 324 325 326 326 326 326 327 329 329 329 330 330 330 330 330 330 330 329 330 329 329 328 328 328 328 328 328 327 326 325 325 324 325 325 325 325 323 321 321 320 318 318 316 310 307 305 303 302 301 301
332 331 331 330 330 330 329 330 329 326 325 325 325 325 325 325 325 325 326 326 327 327 328 328 329 329 330 330 330 329 329 329 329 329 328 328 328 328 328 328 328 327 326 325 325 325 324 324 324 322 319 319 318 316 315 311 307 306 304 302 301 300 299
331 330 329 328 328 329 329 329 329 327 325 325 326 326 325 326 325 325 325 325 326 326 327 327 328 329 329 330 330 329 328 328 328 328 328 329 329 328 328 328 328 327 326 325 325 325 324 324 323 320 318 318 317 314 312 309 307 306 304 302 301 299 298
330 329 327 327 328 328 328 327 327 325 325 325 326 326 326 325 325 325 325 325 326 326 326 327 328 329 329 329 330 329 329 329 329 328 329 329 328 328 328 328 328 328 326 325 325 324 324 323 322 320 318 317 315 313 311 309 308 308 306 303 301 299 298
329 328 328 327 327 328 327 326 325 324 325 325 325 326 325 325 324 324 325 326 325 324 325 326 327 328 328 328 329 329 329 329 329 328 328 329 328 327 328 328 328 328 326 325 324 324 324 324 322 321 319 317 314 312 311 310 310 310 309 305 301 299 298
330 328 328 328 327 327 326 325 325 325 325 325 325 325 325 325 324 324 325 325 325 324 324 326 326 326 327 327 328 328 328 328 328 328 328 327 327 326 327 328 328 327 326 325 324 324 325 324 322 322 320 319 317 313 312 312 311 310 311 307 304 302 300
330 328 327 328 328 327 326 325 325 325 325 324 325 325 325 324 324 324 324 324 324 324 325 324 325 326 326 327 327 327 327 327 327 327 327 326 326 326 326 328 328 327 326 325 324 324 324 324 322 321 320 319 318 315 314 315 313 310 311 310 306 305 303
329 327 326 328 328 326 325 325 325 325 324 324 324 324 324 324 324 323 323 323 322 324 325 323 323 325 326 327 328 327 327 327 326 326 326 325 326 326 326 328 328 327 326 324 323 323 324 323 322 321 320 319 318 316 314 316 315 311 311 311 308 306 306
326 325 325 327 326 325 325 325 325 325 324 324 323 323 323 323 323 323 323 322 321 323 325 323 321 324 326 326 326 326 326 325 325 325 325 325 325 326 327 328 327 327 326 324 322 322 323 323 322 321 320 319 317 316 314 315 315 313 311 310 308 306 305
324 324 325 325 324 324 325 326 325 324 324 324 323 323 323 322 322 322 322 322 321 321 324 324 322 323 325 324 321 319 320 320 321 322 323 323 324 325 326 327 327 327 325 324 322 322 322 322 322 321 320 318 316 314 314 313 313 312 310 309 308 306 306
324 324 324 323 324 325 326 325 325 325 325 324 324 323 323 322 322 321 321 320 320 320 323 324 322 322 324 324 321 318 315 316 317 318 319 320 321 323 325 326 326 326 325 324 322 322 321 321 320 319 318 318 315 313 312 311 309 309 309 309 308 307 306
324 324 323 323 324 325 325 324 325 325 324 324 324 322 321 320 320 320 319 319 319 321 324 324 323 323 322 322 322 321 316 315 316 317 318 317 317 319 322 324 325 325 325 324 323 322 321 319 318 317 316 316 315 312 311 310 309 308 308 308 307 307 307
324 323 323 324 324 323 323 324 324 325 324 324 322 320 319 319 320 319 318 318 318 319 321 322 322 322 321 319 320 321 317 315 316 317 316 315 315 315 318 322 324 325 325 325 324 323 321 320 319 317 316 315 314 313 312 311 310 309 308 308 307 307 307
323 322 323 323 323 322 323 323 324 324 324 321 319 318 319 319 319 319 318 318 317 317 317 318 318 319 319 318 318 319 317 315 315 315 314 314 315 315 318 322 324 324 324 324 324 324 322 321 320 319 317 316 315 314 313 312 311 309 308 308 307 307 307
322 322 323 323 323 323 323 324 324 323 320 318 317 318 319 319 319 319 318 317 316 316 315 315 315 315 317 317 316 317 317 316 315 315 315 314 315 315 317 321 323 323 323 323 322 322 322 322 321 320 319 318 317 317 315 313 311 310 308 308 307 307 307
322 323 322 322 321 322 323 323 322 319 317 316 316 316 317 317 316 316 316 316 316 315 315 314 313 314 315 316 316 316 317 317 316 315 315 314 314 315 316 318 320 320 320 319 318 318 319 319 319 319 318 318 319 318 317 314 311 309 308 308 307 307 306
322 322 322 321 320 320 321 321 319 317 316 315 315 314 314 314 314 313 314 315 314 314 315 314 312 313 314 315 314 314 315 316 317 316 315 315 315 314 315 316 317 317 317 316 315 315 315 315 315 316 316 315 316 317 317 314 311 308 308 308 308 307 306
321 321 321 321 320 320 320 320 319 318 317 316 315 314 314 313 313 313 313 313 313 314 314 313 313 313 313 313 313 313 314 315 316 316 316 316 315 314 314 314 314 314 315 315 315 315 314 314 315 315 315 315 313 314 315 313 310 308 308 308 308 307 307
320 320 321 321 319 317 317 319 320 318 317 318 317 315 315 314 314 314 313 313 313 314 314 313 313 314 313 313 313 313 313 314 316 317 316 316 315 315 314 314 313 313 313 313 313 313 313 314 314 315 315 315 313 312 312 311 309 308 308 308 309 308 307
319 318 318 318 317 316 316 317 319 319 317 318 318 317 316 316 315 316 315 314 313 313 313 313 314 314 314 314 314 314 314 314 315 316 316 316 316 315 315 314 314 313 313 313 313 313 313 313 314 314 315 315 314 312 311 309 309 309 310 310 309 308 308
319 318 318 318 318 318 318 319 319 319 318 319 319 317 317 316 316 315 315 314 314 313 313 313 314 314 315 314 314 314 314 314 314 315 315 316 316 316 315 315 314 314 313 313 312 312 312 312 313 313 313 314 314 313 312 311 311 312 312 311 311 310 309
319 319 319 319 319 319 320 320 320 320 320 320 320 319 319 319 318 317 316 315 314 314 313 313 313 313 314 314 314 314 314 314 314 314 315 315 315 315 315 315 314 314 313 313 313 313 313 313 313 312 312 312 313 313 313 313 313 313 313 313 312 312 311
318 318 318 318 319 319 319 319 319 319 319 319 320 320 319 320 320 319 319 318 318 317 315 314 314 313 313 313 313 314 314 314 314 315 315 315 315 314 314 314 314 314 314 314 314 314 314 314 314 314 313 313 313 313 313 312 312 313 313 313 313 313 313
311 312 313 314 315 315 314 313 313 314 314 315 316 316 316 316 318 319 320 321 321 320 319 318 317 316 315 315 314 313 313 314 314 315 315 314 314 314 314 314 314 314 314 314 314 314 315 315 315 315 315 314 314 314 313 313 313 312 312 312 312 313 313
305 305 307 308 309 308 307 307 307 307 308 308 309 310 310 310 312 313 316 318 319 320 320 321 320 320 319 318 317 315 314 313 313 314 314 314 314 314 314 314 314 314 314 314 314 314 315 315 315 315 315 315 315 315 314 313 313 313 313 313 313 313 313
301 302 303 304 304 303 304 304 304 304 305 305 305 305 306 306 306 307 309 312 313 314 315 317 319 320 321 320 320 319 317 316 315 314 313 313 314 314 314 314 314 314 314 314 315 315 315 315 315 315 315 315 315 315 315 314 314 314 314 314 314 314 314
300 300 300 300 300 300 301 301 301 302 303 304 304 303 303 303 303 304 305 306 307 307 308 309 312 314 317 319 320 321 321 320 319 318 316 315 314 314 314 314 314 314 314 315 315 315 315 316 316 316 316 316 316 315 315 315 315 315 314 314 314 314 314
298 298 298 299 298 298 299 299 299 299 300 301 302 301 300 301 301 302 302 303 303 303 304 304 306 307 309 312 315 318 320 321 321 321 320 320 318 317 317 317 317 317 316 316 317 317 317 317 317 317 317 316 316 316 316 316 315 315 314 314 314 313 313
298 298 297 298 298 298 298 298 298 298 298 298 299 299 299 299 300 300 300 301 301 301 302 302 303 304 304 306 308 310 313 316 319 321 322 321 321 320 319 319 318 317 317 317 317 318 319 319 318 318 318 317 316 316 316 316 316 315 314 313 312 312 312
297 297 297 297 297 297 297 297 297 297 297 298 298 298 298 298 298 298 299 299 299 300 300 300 301 301 302 302 303 304 306 308 311 314 317 319 320 320 319 319 318 317 318 318 318 318 319 319 319 318 318 318 317 317 317 316 316 314 313 311 311 311 311
297 297 297 297 297 297 296 297 297 297 297 297 297 297 297 297 298 298 298 298 298 299 299 299 299 300 300 301 301 302 302 303 304 306 309 311 313 315 316 317 318 319 320 319 319 319 319 319 319 318 317 317 318 318 317 317 316 314 311 310 309 309 309
296 296 296 296 296 296 296 296 296 296 296 296 296 296 296 296 296 297 297 297 298 298 298 298 298 299 299 299 300 300 301 301 302 303 304 305 307 308 310 312 315 317 319 319 319 319 318 318 318 317 317 317 317 317 317 317 316 314 311 310 309 308 308
295 295 295 295 295 295 295 295 295 295 295 295 295 295 295 295 295 295 296 296 296 296 297 297 297 298 298 298 299 299 299 300 300 301 302 303 304 305 307 308 310 312 315 316 317 318 317 317 317 317 317 316 315 315 315 315 315 314 312 310 308 307 306
295 294 295 294 294 294 294 294 294 294 294 294 294 295 295 295 295 295 295 295 295 295 295 295 296 296 297 298 298 298 298 299 299 300 300 301 302 303 305 306 308 309 311 313 314 316 317 317 317 317 317 316 314 312 313 313 313 312 310 307 305 303 302

ECMWFFLT1_925_thetae_051.txt.gz
Theta_e
335 335 334 334 333 333 333 333 333 332 332 332 332 332 331 331 330 330 331 331 331 331 331 331 330 330 330 330 331 331 330 329 330 331 331 328 329 328 327 328 328 328 330 329 328 328 328 327 325 324 323 323 323 323 323 324 320 313 310 310 309 309 308
335 334 334 333 333 333 332 332 332 331 331 331 331 330 330 330 329 329 330 331 331 331 330 330 330 331 330 330 331 331 330 330 329 330 331 330 331 329 327 329 329 328 329 328 328 328 328 327 326 325 323 322 322 321 322 321 314 309 309 308 307 307 306
334 334 333 333 333 333 332 331 330 330 330 330 330 330 329 329 330 330 330 331 330 330 330 330 330 331 331 331 331 331 330 330 329 329 330 330 331 329 328 329 329 328 329 328 328 329 328 327 326 325 324 324 322 321 319 315 310 308 308 307 306 305 304
333 333 333 332 333 332 331 330 329 328 328 329 329 328 328 328 329 329 330 330 330 330 330 330 330 331 331 331 331 331 331 330 330 329 329 329 329 329 329 330 329 329 329 329 329 328 328 328 326 325 325 324 323 320 316 311 308 308 307 306 305 303 302
332 332 332 332 332 332 330 328 327 326 325 326 326 326 326 326 326 327 328 329 330 330 330 330 330 330 331 331 331 331 330 330 330 330 330 329 329 329 329 330 329 329 329 329 329 328 328 328 326 326 325 323 321 319 314 310 309 308 307 306 305 302 300
332 331 332 332 331 330 328 326 325 325 325 325 325 325 325 325 325 326 326 327 328 328 328 329 329 329 330 330 330 330 330 330 329 330 330 330 329 329 329 329 329 329 328 328 328 329 329 328 327 326 324 322 321 317 312 310 309 308 307 306 304 302 300
332 331 332 331 330 329 328 327 326 325 325 324 324 325 325 325 325 325 325 325 326 326 327 327 327 328 329 330 330 330 330 330 329 329 330 329 329 329 329 329 329 328 327 327 327 328 328 328 327 326 323 322 320 316 313 312 310 309 307 305 303 301 300
331 331 331 330 329 329 328 328 326 324 324 324 324 325 325 324 324 325 325 325 326 326 326 326 327 328 328 329 330 330 330 330 330 330 329 329 329 328 328 329 329 328 326 325 326 327 327 327 327 325 323 321 319 316 315 313 312 311 308 305 304 302 300
330 330 329 328 328 328 328 327 325 324 325 324 325 325 325 324 324 324 325 326 326 325 325 324 325 327 327 328 328 328 329 329 329 329 329 329 329 328 328 328 329 328 326 325 326 327 327 327 327 325 323 321 319 318 317 315 314 312 308 305 304 303 302
329 328 327 327 328 328 327 326 324 324 325 325 325 325 325 325 324 324 325 325 325 325 324 323 324 325 326 326 327 327 328 328 328 328 328 327 327 327 328 328 328 329 327 325 325 326 327 326 325 324 323 323 321 318 317 315 315 314 310 307 305 303 303
329 327 327 327 327 327 326 325 325 324 324 324 325 325 325 325 324 324 324 323 323 324 324 323 323 325 326 326 327 327 327 327 327 327 326 325 326 327 328 328 328 328 326 326 325 325 325 325 324 323 323 323 322 320 317 315 315 315 312 309 308 305 304
329 328 328 327 327 326 325 325 325 324 324 324 324 325 324 324 323 323 322 322 322 323 324 323 322 324 326 326 326 327 326 326 326 325 325 324 325 326 327 328 328 326 324 325 324 324 324 324 323 323 321 321 321 320 319 316 315 316 314 311 310 307 305
329 328 328 328 327 326 325 325 325 324 324 324 324 324 323 323 323 323 322 322 321 322 324 324 322 323 324 322 320 321 322 323 324 323 324 324 324 325 327 328 328 326 325 324 323 323 324 324 323 322 320 319 319 319 319 317 315 315 314 313 312 309 307
329 328 328 328 327 326 325 325 325 324 324 324 323 323 323 322 322 322 322 322 321 320 323 324 322 323 323 321 320 318 317 317 319 320 320 322 323 324 326 327 327 327 326 325 323 322 323 324 323 321 320 319 318 316 316 316 316 315 313 312 312 310 308
327 327 327 327 326 324 324 325 325 325 324 324 323 323 323 322 321 321 320 320 320 321 323 324 323 323 323 322 322 321 317 315 316 318 318 320 321 323 325 326 327 327 326 324 323 322 322 322 322 321 320 319 318 315 314 314 315 315 313 312 311 309 307
324 325 325 325 324 324 325 325 325 325 324 324 323 322 321 320 320 319 319 319 320 322 323 324 324 323 323 320 319 321 319 315 315 317 317 317 317 320 323 325 326 326 325 324 322 322 321 321 321 320 320 320 318 316 313 313 314 314 314 313 311 310 308
323 324 323 323 324 325 325 325 324 324 324 323 322 320 319 319 319 318 318 318 318 319 320 321 321 321 320 319 317 319 320 316 315 316 316 315 315 316 319 323 325 326 325 323 323 322 321 321 321 319 319 319 318 316 313 311 312 313 314 313 311 310 309
323 323 323 324 325 325 324 324 324 324 323 321 318 317 318 319 319 319 318 317 317 316 316 316 316 316 317 318 317 317 318 317 315 315 315 314 315 315 317 321 324 325 325 324 324 323 321 321 320 319 318 317 316 316 314 311 311 312 313 313 311 309 309
322 323 323 323 323 323 324 323 323 321 319 318 317 317 318 317 318 318 317 317 316 316 315 314 313 314 315 317 316 316 317 317 316 315 315 314 314 314 316 319 323 324 325 325 324 323 323 322 321 320 319 318 316 316 315 313 312 312 313 314 313 309 308
322 322 322 322 322 322 322 321 319 318 317 318 318 318 318 316 315 316 315 315 315 315 315 314 313 313 314 315 316 315 315 316 316 316 315 315 314 314 314 316 320 323 324 324 323 322 322 322 321 321 320 320 318 317 316 315 313 313 313 314 313 311 310
320 320 320 320 320 320 319 318 317 316 316 317 317 316 316 315 314 314 314 314 314 314 314 314 313 313 313 314 314 314 313 314 316 316 316 315 315 314 314 314 316 318 319 319 319 318 318 318 318 318 318 318 317 317 317 317 315 314 314 313 312 312 312
320 319 320 319 319 318 317 316 315 314 314 315 316 315 315 315 315 314 314 313 313 313 313 314 313 313 314 313 312 313 313 313 315 316 316 316 316 315 314 314 314 314 314 315 315 315 315 315 315 315 315 315 314 314 314 315 316 315 314 314 313 312 312
319 319 319 319 319 318 317 316 316 315 314 314 314 313 314 316 316 315 315 315 314 313 313 313 313 313 314 314 313 313 314 313 314 315 316 316 316 315 314 314 314 314 313 313 313 313 313 313 314 314 314 314 315 314 313 313 314 314 314 314 313 313 312
318 318 318 317 317 317 317 317 317 317 315 314 314 315 315 317 317 316 315 315 314 314 313 313 313 313 314 314 314 314 314 314 314 315 316 316 316 316 316 315 315 314 314 314 313 313 312 312 313 313 313 313 313 313 313 313 313 313 313 313 314 313 312
317 317 317 317 317 317 317 318 319 318 318 317 317 318 318 318 318 317 316 316 315 315 315 314 313 313 313 313 314 314 314 314 314 314 315 315 315 316 316 316 315 315 315 314 313 313 313 312 312 312 312 312 312 312 312 313 313 312 312 312 314 313 312
316 316 316 317 317 317 318 318 317 317 316 317 318 318 318 319 319 319 319 318 317 317 317 317 316 315 314 313 313 313 314 314 314 314 314 314 315 315 315 315 315 315 314 314 314 313 313 314 314 313 313 312 312 312 312 312 313 313 312 312 314 314 313
313 313 313 314 314 314 313 312 312 312 311 312 314 315 315 316 317 318 319 318 317 317 317 317 318 318 317 316 315 314 313 313 314 314 314 314 314 315 315 314 314 314 314 314 314 314 314 314 314 314 315 314 314 314 313 313 312 312 313 313 314 315 315
308 308 308 309 308 308 307 306 306 307 307 308 309 309 310 310 311 312 313 314 314 313 313 314 316 318 319 319 318 317 316 315 314 313 314 314 314 314 314 314 314 314 314 314 314 314 314 314 314 314 314 314 315 314 314 314 314 313 313 313 313 314 314
306 305 306 306 304 303 303 303 303 304 304 304 304 304 305 305 306 306 307 308 309 309 308 309 312 314 316 318 319 320 319 319 317 316 315 314 314 314 314 313 314 314 314 314 314 314 314 314 314 314 314 314 315 314 314 314 314 314 314 314 313 313 313
302 302 303 302 301 300 300 301 302 303 304 303 303 303 302 301 302 303 303 304 304 304 305 306 307 309 311 313 315 317 318 319 320 320 319 319 318 317 316 315 315 315 314 314 314 315 316 315 315 315 315 315 315 315 315 316 315 315 314 314 314 313 313
299 299 299 299 298 298 298 299 299 301 302 302 304 305 303 300 300 301 301 301 301 301 302 302 303 304 306 307 309 311 312 313 315 317 318 319 320 320 320 319 319 319 318 318 318 317 317 317 317 317 317 317 317 316 317 318 317 316 315 315 314 314 313
297 297 297 297 297 297 297 297 297 298 298 298 300 302 302 299 298 299 299 299 299 300 300 300 301 301 302 303 304 305 306 307 308 310 311 313 315 317 318 320 320 320 320 319 318 317 316 316 317 317 318 318 318 318 318 319 318 317 317 316 315 314 314
297 297 297 297 297 297 297 297 297 297 297 297 297 297 298 297 298 298 298 298 298 298 298 298 299 299 300 301 301 302 302 303 303 304 305 306 308 309 311 313 315 317 319 319 318 317 317 317 317 317 318 318 318 319 319 318 318 317 317 316 315 314 314
296 296 296 296 296 296 296 296 296 296 296 296 296 296 296 296 296 297 296 297 296 297 297 297 297 298 298 298 299 299 300 300 300 301 302 303 304 305 306 307 308 310 314 316 318 318 318 318 318 317 317 317 318 318 318 317 317 317 316 316 315 314 312
295 295 295 295 295 295 295 295 295 295 295 295 296 296 296 296 296 296 296 296 295 295 296 296 296 296 297 297 297 298 298 298 299 299 300 300 302 303 303 303 303 305 308 311 314 316 317 318 318 317 318 318 317 317 316 315 315 315 314 313 313 311 310
294 294 294 294 295 295 294 295 295 294 295 295 296 296 296 296 296 296 296 296 295 295 295 295 295 295 295 295 296 296 297 297 297 298 298 299 300 301 301 301 302 303 304 305 308 310 312 314 315 316 318 317 317 316 315 313 313 314 313 312 310 309 308
294 294 294 294 295 295 294 295 295 295 295 295 296 297 296 296 297 297 297 296 296 295 294 294 294 294 294 294 294 294 295 296 296 297 297 297 298 299 300 300 301 301 302 303 304 306 307 309 311 313 315 316 316 316 315 313 313 313 312 311 310 309 309

ECMWFFLT1_925_thetae_054.txt.gz
Theta_e
333 334 335 337 336 336 336 335 334 334 333 333 333 333 332 332 332 331 332 332 332 333 332 332 332 332 333 333 332 333 332 332 332 331 331 332 332 332 331 331 331 331 330 331 330 329 329 328 327 325 325 326 326 325 324 322 320 318 316 315 314 314 313
330 331 334 337 336 335 336 335 334 333 333 333 332 332 332 332 331 331 331 331 331 332 331 331 332 332 333 333 333 333 333 333 332 330 331 332 332 332 331 331 331 331 330 330 330 329 329 328 327 327 326 325 325 325 323 321 318 317 316 314 313 312 311
330 332 335 336 335 335 335 334 333 332 332 332 332 332 331 331 331 331 331 331 332 332 331 331 332 332 333 333 333 333 333 334 333 331 330 330 331 331 330 330 330 330 330 330 329 329 329 329 328 328 327 326 325 324 322 319 317 316 314 313 311 310 310
332 333 335 335 334 334 333 333 332 332 332 332 331 331 331 331 331 330 331 331 331 332 331 331 332 333 333 333 333 332 332 333 333 332 331 330 329 329 329 330 330 330 330 330 329 329 329 329 328 328 328 327 325 323 320 316 315 313 312 311 310 309 308
333 334 335 334 334 334 332 332 332 331 331 331 330 330 330 330 330 330 330 330 330 331 331 332 333 332 332 332 332 332 332 332 332 332 332 331 330 330 330 330 329 329 329 329 329 329 329 329 328 328 327 325 324 321 317 315 313 312 311 310 309 308 307
333 334 334 334 333 333 332 331 331 331 331 331 330 330 330 330 330 329 329 329 329 330 331 332 333 332 332 332 332 332 332 332 332 331 331 331 330 330 331 330 329 329 329 329 329 329 329 328 328 328 326 324 322 318 314 314 312 311 310 309 308 307 306
334 333 333 334 333 332 331 331 330 330 330 330 330 330 330 330 329 329 329 328 329 329 329 330 331 332 332 332 332 332 331 331 331 331 330 331 331 331 330 329 329 329 328 329 330 329 329 328 328 327 326 324 321 317 314 313 311 310 310 308 307 306 306
333 333 334 333 332 332 331 330 329 329 329 329 329 329 329 329 329 329 328 328 329 329 328 328 329 330 332 332 332 332 332 331 331 330 330 331 330 330 330 329 328 329 330 330 329 329 328 328 328 327 326 324 320 317 316 313 311 311 309 308 307 306 306
333 333 334 333 332 331 330 330 329 329 328 328 328 328 328 328 329 329 328 328 328 328 328 328 327 328 330 331 332 332 332 331 331 331 331 331 331 330 330 329 328 328 330 330 330 329 328 326 326 326 326 323 320 318 316 314 313 312 309 308 307 306 307
332 332 333 333 332 331 330 330 329 329 329 328 328 328 328 328 329 329 328 328 328 328 327 327 326 327 329 329 330 332 333 332 331 331 331 331 331 331 330 330 329 328 330 330 330 330 329 327 326 325 325 323 320 320 317 316 315 312 309 309 308 307 307
332 332 332 332 332 331 330 330 329 329 329 328 328 328 327 327 328 328 327 327 327 327 327 326 326 327 327 327 328 329 331 331 331 331 331 331 331 331 330 330 329 329 329 330 329 330 329 328 327 326 325 322 320 320 319 318 316 313 310 310 309 308 307
332 331 331 331 330 330 330 330 329 329 328 328 327 327 327 326 326 327 327 327 327 327 326 326 325 326 326 326 327 327 329 330 330 330 330 331 331 331 331 330 329 329 330 329 330 330 330 329 328 326 325 322 320 320 319 318 317 314 313 312 310 308 308
331 330 329 329 329 329 329 329 329 328 328 327 327 327 326 325 325 326 325 326 326 326 326 326 325 325 325 325 325 326 327 328 327 327 327 329 330 330 331 331 330 330 330 330 330 330 329 329 328 326 324 321 320 320 319 317 317 316 315 313 312 309 308
330 329 328 329 329 329 328 329 329 328 328 328 327 326 325 324 324 325 325 325 325 325 326 325 325 325 325 325 324 324 325 325 325 324 325 326 328 330 331 330 330 330 329 330 329 328 329 329 327 324 322 320 318 319 319 316 316 318 317 316 314 311 309
330 329 329 330 329 328 328 329 328 328 328 327 326 326 325 325 324 324 324 324 323 324 325 324 324 325 324 324 324 324 323 323 324 324 324 324 326 330 331 330 330 330 329 329 328 326 327 328 326 323 321 319 317 317 317 316 316 317 318 317 315 312 310
329 330 330 330 328 328 328 328 328 329 327 327 326 326 325 324 323 322 322 323 323 324 324 324 324 324 324 324 324 324 323 322 323 323 323 322 323 327 331 331 330 330 330 329 327 326 326 325 324 322 320 319 317 316 316 316 316 316 316 316 315 314 312
329 330 330 330 329 328 328 327 328 328 327 326 325 325 323 322 321 322 322 322 323 324 324 323 324 323 323 323 323 323 322 322 322 322 321 321 322 324 329 331 330 330 330 329 327 325 324 323 322 320 319 319 318 317 316 315 316 316 316 315 314 314 313
331 331 330 329 328 328 328 327 327 327 326 325 324 322 321 320 320 321 320 320 321 322 322 322 322 322 322 322 322 322 322 321 321 322 320 320 321 323 327 330 330 330 329 329 327 324 322 321 320 319 319 319 318 318 317 316 316 316 316 316 315 314 313
331 330 329 328 327 327 327 327 327 326 324 323 321 320 320 320 319 319 319 318 318 318 318 318 318 319 320 320 320 322 323 322 321 321 321 320 320 322 325 329 330 329 329 329 327 324 322 322 320 319 319 318 318 318 319 318 317 317 317 317 316 314 314
329 329 328 327 327 326 326 326 325 323 322 321 321 320 320 319 319 318 317 317 317 317 316 316 316 316 317 319 319 320 322 322 321 320 320 320 320 320 322 327 329 329 329 328 327 326 325 323 322 321 320 320 319 318 319 319 318 317 317 318 317 316 315
327 328 327 326 326 325 325 323 322 321 320 321 320 319 319 318 318 317 317 317 317 316 316 316 316 316 316 317 318 319 320 322 321 320 320 320 320 319 320 322 326 327 328 327 325 325 325 324 323 321 321 321 321 320 320 319 319 319 318 318 319 318 317
325 326 326 326 325 324 324 322 322 322 321 320 319 319 318 318 318 317 317 316 316 317 318 318 317 317 318 317 317 317 318 319 321 321 320 319 319 319 319 320 321 322 323 322 321 321 321 320 320 320 320 321 321 320 320 320 319 319 319 318 319 318 318
322 323 324 324 322 321 320 319 319 319 319 320 320 319 319 319 319 318 318 319 319 319 318 317 314 315 316 317 318 318 317 317 318 320 320 319 319 319 319 319 317 315 315 316 316 316 316 316 317 318 319 320 320 320 320 319 318 318 318 318 318 318 317
321 321 321 320 318 316 315 315 316 315 316 317 316 315 316 318 320 321 321 320 319 316 314 314 313 313 314 315 317 319 319 318 317 318 319 319 319 318 319 319 317 314 313 314 314 313 314 313 314 314 315 316 317 318 319 319 318 318 318 317 317 317 317
320 319 318 317 316 315 315 316 317 316 316 315 314 314 315 317 319 320 318 317 316 315 314 313 313 313 313 314 315 316 318 319 318 318 318 319 319 319 318 319 319 317 317 317 316 314 313 313 312 312 313 312 313 313 314 315 316 317 317 317 316 316 317
317 317 317 317 316 317 317 317 317 317 316 316 316 317 318 319 319 318 316 315 315 316 316 315 315 314 313 313 313 314 317 319 318 318 319 319 319 320 319 319 319 320 319 316 315 316 316 315 314 313 312 312 312 312 312 312 312 313 315 316 317 316 316
314 314 314 315 315 316 315 315 315 316 316 317 318 318 318 318 318 316 314 313 314 315 316 317 318 317 316 315 313 313 317 319 318 319 320 320 320 320 320 320 320 320 320 318 317 318 319 319 318 317 315 315 315 315 314 313 313 313 313 314 315 317 317
310 310 310 311 312 312 311 310 311 312 313 315 315 315 315 315 315 314 313 311 311 312 312 314 317 318 318 318 316 317 318 319 319 319 320 320 320 320 320 320 319 319 320 321 320 319 318 319 320 320 319 319 319 318 318 317 315 315 315 314 315 316 318
306 307 307 307 308 307 307 307 307 308 308 309 310 310 310 310 311 312 312 310 308 307 307 310 312 315 317 318 319 320 322 322 321 322 322 321 321 320 320 320 320 319 319 320 319 316 315 316 318 319 319 319 319 319 320 319 316 315 315 315 316 316 317
304 304 305 305 305 305 304 304 304 304 304 304 304 304 305 306 306 307 308 309 307 305 304 306 307 309 312 315 316 318 320 322 322 323 324 323 322 322 322 320 319 320 321 321 321 318 315 315 317 319 319 319 319 319 320 319 317 316 316 316 316 315 316
303 303 302 302 303 303 304 305 305 305 305 305 304 303 303 303 302 303 304 305 305 304 303 303 304 306 307 309 311 314 315 318 320 320 322 323 323 323 323 320 319 321 323 323 322 320 319 317 318 320 321 320 321 321 321 320 320 318 317 317 316 316 316
302 301 301 301 301 301 301 302 303 303 304 305 304 303 303 303 303 302 301 300 301 302 302 301 301 302 303 304 306 309 312 314 315 315 316 317 319 320 321 321 319 319 320 322 321 321 319 318 318 320 322 322 322 322 322 322 322 321 319 318 318 317 317
302 302 302 302 301 301 300 300 300 300 301 302 302 302 303 303 303 303 301 300 299 299 300 300 299 298 300 300 300 304 307 309 309 310 311 312 313 315 317 318 318 316 316 317 318 319 319 318 317 318 320 322 322 322 322 323 322 322 321 319 319 318 318
301 302 302 302 302 302 302 301 301 302 302 302 303 303 303 303 303 303 302 301 301 299 298 298 298 297 297 298 298 300 303 303 302 304 307 308 309 311 313 314 315 314 312 310 310 312 315 316 317 317 318 319 320 320 320 321 321 321 320 319 319 319 318
301 301 301 302 302 302 302 302 302 303 303 303 303 303 303 303 304 303 303 303 302 301 299 297 296 296 296 296 296 297 299 299 298 300 305 306 307 308 309 310 311 310 306 304 303 305 307 309 311 314 316 318 319 319 319 319 319 319 318 318 318 318 318
300 300 301 301 302 302 302 301 301 302 303 303 304 304 303 303 304 304 303 303 302 302 301 299 296 295 295 295 295 295 296 296 296 298 301 303 304 305 306 307 307 305 302 300 301 302 302 303 305 307 309 312 314 316 317 316 316 316 316 316 317 317 318
298 299 300 301 301 302 302 302 301 302 302 302 303 303 303 303 303 303 303 303 302 301 301 301 298 296 295 295 295 294 294 295 295 296 297 300 303 304 304 304 302 300 299 299 300 300 301 301 302 302 304 305 307 310 312 313 313 314 315 316 316 316 316

ECMWFFLT1_925_thetae_057.txt.gz
Theta_e
334 334 332 332 332 333 332 333 336 337 337 337 336 335 334 334 335 336 337 336 335 335 335 335 335 334 334 333 333 333 334 334 334 334 333 331 331 332 332 332 332 333 332 331 330 330 330 330 329 328 330 330 328 327 326 325 323 322 320 319 318 319 319
334 334 332 331 332 332 332 334 335 335 335 335 334 334 334 333 333 334 334 334 334 335 334 334 334 334 334 334 334 333 333 334 333 333 333 331 330 330 331 332 333 333 333 332 330 330 330 329 328 328 329 329 329 326 325 323 322 319 317 316 315 315 314
333 334 333 333 333 332 331 333 334 334 335 335 334 334 334 333 333 333 333 332 333 333 332 332 332 334 335 335 335 334 332 332 332 332 332 333 332 330 330 332 333 332 331 331 331 331 331 330 329 328 328 329 328 326 324 322 321 319 316 315 314 313 312
332 332 333 333 333 333 331 331 334 335 335 335 335 334 334 333 333 333 333 332 333 333 331 332 333 334 335 335 336 335 333 333 332 331 331 333 334 332 332 334 332 330 330 331 330 330 331 331 329 329 329 329 327 326 324 322 320 318 315 314 312 311 310
331 331 333 333 332 333 331 330 332 334 334 334 334 334 333 333 333 333 333 332 332 332 331 333 334 334 334 334 335 334 333 333 332 331 332 333 334 333 334 334 332 331 331 330 329 329 331 331 329 329 329 328 327 324 322 319 317 315 314 312 311 310 309
332 333 333 332 330 331 329 329 332 332 333 333 332 333 333 333 333 333 332 331 331 331 332 334 334 334 334 334 334 333 334 334 332 332 333 333 333 333 333 333 333 332 331 330 329 329 331 331 329 328 328 327 325 322 319 318 316 314 313 311 310 309 309
334 334 332 331 330 329 328 331 332 331 331 332 331 332 333 332 331 331 331 330 330 330 332 335 334 334 334 333 333 333 332 332 332 332 332 332 333 333 332 332 333 332 331 330 329 329 330 331 330 328 327 325 323 321 319 317 315 314 312 310 309 309 309
335 334 332 332 331 329 330 331 331 330 330 331 331 331 331 331 331 330 330 330 330 330 330 332 333 334 334 333 332 333 332 332 332 332 332 332 332 331 330 331 331 330 330 330 329 328 330 331 330 327 326 324 321 320 318 316 315 313 311 309 308 309 310
334 334 332 332 331 330 330 330 330 330 330 330 330 330 330 331 330 330 330 329 330 330 329 330 330 331 334 333 332 332 332 332 332 332 332 332 331 331 331 331 331 330 330 329 328 328 329 330 330 327 325 324 321 319 318 316 315 313 311 309 308 310 311
333 333 332 333 333 331 330 330 330 330 330 329 329 329 329 330 330 330 329 329 329 329 329 329 328 329 332 333 332 331 331 332 332 332 332 332 331 331 332 333 331 330 331 329 328 329 328 328 329 328 326 324 322 320 318 316 315 313 311 309 309 310 311
333 332 331 332 333 331 330 330 330 330 330 329 329 329 329 329 330 330 329 329 329 329 328 328 327 328 330 330 331 332 331 332 332 332 332 332 332 331 332 332 330 330 331 329 328 329 327 326 329 330 327 324 322 321 319 317 316 313 310 310 309 310 312
332 331 332 333 333 331 330 330 331 330 329 329 329 329 328 329 329 329 328 329 329 328 328 327 327 328 328 328 329 330 332 332 332 332 332 332 331 330 330 330 330 330 330 329 329 328 327 327 328 329 327 324 321 321 320 319 316 313 311 311 310 310 312
331 330 332 333 332 331 331 331 331 330 329 328 328 328 327 327 328 327 326 327 327 328 328 327 327 327 327 328 327 328 329 330 330 330 331 331 331 330 331 331 330 330 330 329 329 329 328 327 327 327 326 324 322 321 321 320 317 314 312 312 311 311 312
330 329 331 332 331 331 330 330 330 329 328 327 327 327 327 326 327 326 325 325 325 326 327 327 327 327 327 327 327 326 327 327 326 326 327 328 329 330 331 331 330 330 330 329 328 328 328 327 327 326 325 323 321 321 321 320 318 315 314 313 311 311 312
330 329 330 331 330 329 330 330 329 329 328 328 327 326 326 326 326 326 326 326 325 325 326 326 326 326 326 326 326 325 325 325 324 325 325 326 328 330 332 330 330 330 331 329 328 328 328 327 327 326 324 321 320 321 321 319 317 316 316 315 313 312 312
331 330 329 329 329 329 329 330 329 329 328 327 327 326 326 325 325 326 326 326 325 325 325 324 325 325 326 326 325 325 324 324 324 325 325 324 325 329 331 330 329 330 330 329 329 328 327 328 327 325 322 320 319 319 319 318 317 317 317 317 315 313 312
331 329 329 329 328 328 329 330 329 329 328 327 327 327 326 324 324 324 324 324 324 325 324 324 325 325 325 325 325 324 324 324 324 324 324 323 323 326 329 329 329 330 329 330 329 327 327 327 326 323 321 319 318 317 318 317 317 318 318 318 317 314 314
332 329 329 329 328 328 330 330 330 329 328 327 327 326 324 323 323 323 323 323 324 324 324 323 324 324 324 324 324 324 323 323 324 323 322 323 322 324 328 329 329 330 331 330 329 327 326 325 324 322 321 319 318 316 317 317 317 317 317 318 317 316 315
332 331 330 329 328 329 330 330 330 329 327 326 325 323 321 321 321 321 321 322 322 323 323 323 323 323 323 323 323 324 323 322 323 323 322 322 322 324 326 329 329 329 330 330 328 325 324 323 322 321 320 319 318 317 317 316 316 317 317 317 317 316 316
331 332 330 329 329 329 329 329 329 327 325 323 321 320 320 321 320 320 319 319 319 320 319 319 320 320 321 321 322 323 324 323 322 322 322 322 323 324 325 328 329 328 329 329 326 323 322 322 321 321 320 319 318 318 318 317 317 317 317 317 317 317 316
330 331 330 330 329 328 328 328 327 324 323 322 320 320 321 320 320 320 319 319 319 318 318 318 318 318 319 320 321 322 323 323 322 322 322 322 322 323 324 327 329 329 329 328 325 323 322 321 321 320 320 320 319 319 319 319 318 318 318 318 318 318 317
328 329 329 329 328 327 327 326 324 323 322 322 321 320 320 319 319 319 318 318 318 319 321 320 318 318 319 319 320 320 322 323 322 321 322 322 322 322 322 324 326 327 327 327 325 324 323 321 321 321 321 321 321 320 320 320 320 319 319 319 319 319 319
327 327 327 326 326 326 325 323 322 321 321 321 321 320 319 318 318 317 317 319 320 322 322 320 317 317 319 319 319 319 319 320 322 321 321 320 321 322 322 323 323 324 325 325 323 323 322 321 320 322 323 322 321 321 321 320 320 320 320 320 320 320 320
326 325 326 326 326 326 325 324 323 322 323 323 323 322 322 321 320 320 322 322 320 318 317 316 314 315 316 318 320 321 319 319 320 320 320 320 320 321 322 321 319 318 319 320 320 319 319 319 318 320 321 321 321 321 321 320 320 320 320 320 319 319 320
324 324 325 325 324 324 324 324 322 321 321 320 320 321 323 323 323 323 322 321 317 314 313 313 312 313 314 315 316 319 320 319 319 320 320 320 319 320 321 321 319 317 318 318 317 316 315 315 315 315 317 317 317 318 319 319 319 319 319 319 319 319 319
322 322 321 320 319 318 318 318 318 318 317 316 317 319 321 322 321 319 318 316 315 314 314 313 313 313 313 313 314 316 318 319 318 318 319 319 319 319 319 320 320 320 320 319 318 317 316 314 313 313 313 313 313 313 313 315 316 316 316 317 319 319 318
320 319 317 316 316 315 315 315 316 317 317 317 319 321 321 319 317 315 315 315 314 315 315 315 315 314 313 314 313 313 317 320 319 318 320 320 320 320 320 320 321 320 320 320 318 318 318 318 317 315 313 313 312 312 312 312 312 312 312 312 315 317 318
317 316 315 315 315 315 315 316 316 317 317 317 318 319 319 318 315 314 313 314 315 315 315 316 318 317 315 315 314 313 317 321 319 318 320 320 320 321 321 321 321 321 321 321 320 318 319 320 321 320 319 317 317 317 317 317 315 314 313 313 314 316 317
313 313 313 314 314 313 314 314 314 314 314 314 314 315 316 316 315 313 312 312 312 311 312 314 317 318 317 317 317 318 320 321 320 319 320 320 320 320 320 320 320 320 320 321 321 320 319 319 319 320 321 321 320 320 320 320 320 318 317 317 317 318 318
309 310 310 311 311 311 311 311 311 312 312 311 311 311 312 312 313 313 312 311 308 307 309 311 313 315 316 317 318 320 320 321 321 322 322 322 321 320 321 321 321 321 321 321 321 320 319 317 317 318 319 319 319 320 320 320 321 320 319 318 318 318 318
307 307 307 308 308 308 309 308 309 310 310 309 310 309 308 308 309 310 311 310 308 305 305 307 308 309 311 313 315 316 317 318 320 322 323 324 323 322 323 323 321 321 322 322 322 322 321 319 318 319 321 320 320 320 320 320 320 321 320 319 318 318 317
305 305 305 306 305 306 306 306 307 308 308 308 308 308 307 307 307 306 305 306 307 306 304 302 303 304 305 306 309 313 314 315 317 318 318 319 321 321 322 322 322 321 320 321 322 322 322 321 320 320 322 322 321 320 320 321 322 322 321 320 319 319 318
305 305 306 306 305 305 305 305 306 306 306 306 306 307 307 307 307 306 304 302 302 302 301 300 299 300 301 301 303 307 311 312 312 313 313 314 315 316 318 320 320 319 318 317 317 317 317 317 318 319 320 321 322 322 322 322 322 321 321 321 320 319 319
306 306 306 306 305 305 305 305 306 305 305 305 306 306 306 306 306 306 306 305 303 300 298 298 297 297 298 298 298 302 306 307 305 305 308 310 310 311 315 317 317 316 315 313 312 312 310 308 308 310 312 314 317 319 320 320 320 320 320 320 319 318 318
305 305 305 306 306 306 305 306 306 306 306 306 307 306 306 307 307 306 307 307 306 303 301 299 297 296 296 297 296 297 299 299 298 299 304 307 309 309 310 312 312 311 310 310 309 308 306 303 302 302 304 305 307 309 311 313 315 316 318 320 320 319 319
304 305 305 306 306 306 306 306 306 307 307 307 307 307 306 307 307 307 307 307 307 306 304 301 298 296 296 296 296 296 296 296 296 297 300 303 305 306 307 309 309 308 308 307 305 303 302 300 300 300 300 301 301 302 303 304 305 309 313 317 319 318 318
304 305 305 305 306 306 306 306 306 306 306 307 307 307 307 306 307 307 307 307 306 306 305 304 302 299 298 297 297 296 296 296 296 295 296 300 302 304 305 305 305 304 303 302 300 299 298 298 299 299 300 300 300 301 301 302 303 305 309 312 315 316 316

ECMWFFLT1_925_thetae_060.txt.gz
Theta_e
336 336 335 334 334 334 333 333 332 333 334 334 334 333 332 335 336 335 335 336 335 335 335 333 334 334 333 333 334 334 334 334 333 332 332 333 333 332 331 333 332 331 331 331 331 330 330 330 328 328 329 329 329 327 327 326 325 324 324 325 325 325 324
336 336 335 334 333 333 332 332 332 333 333 333 332 332 332 334 336 335 336 336 335 335 334 334 335 334 333 333 333 333 333 333 333 333 332 332 333 332 332 332 331 332 331 332 332 331 331 330 328 328 328 327 327 326 325 324 323 322 321 321 321 322 321
335 335 335 334 333 333 332 332 332 331 332 332 332 332 333 333 334 335 335 335 334 334 334 334 334 334 334 333 333 334 334 334 333 334 333 332 331 331 332 331 329 331 332 331 332 331 331 330 329 328 328 327 327 326 324 322 320 319 317 317 316 317 317
334 334 333 332 332 332 332 332 331 331 332 332 332 332 333 333 333 333 334 333 333 333 333 333 333 333 334 334 333 333 334 333 333 333 333 332 331 331 331 331 330 331 331 330 331 332 331 331 329 328 328 328 326 325 323 321 319 317 316 314 314 314 313
334 334 333 333 332 331 332 332 331 331 332 332 332 332 333 334 333 333 333 333 333 333 332 332 334 334 334 334 335 334 333 332 332 332 332 332 332 331 331 331 331 332 331 330 330 330 331 330 329 328 328 327 326 325 323 321 319 316 315 313 312 311 311
334 334 333 334 333 332 332 333 332 331 331 331 332 332 333 334 333 333 333 333 333 332 332 333 334 334 334 334 335 334 333 332 332 331 331 332 331 332 332 331 332 332 331 330 329 331 331 329 329 328 328 327 325 323 322 321 318 316 314 312 310 310 311
334 334 334 334 333 333 334 332 331 331 331 331 332 333 334 334 333 334 333 332 332 332 333 335 334 333 334 334 334 333 334 334 332 331 332 332 332 333 332 331 332 332 331 330 329 330 331 328 329 329 327 327 324 321 320 319 316 314 312 310 310 310 310
334 333 334 332 331 333 333 331 330 330 331 331 332 333 334 333 333 332 332 331 331 331 333 334 334 333 334 334 333 333 333 333 332 332 332 332 333 333 332 332 332 331 331 330 328 330 330 329 329 328 327 327 323 321 319 317 315 313 311 309 309 309 309
333 333 333 331 331 331 330 330 330 330 330 331 332 333 333 332 331 331 331 331 331 331 332 333 333 333 333 332 333 333 332 332 332 332 332 332 333 333 331 331 332 331 330 330 329 329 330 330 329 327 326 325 322 322 321 318 315 312 310 310 310 310 309
333 333 332 330 330 329 329 329 329 329 330 331 331 332 332 332 331 331 330 330 331 330 330 331 331 331 333 332 332 332 331 332 333 332 332 333 333 333 331 330 331 331 331 330 329 328 330 331 330 328 327 324 321 323 323 321 317 312 309 310 311 311 310
334 333 331 330 330 329 329 329 329 330 331 330 331 330 330 331 331 330 330 330 330 329 329 329 329 330 332 331 332 332 331 332 333 332 332 333 333 331 331 331 331 330 330 329 328 328 329 330 330 327 326 325 322 321 320 320 318 312 308 310 311 312 312
334 333 332 331 330 330 330 330 330 330 330 329 330 330 329 330 330 330 329 330 330 329 329 328 328 329 330 330 331 331 331 332 332 332 332 332 332 332 332 332 331 330 330 329 328 329 328 328 329 327 325 325 324 321 317 317 318 313 309 310 311 312 312
334 333 333 331 331 331 331 330 330 330 329 329 329 329 329 330 330 329 329 329 329 329 329 328 328 328 328 329 329 330 331 331 331 331 330 331 332 332 332 332 331 330 331 330 329 329 328 328 329 328 327 325 324 322 318 315 315 314 310 310 311 312 313
333 333 332 331 331 331 331 331 330 330 329 329 329 328 329 329 329 327 327 328 328 328 328 327 327 328 328 328 328 328 329 329 329 328 329 331 331 331 331 331 330 330 330 330 329 328 328 329 330 329 328 326 324 323 320 316 313 313 312 311 311 313 313
332 331 331 330 329 330 331 331 330 329 328 328 328 328 328 328 327 326 326 326 327 327 328 327 327 327 327 328 327 327 327 327 326 326 327 328 329 330 331 330 330 330 330 330 329 328 329 330 329 329 327 325 323 322 321 317 313 313 314 311 311 313 313
331 330 329 329 329 330 331 330 329 329 327 327 327 327 327 327 327 326 326 326 326 326 326 325 326 326 326 326 326 325 325 325 325 325 325 326 327 329 331 330 329 329 329 329 329 328 329 329 329 328 326 323 322 322 322 318 313 314 314 312 311 312 312
329 328 328 328 329 330 330 330 329 328 327 326 327 327 326 326 326 326 326 326 326 325 324 324 324 325 325 325 326 324 324 325 325 325 325 324 325 328 330 330 329 328 328 329 328 327 328 328 329 328 324 321 321 321 321 318 315 315 315 313 312 312 312
328 328 327 327 329 330 329 329 329 328 327 327 327 326 326 325 325 325 325 325 325 324 324 323 323 324 324 324 325 323 323 324 324 324 323 323 324 325 328 329 329 328 328 328 327 327 326 327 328 326 323 321 319 318 319 318 316 316 315 314 314 312 312
327 327 326 327 329 330 330 329 329 328 327 327 326 325 324 324 324 323 323 324 324 324 323 323 323 323 323 323 324 324 322 323 323 323 322 322 323 325 327 329 328 328 329 328 327 327 326 326 326 324 323 321 318 316 317 318 317 317 316 316 316 314 313
326 326 327 327 328 329 329 329 328 328 326 325 324 323 322 322 322 322 322 323 323 322 322 322 322 322 322 321 322 324 324 323 322 322 321 322 323 325 327 328 328 328 328 328 327 327 326 327 325 323 322 321 318 317 317 317 317 317 317 317 317 315 315
326 326 327 328 329 329 329 328 327 326 325 323 322 321 321 321 320 320 320 320 320 320 319 319 319 320 321 321 321 323 324 323 322 322 322 322 323 324 325 327 328 327 327 327 327 325 325 325 324 322 322 321 319 317 316 316 317 318 318 318 317 316 316
326 327 327 328 329 329 328 326 325 323 322 321 321 321 321 320 320 319 320 321 321 320 319 318 318 317 319 320 321 322 323 323 323 322 322 322 322 323 324 326 326 327 327 327 327 326 325 323 322 322 321 320 320 318 316 317 318 318 319 318 317 317 316
327 328 328 328 329 329 327 326 323 322 321 321 321 320 320 320 320 320 322 322 321 321 320 318 316 317 318 319 320 321 321 321 322 321 321 321 321 322 323 323 324 326 327 327 326 325 324 322 322 321 321 321 321 320 319 319 319 319 319 319 319 318 318
327 327 327 328 328 327 325 324 323 323 322 321 321 321 321 322 322 322 322 321 320 320 319 318 316 316 317 318 319 320 320 320 321 321 321 320 320 321 322 322 322 323 325 326 325 324 322 321 321 321 321 321 321 321 321 321 320 321 320 320 320 319 319
326 326 326 326 326 325 324 324 324 324 323 324 324 324 324 323 323 322 321 319 317 315 314 315 315 314 316 317 318 320 319 319 320 320 320 320 320 320 322 321 319 319 320 321 322 322 321 320 320 320 321 321 321 321 321 321 320 320 320 319 319 319 320
324 324 324 325 325 324 323 323 323 323 323 323 323 322 322 321 321 320 318 316 314 313 312 312 312 312 313 314 316 318 318 319 320 319 319 320 319 319 320 321 319 318 318 318 318 319 318 318 318 317 317 318 319 319 320 319 318 318 317 317 316 316 319
321 321 321 322 321 321 321 320 319 319 319 319 319 319 318 318 318 318 316 315 314 314 314 313 313 312 312 312 313 314 317 320 320 319 320 320 320 320 321 321 321 321 320 319 318 318 318 318 317 316 314 314 315 315 315 315 314 314 313 313 312 313 315
318 318 318 318 318 318 318 317 317 317 317 318 319 318 317 316 315 315 314 314 314 314 315 315 315 314 314 313 312 312 314 318 319 319 319 320 321 321 321 321 322 321 321 320 320 319 319 319 319 318 317 318 317 316 315 314 314 313 313 313 312 312 312
315 315 315 315 315 316 316 317 317 317 318 318 318 318 316 315 313 312 312 312 312 313 314 315 315 316 315 315 316 316 317 319 320 319 319 319 319 320 320 320 321 320 320 321 321 320 319 319 320 320 320 321 321 321 320 319 319 318 318 318 317 315 314
314 313 313 313 313 314 314 315 315 316 316 316 316 315 315 314 312 311 310 309 309 310 311 312 312 315 316 317 318 318 318 319 321 321 321 321 321 320 321 322 322 321 320 320 321 321 319 319 319 318 319 319 319 320 320 320 321 321 320 320 320 319 318
312 313 312 312 312 312 312 312 313 314 314 314 313 313 313 313 312 311 309 307 307 306 307 306 308 310 313 314 316 316 315 317 319 319 319 320 322 321 321 322 322 321 321 321 321 321 320 320 319 319 319 320 321 322 321 320 321 321 321 320 320 320 320
309 310 310 310 310 311 311 310 311 311 311 311 311 311 312 312 311 309 308 307 306 304 302 302 303 305 306 309 311 313 314 315 316 316 315 315 318 321 321 321 321 321 319 318 318 319 319 319 319 318 318 318 319 321 322 320 319 319 320 321 321 321 321
307 307 307 307 308 308 308 308 308 309 309 309 309 309 309 309 308 306 304 303 302 300 299 299 299 299 300 302 304 308 311 311 311 312 311 310 313 317 319 319 318 317 316 314 314 313 313 313 312 312 311 310 310 312 315 316 316 315 315 316 318 319 321
307 306 306 306 306 306 307 307 307 307 307 307 308 307 307 307 306 306 306 304 301 300 299 298 297 297 298 298 299 301 304 304 302 303 304 305 308 312 315 315 313 311 310 310 310 310 310 310 309 308 306 303 302 303 304 305 306 307 307 307 310 313 317
306 307 306 305 305 306 307 307 307 306 305 305 307 307 307 307 307 308 308 306 305 303 302 301 299 298 297 297 297 297 298 298 297 298 298 301 304 306 308 309 308 307 306 306 306 306 305 304 303 302 300 298 298 299 299 299 300 301 301 301 302 306 310
306 306 307 306 306 306 307 307 307 307 306 306 307 307 307 307 308 308 308 307 306 305 304 304 302 300 299 298 298 298 297 296 296 296 297 299 303 304 304 304 304 304 303 301 300 299 299 298 298 297 297 297 297 298 298 298 298 299 299 300 302 303 306
305 305 306 306 306 307 306 306 306 307 307 308 308 307 307 308 308 308 308 308 307 306 305 305 303 301 300 300 300 300 300 299 298 299 299 301 302 302 301 301 299 299 298 298 298 299 299 300 300 301 301 300 299 299 299 298 299 301 304 305 306 306 307

ECMWFFLT1_925_thetae_063.txt.gz
Theta_e
336 337 337 336 336 335 334 334 334 334 334 335 335 336 336 335 334 334 333 333 333 335 335 334 334 335 334 333 334 334 333 332 331 332 332 332 332 331 331 331 330 329 329 329 328 328 329 329 329 328 328 328 328 327 327 326 327 326 326 327 326 326 325
336 336 336 336 335 334 334 334 334 333 334 334 335 335 334 334 334 333 333 333 334 334 334 334 333 334 334 333 334 334 333 332 332 332 331 330 330 330 331 331 330 329 329 329 329 327 327 329 329 329 328 329 328 328 327 326 326 325 325 326 325 325 324
335 335 335 335 335 334 333 334 333 333 333 334 334 333 333 333 333 333 333 334 335 335 335 334 333 334 334 333 333 334 334 333 332 331 330 330 330 330 331 332 331 330 329 329 329 328 327 327 328 328 327 327 327 327 325 326 326 325 325 325 324 324 322
335 335 335 335 335 334 333 333 333 332 333 333 333 332 332 332 333 333 334 334 335 335 335 334 333 334 334 333 333 333 333 333 333 332 331 332 331 331 331 331 331 331 330 329 329 328 327 327 327 327 326 326 326 325 323 323 323 323 324 324 323 321 318
334 335 335 334 334 334 333 332 332 331 332 332 332 332 332 332 333 333 334 334 334 333 333 333 333 333 334 333 333 333 333 333 333 332 332 332 331 331 331 330 331 331 330 330 330 329 328 327 327 326 326 326 325 323 321 320 319 318 319 319 318 317 314
335 335 335 334 334 333 332 332 331 331 331 332 332 332 332 333 333 333 333 333 333 333 333 333 333 333 334 333 333 333 333 333 332 332 331 331 330 331 331 330 331 331 331 330 330 329 328 327 327 326 326 326 324 322 320 318 316 315 315 315 315 314 313
334 335 334 333 333 333 332 332 331 331 332 332 332 332 333 333 333 333 333 333 333 332 332 333 333 334 334 334 333 333 333 332 332 331 331 331 330 331 331 331 332 332 330 329 330 330 328 328 328 327 326 325 323 321 320 319 317 314 312 313 314 313 312
334 334 333 333 333 332 331 331 331 331 332 332 333 333 333 333 333 333 332 332 332 332 332 333 333 333 334 334 334 333 332 332 331 331 331 331 331 331 331 332 332 332 330 329 329 330 328 328 328 327 326 325 323 322 320 319 317 313 311 311 313 311 311
334 334 333 333 332 330 330 331 331 331 331 332 333 334 334 333 333 332 332 331 331 331 333 333 333 333 333 333 333 333 333 333 332 331 331 332 332 332 332 331 332 332 331 329 329 330 329 328 327 326 326 324 322 322 320 318 315 311 310 311 311 310 310
334 334 334 332 331 330 330 331 330 331 331 332 333 333 333 333 332 331 331 331 331 331 333 334 333 333 333 332 333 333 333 333 332 331 332 332 333 333 332 331 331 331 330 329 329 330 329 328 327 327 326 322 320 321 320 318 315 309 308 310 310 309 309
334 334 334 332 331 331 331 331 330 330 332 333 333 333 332 331 331 331 330 330 330 330 331 332 332 332 332 332 332 332 332 332 332 332 332 332 333 333 332 331 331 330 330 329 329 330 330 329 328 326 325 322 320 319 318 317 315 309 308 310 310 309 309
334 334 333 332 332 332 331 329 329 331 333 332 332 332 331 330 330 330 330 330 330 329 330 330 330 331 332 332 332 332 332 332 332 332 332 332 333 333 331 331 331 330 330 330 329 329 330 330 329 327 326 324 320 318 316 314 312 309 309 310 309 309 309
333 333 332 332 331 331 330 329 330 332 332 331 331 331 331 330 330 330 329 329 329 329 328 328 329 329 330 331 331 331 331 332 333 332 332 332 332 331 331 331 331 330 330 330 329 328 328 330 330 328 327 326 323 321 317 312 311 309 309 310 310 310 310
333 332 331 330 330 329 329 330 331 331 330 330 330 330 330 330 330 329 329 329 329 328 328 328 328 328 329 330 329 330 330 331 332 331 331 332 331 331 331 331 331 330 329 329 328 328 328 329 329 329 327 325 325 325 318 311 310 309 310 311 310 311 311
332 332 330 330 329 330 330 331 330 330 329 329 329 329 329 329 329 328 328 328 328 328 327 327 327 327 328 328 328 329 329 330 330 329 330 331 331 331 331 332 331 330 330 330 329 329 328 328 328 328 327 324 325 325 317 310 310 310 310 311 311 311 311
331 331 330 330 331 331 330 330 329 329 329 328 328 329 328 328 328 327 327 328 327 327 327 326 326 327 327 326 327 327 327 327 327 327 328 329 329 330 331 331 330 330 331 330 329 329 328 328 328 328 327 326 325 323 317 311 311 311 310 311 311 311 311
329 330 330 331 331 330 329 329 329 328 327 327 328 328 327 327 327 326 327 327 326 325 326 325 325 327 326 325 326 325 325 326 326 326 326 326 327 329 329 328 329 330 331 330 329 329 328 329 329 328 328 327 323 322 317 312 311 311 310 311 312 312 312
327 327 329 330 330 329 328 328 328 326 326 327 327 327 326 326 326 325 326 326 325 325 324 323 325 326 324 324 325 323 324 325 323 323 324 324 326 329 329 328 328 329 329 329 329 329 328 329 329 328 329 326 322 322 319 313 311 312 311 311 312 312 312
326 326 328 330 330 329 328 328 326 326 326 327 327 326 326 326 326 325 325 325 324 324 323 322 324 324 323 324 324 323 323 323 322 322 323 323 326 328 329 329 328 328 328 328 328 328 328 328 328 328 327 323 320 322 320 314 312 312 311 311 312 312 313
326 326 328 329 329 329 328 327 326 326 327 326 325 325 325 325 324 324 324 324 323 323 322 322 322 322 321 322 323 323 323 323 322 322 322 324 325 326 328 328 328 328 328 328 328 327 327 327 327 327 326 323 321 321 320 315 314 313 311 311 312 312 313
325 325 328 330 329 329 329 327 327 327 326 325 324 324 323 323 322 322 322 321 321 321 321 321 321 321 321 321 322 323 323 322 322 322 322 324 323 324 326 328 328 328 328 328 327 327 326 326 326 326 325 324 322 320 319 317 315 313 312 312 312 313 312
325 325 327 329 329 329 327 326 326 325 324 322 321 321 321 320 320 320 320 319 318 319 319 319 319 320 321 321 322 323 323 322 322 322 322 323 322 323 325 327 328 328 327 328 327 326 325 325 326 325 324 323 321 318 317 317 316 315 315 314 314 314 314
325 325 324 326 328 327 324 323 323 322 321 321 320 320 320 320 320 319 319 318 318 317 317 317 318 318 320 320 321 322 322 322 322 321 321 322 322 323 323 325 327 327 327 327 326 325 324 325 325 324 322 321 319 317 317 318 317 317 317 316 316 316 315
325 325 324 324 326 324 322 322 322 321 321 320 320 320 321 321 320 320 319 319 318 318 317 316 316 317 318 319 319 320 320 320 321 321 321 321 322 322 322 323 325 327 327 325 324 323 324 323 323 322 321 320 319 319 319 319 320 320 319 319 318 318 317
325 324 324 324 324 323 323 322 322 321 321 320 320 320 320 320 319 319 319 318 317 317 316 315 315 316 317 318 319 319 319 319 319 319 320 321 321 322 322 321 323 325 325 324 323 322 322 321 321 321 321 320 320 320 320 320 320 320 320 319 319 318 318
324 323 324 324 323 323 323 323 322 321 321 321 321 320 319 318 317 316 316 314 313 312 313 313 313 314 315 317 318 319 319 319 319 320 320 320 321 321 320 319 320 320 320 322 322 320 319 320 320 320 320 321 321 321 321 320 320 320 319 318 317 317 316
323 323 324 323 323 323 323 322 321 321 321 320 320 319 318 317 316 315 314 312 311 312 312 312 312 312 313 314 316 317 318 319 319 319 320 321 321 320 318 318 318 318 317 317 318 317 317 318 318 318 318 318 318 318 318 318 318 318 318 316 315 315 314
321 322 322 322 322 321 321 320 319 319 319 318 317 316 316 315 314 313 313 313 313 312 312 313 313 313 313 313 313 314 317 319 320 319 320 320 320 320 320 320 319 318 317 317 317 317 318 317 316 316 317 317 317 317 316 316 316 315 315 314 314 314 315
318 318 319 319 319 319 319 319 318 317 317 316 315 314 313 313 312 312 312 312 313 312 311 312 313 314 316 316 314 314 318 321 321 321 320 320 320 320 320 320 320 319 319 319 318 318 319 319 317 317 319 320 320 320 319 319 319 318 318 317 317 317 318
314 315 316 316 317 317 317 317 317 317 316 315 314 313 311 310 310 310 310 310 311 310 309 309 311 314 316 317 317 317 319 320 320 321 320 320 321 321 319 319 319 319 320 319 319 318 319 319 318 318 319 319 320 321 321 320 320 321 320 319 319 319 318
312 313 313 313 314 315 315 316 316 316 316 315 313 312 311 309 308 308 307 305 305 306 305 305 307 310 312 315 316 317 317 316 316 317 318 318 319 319 318 317 317 317 318 318 318 319 319 318 318 318 317 317 318 319 319 320 320 320 321 321 320 320 320
310 310 310 311 312 314 314 314 315 316 315 314 313 311 311 308 306 303 302 300 300 302 301 301 302 304 306 310 313 313 313 312 311 313 315 316 316 315 313 313 312 313 313 313 314 315 315 316 315 314 314 314 314 313 313 314 314 314 315 316 316 316 317
308 308 309 310 311 312 313 313 313 313 312 312 311 309 307 305 303 301 300 300 300 300 299 298 298 299 300 302 305 307 308 306 306 308 311 313 313 312 310 309 309 309 309 309 310 310 310 310 310 308 307 306 305 304 304 303 302 303 303 304 304 304 304
306 307 308 308 308 309 311 311 311 311 310 309 308 307 305 305 304 303 303 302 302 301 299 298 297 297 298 298 298 300 300 299 301 304 307 308 309 308 306 306 305 305 305 304 304 304 303 302 301 300 299 299 298 298 298 297 297 297 297 297 298 299 299
306 306 306 306 307 306 307 307 307 308 308 308 307 307 307 307 305 304 304 304 304 302 300 299 298 298 298 298 298 298 298 297 298 301 303 304 304 303 302 301 301 300 299 299 300 300 300 300 301 301 301 301 300 300 299 299 299 300 300 301 303 304 305
305 306 306 306 307 307 306 305 304 304 305 306 307 307 308 307 306 304 304 303 303 302 301 300 299 299 299 299 299 300 300 299 300 300 301 301 301 300 299 299 299 300 300 301 302 302 303 304 304 305 305 305 305 305 304 304 305 305 305 306 307 308 308
304 305 305 306 306 307 306 306 306 305 305 307 307 308 307 307 306 305 303 302 302 302 301 301 300 299 299 300 300 301 301 302 302 301 301 300 299 298 299 301 302 303 304 304 304 304 305 304 304 304 304 304 304 305 305 306 306 306 307 307 307 307 307

ECMWFFLT1_925_thetae_066.txt.gz
Theta_e
335 335 335 335 335 334 333 333 334 334 334 335 335 334 335 336 336 336 335 334 334 334 334 335 335 335 335 334 334 334 333 332 331 331 332 332 331 330 330 330 330 329 327 327 328 328 328 329 328 328 328 327 327 327 326 327 326 326 327 327 327 326 324
335 335 335 335 334 334 334 334 334 333 334 335 334 334 335 335 335 335 335 334 333 333 334 335 335 334 335 334 334 333 333 333 332 331 332 332 331 331 331 330 329 328 327 327 327 326 327 328 329 328 328 327 327 327 327 327 326 326 326 327 327 325 323
335 335 335 335 335 334 334 334 334 333 334 334 334 334 335 335 335 334 334 334 333 333 334 334 334 335 334 334 334 333 333 333 332 332 332 332 331 331 330 330 328 328 328 327 327 326 326 326 327 328 327 327 327 327 327 326 327 326 327 327 327 325 324
334 335 335 335 335 335 334 334 333 333 334 334 334 335 335 335 335 334 334 333 332 333 335 334 334 335 334 333 333 333 333 332 332 332 332 332 332 331 330 329 329 328 328 328 327 326 326 325 326 327 327 327 327 327 327 327 327 326 327 327 326 325 324
334 335 335 335 335 335 334 333 333 334 333 333 334 335 335 335 334 334 334 333 333 333 334 335 334 334 334 333 333 333 334 333 331 331 331 331 331 331 330 330 329 328 328 328 327 326 326 326 326 326 326 327 326 326 326 326 326 326 326 326 324 324 323
334 335 335 336 334 333 333 333 333 333 333 333 334 334 335 334 333 333 333 333 333 334 334 334 333 334 333 333 332 333 333 333 332 331 331 330 330 330 330 330 330 328 328 329 328 327 326 325 325 325 325 326 324 322 322 324 325 325 325 325 324 323 320
333 335 335 335 333 331 332 333 333 333 333 333 333 334 334 333 332 333 333 333 334 334 335 334 333 333 333 333 332 333 333 333 332 332 331 330 330 330 330 330 330 330 329 329 329 327 326 326 325 325 325 325 323 320 318 319 322 322 321 323 324 320 316
333 334 334 335 334 331 331 332 333 333 333 332 332 333 333 332 332 333 333 334 334 334 334 333 333 333 333 333 333 333 333 333 332 332 331 331 331 330 330 330 330 330 330 330 329 328 327 326 326 326 325 324 322 320 318 317 317 317 319 321 321 318 314
333 333 334 335 334 333 332 332 332 332 331 331 332 332 332 332 333 333 333 333 333 333 332 332 333 333 333 333 333 333 333 333 332 331 331 331 331 330 330 330 330 331 331 330 330 329 328 327 326 326 325 323 322 322 321 320 315 312 314 317 317 316 314
333 332 333 334 334 333 332 332 332 331 331 331 332 332 332 332 333 333 333 333 332 332 332 332 333 333 333 333 333 333 333 333 332 331 331 331 330 330 330 331 331 331 331 330 329 330 329 328 326 326 325 323 322 321 322 323 317 310 310 314 314 315 314
333 332 332 334 334 333 332 332 331 331 330 331 331 332 332 332 333 333 333 333 332 332 332 333 333 333 333 333 333 333 332 332 332 331 331 331 330 330 331 331 331 331 331 330 329 330 329 328 327 326 325 323 322 320 319 321 319 311 309 313 313 313 313
332 332 332 333 333 333 332 331 331 331 331 331 332 333 332 332 332 332 332 332 331 332 333 333 333 333 333 333 333 332 332 332 332 331 331 331 331 332 331 331 331 331 331 330 329 330 329 328 327 326 325 323 321 320 317 318 317 311 309 312 312 311 311
331 332 333 334 333 332 332 331 331 331 331 332 333 333 332 332 332 332 331 331 331 332 333 333 333 333 332 332 332 332 332 332 332 331 331 332 332 332 332 332 331 331 331 330 329 330 330 328 328 327 326 324 321 320 318 317 314 309 308 312 311 310 310
331 331 333 334 333 331 331 331 330 331 331 332 333 333 333 332 331 331 330 330 331 332 332 332 332 332 332 332 332 332 331 332 331 331 331 331 332 332 333 332 331 330 330 330 329 329 330 329 328 327 326 324 323 321 318 316 312 307 308 310 310 310 310
330 331 332 333 333 331 331 331 330 331 331 331 330 331 332 331 330 330 330 330 330 330 330 329 331 331 331 331 331 331 331 331 332 332 331 332 332 332 332 331 330 330 330 330 329 329 329 329 328 328 326 325 324 321 318 316 312 308 308 309 309 309 309
332 332 332 332 332 331 330 330 330 330 330 329 328 329 331 330 330 330 329 329 329 328 329 328 329 330 330 330 330 330 331 331 332 332 331 331 332 331 331 331 331 330 330 329 329 329 328 327 328 329 327 326 326 323 322 320 314 309 308 309 309 309 309
332 332 331 331 331 331 329 329 329 328 328 328 328 329 330 329 329 329 328 328 328 327 328 328 327 328 328 328 329 329 330 330 331 331 331 331 331 330 330 331 331 331 330 329 329 329 328 327 328 329 327 327 327 325 325 322 315 311 310 309 309 309 309
329 329 329 330 330 330 329 328 328 328 327 327 329 330 330 329 329 329 328 327 327 327 327 326 327 327 327 327 327 327 328 328 328 328 329 329 329 329 330 330 330 331 330 330 330 329 329 328 328 329 327 326 326 325 325 320 313 310 310 309 310 310 309
328 328 328 329 329 329 329 327 327 328 327 327 329 329 329 329 328 328 328 327 327 326 326 326 326 326 326 326 325 325 326 326 325 326 327 327 326 327 329 329 329 329 329 330 330 329 329 328 329 329 326 324 324 324 322 317 310 310 310 309 310 310 310
327 327 327 329 328 327 326 326 327 327 326 327 328 328 328 328 328 328 327 326 326 325 325 326 326 325 325 325 324 324 324 324 324 324 324 325 325 325 327 328 328 328 329 329 329 329 328 328 329 328 325 324 324 322 321 316 310 310 310 309 310 311 310
326 326 327 327 326 325 325 326 326 325 325 326 326 326 326 326 326 326 325 324 324 323 324 324 324 322 323 324 323 323 323 323 323 322 322 324 325 325 326 327 328 328 328 328 328 328 328 328 328 328 327 326 323 321 321 320 314 310 310 310 310 311 311
324 326 327 326 326 326 325 325 324 323 324 325 325 324 324 325 325 324 323 322 322 322 322 322 322 321 322 323 323 322 322 322 322 322 324 324 324 324 325 327 328 328 328 328 328 328 327 327 327 328 327 325 321 320 322 322 316 312 310 310 310 311 311
324 325 326 326 325 325 325 324 322 322 323 324 324 323 323 323 323 322 321 320 320 321 321 320 320 321 321 322 323 322 322 322 322 323 323 323 324 324 325 326 327 327 327 327 327 327 326 326 326 326 326 324 322 322 323 321 317 313 311 310 311 311 311
324 324 325 324 323 323 323 322 320 321 322 323 321 321 321 320 320 319 318 318 319 319 319 319 320 320 320 321 322 322 321 321 322 322 322 321 323 323 325 327 327 327 326 326 326 326 325 325 325 325 324 323 322 321 320 318 316 313 312 311 311 311 311
324 323 323 323 322 322 321 319 319 320 320 320 319 319 319 318 317 316 316 316 316 316 317 318 319 319 319 320 320 321 320 320 320 321 321 322 322 322 325 326 326 324 322 322 323 323 323 323 324 322 321 321 320 319 318 318 316 315 315 315 314 314 314
323 323 322 322 321 321 319 317 318 319 319 319 319 318 318 317 316 316 316 316 316 315 315 316 317 318 318 319 319 320 319 319 319 320 321 322 322 323 324 326 326 324 322 320 320 320 321 321 321 321 320 319 319 319 319 319 317 317 316 316 316 315 316
323 322 322 321 321 320 317 316 318 318 318 319 318 317 316 315 315 314 315 315 314 314 314 314 315 316 318 318 319 319 319 320 319 320 321 323 323 323 324 324 323 322 321 321 319 317 317 318 317 317 318 318 317 317 317 317 316 315 313 312 312 312 312
322 322 321 320 320 318 316 317 318 317 317 317 316 314 313 312 312 311 311 312 312 313 313 313 313 314 315 316 318 319 319 320 320 320 321 321 321 321 320 319 318 317 317 319 318 316 315 314 313 314 315 316 316 315 315 316 316 316 315 314 314 313 313
320 320 319 319 319 317 316 316 317 316 315 314 313 312 312 311 311 310 310 311 311 313 314 314 314 313 314 316 318 319 319 320 320 320 319 318 318 317 317 316 316 316 316 317 318 317 317 315 314 316 318 319 318 318 317 317 316 316 317 317 316 316 316
316 317 316 316 316 316 315 314 314 314 314 312 311 311 310 309 309 309 309 310 311 312 313 314 315 315 316 318 319 320 319 319 318 317 316 315 315 315 315 315 316 317 317 317 317 317 318 317 317 318 319 319 319 319 317 316 316 315 315 314 314 314 313
312 313 314 313 312 313 313 311 310 312 312 310 309 308 307 307 306 307 307 307 308 309 309 310 313 315 317 319 320 320 320 319 317 315 314 313 314 314 314 314 315 316 316 316 316 317 317 317 317 317 317 317 316 316 315 316 316 315 315 314 314 312 310
309 310 311 310 310 312 312 309 308 309 310 308 304 303 303 303 302 303 303 303 304 305 304 304 308 311 314 317 319 319 320 319 316 313 312 311 311 311 311 312 312 313 313 313 313 314 315 315 315 314 314 313 311 309 308 309 310 311 311 311 310 308 306
308 308 309 309 309 310 310 309 308 306 305 303 301 300 300 300 299 299 300 300 301 301 300 300 302 305 308 311 315 316 317 317 314 311 309 309 308 307 307 307 307 307 307 307 308 309 309 309 308 307 306 306 304 302 301 301 301 301 301 301 302 302 303
307 307 308 308 309 309 309 308 307 304 302 301 301 300 300 300 299 299 299 299 299 299 299 298 299 300 302 304 308 311 312 313 312 309 307 306 305 304 302 302 301 302 302 302 302 303 303 303 303 302 302 302 302 301 301 301 300 300 301 302 304 305 305
306 306 306 307 307 308 308 306 305 303 303 303 302 302 301 301 300 300 300 300 300 300 300 299 298 298 298 300 302 305 307 307 307 307 306 303 302 301 300 300 301 301 301 302 302 303 303 303 303 303 304 304 304 305 305 305 305 305 306 306 307 307 306
306 305 305 305 305 305 306 306 305 305 304 304 303 302 301 301 300 300 300 300 300 300 300 300 300 299 298 298 299 300 302 301 302 302 302 300 300 301 302 302 302 303 303 303 303 303 303 303 303 304 304 304 305 306 306 306 306 307 307 307 307 306 305
305 305 305 305 305 305 305 306 307 306 305 304 303 302 301 301 301 300 300 299 300 300 300 300 301 300 300 300 300 299 300 299 299 299 299 301 302 303 303 303 304 304 304 303 303 302 303 303 303 303 303 303 303 304 304 305 306 306 306 305 305 304 304

ECMWFFLT1_925_thetae_069.txt.gz
Theta_e
336 335 335 335 335 336 335 335 335 334 335 335 335 334 333 334 334 334 333 332 333 334 334 335 335 334 334 334 333 333 332 331 331 330 330 330 330 328 327 328 329 328 327 326 327 327 327 328 328 327 327 328 328 327 327 327 327 326 326 327 327 327 326
335 335 335 335 334 335 334 334 334 333 334 334 335 334 334 334 335 335 334 333 333 334 335 335 335 335 334 334 334 333 332 331 331 331 330 330 330 329 328 329 329 328 326 327 327 326 325 327 328 327 327 327 327 327 327 327 327 326 326 327 327 327 326
335 335 335 335 334 334 334 334 333 333 333 334 334 334 334 335 335 335 335 334 333 334 335 335 335 335 334 334 334 333 333 332 331 331 330 331 331 330 329 329 329 327 326 326 326 326 325 326 327 326 327 327 326 326 327 327 326 326 326 326 327 327 325
335 335 334 334 334 334 334 333 333 333 334 334 334 334 334 335 335 336 336 335 334 334 334 335 335 335 335 334 334 333 333 332 332 331 331 330 331 331 330 330 329 328 328 327 326 326 325 324 325 326 327 327 326 326 327 327 326 326 326 326 327 326 324
335 334 335 334 334 333 333 333 332 332 333 333 333 334 334 334 334 336 336 335 335 335 334 333 334 335 334 335 334 334 333 333 332 332 331 331 331 331 330 330 330 329 328 327 326 326 325 324 324 326 327 326 326 326 326 327 326 326 326 326 327 327 325
334 334 335 334 334 333 333 333 332 333 332 331 333 334 334 334 334 334 335 335 335 334 333 333 334 334 334 334 334 334 333 333 332 332 332 331 331 331 331 330 330 329 328 327 327 326 325 325 324 325 326 325 325 325 325 327 327 326 326 326 327 326 325
334 334 334 334 334 333 333 333 332 332 333 331 332 333 333 334 334 335 335 335 334 334 333 333 334 334 334 335 334 333 333 333 333 332 332 332 332 331 331 331 330 329 328 327 327 327 325 325 324 325 325 325 324 322 322 325 326 325 325 326 327 326 325
333 333 334 334 334 333 333 333 333 332 333 332 331 332 333 334 334 335 334 333 333 333 332 333 334 334 334 334 333 332 332 333 333 333 332 331 331 332 331 331 330 329 328 327 328 327 326 325 324 325 325 324 322 319 318 320 322 324 326 325 326 325 324
333 333 333 333 333 334 333 333 333 332 332 332 331 331 332 333 334 335 333 331 332 333 332 333 334 335 334 334 333 333 332 332 333 333 332 331 331 331 331 330 330 330 329 328 328 328 327 326 325 325 325 324 322 321 319 317 317 320 323 324 324 325 324
332 332 330 331 333 334 334 333 334 333 332 331 331 331 330 332 334 334 332 331 332 333 333 333 334 334 333 333 333 333 332 332 333 333 332 331 331 330 330 330 329 330 330 329 329 329 328 327 325 325 325 324 323 321 321 320 317 315 318 321 323 323 324
332 331 330 330 332 333 334 334 333 333 332 331 331 330 329 331 333 333 332 332 332 332 333 334 334 334 334 333 333 333 332 332 332 332 332 331 331 331 331 330 330 330 330 330 330 330 329 328 326 325 325 324 323 321 320 320 319 315 314 317 320 321 321
331 331 331 331 330 332 333 333 333 333 332 331 331 330 329 331 332 332 332 332 332 330 332 334 333 333 333 333 333 333 332 332 332 332 332 331 331 331 330 330 330 330 330 330 330 330 329 329 327 326 325 324 323 321 319 318 319 317 313 315 318 317 316
330 330 331 331 330 331 332 332 333 333 332 331 331 330 330 331 332 331 332 332 332 330 330 333 332 332 332 332 333 333 332 333 333 332 332 331 331 331 330 330 330 330 330 331 330 329 329 329 328 327 326 324 322 322 319 318 319 316 312 313 315 314 314
329 330 331 331 331 331 332 333 333 332 331 330 330 330 330 331 331 331 331 331 331 330 330 332 332 332 333 333 333 333 333 332 332 332 331 330 331 331 330 330 330 330 331 331 331 330 329 329 329 327 326 325 323 322 320 319 317 313 310 311 313 313 313
329 330 331 331 331 331 332 333 331 330 330 330 330 330 330 331 331 331 331 331 331 331 331 332 333 332 333 333 333 333 332 332 332 332 331 330 330 331 331 331 331 331 331 331 330 330 329 329 329 327 326 325 323 322 321 320 317 312 309 310 311 312 312
330 330 330 330 331 332 333 332 330 329 329 329 330 330 331 331 330 330 331 331 331 332 332 332 332 332 332 332 332 332 332 332 332 332 331 330 331 331 331 332 332 331 331 330 330 329 329 329 329 328 326 325 323 322 321 320 318 314 311 310 310 311 311
330 330 330 330 331 332 332 331 329 329 329 330 329 330 331 329 328 330 330 329 331 331 332 332 332 332 332 332 332 331 331 331 331 331 331 331 331 331 331 332 332 331 330 330 330 329 329 329 329 328 327 325 323 322 321 320 320 319 315 311 310 310 310
330 330 330 330 331 331 330 330 330 329 329 329 329 330 330 328 328 329 328 328 330 331 331 331 331 331 332 332 331 331 331 330 331 331 331 331 331 331 331 331 331 331 331 330 330 330 329 329 328 327 325 325 324 323 323 322 321 320 316 313 311 310 309
328 329 328 329 330 330 329 329 329 329 328 328 328 328 329 328 328 327 327 328 330 330 329 329 329 330 331 330 330 330 330 330 330 331 331 331 331 331 330 330 330 330 330 331 330 329 329 329 328 327 325 326 325 325 325 324 323 320 317 314 312 310 309
326 327 327 328 328 328 328 328 328 329 328 328 326 325 326 327 326 326 327 329 329 328 328 328 328 329 329 329 328 328 328 329 330 330 329 329 329 329 329 328 329 329 330 331 330 330 329 329 328 327 327 327 326 325 326 325 324 322 317 312 310 310 309
325 325 326 327 327 327 327 327 328 328 328 327 325 325 325 326 325 326 327 328 327 327 328 327 327 327 327 327 327 326 326 327 327 327 326 326 327 327 326 327 328 328 329 329 329 329 329 329 329 328 328 328 327 326 325 324 324 321 315 310 309 309 309
325 325 326 326 326 327 327 327 327 327 326 326 326 326 326 325 325 326 327 326 327 326 326 326 326 326 326 325 325 324 324 325 325 325 325 325 325 326 325 326 327 328 327 328 328 329 329 328 328 328 327 326 326 325 323 323 323 319 312 308 309 309 309
325 325 325 326 326 326 326 326 326 325 326 326 325 325 324 324 326 327 326 325 325 325 325 325 324 324 323 324 323 323 323 323 323 323 323 323 324 325 326 326 327 327 327 327 328 328 328 327 327 328 327 326 325 324 323 321 322 319 312 308 309 309 309
325 324 325 325 325 325 325 325 324 324 324 324 323 323 322 323 325 325 324 324 323 323 323 323 323 323 323 323 322 322 322 322 322 322 323 323 324 324 325 326 327 327 327 327 327 327 327 326 326 326 326 326 325 324 323 321 321 321 316 311 309 309 309
324 324 325 324 324 324 324 323 323 322 321 320 319 320 321 322 323 323 322 322 322 321 322 321 321 322 322 322 322 322 322 322 322 322 323 323 324 324 325 326 326 326 326 326 326 326 326 326 325 325 325 325 324 323 323 320 319 320 318 313 310 309 309
323 323 323 322 322 322 322 321 321 320 318 316 315 317 321 322 321 320 321 321 320 319 319 319 320 321 321 321 321 321 321 322 323 323 323 323 324 325 325 326 324 322 321 322 323 324 324 324 323 321 321 320 319 318 318 317 316 316 316 313 311 310 311
322 321 322 321 320 320 319 318 316 316 316 314 313 316 320 320 319 318 319 319 319 318 318 318 319 319 320 320 320 320 321 321 322 323 324 324 325 325 325 325 323 321 318 318 320 321 321 320 318 317 316 315 315 314 314 314 313 313 313 312 312 312 313
320 319 318 318 317 317 315 313 312 312 313 311 310 313 316 317 316 316 317 317 317 317 317 317 318 319 319 319 320 320 320 320 321 322 323 323 324 323 323 323 322 321 320 318 317 318 318 317 316 316 315 315 314 314 314 314 314 314 313 313 313 314 315
316 316 314 313 313 312 311 309 308 308 309 308 308 310 312 313 314 314 314 315 316 315 315 315 316 317 318 319 319 319 319 319 320 321 321 320 320 319 319 319 318 319 319 318 315 315 314 314 315 316 315 315 314 314 313 312 311 312 313 313 314 314 314
312 313 313 311 309 309 309 308 307 308 310 310 309 309 309 311 312 312 313 313 314 314 313 314 315 316 318 319 319 319 319 319 318 318 317 316 316 316 315 315 316 316 317 317 315 314 314 314 315 317 316 315 314 313 311 309 308 308 307 308 309 309 309
309 310 311 310 308 308 309 309 308 308 309 309 308 307 308 309 310 311 311 312 313 313 314 315 316 317 318 319 319 318 318 317 316 315 313 313 313 314 313 313 314 315 315 315 315 315 315 315 316 316 315 314 313 312 309 307 306 306 304 304 305 305 305
308 308 308 308 307 306 307 308 307 306 306 305 305 305 306 307 308 308 309 311 313 314 315 316 317 317 318 318 318 318 318 316 314 312 311 311 311 312 312 312 311 311 311 311 312 313 313 314 315 313 313 313 311 307 304 303 303 304 303 304 305 305 305
309 308 307 307 306 304 303 304 305 304 303 302 302 302 303 303 303 303 304 308 311 314 315 316 316 316 317 317 317 317 317 316 314 311 310 311 310 309 309 308 307 306 307 307 309 309 310 310 311 309 309 310 308 304 302 302 302 303 303 304 305 305 305
308 308 306 305 304 302 301 301 301 301 300 300 300 300 301 301 301 300 301 303 306 309 312 314 315 315 315 316 316 316 316 315 314 312 310 309 308 306 305 304 303 303 304 305 306 306 306 306 306 306 306 306 305 303 303 303 304 304 304 305 305 305 304
307 307 306 305 303 302 301 300 300 300 300 300 299 300 300 300 300 300 300 300 301 303 306 310 312 314 315 315 315 315 316 313 312 312 310 307 305 304 303 302 303 303 303 304 304 304 305 304 304 305 305 305 304 305 304 305 305 305 305 305 305 304 304
305 306 306 305 304 303 303 302 301 300 300 300 300 299 300 300 300 300 300 300 300 300 302 304 307 309 311 311 311 312 312 310 309 310 308 305 303 303 303 303 303 303 303 303 303 303 303 303 303 304 305 305 305 305 305 306 306 306 305 305 304 303 303
305 305 305 305 305 305 304 303 302 301 300 300 300 300 300 300 300 300 300 301 301 301 301 301 302 302 303 304 304 304 304 304 304 305 305 303 303 303 303 303 302 302 302 302 302 302 303 303 303 303 304 304 304 305 305 305 305 305 304 303 302 301 301

ECMWFFLT1_925_thetae_072.txt.gz
Theta_e
335 335 335 335 336 336 336 336 335 335 335 335 335 335 335 334 333 332 332 332 334 335 335 335 336 335 335 334 333 331 331 331 330 329 329 329 328 327 327 326 327 327 326 326 326 326 326 327 328 328 328 328 327 326 327 327 328 326 325 326 327 326 326
335 335 335 335 335 336 335 335 335 334 335 334 335 335 334 334 333 333 332 332 333 334 335 335 336 335 335 335 333 332 331 331 330 329 329 329 328 328 327 326 328 327 326 327 326 324 324 326 328 327 327 327 327 327 327 327 327 326 325 326 327 326 326
335 335 335 335 335 335 335 335 335 333 333 334 335 334 333 332 333 333 333 333 334 334 334 334 335 335 335 335 334 333 333 332 331 329 329 329 329 329 328 327 328 327 326 326 325 324 324 325 327 327 326 326 326 327 327 327 327 326 326 326 326 327 326
335 335 335 335 334 334 334 334 334 332 332 333 334 334 334 333 332 333 333 333 334 333 332 333 333 334 334 335 334 333 332 331 331 330 329 329 329 329 329 328 328 327 327 326 326 325 324 324 325 326 326 326 326 326 326 326 326 326 326 326 326 327 326
335 335 335 335 334 334 334 333 333 332 332 333 333 333 334 334 333 333 333 334 334 333 333 332 333 333 334 334 334 333 332 331 331 331 330 329 329 330 329 328 328 328 328 328 327 326 325 324 324 325 325 325 325 326 326 326 326 325 325 325 326 326 326
334 335 335 335 335 334 334 332 332 332 332 332 332 332 333 333 333 333 334 334 333 334 333 332 333 334 334 335 334 334 333 332 332 331 330 330 330 330 330 329 328 328 329 328 328 326 325 324 324 325 325 325 325 324 325 326 326 325 325 325 325 326 326
333 332 331 333 334 334 333 332 331 330 331 331 331 332 333 333 333 333 333 333 332 333 333 333 333 333 334 335 333 332 332 333 332 332 331 331 331 330 330 330 330 329 329 329 328 327 326 324 324 324 325 324 324 323 323 325 326 325 325 325 325 325 326
332 330 330 332 334 334 333 332 331 330 330 330 330 331 332 333 333 333 333 333 333 333 334 333 332 332 332 333 333 332 332 333 333 332 331 331 331 331 330 330 330 330 329 329 328 327 326 325 324 324 324 323 323 320 320 323 324 325 325 325 324 325 325
332 331 331 333 334 334 333 332 331 330 330 330 330 331 331 331 332 332 333 333 333 334 334 332 330 329 331 333 333 332 332 333 333 332 332 332 331 331 331 331 331 330 330 329 328 327 327 326 325 324 323 323 323 321 319 320 321 322 325 325 324 324 325
331 332 332 332 333 333 332 332 331 331 330 331 331 331 331 331 331 332 333 333 332 333 333 332 329 329 331 332 332 333 332 333 333 332 332 332 332 331 331 331 331 331 330 330 329 327 327 326 325 325 324 323 324 322 321 321 320 320 322 324 324 324 324
330 331 331 331 332 332 331 332 332 331 331 331 331 331 331 331 331 331 332 332 332 333 333 332 331 331 331 332 331 331 332 332 332 332 332 332 332 331 331 331 331 331 331 330 329 328 327 327 326 325 324 323 323 323 322 322 322 320 320 323 324 324 324
330 331 331 332 331 330 330 331 332 332 332 332 331 331 330 330 330 331 332 332 332 332 332 331 332 331 332 332 331 329 331 332 332 331 332 332 332 331 330 330 330 330 330 330 329 329 328 328 327 326 325 324 324 323 321 322 323 321 319 322 324 324 324
329 330 331 331 331 330 329 330 331 331 331 331 331 332 331 330 330 330 331 331 331 331 331 330 331 331 332 332 330 330 332 333 331 331 332 332 332 331 331 330 330 330 330 329 329 329 329 329 328 327 326 325 324 323 321 320 321 319 317 320 322 323 323
328 329 329 329 330 331 331 330 330 330 331 331 331 332 332 330 330 330 330 330 331 331 330 330 331 332 332 331 329 330 332 332 331 332 332 332 332 331 331 330 330 330 330 329 329 329 329 329 328 327 326 325 324 323 321 320 319 316 314 316 317 317 320
328 329 329 329 329 330 331 330 330 330 331 331 331 332 332 331 330 329 329 330 330 330 330 330 331 331 330 329 329 330 331 331 331 332 332 332 332 331 331 330 330 330 329 329 329 330 330 329 328 328 327 326 325 324 321 320 319 317 314 313 314 314 315
328 329 329 329 329 329 330 330 330 331 331 331 331 332 331 330 330 329 330 330 330 329 330 329 330 330 330 329 329 330 332 331 331 332 332 332 331 331 331 330 330 330 329 329 330 330 330 329 329 329 328 327 327 325 323 321 320 319 316 314 313 312 313
327 329 329 329 329 329 330 330 330 330 331 331 330 330 330 330 330 329 330 330 330 330 330 329 329 330 331 330 329 329 331 332 332 332 332 331 331 330 330 330 330 330 330 330 330 330 330 329 329 329 328 328 327 325 324 322 321 320 319 315 313 312 312
326 327 327 328 328 329 329 329 328 329 330 331 330 329 329 329 330 329 330 330 330 330 330 329 330 330 330 330 329 329 331 332 332 332 331 331 331 330 330 330 331 331 331 330 330 330 330 329 328 328 328 328 327 325 324 323 322 321 319 316 314 312 311
325 326 326 326 327 327 328 328 328 329 330 331 330 329 328 329 329 329 330 330 330 330 330 330 331 331 330 330 329 330 331 332 331 331 331 331 330 330 330 330 331 331 331 331 331 330 329 329 328 328 328 328 327 326 324 323 322 321 319 317 316 314 312
325 325 325 325 326 326 326 327 328 329 329 330 330 329 328 328 329 330 330 330 330 330 330 330 330 330 330 330 330 330 331 331 331 331 331 331 331 330 330 330 331 331 331 330 330 330 329 329 329 328 328 328 327 325 324 323 322 321 318 316 315 314 312
325 325 325 325 325 325 325 325 327 328 328 329 330 329 328 328 329 329 330 330 330 330 329 329 329 330 330 331 331 331 331 331 330 330 330 331 331 331 330 330 330 330 330 330 330 329 329 329 329 328 327 327 326 325 325 324 323 323 320 317 314 313 311
323 324 325 325 325 325 325 325 326 326 327 328 329 328 327 328 328 329 329 329 328 328 328 328 329 330 330 331 331 330 330 330 329 329 330 330 330 330 330 330 329 329 328 329 329 329 329 329 328 328 328 327 326 326 325 324 323 323 322 319 315 311 310
322 323 324 325 325 325 324 325 325 326 326 327 327 326 326 327 328 329 328 327 327 327 328 328 329 329 329 329 330 329 328 328 328 328 329 329 328 328 328 328 328 327 327 327 328 328 329 328 327 327 328 328 327 327 325 324 323 322 322 322 317 310 308
320 322 323 324 324 324 324 325 325 326 326 326 325 325 325 326 327 327 326 326 326 327 327 328 328 327 327 328 328 327 326 325 326 327 327 327 326 326 326 326 326 326 327 327 327 327 328 328 327 327 327 327 326 326 325 324 323 322 322 322 317 312 310
319 322 323 324 324 324 324 325 325 325 325 324 323 323 324 325 325 325 325 325 326 327 327 327 327 326 326 326 326 325 324 324 325 325 325 325 324 324 324 325 325 326 326 327 327 326 327 327 326 326 326 326 324 324 323 323 322 321 321 320 318 316 314
317 320 322 323 323 324 323 323 323 323 323 322 322 321 322 323 324 323 324 325 325 326 326 326 325 325 324 324 324 323 323 323 323 323 323 323 324 324 324 324 325 326 326 326 326 326 326 326 326 325 325 324 323 323 322 322 321 321 321 321 320 318 315
313 316 319 321 321 321 320 319 318 317 318 318 319 319 320 320 322 322 322 324 325 325 324 324 323 323 322 322 322 322 322 322 322 322 323 324 324 324 324 324 325 325 324 324 324 325 325 325 324 322 321 319 318 317 318 319 319 319 318 317 316 315 312
310 311 313 315 315 314 314 313 313 312 313 314 316 316 316 316 317 318 320 323 324 323 322 322 322 321 321 321 321 321 322 322 322 323 324 324 324 324 323 324 323 322 321 322 323 323 323 322 319 317 316 315 314 313 314 314 314 315 315 313 312 313 313
308 308 308 309 309 308 307 307 308 309 310 311 312 312 312 311 311 313 316 319 320 319 320 320 320 320 320 321 321 321 322 322 323 323 323 323 323 323 322 323 321 319 319 320 320 319 319 317 315 314 313 312 312 312 312 312 312 313 314 313 313 314 315
307 306 306 306 305 304 303 302 303 305 307 308 308 308 308 308 308 309 312 315 316 317 319 319 319 319 319 320 320 320 321 321 321 321 321 320 321 321 321 321 320 319 317 317 315 314 315 315 313 313 313 312 312 311 309 307 308 309 310 311 311 311 311
305 304 304 303 302 302 302 301 301 304 306 305 305 305 306 307 308 309 311 313 315 316 318 318 318 318 318 319 319 319 319 319 318 318 317 317 317 317 317 317 319 318 316 314 313 313 314 315 314 314 314 313 312 309 306 305 305 306 306 307 307 307 308
304 303 302 301 301 301 302 301 301 303 304 304 304 305 306 307 308 309 310 311 312 314 315 316 317 318 318 318 318 318 318 317 316 314 314 313 313 313 314 315 316 316 315 314 314 314 314 314 315 315 315 314 311 307 304 304 305 305 306 306 306 306 306
303 303 302 301 300 300 301 302 302 302 303 303 304 306 307 307 307 307 308 310 310 311 312 313 314 315 316 316 316 317 317 316 314 311 310 310 309 309 310 311 312 312 313 314 315 315 314 314 315 314 314 313 310 304 303 304 305 305 305 305 305 305 304
303 303 302 302 301 300 300 301 302 302 302 303 304 305 305 305 305 304 305 307 308 308 309 310 310 312 313 314 314 315 315 314 313 310 308 306 306 306 306 306 306 306 308 309 310 310 310 310 310 310 310 310 307 303 303 304 305 304 304 304 303 303 303
303 303 302 302 302 301 301 300 300 301 301 302 303 302 301 302 302 301 302 304 305 305 306 307 308 309 310 311 312 312 312 311 309 309 307 305 304 304 304 304 304 304 305 306 305 305 305 305 306 306 306 306 305 304 304 304 304 304 304 303 303 302 302
304 303 302 302 301 301 301 301 301 301 300 300 301 300 300 300 300 299 299 300 301 302 303 305 306 307 308 309 309 310 309 308 307 307 306 304 303 303 303 303 303 303 304 304 304 304 304 304 305 305 305 305 305 305 304 304 304 303 303 302 302 301 301
304 303 302 302 301 301 301 301 301 300 300 300 300 300 300 300 300 299 298 298 298 299 300 301 303 304 305 306 307 307 307 306 306 306 305 303 302 302 302 302 302 303 303 303 303 303 304 304 305 305 305 305 305 304 304 304 303 303 302 301 300 300 299

ECMWFFLT1_925_thetae_075.txt.gz
Theta_e
333 333 334 334 334 334 334 335 335 333 333 332 332 334 335 335 334 334 334 334 334 333 333 334 335 334 333 333 332 333 333 333 333 333 332 331 330 330 329 328 327 326 329 331 329 328 328 327 327 327 327 327 327 327 327 327 327 327 327 326 326 326 326
334 334 334 334 334 334 334 334 334 333 333 333 332 333 334 334 333 334 334 334 333 334 334 334 335 334 332 332 331 331 332 333 333 333 332 331 330 331 330 329 329 329 330 330 329 329 328 327 327 327 328 327 326 327 327 327 327 327 327 326 326 326 326
333 334 333 332 333 333 333 332 333 333 333 332 332 332 332 332 333 334 333 333 332 332 334 334 335 334 332 331 330 330 331 332 333 333 333 332 331 331 330 329 329 329 329 330 329 329 329 328 327 327 328 327 327 327 327 326 327 327 327 327 326 325 325
333 334 331 331 333 332 331 332 332 332 332 332 332 331 331 331 332 333 334 333 331 331 332 334 335 335 334 331 330 331 331 332 332 332 332 332 332 331 330 329 329 329 330 330 330 329 329 329 327 327 327 327 327 327 326 326 327 327 326 326 326 325 325
334 334 331 332 333 332 332 333 333 332 332 332 331 332 332 332 331 331 332 332 331 331 332 333 334 335 335 332 331 331 330 331 332 332 331 331 331 331 330 330 330 330 330 331 331 330 329 329 328 327 327 327 327 326 326 326 326 326 326 326 326 325 325
333 333 332 331 332 332 334 334 333 332 332 331 331 331 332 332 331 330 330 331 331 332 332 333 333 334 334 332 331 330 330 332 331 331 331 330 330 331 330 330 330 331 331 331 330 330 329 329 329 328 327 327 327 326 326 326 326 326 326 326 326 325 325
333 333 332 331 331 333 333 333 333 332 332 331 331 331 331 332 332 331 330 331 331 331 332 333 333 333 332 332 331 330 331 331 329 330 331 330 331 331 330 331 330 330 331 330 329 329 329 329 329 328 327 326 326 325 325 325 326 326 326 326 325 325 325
333 332 332 332 331 332 332 332 333 333 332 332 331 331 331 330 330 331 331 331 331 331 331 332 333 332 332 332 332 331 330 330 330 330 330 330 331 331 331 331 331 331 330 329 329 330 330 329 329 329 327 326 325 325 325 325 326 326 326 326 324 324 325
331 332 332 332 331 332 333 333 334 333 333 332 332 330 330 330 330 330 330 331 332 331 331 331 331 332 333 332 331 331 331 331 331 330 330 329 330 331 331 331 331 331 330 329 329 330 329 329 329 329 328 327 325 324 324 325 326 326 326 325 324 323 324
329 330 331 332 332 332 333 333 333 333 332 332 332 330 330 330 330 330 330 331 332 332 331 330 329 330 333 333 332 332 332 331 331 330 329 329 330 330 332 332 332 331 331 330 330 330 329 328 328 328 328 327 327 325 324 324 326 327 326 325 325 324 323
327 328 329 330 331 332 332 332 331 332 332 332 331 330 330 330 330 330 330 330 331 331 331 330 328 329 331 332 331 332 332 331 330 330 329 329 330 330 330 331 332 332 331 330 330 330 329 328 328 328 328 328 327 327 326 325 326 327 327 325 325 324 322
327 327 328 328 330 331 331 331 331 331 331 331 331 330 330 330 330 330 330 330 331 331 330 329 329 329 330 331 331 331 330 330 330 330 329 328 328 328 329 330 331 332 331 330 330 330 329 328 328 328 328 328 327 327 328 326 326 327 327 325 325 324 323
327 328 328 328 329 330 330 330 331 330 330 329 330 330 330 330 330 330 330 330 330 330 330 329 329 328 329 330 331 330 330 330 330 329 329 329 328 327 329 330 331 331 331 331 330 329 329 328 328 328 328 328 327 327 327 326 327 326 324 324 324 323 323
327 327 328 327 328 329 330 330 330 331 330 329 330 330 330 330 330 330 330 330 330 330 330 329 329 329 329 330 330 330 330 330 330 329 329 329 328 327 328 330 331 331 331 331 330 330 329 328 328 328 329 328 328 327 326 326 327 326 322 321 322 321 322
325 326 327 327 327 328 329 330 330 330 330 329 329 330 330 330 330 330 331 331 330 330 330 330 330 330 330 330 330 330 330 330 330 329 329 328 327 327 329 330 331 331 330 331 330 330 329 329 329 329 329 329 328 327 326 325 326 326 322 319 318 318 321
324 325 326 327 328 328 329 330 330 330 329 329 329 329 329 330 330 330 330 331 330 330 330 329 330 330 330 330 330 330 330 330 330 329 329 328 327 328 330 331 331 331 330 331 330 330 330 329 329 329 329 329 328 327 326 325 325 326 323 319 316 316 319
323 324 325 326 327 327 328 329 329 329 329 329 329 329 329 329 330 330 330 330 330 330 329 329 329 329 330 330 330 330 330 330 330 329 329 328 328 328 331 331 331 330 330 331 330 330 330 329 328 329 329 329 329 327 326 325 325 325 324 321 317 315 316
321 323 324 325 326 326 327 328 328 329 328 329 329 329 329 329 329 330 330 330 330 330 329 329 329 329 330 330 330 330 330 329 329 329 329 329 328 329 331 332 331 330 330 330 330 330 330 329 328 328 329 329 329 328 326 325 324 323 324 323 318 314 313
318 320 322 324 325 325 326 326 327 328 328 329 329 329 329 329 329 329 330 330 330 330 330 329 329 329 329 329 330 330 329 329 328 329 330 329 328 330 332 332 330 330 331 330 330 330 330 329 328 328 329 329 329 328 326 325 324 323 323 323 319 314 313
315 317 320 322 323 324 325 325 325 326 327 327 328 328 329 329 329 329 330 330 330 330 330 329 329 329 329 329 330 330 329 328 328 329 329 328 328 330 332 331 330 331 331 331 330 331 330 329 329 329 329 329 329 328 327 326 324 321 320 321 319 317 315
313 315 317 320 322 323 324 325 325 325 326 326 327 328 328 328 329 329 329 329 330 330 329 330 330 329 329 329 330 330 329 329 328 328 328 327 326 328 330 330 330 330 331 331 331 331 331 330 329 329 329 329 329 329 327 327 324 320 319 320 320 318 317
311 313 315 318 321 323 323 324 325 325 325 326 326 327 327 328 328 328 329 329 329 329 329 329 329 329 330 330 330 330 329 329 329 328 327 326 325 327 329 330 330 330 330 330 330 330 330 330 329 329 329 329 328 329 328 327 325 322 321 321 319 317 317
311 313 315 318 321 323 323 324 324 325 325 325 325 326 326 327 328 328 328 328 328 328 328 329 330 329 330 330 330 330 330 329 328 327 326 325 325 328 330 330 329 330 330 329 329 329 329 329 328 328 328 327 327 328 328 327 326 324 324 322 319 317 317
310 312 314 317 320 323 323 324 324 324 325 324 325 325 326 326 327 327 327 327 327 328 328 330 330 329 330 330 330 330 329 328 327 327 326 325 325 327 330 329 329 329 328 328 328 328 328 328 328 327 327 327 326 327 327 327 326 325 325 324 321 319 319
309 310 311 313 316 319 321 322 323 323 324 325 325 325 325 326 326 326 326 326 326 328 329 329 329 329 329 329 330 329 328 328 328 326 326 326 327 328 328 328 327 327 327 327 327 327 328 328 327 326 327 326 326 326 327 327 326 324 324 324 322 320 320
308 308 308 310 313 315 316 317 317 317 319 322 323 324 325 325 325 324 324 325 326 327 328 328 328 328 329 329 329 328 328 328 328 326 325 327 327 326 325 325 325 325 326 326 326 327 327 328 327 326 326 326 326 326 325 325 325 324 324 323 321 319 319
306 306 306 307 309 311 311 310 310 311 313 315 318 320 320 321 320 320 321 322 324 326 327 328 328 328 328 328 327 328 327 326 326 325 326 326 325 324 324 323 324 325 326 326 326 326 327 327 326 324 323 324 324 324 324 324 323 322 321 320 319 318 319
305 304 304 305 305 306 306 306 307 307 308 310 311 312 313 313 314 314 315 316 318 320 323 325 327 327 326 326 326 326 325 324 324 324 325 324 324 324 323 323 323 325 326 326 325 325 326 326 324 322 320 320 320 320 321 322 322 322 319 318 318 318 317
304 303 303 303 303 303 303 303 304 304 305 306 307 308 308 308 309 310 312 313 313 314 316 319 323 325 325 324 324 324 323 323 323 323 324 323 323 324 323 323 324 325 324 324 324 324 325 324 322 319 317 315 314 315 315 316 317 317 317 316 315 315 314
303 303 303 303 302 302 302 302 302 303 304 304 304 305 306 307 307 308 310 311 312 312 313 314 317 321 323 323 322 322 322 322 322 322 323 323 323 323 323 323 323 323 322 322 322 322 322 321 318 315 313 312 311 312 313 313 314 314 314 314 314 315 315
303 302 302 303 302 302 302 302 302 302 303 303 302 303 305 307 307 307 308 309 309 308 311 313 315 318 321 321 321 321 321 321 322 321 321 321 322 322 322 321 320 321 320 321 321 319 318 317 315 312 311 311 310 309 310 311 312 313 313 313 313 313 313
303 302 302 302 302 302 302 301 301 301 302 303 302 301 304 306 306 306 306 307 306 306 308 311 315 317 318 320 321 321 321 321 320 319 319 319 320 320 320 318 317 319 319 318 316 315 314 314 313 313 313 312 310 307 307 308 309 309 310 310 309 309 308
302 302 302 302 302 302 302 302 301 301 301 303 303 302 303 304 305 305 306 307 306 306 306 308 312 315 315 317 319 320 320 321 319 317 316 316 317 317 316 315 314 315 316 314 313 312 312 313 314 314 314 313 310 308 307 307 307 307 307 306 305 305 305
301 302 302 302 302 302 302 302 302 301 301 301 302 302 301 302 302 303 304 305 305 305 305 307 309 310 311 313 316 317 318 318 317 315 313 311 311 311 311 312 312 312 312 312 312 313 313 314 315 314 313 313 311 308 307 306 305 305 305 304 303 303 302
301 301 301 302 302 301 301 301 301 301 301 301 300 300 300 300 301 301 302 303 304 304 304 306 306 306 307 309 312 314 314 313 313 312 309 306 306 306 306 308 310 311 312 312 312 313 313 313 313 312 311 310 309 307 306 305 304 303 303 303 302 302 301
301 301 301 301 301 301 301 300 299 300 300 299 299 299 299 300 300 300 300 301 301 302 303 303 304 304 305 306 308 310 311 310 309 310 308 305 303 303 303 303 304 305 307 309 309 309 309 309 309 308 307 307 306 305 304 304 303 303 302 302 302 301 300
301 301 301 301 301 301 301 301 300 300 299 298 298 298 298 299 299 299 299 299 299 300 301 301 301 302 303 304 305 306 307 307 307 308 307 304 303 303 303 303 302 303 304 305 305 305 305 306 305 305 304 304 304 304 303 303 302 302 302 301 301 300 299

ECMWFFLT1_925_thetae_078.txt.gz
Theta_e
335 336 336 336 336 336 335 335 334 334 334 333 334 334 333 334 335 335 335 335 336 337 337 335 334 334 333 334 334 334 334 334 334 333 333 334 334 334 334 335 335 333 332 333 332 331 331 330 331 331 331 331 330 330 329 329 329 330 330 329 329 329 328
335 336 336 336 337 337 336 335 335 335 334 333 333 333 334 334 334 335 335 335 335 336 336 335 334 333 333 334 334 334 334 334 334 333 332 333 334 334 334 334 335 333 332 333 333 332 331 331 330 330 331 331 331 330 329 329 329 330 330 329 328 328 328
335 335 335 336 337 336 336 336 336 336 335 333 332 332 333 333 333 334 334 334 334 334 335 335 334 333 333 334 334 334 335 335 334 333 332 332 333 334 334 334 334 334 333 333 334 333 332 331 330 329 331 331 330 330 330 330 330 330 330 328 328 328 328
335 335 335 335 336 336 336 336 335 335 334 332 331 332 333 333 333 333 333 333 333 333 334 335 334 333 333 334 334 334 334 334 334 333 333 332 331 332 333 333 334 333 333 334 334 333 332 332 331 330 331 330 329 330 330 329 329 330 329 328 328 328 328
335 335 335 335 335 336 336 335 334 335 334 332 332 332 332 333 333 333 333 333 333 333 333 334 333 333 333 334 334 334 334 333 332 332 332 331 331 332 332 332 333 332 332 333 332 332 332 332 331 331 331 330 329 329 329 328 328 328 328 328 328 329 328
334 335 335 335 335 336 336 336 335 335 334 334 334 333 332 332 333 332 333 333 333 333 333 334 333 332 332 333 334 333 333 333 332 332 332 332 333 333 332 332 333 332 333 333 332 331 331 331 331 331 330 329 329 329 328 328 328 327 327 328 328 329 328
334 334 335 335 335 336 336 336 335 335 335 334 334 334 333 333 332 332 333 333 333 333 334 334 334 333 332 332 333 333 333 332 333 333 333 333 335 335 333 333 333 333 333 332 331 331 331 331 331 331 330 329 329 329 329 328 327 327 328 328 328 328 328
332 333 334 334 335 335 335 335 335 335 335 334 334 334 334 333 333 332 332 332 333 333 334 334 334 333 333 332 332 332 332 332 333 333 333 334 335 334 334 333 332 333 333 332 331 331 331 331 331 331 330 329 329 329 329 328 328 328 328 328 328 327 328
331 332 333 333 334 334 334 334 335 335 335 335 334 334 334 334 333 332 332 332 332 333 333 334 334 333 333 333 333 333 332 333 333 333 334 334 335 334 334 334 333 333 332 332 332 331 331 331 331 330 330 329 328 327 328 327 328 329 328 328 328 327 328
330 331 331 332 332 332 333 334 334 335 335 335 334 334 334 333 333 332 332 331 332 332 332 333 333 333 333 333 333 332 333 333 333 333 333 334 334 334 334 334 333 332 331 331 332 331 331 331 331 330 330 330 329 327 327 327 328 329 329 328 328 327 327
328 329 330 330 331 331 332 333 333 334 335 335 334 334 333 333 332 332 332 332 332 332 332 332 332 333 332 332 332 332 332 333 333 333 332 333 334 333 334 334 333 332 331 331 333 332 332 332 331 330 330 330 330 329 328 328 328 330 329 328 328 327 327
327 328 329 330 330 331 331 332 333 333 334 333 333 334 333 332 332 332 332 332 332 332 332 332 332 332 332 332 332 332 332 332 332 333 333 333 333 333 334 334 333 333 331 331 332 332 332 332 331 331 331 331 330 330 330 328 328 329 329 329 328 327 327
325 327 328 329 330 330 331 332 332 332 333 331 332 333 332 332 333 333 332 332 332 332 332 332 332 332 332 331 331 332 332 332 332 332 332 333 333 333 334 334 333 332 331 330 331 332 332 332 332 331 331 331 331 331 331 330 329 329 330 329 328 328 327
325 326 327 328 329 330 330 331 331 331 331 330 330 332 333 333 333 332 332 332 332 332 332 332 332 332 332 331 331 331 332 332 332 332 332 332 332 332 333 333 332 332 331 330 331 332 332 332 332 332 331 331 331 331 331 331 330 330 329 328 328 328 327
323 325 326 327 328 329 330 330 330 330 331 330 331 331 332 333 333 332 332 332 331 332 332 332 331 331 332 331 331 330 331 332 332 332 332 332 332 331 331 332 332 332 331 330 330 331 332 332 332 332 331 331 331 331 331 330 330 330 328 327 327 327 327
321 323 324 326 327 328 329 329 330 330 330 330 331 331 331 332 332 332 332 332 332 332 332 332 331 331 331 331 331 330 331 332 332 332 333 331 331 331 331 331 332 331 331 330 330 331 332 331 331 331 331 332 331 331 331 330 329 329 328 326 325 325 325
318 320 322 324 325 327 328 328 329 329 330 330 330 331 331 331 331 331 331 331 332 332 332 332 331 331 331 331 331 331 331 332 332 332 332 331 331 331 331 332 332 331 331 331 330 330 331 331 331 331 331 331 331 331 331 330 329 329 328 326 325 324 324
316 317 318 320 322 325 326 328 328 329 329 330 330 330 330 331 331 331 331 331 332 332 332 332 332 331 331 331 332 332 332 332 332 330 331 331 331 330 331 332 332 331 331 331 329 329 331 332 332 332 332 332 331 331 331 331 330 329 328 327 325 323 323
315 315 317 318 320 322 324 326 327 328 328 329 329 329 330 330 330 331 331 331 331 331 331 332 332 332 331 331 332 332 332 332 331 330 331 332 331 330 331 332 331 331 331 331 330 330 332 332 333 332 332 332 331 330 331 331 330 329 328 327 325 322 321
314 315 316 317 319 321 323 325 326 327 327 328 328 329 329 330 330 330 330 330 331 332 331 331 332 332 332 332 332 332 333 332 330 330 332 332 331 331 332 332 331 330 330 331 330 331 332 333 333 333 332 332 331 330 331 330 329 329 328 327 326 323 322
313 314 315 316 318 320 323 324 325 326 327 327 327 328 329 329 330 330 330 330 330 331 331 331 331 332 332 332 332 332 332 332 331 331 331 331 331 331 331 332 331 330 330 330 330 330 331 332 332 332 332 332 331 330 331 330 328 328 328 326 325 325 323
312 313 314 315 316 318 319 322 323 325 326 326 327 327 328 328 329 330 330 330 330 330 331 331 330 331 331 331 332 332 332 331 332 331 330 330 330 330 331 331 331 330 330 329 329 329 328 328 331 332 331 331 331 330 330 330 328 328 328 326 325 325 325
312 312 313 314 314 315 316 317 319 320 322 324 325 326 327 327 328 329 329 329 329 329 330 330 330 330 331 331 331 332 331 331 331 331 330 329 329 329 330 331 331 331 330 329 329 329 328 328 329 330 331 332 332 330 330 330 329 328 327 327 326 325 325
311 311 311 312 312 313 313 314 314 315 317 319 320 322 324 326 327 327 328 328 328 329 329 329 329 330 330 330 330 331 331 331 331 330 329 329 328 329 329 330 330 330 329 328 328 328 329 329 329 329 330 331 331 331 330 329 328 328 328 327 326 325 324
310 310 310 310 310 311 311 311 311 312 313 314 315 317 319 322 324 326 327 327 328 328 328 328 328 329 330 330 330 331 331 330 331 330 329 328 329 328 328 328 329 329 329 328 327 327 328 329 329 329 329 329 329 330 330 329 327 328 328 327 327 327 325
309 310 310 309 309 309 309 308 309 309 310 310 311 312 313 316 319 322 324 325 326 327 327 327 327 329 329 329 329 330 331 330 330 329 328 328 328 328 329 328 328 328 328 328 327 327 327 329 329 328 327 327 327 328 329 328 328 328 327 326 326 325 324
309 309 309 309 309 308 308 307 307 307 308 308 309 309 310 311 313 316 319 320 321 323 325 326 326 327 328 328 328 329 330 330 329 329 329 328 328 329 329 329 328 327 326 327 327 326 326 327 327 327 326 326 325 325 326 327 327 327 326 325 325 324 322
308 308 308 308 308 307 307 306 306 306 306 306 306 307 307 308 309 311 313 314 315 317 320 322 324 324 325 327 327 327 329 330 329 329 329 329 329 329 330 329 328 327 326 326 327 326 325 326 326 325 324 323 322 323 324 324 324 325 324 324 325 325 323
307 307 307 307 307 307 306 306 305 305 305 305 305 305 305 305 306 307 309 310 311 312 313 316 319 322 324 325 325 326 328 328 327 327 327 327 327 328 328 327 327 326 326 326 326 325 324 325 325 325 323 319 319 320 322 322 322 323 323 323 324 324 322
306 306 306 306 306 306 306 305 305 304 304 303 303 303 303 303 303 304 305 306 308 308 309 311 315 317 320 322 322 323 324 324 323 323 324 325 325 324 324 325 325 324 325 326 326 324 323 323 322 322 320 317 316 316 316 317 318 319 320 320 320 319 318
306 306 306 305 305 305 305 304 304 304 304 303 302 302 302 302 301 302 302 303 305 306 307 309 311 313 316 318 319 320 321 320 320 321 321 321 322 322 323 324 324 324 325 325 325 324 323 321 321 320 318 316 314 312 311 312 314 314 315 316 315 315 314
305 305 305 305 304 304 304 303 303 304 304 304 303 303 302 301 301 301 300 301 304 305 307 308 310 312 315 317 317 318 318 318 318 319 318 318 317 318 320 322 322 323 323 323 323 323 321 320 319 319 317 316 314 312 311 311 311 311 311 312 311 312 313
304 304 304 304 303 303 303 302 302 303 303 303 303 303 302 302 301 300 300 300 301 304 307 308 309 312 314 315 315 315 315 316 316 315 315 314 313 313 315 318 320 321 321 321 321 320 319 318 318 318 317 317 315 313 312 310 310 310 310 310 309 309 309
304 304 304 304 304 303 303 302 302 302 302 302 302 303 303 302 301 300 300 299 300 302 306 307 308 311 313 313 313 312 312 312 313 313 312 311 310 310 310 313 316 318 319 318 317 316 316 316 317 317 317 316 315 313 311 309 308 308 308 308 307 307 306
303 303 304 304 304 304 303 303 302 302 301 301 301 302 302 302 301 300 300 299 300 302 304 304 306 309 310 309 310 311 311 310 309 310 309 308 308 309 309 309 310 312 314 314 313 313 313 314 316 316 316 315 313 312 310 308 307 307 306 306 306 306 305
301 302 302 303 303 304 304 303 303 302 301 301 301 301 301 301 300 300 300 300 300 300 301 302 303 305 306 307 308 310 311 309 309 309 309 306 304 305 306 307 307 307 309 310 310 311 312 313 314 314 313 312 311 309 308 306 306 306 306 305 305 305 305
300 301 301 302 302 303 303 303 303 302 301 301 301 300 300 300 300 300 299 299 299 299 300 301 302 303 304 306 306 307 307 307 308 310 308 305 302 303 304 305 305 306 307 309 310 310 310 310 310 310 309 307 306 306 306 306 306 305 305 305 304 304 303

ECMWFFLT1_925_thetae_084.txt.gz
Theta_e
338 338 337 338 338 338 339 339 339 339 337 337 337 337 337 337 337 336 336 336 336 335 335 334 333 333 335 335 334 334 334 333 333 333 333 332 333 335 334 334 335 335 334 333 334 335 336 336 334 333 333 333 333 333 333 333 333 332 331 331 331 330 330
338 338 338 337 337 337 338 338 339 339 338 337 337 337 336 336 337 337 336 336 336 335 335 335 334 334 335 335 335 335 334 333 333 334 334 332 334 335 335 335 336 335 334 334 334 333 333 335 335 334 333 333 332 332 333 333 332 332 331 331 330 331 331
338 338 338 338 337 336 337 337 337 337 337 337 336 337 336 335 335 336 336 336 336 335 335 335 335 335 335 335 335 334 334 334 334 334 334 334 334 334 335 336 335 335 335 335 334 333 332 333 334 333 332 332 333 332 332 333 332 332 331 331 330 330 331
336 337 337 338 337 337 336 336 335 335 335 335 335 335 335 335 334 335 335 335 335 336 336 335 335 335 335 335 336 335 334 335 335 334 335 335 334 334 334 335 334 334 334 333 333 332 332 332 333 332 330 331 333 333 333 333 332 332 331 330 330 330 331
334 335 336 336 337 337 336 335 335 333 332 332 333 333 333 334 334 335 335 334 335 335 336 336 336 335 335 336 336 336 335 336 335 335 335 335 335 335 334 333 332 332 332 332 332 332 331 331 331 332 330 330 332 332 333 333 333 332 331 331 331 330 331
331 332 333 335 335 336 335 334 334 333 332 333 333 332 332 332 333 334 335 334 335 335 335 336 336 336 336 336 336 336 336 336 335 335 335 335 335 335 334 334 333 333 332 332 332 331 331 330 330 331 330 330 330 331 333 334 333 332 331 331 331 330 330
329 329 331 332 333 334 335 335 334 333 333 334 334 333 332 332 332 334 334 334 335 335 334 335 336 335 335 336 336 336 336 336 335 335 335 335 334 334 334 334 334 334 333 332 331 331 331 330 331 331 330 330 331 331 333 333 332 332 331 331 331 330 329
326 327 328 330 331 332 333 334 334 333 334 334 334 334 333 333 333 333 334 335 335 335 334 334 335 335 335 335 336 335 336 335 335 334 335 335 335 334 334 334 334 334 333 332 332 331 331 331 331 330 330 332 332 332 333 333 332 331 332 331 330 330 329
325 325 326 327 329 330 331 332 333 332 333 333 333 334 334 334 334 333 333 334 334 334 334 334 334 335 334 334 334 335 335 335 335 335 335 335 334 334 334 334 335 335 334 333 332 331 331 331 331 330 330 330 331 332 333 333 333 331 331 331 330 330 329
324 324 325 326 327 328 329 331 332 332 332 332 333 333 334 334 334 334 333 333 333 333 333 333 333 333 334 333 333 335 336 335 335 335 335 335 334 334 334 334 335 334 334 333 332 331 332 331 331 330 330 330 329 332 334 333 331 330 331 331 330 330 330
322 323 324 325 325 327 328 329 330 331 332 332 332 332 333 333 333 333 333 333 333 333 332 332 333 332 333 333 333 334 336 335 334 335 334 334 335 335 334 335 335 334 334 333 331 331 331 330 331 331 331 331 330 331 333 333 333 331 330 330 330 330 330
321 321 322 322 323 324 326 326 328 330 331 332 332 332 333 333 333 333 332 332 332 333 332 332 332 332 332 332 332 333 335 334 333 335 334 334 335 335 335 335 335 334 333 333 331 331 331 331 332 332 333 333 332 332 331 332 334 333 329 329 330 329 329
320 320 320 320 321 322 323 324 325 326 328 330 331 332 332 332 332 332 332 332 332 332 332 332 332 332 332 332 332 332 334 333 333 334 334 334 334 335 334 334 334 334 333 332 332 331 331 331 332 333 334 333 333 333 330 330 332 332 330 329 330 329 329
319 319 319 319 320 321 321 321 322 324 325 327 329 331 331 331 331 332 332 332 332 332 332 332 331 331 330 331 331 331 332 333 333 333 334 333 333 334 334 333 333 333 333 332 332 332 332 332 333 333 333 334 333 332 330 331 331 330 330 329 329 329 329
317 317 318 318 319 320 320 321 322 323 324 325 327 329 330 330 331 331 331 331 332 332 331 331 331 331 330 330 330 331 331 331 331 333 334 333 332 332 332 332 332 333 333 332 332 333 333 333 334 333 333 334 333 332 332 332 332 332 332 330 329 329 329
316 316 317 317 318 318 319 320 321 322 323 324 326 327 329 330 330 330 330 329 330 331 331 331 331 331 330 330 330 331 330 330 330 331 332 332 332 331 331 331 331 332 332 332 332 332 333 332 333 334 333 333 333 332 332 332 332 333 332 332 330 328 328
316 316 316 316 317 317 318 319 320 320 321 322 323 324 326 328 329 329 330 330 330 330 330 331 331 331 331 331 330 331 330 330 330 330 331 332 331 330 330 331 331 331 331 332 333 332 332 332 332 333 333 333 333 332 332 332 332 332 331 331 331 329 329
315 316 316 316 316 316 317 317 318 319 319 320 321 322 323 324 325 326 327 329 330 330 329 329 330 330 331 330 330 330 330 330 330 328 330 332 332 330 330 329 330 332 331 331 332 332 331 332 332 331 331 331 331 331 331 330 329 330 329 329 330 330 329
315 316 316 316 316 316 316 316 316 317 317 318 318 319 319 320 321 322 324 326 327 328 328 328 329 329 330 330 330 329 329 330 330 329 329 331 332 332 331 329 330 331 330 331 331 331 331 331 331 331 332 331 329 329 329 328 328 329 328 327 328 329 329
315 315 315 315 315 315 315 315 315 315 315 315 315 316 316 317 318 319 320 321 322 323 324 327 328 328 327 328 329 329 330 329 329 330 329 329 330 332 332 331 330 329 328 330 331 331 331 331 332 332 332 332 331 330 329 327 328 328 328 328 328 327 328
314 314 314 314 314 314 314 314 314 313 313 312 312 313 313 314 315 315 316 318 319 320 321 324 325 323 322 323 325 327 329 328 329 330 329 329 331 332 331 331 330 328 328 330 331 331 330 330 331 331 332 332 331 330 329 327 328 328 328 328 328 327 328
313 313 313 313 313 313 313 313 313 312 311 311 310 311 311 312 312 312 313 314 315 316 319 321 320 317 318 319 320 323 326 327 328 329 329 330 331 331 331 331 330 329 330 331 330 330 330 330 331 331 331 332 331 330 327 326 328 328 327 327 327 327 327
311 311 311 311 312 312 312 312 311 311 310 310 309 309 309 309 309 310 310 311 311 312 315 317 315 314 315 315 317 321 323 324 326 328 329 329 330 330 331 330 329 329 331 332 330 330 330 330 331 331 332 332 331 329 327 327 328 328 327 327 327 327 326
310 310 310 310 310 310 310 310 310 310 310 309 309 308 308 308 307 308 307 308 308 309 311 311 310 309 311 313 314 317 320 322 324 326 328 329 329 330 330 330 329 329 331 332 330 330 330 330 331 331 332 331 330 329 327 327 328 327 327 327 327 327 326
309 309 309 309 309 309 309 309 309 309 309 309 308 308 307 307 306 306 305 305 305 306 307 307 306 306 308 311 312 314 316 319 322 324 327 328 329 329 330 330 329 329 330 330 330 330 330 331 331 331 331 331 329 328 326 327 328 328 327 327 327 326 326
308 308 308 308 308 308 308 308 308 308 308 308 308 307 307 306 305 304 304 304 304 304 304 304 303 305 307 310 311 312 314 316 320 323 326 327 328 329 329 329 328 328 329 329 329 330 330 330 331 330 329 329 328 327 327 327 328 328 328 328 327 326 325
307 307 308 307 307 307 307 307 307 307 307 307 307 307 307 306 305 303 303 303 302 302 302 301 301 305 307 309 311 312 313 315 318 321 324 326 327 327 328 328 328 328 328 328 328 328 328 329 329 329 328 328 327 327 328 327 327 327 328 327 326 326 326
307 307 307 307 307 307 307 307 306 306 306 306 306 306 306 306 304 303 302 302 301 301 300 299 301 305 308 309 311 312 313 315 317 319 322 324 327 327 328 328 328 327 327 327 327 327 327 328 328 328 327 327 327 327 327 327 327 327 327 327 327 327 327
306 306 306 307 307 307 306 306 306 305 305 305 305 305 305 305 304 302 302 301 300 300 299 298 300 305 307 309 312 313 314 315 316 318 320 323 326 327 328 328 327 327 327 327 327 326 326 326 327 326 325 325 326 327 326 326 327 327 326 326 327 327 327
305 305 306 306 306 306 306 306 305 305 305 304 304 304 304 304 303 302 301 301 300 300 299 298 300 304 307 309 312 314 315 316 317 319 321 322 323 325 326 327 327 326 327 327 328 327 326 326 326 324 323 322 323 324 324 325 326 325 325 326 326 326 325
305 305 305 305 305 305 305 305 305 305 304 304 303 303 303 303 302 301 300 300 300 299 299 298 299 302 305 308 311 313 313 314 315 315 316 318 319 319 322 325 326 327 327 328 329 329 327 326 326 323 320 320 321 321 321 323 324 324 324 325 324 324 324
304 304 304 304 304 303 303 304 304 304 304 304 303 303 302 302 302 301 300 299 299 299 299 298 298 300 303 306 309 310 310 311 311 309 310 312 313 314 318 324 326 327 328 327 328 328 327 325 324 322 320 319 319 318 319 321 322 322 321 320 321 322 322
303 303 303 303 303 302 302 302 303 302 303 303 302 302 302 302 301 300 299 299 298 298 298 297 297 298 301 303 306 307 307 307 307 306 306 307 307 307 312 319 322 323 326 326 326 326 325 324 322 321 320 319 317 316 317 318 318 318 317 316 316 317 317
302 302 302 302 302 301 301 301 301 301 301 301 301 301 301 301 301 300 299 298 298 297 297 297 297 297 299 300 302 304 304 303 303 303 304 305 304 303 306 312 316 319 323 324 323 324 323 322 321 319 319 318 316 316 315 315 315 315 314 313 312 312 311
302 301 301 301 301 301 300 300 300 300 300 300 300 300 300 300 301 300 299 298 297 297 297 297 297 297 298 298 299 300 300 301 302 303 303 303 304 302 302 306 311 316 319 320 320 321 321 320 319 318 317 316 314 314 314 313 312 311 310 310 309 308 308
301 301 301 301 301 301 300 300 299 300 299 299 299 299 299 299 300 299 299 298 297 297 296 296 296 297 297 298 298 298 299 299 300 302 301 301 302 301 301 304 308 312 315 316 317 318 318 317 316 315 314 314 313 312 311 310 309 308 307 307 306 306 306
302 301 301 301 300 300 300 299 299 299 299 299 299 299 299 298 298 298 298 297 297 296 296 296 296 297 297 298 298 298 299 299 299 299 300 300 300 300 301 304 307 308 309 311 312 312 312 312 312 312 312 311 311 310 309 308 307 306 306 305 305 305 305

ECMWFFLT1_925_thetae_087.txt.gz
Theta_e
337 337 337 337 338 338 338 339 339 339 338 337 336 336 336 337 337 337 337 336 336 335 334 334 335 335 334 334 334 335 334 334 335 335 334 333 332 332 332 332 331 331 331 331 332 335 337 337 334 333 333 333 333 332 332 332 332 331 332 331 331 331 330
335 336 336 337 337 336 336 337 338 338 338 337 337 336 337 337 337 337 337 337 336 336 335 335 335 335 335 334 334 334 335 334 335 335 334 333 333 332 332 332 332 332 331 331 332 332 334 337 335 334 333 332 333 333 332 332 332 332 332 332 331 330 330
331 333 334 336 336 336 335 336 336 336 336 336 336 336 336 337 336 336 336 336 336 336 336 335 335 335 335 335 334 334 335 334 334 334 334 333 332 332 333 333 332 333 333 333 334 333 332 334 335 333 332 332 332 332 332 333 332 332 332 332 331 331 330
328 329 331 333 334 335 335 335 335 334 335 335 335 335 335 335 336 336 335 334 335 335 334 334 335 335 335 335 335 334 335 335 334 334 334 333 332 332 333 334 333 334 334 334 334 334 332 332 334 334 332 331 332 332 332 332 332 332 332 331 331 331 330
325 327 328 329 330 332 333 334 334 334 334 334 333 333 333 333 334 334 334 334 334 334 334 334 334 335 334 335 335 335 335 334 334 333 333 333 333 333 333 334 335 334 334 334 333 333 333 332 332 332 330 330 332 332 332 332 332 332 332 331 331 331 330
324 325 326 327 327 329 330 332 333 333 333 333 333 333 333 333 333 332 333 333 333 334 334 334 334 334 334 334 334 334 334 335 334 333 333 334 334 334 334 334 335 335 334 334 333 333 333 332 331 330 330 330 330 331 331 332 332 332 331 331 331 331 330
323 324 325 326 326 327 328 329 330 332 333 332 332 332 333 333 333 333 333 333 333 333 334 334 334 334 334 334 333 332 333 334 334 333 332 334 335 335 335 334 334 335 334 334 333 333 332 332 331 330 330 330 330 329 329 331 331 331 331 330 331 330 330
321 322 323 323 323 324 325 326 327 329 331 332 332 332 332 332 333 333 333 333 333 333 333 333 332 331 332 333 332 332 332 332 332 332 332 333 334 333 334 335 334 334 334 334 333 333 332 331 331 330 330 331 332 330 329 330 330 331 331 330 330 330 330
320 321 321 321 321 322 322 323 323 325 327 330 331 331 331 332 332 333 333 333 333 333 333 332 330 329 331 332 331 332 332 331 330 330 330 331 331 331 332 333 334 334 334 334 333 333 332 331 331 330 330 331 332 332 331 331 331 330 330 330 330 331 330
319 319 319 319 320 320 320 320 321 322 324 326 327 329 331 331 331 332 332 332 333 333 332 332 330 328 330 332 331 331 333 332 331 331 330 330 329 329 330 330 331 333 334 334 334 333 333 332 331 330 330 330 330 332 332 332 331 329 330 331 331 331 330
317 318 318 318 319 319 319 319 320 321 323 324 325 326 328 330 331 331 331 331 332 332 332 332 331 328 328 330 330 331 332 332 332 332 332 331 330 330 330 330 332 333 334 334 333 333 333 333 331 331 331 330 329 330 330 331 332 329 329 331 331 331 330
316 316 316 317 317 318 318 319 320 320 321 322 323 324 326 327 330 331 331 330 331 331 331 331 331 330 329 329 330 330 332 332 332 332 332 332 332 331 331 332 332 331 332 333 332 333 333 333 332 331 331 331 330 329 328 330 332 331 330 331 330 331 330
316 316 316 316 316 317 317 318 319 319 319 320 321 323 323 324 327 329 330 330 330 330 330 330 331 331 331 330 330 330 331 331 330 331 332 331 331 331 331 332 333 331 331 331 331 332 333 333 333 332 331 331 330 330 328 328 330 330 330 331 330 330 329
316 316 316 316 316 316 316 317 317 318 319 319 320 321 321 322 323 324 326 328 330 330 330 330 330 330 331 330 330 330 330 330 330 330 331 331 331 330 330 330 332 332 331 330 329 331 333 333 333 332 331 330 330 330 329 328 329 329 329 330 330 330 329
316 315 316 316 316 316 315 316 316 316 317 317 318 318 318 319 320 320 322 324 327 327 328 329 329 330 330 330 330 330 329 329 330 330 330 330 331 332 331 331 332 332 332 331 330 331 333 333 332 332 331 331 331 331 330 328 328 328 328 329 330 329 328
315 315 315 315 315 315 315 314 314 314 314 314 314 315 315 316 317 318 319 321 322 322 323 325 326 326 327 328 329 330 330 330 329 329 329 329 329 330 331 331 330 330 330 331 330 330 333 333 332 332 331 331 332 332 331 329 327 327 327 328 329 328 328
314 314 313 313 313 314 313 313 312 312 311 311 311 312 312 313 314 315 316 317 318 318 320 321 322 322 321 321 322 325 327 329 329 330 329 329 329 330 330 330 329 328 328 329 330 330 331 332 332 332 331 332 333 332 331 329 327 327 327 328 329 328 328
312 312 312 312 312 312 312 312 311 310 310 309 310 310 310 311 311 311 312 313 314 315 317 318 318 318 318 318 318 320 322 325 327 329 329 329 329 329 329 330 329 328 328 328 329 329 330 331 332 332 332 332 333 333 332 330 329 328 328 328 328 328 328
311 310 311 311 311 311 311 311 310 310 309 309 309 309 309 308 309 309 309 310 310 311 314 314 313 314 315 315 316 318 319 321 323 326 328 328 329 328 328 329 329 329 328 328 328 328 329 330 332 332 332 332 332 331 330 330 330 329 328 328 327 327 327
310 309 309 310 310 309 309 309 310 309 309 308 308 307 307 307 307 307 307 307 307 309 311 311 309 309 310 311 312 314 316 319 321 323 325 327 328 328 328 329 329 328 327 327 328 328 329 330 331 332 332 332 331 329 328 328 328 328 328 327 327 326 326
309 308 308 308 308 308 308 308 308 308 308 308 308 307 306 306 306 305 305 305 305 306 308 307 305 304 305 307 308 310 311 314 317 320 323 324 326 327 328 329 329 328 328 327 327 328 329 330 331 332 331 332 331 329 328 327 326 326 326 326 326 326 326
308 308 308 308 307 307 307 307 307 307 307 307 307 307 306 305 305 304 304 304 303 304 305 304 301 301 302 304 306 308 309 311 313 316 319 322 324 326 327 328 329 328 328 327 327 329 330 330 330 331 331 331 331 329 328 327 326 326 326 326 326 326 326
307 307 307 307 307 307 306 306 306 306 307 306 306 307 306 304 304 303 303 303 302 302 303 302 300 300 302 304 305 307 308 310 312 313 314 317 322 325 326 327 328 328 327 328 328 329 330 330 329 330 331 330 331 330 329 328 326 326 326 326 326 326 325
307 307 307 307 307 306 306 305 305 306 306 305 305 306 305 304 303 302 302 302 301 301 301 300 298 300 304 306 306 306 308 310 312 312 312 313 318 323 325 326 327 328 328 327 328 329 330 329 329 329 330 330 331 330 329 328 327 326 326 326 326 326 325
306 306 306 306 306 306 306 305 305 305 305 304 304 304 304 303 302 301 301 301 300 300 300 298 298 300 303 306 308 309 311 312 313 313 312 312 315 320 324 326 327 328 328 328 328 328 329 329 329 329 329 330 330 330 330 329 328 327 326 326 326 325 325
305 306 306 305 305 305 305 305 304 304 304 303 303 303 303 302 301 301 300 300 300 300 299 298 297 300 303 306 310 312 313 313 313 313 313 312 313 317 321 324 326 327 328 329 328 327 328 329 329 329 329 329 329 329 329 329 329 328 327 327 326 325 325
304 305 305 304 304 304 305 304 304 304 303 303 302 303 302 301 301 300 300 299 299 299 298 297 297 299 302 305 310 312 311 311 312 312 313 313 313 316 319 322 325 326 327 328 328 327 327 328 328 328 328 328 328 329 329 328 328 327 327 327 327 326 325
303 303 303 303 302 303 303 303 303 303 303 302 302 302 301 300 300 299 299 299 299 298 298 297 298 299 300 303 309 310 308 308 310 311 312 313 314 315 318 320 323 325 327 328 328 327 327 327 328 328 327 326 327 328 328 327 326 326 326 327 327 327 326
302 302 302 301 301 302 302 302 302 302 302 302 302 302 301 300 299 299 298 298 298 298 298 298 298 299 299 302 306 306 304 305 307 308 309 311 312 314 316 318 321 324 326 327 328 327 327 327 326 326 325 325 326 327 326 326 326 326 326 326 326 326 326
302 302 301 300 300 301 301 301 301 301 301 301 301 301 301 300 299 298 298 297 297 297 297 297 299 299 299 300 302 301 301 302 304 305 306 307 308 311 313 315 318 321 324 326 327 327 327 326 324 324 324 324 325 325 325 326 326 326 326 326 325 326 326
301 301 300 299 300 300 300 300 300 300 300 300 300 300 301 300 299 298 298 297 297 297 297 297 298 300 300 299 299 299 299 300 301 302 303 304 305 306 308 310 313 316 321 324 326 327 327 325 323 323 323 322 322 322 323 324 324 324 325 326 326 326 325
301 301 300 299 299 299 299 299 299 299 299 299 299 299 300 300 299 297 297 297 296 296 296 296 297 299 299 300 300 299 298 298 299 300 301 302 303 303 305 307 308 312 318 322 325 327 326 324 323 323 323 322 320 320 320 322 322 322 322 323 324 323 323
300 300 300 299 299 299 299 299 299 299 299 298 298 298 299 299 298 297 297 297 296 296 296 296 297 298 299 299 300 300 299 298 298 299 299 300 301 301 303 304 305 309 316 321 324 327 326 324 323 322 322 323 321 319 318 319 320 320 320 320 320 319 319
300 300 300 299 298 299 299 299 299 299 298 298 298 298 297 298 297 297 297 297 297 296 296 296 296 297 298 299 299 300 299 298 298 298 298 299 300 300 300 301 302 306 312 317 321 324 323 322 321 320 320 321 320 319 318 317 317 317 317 316 316 315 315
300 300 300 299 298 298 299 299 299 298 298 298 298 297 297 297 297 297 297 297 297 297 296 296 296 296 297 298 299 299 299 299 298 298 297 298 299 299 299 300 301 304 310 314 317 320 319 319 319 318 318 318 317 317 316 315 314 314 313 312 312 312 312
300 300 300 300 298 298 298 298 298 298 298 298 297 297 297 297 297 297 297 297 297 296 296 296 296 296 296 297 298 298 299 299 299 298 296 296 297 298 299 301 302 304 309 312 313 315 316 316 316 315 315 315 314 314 313 312 311 311 310 309 309 309 309
300 300 300 300 299 298 297 297 298 298 298 298 297 297 297 297 297 297 296 297 297 296 296 296 296 296 296 296 297 298 298 298 299 298 297 296 296 297 299 301 302 304 306 307 309 310 311 311 312 311 311 310 310 311 311 310 309 308 307 307 307 306 306

ECMWFFLT1_925_thetae_090.txt.gz
Theta_e
334 335 336 336 336 336 336 336 337 338 338 338 338 337 336 336 336 336 335 336 336 336 336 336 335 335 334 333 334 334 334 335 333 332 333 333 331 332 333 331 331 330 329 330 332 333 336 338 334 332 333 332 332 332 331 331 331 331 331 331 330 330 330
331 332 334 334 334 334 334 335 335 335 335 336 336 335 335 335 335 335 334 334 335 335 335 335 335 335 334 334 335 334 334 334 334 333 332 331 331 332 332 331 331 330 329 330 330 330 333 336 336 334 333 333 333 332 331 331 331 330 331 331 331 330 331
329 330 330 331 331 331 332 333 333 334 334 333 333 333 334 333 333 333 333 333 333 333 333 334 334 334 333 333 334 334 334 334 334 334 332 331 331 331 331 332 331 331 330 330 330 330 331 333 334 333 333 332 333 333 332 332 331 331 331 331 331 331 331
326 327 327 327 328 328 328 329 330 331 332 332 332 332 332 332 332 332 332 331 331 332 332 333 333 334 333 333 334 334 334 334 334 334 332 332 333 331 329 330 332 331 331 331 331 331 331 332 333 333 331 331 332 332 332 333 332 332 331 331 331 331 331
324 325 325 324 324 325 326 327 328 329 331 332 332 331 331 331 332 332 332 332 331 331 332 332 332 333 333 332 333 333 334 334 333 334 332 331 332 331 328 329 331 332 332 332 332 331 331 331 332 332 330 330 332 331 331 332 332 332 332 331 331 331 331
323 323 323 322 322 322 323 324 325 326 328 329 330 331 331 331 331 331 332 332 332 332 332 333 332 332 332 332 332 332 332 333 333 332 330 329 330 330 329 328 329 331 331 332 331 331 331 330 330 330 330 330 331 331 331 331 331 332 332 331 331 331 331
320 320 320 320 320 321 321 321 322 323 324 325 326 328 329 331 331 331 331 331 332 332 332 333 332 332 331 331 332 331 331 331 331 330 329 328 329 329 330 329 329 330 331 332 332 331 330 330 330 329 329 329 330 329 330 331 331 331 332 332 332 331 331
318 318 318 319 319 319 319 320 321 322 323 323 325 326 327 328 329 330 331 331 331 331 331 332 332 331 331 330 330 330 330 330 330 330 330 329 328 329 330 331 330 330 331 332 332 331 330 330 330 329 329 329 330 329 329 329 330 331 331 332 332 331 331
317 317 317 317 318 318 319 319 320 320 321 322 323 324 324 326 327 328 330 330 331 331 330 331 331 331 331 330 330 329 329 329 329 330 330 330 329 329 330 330 330 330 331 331 331 330 330 329 330 330 329 329 330 331 330 329 329 330 331 331 331 331 331
316 316 316 316 316 317 317 318 318 319 319 320 322 322 322 324 325 326 327 329 330 330 330 330 330 331 331 330 330 329 328 328 329 329 330 330 330 329 329 328 328 329 329 329 329 330 330 330 329 329 329 328 329 330 331 331 329 328 329 330 330 331 331
315 316 316 316 316 316 316 316 317 317 318 318 319 320 320 322 322 323 324 327 327 328 328 328 329 330 330 331 330 329 328 328 328 328 329 330 330 329 328 328 327 328 328 328 329 329 330 330 330 329 329 329 328 328 329 330 330 328 328 329 330 330 331
315 315 316 316 315 315 315 315 315 315 315 316 316 317 318 319 319 319 321 323 323 323 324 325 326 327 328 329 330 330 329 329 329 328 329 330 330 329 328 328 328 327 327 328 328 328 329 330 330 329 328 328 328 328 328 329 330 330 328 329 330 330 331
314 314 314 314 314 313 312 312 312 312 313 313 314 315 315 316 316 316 317 319 319 320 321 322 323 323 324 324 325 326 327 328 329 329 329 329 329 329 329 328 328 328 328 328 328 328 329 329 329 329 329 329 328 328 328 328 329 330 329 329 329 330 330
312 312 312 313 312 311 310 310 310 309 310 311 311 312 313 313 313 313 314 315 316 317 318 318 319 319 320 320 321 322 322 324 326 327 329 329 329 329 329 329 329 329 329 328 328 328 329 329 329 329 329 330 329 329 329 328 328 328 328 328 329 329 329
311 311 311 311 311 310 310 309 309 308 308 309 309 309 310 310 310 311 311 312 313 314 314 314 314 315 316 317 319 320 320 321 322 323 326 328 329 329 329 329 330 330 330 329 328 329 329 330 329 329 329 330 330 330 329 328 327 327 328 328 328 328 329
310 310 310 309 309 309 309 309 309 308 308 307 307 307 307 308 308 308 308 309 310 310 310 310 310 311 312 313 314 316 317 318 319 321 323 324 327 329 329 329 329 329 330 330 330 329 330 330 329 329 329 330 330 330 329 328 327 327 328 327 327 328 328
308 308 308 308 308 308 309 309 309 308 307 307 306 306 306 306 306 306 306 306 308 308 307 307 308 309 309 309 309 311 313 314 316 318 320 322 324 326 328 329 329 329 329 329 330 330 329 330 329 329 329 330 329 329 329 329 328 327 327 327 327 328 328
307 307 307 307 307 307 307 308 308 308 307 307 306 305 305 305 305 305 304 304 305 306 306 305 304 305 305 305 306 307 308 310 312 314 316 318 321 324 326 328 329 329 329 329 329 329 329 328 329 329 330 330 330 329 329 329 329 328 327 326 326 327 328
307 307 306 306 306 306 307 307 307 307 307 307 306 304 304 304 304 304 304 303 303 304 304 302 301 300 302 303 305 306 306 307 309 311 313 314 317 319 322 325 327 328 328 329 329 328 328 328 328 329 330 330 331 330 329 329 329 329 327 326 326 327 327
307 307 306 305 305 305 306 306 306 305 306 306 305 304 303 303 303 303 302 302 302 302 303 301 299 299 301 302 303 305 307 308 309 310 311 312 313 315 318 321 325 326 327 328 328 328 328 328 328 328 329 329 330 330 329 329 328 328 327 326 326 326 327
306 306 306 305 304 304 305 304 304 304 304 305 305 303 302 301 301 301 301 301 301 301 301 299 298 299 300 300 302 305 308 309 310 311 311 312 312 313 314 317 321 324 326 327 328 328 328 328 328 328 328 328 328 329 330 328 328 328 327 327 326 326 326
306 306 306 305 304 304 304 303 302 303 303 303 303 302 301 301 300 301 301 300 300 300 299 299 298 297 298 299 301 306 309 309 309 309 310 311 311 311 312 313 316 321 324 326 328 328 328 328 328 327 327 328 328 330 330 328 327 327 327 326 326 326 326
305 304 305 305 304 304 304 303 302 302 302 302 301 301 300 300 300 300 300 300 300 300 299 298 298 298 298 299 302 307 310 309 308 308 308 309 310 310 310 311 313 317 321 324 326 327 328 328 328 328 327 327 328 330 330 328 326 327 326 326 325 325 325
303 303 303 304 303 303 304 303 302 302 301 301 300 299 299 299 299 299 299 299 299 299 298 298 298 299 301 302 304 307 307 307 307 307 307 307 308 309 310 310 312 314 318 322 324 326 327 327 327 327 327 327 328 329 329 328 326 326 326 326 325 325 325
301 302 302 302 302 302 302 303 302 302 301 301 300 299 299 298 298 298 298 298 298 298 298 298 298 300 302 303 304 306 305 305 305 305 305 306 306 307 309 311 312 314 316 319 322 325 326 327 327 327 327 327 327 328 329 329 327 326 326 326 325 325 325
300 301 301 300 300 301 301 301 301 301 301 301 300 299 298 298 297 297 297 297 297 297 297 297 298 300 301 302 303 304 305 304 303 303 303 303 304 305 306 308 310 313 316 318 320 323 325 326 327 327 327 327 327 327 328 328 328 327 327 327 326 325 325
299 300 300 299 300 300 300 300 300 301 301 301 300 299 298 297 297 297 297 296 296 296 296 297 298 300 300 301 302 302 303 303 302 302 302 302 302 302 303 304 305 308 312 315 318 321 323 325 326 327 327 327 327 327 327 327 328 328 328 327 326 326 325
299 299 299 299 299 299 299 299 300 300 300 300 300 300 298 297 297 297 296 296 296 296 296 296 298 299 300 301 301 301 301 302 303 302 302 301 301 301 301 301 302 303 305 309 315 319 321 323 325 327 326 326 326 326 326 327 328 328 328 328 326 326 326
299 299 298 298 299 298 298 299 299 299 299 299 299 299 298 297 297 297 296 296 296 296 296 296 297 298 299 300 300 300 300 301 302 303 301 300 300 300 300 300 301 301 301 304 309 314 317 320 322 325 327 326 325 325 325 326 327 327 327 328 327 326 326
298 298 298 298 298 298 298 298 298 298 298 298 298 298 298 297 297 297 296 296 296 296 295 295 296 297 298 298 299 300 299 299 301 302 301 299 299 299 300 300 300 300 300 301 305 310 314 317 318 321 325 326 325 324 324 324 325 326 327 327 326 326 326
298 298 298 298 298 298 298 298 297 297 297 297 297 297 297 297 297 297 296 296 296 295 295 295 295 296 297 297 298 298 297 297 299 300 299 299 299 299 300 300 300 299 299 301 305 310 313 315 316 319 323 325 324 322 322 323 323 323 325 325 325 325 325
297 298 298 298 298 298 297 297 297 297 297 297 296 296 296 297 297 297 296 296 296 295 295 295 295 296 296 297 297 298 297 296 296 297 297 298 298 298 299 300 300 299 299 302 309 314 315 315 317 319 322 323 322 321 321 322 322 322 322 323 323 324 324
297 297 297 297 297 297 296 296 296 295 295 295 296 296 296 296 296 296 296 296 296 295 295 295 295 295 296 296 297 297 297 295 295 296 296 296 297 297 297 299 300 300 300 303 309 314 316 317 318 319 321 322 321 320 320 319 319 320 321 321 321 322 322
298 297 297 297 296 296 296 295 295 295 295 295 295 296 295 295 296 296 296 296 296 296 295 295 295 295 295 296 296 297 297 296 295 295 295 295 296 296 296 297 299 300 301 303 307 311 314 316 317 318 319 320 320 320 319 317 317 318 319 318 317 317 318
298 298 298 297 297 296 296 295 295 295 295 295 295 295 295 295 295 295 296 296 296 296 296 295 295 296 295 295 295 296 297 297 296 295 295 295 295 295 295 296 297 299 301 302 304 308 311 312 312 313 315 316 316 314 314 313 314 314 314 313 313 313 314
299 298 298 298 297 297 296 296 295 295 295 295 295 295 295 295 295 295 295 296 296 296 296 296 295 296 295 295 295 295 296 297 297 296 295 294 294 294 295 295 297 300 301 301 302 305 307 308 308 308 309 311 311 311 310 310 310 310 309 309 309 310 310
299 299 299 298 298 298 297 296 296 296 295 295 295 295 295 295 295 295 295 295 296 296 296 296 296 296 295 295 295 295 295 296 297 297 296 295 294 294 295 296 297 300 301 301 301 302 304 306 306 306 307 308 308 309 310 309 309 309 308 306 306 306 306

ECMWFFLT1_925_thetae_093.txt.gz
Theta_e
330 330 331 331 332 333 333 334 334 334 334 333 333 333 334 333 333 333 333 333 333 333 334 333 333 333 334 334 334 334 333 332 333 333 333 333 331 331 331 330 329 328 328 328 329 329 331 333 333 332 332 332 333 333 333 333 332 332 331 330 330 330 329
328 328 329 329 330 330 331 331 332 333 333 332 332 331 332 332 332 332 332 332 332 332 332 332 332 333 333 333 334 334 334 333 334 333 333 333 331 330 330 330 329 328 328 328 328 328 328 330 332 333 332 332 332 332 332 332 332 331 331 331 331 330 329
327 327 328 328 328 328 328 329 329 330 331 331 331 331 331 331 331 332 332 332 332 331 331 331 331 331 331 332 332 333 332 332 333 333 333 334 332 330 330 330 329 328 328 328 328 328 328 329 330 330 330 331 331 331 332 332 331 331 331 331 331 330 330
325 325 326 325 325 325 325 325 326 327 328 328 329 329 330 330 330 331 331 331 332 332 332 331 331 331 332 331 331 332 331 331 332 332 333 333 332 330 330 330 329 329 328 328 328 329 328 328 329 329 329 329 330 331 331 332 332 331 331 330 330 330 330
323 323 323 322 322 322 322 322 324 325 326 327 327 328 329 329 329 330 330 330 331 331 331 331 331 332 332 332 331 331 330 330 330 331 331 332 331 330 329 329 329 329 328 328 328 329 329 328 329 329 329 328 329 330 330 331 331 332 332 331 331 331 330
321 321 320 320 320 320 321 321 322 323 324 325 326 326 326 327 327 328 329 330 330 330 331 330 330 331 331 331 331 330 330 329 329 330 330 330 329 329 329 329 329 329 329 328 328 328 329 329 328 329 328 328 328 329 329 329 330 331 331 331 331 331 331
319 319 319 319 319 319 319 320 320 320 321 322 323 323 323 325 325 326 328 329 329 330 330 330 330 330 330 330 330 329 329 329 329 329 328 328 328 329 329 328 328 329 328 328 328 328 329 329 328 328 328 328 327 327 327 328 329 330 331 331 331 331 331
317 317 317 317 317 318 318 318 318 318 319 319 321 321 321 322 323 324 326 327 327 328 328 328 328 329 329 330 329 329 329 329 329 328 328 328 329 329 328 328 328 328 328 328 328 329 329 329 329 329 328 329 328 328 327 327 328 330 330 331 331 331 331
316 316 316 316 316 316 316 316 316 316 317 318 319 319 319 320 320 321 324 324 324 325 326 326 326 327 328 328 328 328 328 328 328 327 327 328 328 328 328 329 329 328 329 329 329 329 329 329 330 330 329 329 329 330 329 328 327 329 330 330 331 331 331
315 315 315 314 314 314 314 314 314 314 315 315 316 316 317 318 318 319 321 321 320 321 322 322 323 324 325 324 325 325 326 326 327 327 327 327 328 327 328 328 328 329 329 328 328 328 329 329 329 329 329 328 329 330 330 330 329 328 328 330 330 331 331
314 314 313 312 312 312 312 311 312 312 312 312 313 314 314 315 316 316 317 318 317 317 318 318 319 320 321 321 321 322 322 323 324 326 326 327 327 328 328 328 329 329 329 328 328 328 328 328 328 328 329 328 328 328 329 330 330 328 327 328 329 330 330
313 312 311 311 310 310 309 309 309 309 310 310 311 311 312 312 313 313 314 314 314 313 314 314 315 317 318 318 319 319 319 320 321 323 325 326 327 328 329 329 329 329 329 328 328 327 327 327 328 328 329 328 328 328 328 329 330 329 328 328 328 329 329
311 311 310 310 309 309 308 308 307 307 308 308 308 309 309 309 310 311 311 311 311 310 311 312 312 313 314 315 316 316 317 317 318 320 322 324 325 327 327 328 329 329 329 328 328 328 327 327 327 328 328 328 328 329 328 328 329 329 328 328 328 328 328
309 309 309 309 309 309 309 308 307 306 306 306 306 307 307 307 307 308 308 309 308 307 308 309 310 311 312 313 313 313 314 314 315 317 319 320 323 324 325 327 328 328 329 329 328 328 328 328 328 327 328 328 328 328 328 327 328 328 327 328 328 328 329
307 307 308 308 308 308 308 308 307 306 305 305 305 305 305 305 305 305 306 306 306 305 306 307 308 308 308 309 310 311 311 311 312 313 314 316 318 320 322 324 325 327 328 329 329 329 329 328 328 328 328 328 328 328 328 327 327 328 328 328 328 328 328
306 306 307 307 307 307 307 307 307 307 305 304 304 304 305 304 304 304 304 304 304 304 304 304 303 303 302 303 304 306 308 308 308 309 310 311 313 315 316 318 321 324 326 328 329 329 329 329 329 329 328 328 329 329 328 328 328 327 327 328 328 328 328
305 305 306 306 306 306 306 306 306 307 305 303 303 303 303 303 303 303 303 302 303 303 302 300 299 299 299 299 299 302 305 307 308 308 308 308 309 310 310 312 314 318 322 325 328 328 329 329 329 329 329 329 329 329 329 329 328 328 327 327 327 328 328
304 304 305 305 304 304 304 305 305 306 305 303 302 302 302 302 302 302 301 301 301 301 300 299 298 298 298 297 298 300 303 306 308 309 308 308 307 307 307 308 310 312 316 320 325 327 328 329 329 329 329 329 329 329 329 329 329 328 328 327 327 327 327
304 304 303 303 303 302 303 303 303 304 303 302 301 300 301 301 301 301 301 301 300 300 299 298 298 298 298 298 298 299 302 305 307 308 308 308 307 307 306 307 307 309 311 314 319 324 327 328 328 328 329 329 329 329 329 329 329 328 328 327 327 327 326
305 304 303 303 302 302 301 301 301 301 301 300 299 299 300 300 300 300 300 300 300 299 298 297 297 297 299 299 299 299 301 304 306 306 307 307 307 308 307 307 307 308 308 310 313 318 323 326 327 328 328 328 328 328 329 329 329 329 328 327 327 327 327
305 304 304 303 302 301 301 301 300 300 300 299 299 298 298 298 298 299 299 299 299 298 298 297 296 297 298 299 300 300 301 302 304 305 306 306 306 307 307 307 308 308 308 309 311 313 317 320 323 326 328 328 328 328 328 329 329 329 328 327 327 327 326
304 303 303 303 302 302 301 301 300 299 299 298 298 298 297 297 297 297 297 297 297 297 297 296 296 297 297 298 299 300 301 301 303 304 305 305 305 305 306 306 306 307 308 309 310 311 313 315 317 321 324 327 328 328 328 328 329 328 327 327 327 326 326
302 302 303 303 302 302 301 301 301 300 299 298 297 297 297 296 296 296 296 296 296 296 296 295 296 298 298 298 299 300 300 301 301 302 303 304 303 303 304 304 304 305 306 307 308 310 312 314 316 318 321 324 326 327 328 328 328 328 327 326 327 327 325
301 301 301 301 301 301 301 301 301 300 299 298 297 297 297 296 296 296 296 296 295 295 295 295 296 298 299 299 299 299 299 299 300 301 302 302 302 302 302 302 303 303 304 304 305 307 309 313 315 317 319 321 324 326 327 327 327 327 327 326 326 326 326
300 300 300 300 300 300 300 300 300 300 299 298 297 297 297 297 296 296 296 296 295 295 295 295 296 297 298 298 299 299 298 298 299 300 300 301 301 301 301 301 301 302 302 303 303 303 305 309 312 315 316 319 322 324 326 326 327 327 326 326 326 326 325
299 299 299 300 300 300 300 300 299 298 298 298 297 297 297 297 296 296 296 295 295 295 295 295 296 296 297 298 299 299 298 298 298 298 299 299 300 300 300 300 300 301 301 301 302 301 301 303 307 311 314 316 319 322 325 325 326 326 326 326 326 326 325
299 299 299 299 299 299 299 298 298 297 297 297 297 297 297 296 296 296 296 295 295 295 295 295 295 296 296 297 298 298 298 297 297 297 298 298 299 299 299 299 299 300 300 300 300 300 299 299 301 305 310 313 316 319 323 325 325 325 326 325 325 326 326
298 298 298 298 298 298 297 297 297 296 297 297 297 297 297 296 296 296 296 295 295 295 295 295 295 295 296 296 297 297 297 297 297 297 297 297 297 297 297 298 298 299 299 299 299 299 298 298 298 299 303 309 314 317 319 324 325 324 325 325 325 325 326
298 298 297 297 297 296 296 295 295 295 296 296 296 296 296 296 296 296 296 295 295 295 295 295 295 295 295 296 296 297 297 297 296 297 297 297 297 297 297 297 298 298 297 299 300 301 301 300 301 300 301 305 312 315 317 321 325 324 324 325 325 325 325
297 297 296 296 295 295 295 295 295 295 295 295 295 295 296 296 296 296 296 295 295 295 295 295 295 295 295 295 296 296 296 295 295 296 296 296 297 297 296 296 297 297 296 298 301 303 303 303 305 305 302 302 307 312 316 320 323 325 325 325 325 325 325
296 296 295 295 295 295 295 295 295 295 295 295 295 295 295 296 296 296 296 295 295 295 295 295 295 295 295 295 295 295 294 293 294 295 296 296 296 296 296 296 296 295 295 297 301 304 304 304 305 304 301 301 305 311 316 319 322 324 325 325 325 325 325
296 295 295 295 295 295 294 294 295 295 295 295 295 295 295 295 296 296 296 296 295 295 295 294 294 294 295 295 295 294 293 292 293 294 295 295 295 295 295 295 296 295 295 297 301 303 304 304 304 302 301 304 309 313 317 320 322 323 324 324 324 325 325
296 296 295 295 295 295 295 294 294 295 295 295 295 295 295 295 295 296 296 296 296 295 295 294 294 294 294 294 294 294 293 292 291 293 293 294 294 294 294 294 295 295 296 297 300 302 303 304 304 304 304 307 312 315 318 320 321 321 322 322 322 323 323
297 297 296 296 296 295 295 295 295 295 295 295 295 295 295 295 295 295 295 295 295 295 295 294 294 294 294 294 294 294 293 292 291 292 293 293 293 293 293 294 294 295 296 297 299 301 302 303 304 305 305 307 309 313 316 316 316 316 316 317 317 318 318
298 297 297 297 296 296 295 295 295 295 295 295 295 295 295 295 295 295 295 295 295 295 295 294 294 294 293 293 294 294 294 293 293 292 292 292 293 293 293 293 293 294 295 297 298 300 301 302 303 305 305 306 307 309 311 312 312 311 311 311 311 311 312
298 298 298 297 297 297 296 296 296 295 295 295 295 295 295 295 295 295 295 295 295 295 294 294 294 293 293 293 293 294 294 294 294 293 292 292 292 292 292 293 293 294 295 296 297 298 299 300 301 303 305 306 306 307 307 308 309 309 308 308 308 307 307
298 298 298 298 298 297 297 296 296 295 295 295 295 295 295 295 295 295 294 294 295 295 294 294 293 293 293 293 293 293 293 294 294 294 293 292 292 292 292 292 293 294 295 296 296 297 298 299 299 300 303 304 305 305 305 304 305 306 306 305 305 304 305

ECMWFFLT1_925_thetae_096.txt.gz
Theta_e
327 326 326 327 328 328 329 330 330 330 330 330 331 331 331 331 332 332 332 331 331 331 331 331 331 331 330 331 331 332 332 332 332 333 332 332 332 331 331 331 331 331 330 328 328 328 329 331 330 329 330 330 330 331 331 331 331 332 332 332 332 332 331
325 325 325 326 326 326 327 328 328 328 328 328 329 329 329 330 330 331 331 331 331 331 331 331 331 331 331 331 331 331 331 331 331 331 332 332 332 332 331 331 330 330 329 329 328 328 328 329 330 330 329 329 330 330 331 331 332 332 333 333 332 331 331
324 324 325 325 324 325 325 326 326 326 326 326 326 327 327 328 328 329 330 330 330 330 330 330 331 331 331 331 331 331 331 331 330 330 330 330 331 332 332 331 329 329 329 328 328 328 328 328 329 329 329 329 330 330 330 330 331 332 332 333 333 331 330
322 323 324 323 322 323 323 323 323 323 324 324 325 325 325 326 327 328 328 329 329 329 329 330 330 330 330 331 331 331 331 330 329 329 329 329 329 330 330 330 329 328 328 328 328 328 328 328 329 329 328 328 329 329 329 329 330 330 331 332 332 331 330
320 321 321 320 320 320 320 320 321 322 322 323 324 324 324 324 325 326 327 327 327 328 328 328 329 329 329 330 330 330 330 329 328 328 328 329 329 329 329 329 329 328 328 328 328 328 328 328 328 329 329 328 329 329 328 329 329 330 330 331 331 331 331
318 318 318 318 318 318 318 318 319 319 319 320 320 321 321 321 322 323 324 324 324 325 325 326 326 327 328 329 329 329 329 328 327 328 328 328 328 328 328 328 328 328 328 328 328 328 328 328 328 329 329 328 328 329 328 328 329 330 330 330 330 330 330
316 316 316 316 315 316 316 316 316 316 316 316 316 317 318 319 319 320 322 322 322 323 323 323 324 325 326 326 327 327 328 327 327 327 328 328 327 327 327 328 328 328 328 328 328 328 328 328 328 328 329 329 328 328 328 328 328 329 329 330 330 330 330
315 314 314 313 313 313 313 313 313 313 314 314 314 314 315 317 317 318 319 320 321 321 321 321 322 323 323 323 323 324 325 325 325 326 326 327 327 327 327 328 328 328 328 328 328 328 328 328 328 328 328 328 329 328 328 327 327 328 329 329 329 329 330
313 313 312 312 311 311 311 311 311 311 311 311 312 312 313 314 315 316 316 316 318 318 318 318 319 319 320 319 319 320 321 321 322 322 323 325 326 327 327 327 328 328 328 328 328 328 328 328 328 328 328 327 329 330 329 328 327 327 328 328 329 329 329
312 311 311 311 310 310 309 309 309 309 309 309 310 310 311 312 312 313 313 313 313 314 315 315 316 316 317 316 316 316 317 318 319 320 320 321 322 324 326 327 327 328 328 328 329 328 328 328 328 328 328 328 328 329 329 329 329 328 327 328 328 329 329
310 310 310 310 309 309 308 307 307 307 307 307 308 308 309 309 310 310 310 309 310 311 312 313 313 314 314 315 314 314 314 314 316 317 317 318 319 320 322 324 326 327 328 328 328 328 328 328 328 328 328 328 328 328 328 329 330 328 327 328 328 329 329
309 309 309 309 309 308 307 306 305 305 305 306 306 306 306 307 307 308 308 307 307 309 310 310 310 311 311 311 311 312 312 311 312 313 315 315 316 316 317 319 322 324 326 327 327 328 328 328 328 328 328 328 328 328 328 328 330 329 328 328 328 328 329
308 308 308 308 308 307 307 307 305 304 304 305 305 305 305 305 305 305 305 305 306 306 306 307 307 307 308 307 306 307 308 308 308 309 310 311 312 313 313 315 317 319 321 323 325 327 327 328 328 328 328 328 328 328 327 327 329 329 328 328 328 329 329
307 307 307 307 307 307 307 307 306 304 303 304 304 304 304 304 303 303 303 303 303 302 302 302 302 302 303 303 303 303 304 305 306 306 308 309 309 310 310 311 313 314 315 317 320 323 325 327 328 328 328 328 328 328 328 328 328 328 328 328 328 328 328
306 306 306 306 305 306 306 306 305 303 302 303 303 303 302 302 302 302 302 301 301 299 299 299 299 299 300 300 301 301 301 302 305 306 307 308 309 309 309 309 310 311 312 312 314 317 320 323 326 327 328 328 328 328 328 328 328 328 328 328 327 328 328
305 305 304 305 305 305 305 305 303 302 301 301 301 301 301 301 301 301 301 300 300 299 298 297 297 298 298 298 299 299 300 301 303 305 305 307 308 308 307 307 308 309 310 310 311 313 314 317 321 324 327 328 328 328 328 328 328 328 328 328 327 327 327
303 303 303 303 303 303 303 303 301 300 300 299 299 300 301 300 300 300 300 299 299 298 297 296 297 298 298 298 298 298 299 300 302 303 304 305 306 305 305 305 306 307 307 308 309 310 311 313 315 319 322 325 327 328 328 328 329 328 328 328 327 327 327
302 302 301 301 301 301 301 300 299 299 299 298 298 299 299 299 299 299 299 298 298 297 296 296 296 298 299 299 299 299 299 299 300 301 303 303 304 304 304 304 305 305 306 306 307 308 309 310 312 313 316 320 323 326 328 328 329 329 328 328 328 328 328
302 301 301 301 300 300 299 298 298 298 298 298 297 297 297 298 297 297 297 297 297 296 296 296 296 297 299 299 300 300 300 300 300 300 301 302 303 304 304 304 304 305 305 306 307 308 309 309 310 311 312 314 317 320 324 327 329 329 329 329 328 328 327
302 301 301 301 301 300 299 298 297 297 297 297 297 297 296 296 296 296 296 296 295 295 295 295 296 297 298 298 299 300 300 299 299 300 300 301 302 303 303 304 304 304 305 306 306 307 307 307 308 308 309 311 312 314 318 322 326 328 328 328 328 328 328
303 302 301 301 301 301 300 299 297 297 297 297 296 296 296 296 296 296 295 295 295 295 295 295 295 296 296 297 298 299 299 298 298 299 300 301 302 302 302 303 303 303 304 305 305 304 304 304 305 305 306 307 309 311 314 317 322 325 327 328 328 328 328
303 302 301 301 301 300 299 298 298 297 297 297 296 296 296 296 295 295 295 295 295 295 295 295 295 295 295 296 296 297 298 297 297 298 299 300 301 301 301 301 301 302 303 303 302 302 302 303 303 303 304 304 305 307 310 314 318 322 326 327 328 328 328
302 301 301 301 300 299 298 297 297 297 297 297 296 296 296 296 295 295 295 295 295 295 295 295 295 296 296 296 296 297 297 296 296 297 298 299 299 300 300 300 300 301 301 301 301 301 302 301 301 302 302 303 303 303 305 308 313 318 323 326 328 328 327
301 300 300 300 299 298 297 297 297 297 297 297 296 296 296 296 295 295 295 295 294 294 294 294 295 295 296 296 297 297 297 296 296 296 297 297 298 299 299 299 299 299 300 300 300 301 300 299 299 300 302 304 305 304 303 304 307 312 318 323 327 328 327
300 300 299 299 297 297 296 296 296 296 296 296 296 296 296 296 295 295 295 295 294 294 294 294 295 295 295 296 296 297 297 296 295 296 296 296 297 298 298 298 298 298 299 299 300 299 298 298 298 299 301 304 306 307 307 306 306 308 313 319 323 326 327
299 298 297 297 296 295 295 295 295 295 295 295 295 295 295 295 295 295 295 295 294 294 294 294 294 295 295 295 296 296 296 296 295 295 295 295 296 297 297 297 297 297 297 298 298 297 296 296 297 299 303 305 306 308 309 310 310 309 311 314 318 323 326
297 296 295 295 294 295 295 295 295 295 295 295 295 295 295 295 295 295 295 295 294 294 294 294 294 294 295 295 295 296 296 295 295 295 295 295 295 296 296 296 296 296 296 296 296 296 295 295 295 299 303 306 307 308 307 309 311 312 312 312 315 320 323
295 295 294 294 294 294 294 295 295 295 295 295 295 295 295 295 295 295 295 295 294 294 294 294 294 294 294 295 295 295 295 295 295 295 296 295 295 295 295 295 296 296 295 295 295 295 295 295 295 297 300 303 306 306 305 306 308 309 311 314 316 319 322
294 294 294 294 294 294 294 294 295 295 294 294 294 295 295 295 295 295 294 294 294 293 293 293 293 293 294 294 295 295 294 294 294 294 295 294 294 294 295 295 295 295 294 294 295 295 295 295 295 297 299 301 303 304 304 307 307 306 308 313 316 320 322
294 294 294 295 294 294 294 294 295 295 294 295 294 294 295 295 294 294 294 294 294 293 293 293 293 293 293 293 294 294 293 293 293 293 293 293 294 294 294 294 295 294 294 294 294 295 295 295 295 297 298 301 303 303 306 308 308 307 309 312 316 320 322
295 295 295 295 294 294 294 294 295 295 295 295 294 294 294 295 294 294 294 294 293 293 293 293 293 293 293 293 293 293 292 292 292 292 292 293 293 293 293 294 294 293 293 293 294 295 295 295 295 296 298 299 302 303 305 308 309 310 312 314 317 320 322
295 295 295 294 294 295 295 295 295 295 295 295 295 294 294 294 294 294 294 293 293 293 293 293 293 292 292 292 292 292 292 292 291 292 292 292 293 293 293 293 294 293 293 293 294 295 295 295 295 296 297 298 299 301 304 307 309 312 315 317 319 320 321
296 295 295 295 295 295 295 295 294 295 295 294 295 294 294 294 294 294 294 294 293 293 293 292 292 292 292 292 292 292 292 291 291 291 292 292 292 292 292 293 293 293 293 293 294 294 295 295 295 296 296 296 298 300 304 306 308 311 314 316 317 318 318
296 295 295 295 295 295 295 295 294 294 294 295 295 295 294 294 294 294 294 294 293 293 293 292 292 292 292 292 292 292 292 291 290 291 291 291 291 292 292 292 292 293 293 293 294 294 295 295 295 296 296 296 298 301 303 304 306 307 309 311 312 312 313
296 296 296 296 296 295 295 295 294 294 294 294 295 295 294 294 293 294 294 294 293 293 293 292 292 292 292 292 292 292 292 291 291 291 291 291 291 291 292 292 292 292 293 293 294 294 295 295 295 296 296 296 299 302 302 302 303 304 304 306 306 307 307
297 297 297 297 296 296 296 295 295 295 295 295 295 295 294 294 293 293 293 294 293 293 293 292 292 292 292 292 292 292 292 292 292 291 291 291 291 291 292 292 292 292 293 294 295 295 295 295 295 295 295 296 298 300 301 301 301 302 302 302 302 302 302
298 298 298 298 298 297 297 297 296 296 295 295 295 295 295 294 293 293 293 293 293 293 293 292 292 292 292 292 291 291 292 292 292 292 291 291 291 291 292 292 292 293 293 293 294 294 295 295 295 295 295 295 296 298 299 299 299 300 300 301 300 300 300

ECMWFFLT1_925_thetae_099.txt.gz
Theta_e
326 325 325 325 326 326 327 328 328 328 328 328 328 328 328 329 329 330 330 330 331 331 331 330 330 329 329 330 331 331 331 331 331 332 332 331 331 332 333 332 332 332 331 331 331 331 331 331 331 331 332 332 331 331 332 332 332 331 331 330 330 330 330
323 323 324 324 324 324 325 325 325 325 325 325 325 325 326 326 327 329 329 329 330 330 330 330 329 329 329 329 329 329 329 330 330 331 330 330 331 331 331 332 332 332 331 331 331 331 331 331 330 330 331 332 331 331 331 331 332 332 331 331 331 331 330
322 322 323 323 323 323 323 324 324 324 324 324 323 324 324 324 326 327 327 327 327 327 327 327 327 327 329 329 328 328 329 329 329 329 329 329 330 330 329 330 331 331 331 331 331 331 331 331 330 329 330 331 331 331 332 331 331 331 331 332 331 331 330
322 322 322 322 322 322 322 322 322 322 322 322 321 321 322 323 324 324 324 324 324 324 324 323 323 324 326 327 327 327 328 329 328 328 327 328 328 328 328 328 329 330 330 330 330 330 330 330 330 329 329 330 330 330 331 331 330 330 330 331 331 331 331
320 320 319 319 319 319 319 319 319 319 319 319 319 319 319 320 321 321 322 322 321 321 321 321 321 322 323 324 325 326 327 328 327 326 326 327 328 328 327 327 327 328 328 329 329 329 329 329 330 329 329 330 330 330 330 331 330 329 330 331 331 331 331
316 316 315 315 316 316 316 316 316 316 316 316 316 316 316 317 318 318 318 318 318 317 318 319 320 320 321 322 323 324 324 325 325 324 324 325 326 327 327 327 327 327 327 327 328 328 329 329 329 330 330 330 331 330 330 331 331 330 329 330 330 331 331
313 313 312 312 313 313 313 313 313 313 313 313 313 313 313 314 315 315 315 314 314 315 316 317 317 318 318 319 319 320 320 321 321 321 322 322 323 325 325 326 327 328 328 328 328 328 329 329 329 330 330 330 330 330 330 330 331 330 330 330 329 329 330
312 311 311 310 311 311 311 311 311 311 311 312 311 311 311 312 312 313 312 312 312 313 315 315 316 316 316 316 317 317 317 317 318 318 319 319 320 321 322 324 325 327 328 328 328 328 328 328 329 329 329 330 331 331 330 330 331 331 330 330 330 329 329
311 311 310 310 309 309 309 309 309 309 310 310 310 309 309 310 311 311 310 310 310 311 312 313 313 314 314 314 314 314 314 315 315 316 316 316 317 317 318 320 321 323 326 328 328 328 328 328 328 329 329 329 330 330 330 331 331 330 330 330 330 329 329
311 311 310 310 309 309 308 308 308 308 308 308 308 308 308 308 308 309 308 307 307 307 307 308 308 308 309 309 309 309 310 310 311 311 311 312 313 313 314 315 316 318 321 323 325 327 327 328 328 328 328 329 329 330 331 331 330 330 330 330 330 329 328
310 310 310 310 309 308 307 306 306 307 307 307 307 306 306 306 306 307 306 305 304 303 303 303 303 304 305 305 305 305 305 305 306 307 308 308 309 310 311 312 313 314 316 317 319 322 324 325 327 328 328 328 328 329 330 330 330 330 330 330 330 329 329
309 309 309 309 309 308 307 305 305 306 306 306 305 305 305 304 304 304 304 303 302 302 302 302 302 302 302 302 303 304 303 303 304 305 306 307 307 308 309 310 311 311 313 313 314 317 318 320 323 325 327 328 328 328 328 329 330 330 330 329 330 330 329
307 308 308 308 308 307 306 304 304 304 304 304 304 304 303 303 303 303 302 302 301 301 300 300 300 301 301 301 301 302 302 303 304 305 305 306 307 307 307 308 309 310 310 311 312 313 314 316 317 320 323 325 326 328 328 328 329 329 329 329 329 329 329
306 306 306 306 306 305 304 303 303 303 303 303 303 303 302 302 302 302 302 301 300 300 300 299 299 300 300 300 300 301 301 302 303 304 304 305 306 306 306 307 308 309 309 309 310 311 312 313 314 316 318 320 322 324 327 328 329 328 328 328 329 329 329
304 304 304 304 304 303 302 302 301 302 302 303 303 302 302 301 301 301 301 300 299 299 299 299 298 299 299 299 300 300 301 301 302 303 304 304 305 305 306 306 307 307 308 308 309 309 310 311 312 313 315 316 318 319 321 324 327 328 328 328 328 328 329
302 302 302 302 302 302 301 300 300 300 300 301 301 301 300 300 300 300 300 299 299 298 298 298 298 298 298 299 299 300 300 301 301 302 303 303 304 304 305 306 306 306 307 307 308 308 309 310 310 311 312 313 315 316 317 319 321 324 327 329 328 328 329
302 302 301 301 300 300 300 300 299 299 299 299 299 299 299 299 298 298 299 298 298 298 298 297 297 297 297 298 298 299 299 300 301 301 302 303 303 304 305 305 305 305 306 306 307 307 308 308 308 309 310 311 312 313 314 315 316 317 321 325 328 328 329
302 302 302 301 300 299 299 299 298 298 298 298 298 298 298 298 297 298 298 298 298 298 297 297 297 297 297 297 298 298 299 299 300 301 302 303 303 303 304 304 304 304 305 305 306 306 306 306 306 306 307 308 308 309 310 312 313 314 316 319 323 326 329
302 302 302 301 300 299 298 298 298 298 297 297 297 297 297 297 297 297 297 297 297 297 297 297 296 296 296 297 297 298 298 299 300 300 301 302 302 303 303 303 303 303 304 304 304 305 304 304 304 304 305 305 305 306 307 309 311 312 314 316 318 322 326
302 302 301 300 300 299 298 298 298 298 297 297 297 297 297 296 297 297 297 297 297 297 297 296 296 295 296 296 297 297 298 298 299 300 300 301 301 302 302 302 302 302 303 303 303 303 303 303 303 303 303 303 303 304 305 306 308 309 312 314 316 319 322
301 300 299 299 299 299 298 298 298 298 297 297 296 296 296 296 296 296 296 297 297 296 296 295 295 294 295 295 296 297 297 298 298 299 299 300 300 301 301 301 302 302 302 302 301 301 301 301 301 301 301 301 301 302 302 303 305 306 309 312 314 317 320
300 298 298 298 298 297 297 297 297 297 296 296 296 296 296 296 296 296 296 296 296 296 296 295 294 294 294 295 295 297 297 297 298 298 299 299 299 300 300 300 301 301 300 300 300 300 300 300 299 299 299 299 299 300 300 301 302 304 306 309 312 315 318
298 297 297 297 297 296 296 296 296 296 296 296 296 296 296 296 296 296 296 296 296 296 295 294 294 294 295 295 295 296 297 297 297 298 298 298 298 299 299 299 299 299 299 299 299 299 299 298 298 297 297 297 297 297 298 299 300 302 304 306 309 312 315
296 296 296 296 296 296 295 295 295 295 295 295 296 296 296 296 296 296 296 296 296 296 295 293 294 295 295 295 295 295 296 297 297 297 298 298 298 298 298 298 298 298 299 299 299 298 298 297 296 296 296 296 297 297 297 298 299 300 302 304 307 309 313
295 295 295 295 295 295 295 295 295 295 295 295 296 295 295 296 296 296 296 296 295 295 294 293 294 294 295 295 295 295 296 296 296 297 297 297 297 297 297 297 297 298 298 298 298 297 296 296 296 296 296 297 299 299 298 298 299 300 301 303 305 307 310
295 295 295 295 295 295 295 295 295 295 295 295 295 295 295 296 295 295 295 295 295 295 294 293 293 294 295 295 295 295 296 296 296 296 296 296 296 296 297 297 296 297 297 297 296 296 295 294 295 297 297 298 299 300 300 300 301 301 301 302 302 304 306
295 295 295 295 295 295 295 295 295 295 295 295 295 295 295 295 295 295 295 295 295 295 294 293 293 294 294 295 295 295 295 296 295 296 296 295 296 296 296 296 296 296 296 296 295 295 294 293 294 296 297 298 299 300 301 301 303 304 304 303 302 302 304
295 295 295 295 295 295 295 295 295 295 295 295 295 295 295 295 295 295 295 295 295 295 293 292 293 293 294 294 294 295 295 295 295 295 295 295 295 296 295 295 295 295 295 295 294 294 293 293 293 295 296 297 298 299 300 301 303 304 305 304 303 303 304
295 295 295 295 295 295 295 294 294 295 295 295 295 295 295 295 295 295 295 294 294 295 294 292 292 293 293 294 294 295 295 295 295 295 295 295 295 295 295 295 295 294 294 294 294 293 293 293 293 294 296 297 297 298 299 300 301 302 303 304 305 305 305
295 295 296 295 295 295 295 295 294 294 295 295 295 295 295 295 294 294 294 294 294 294 294 293 292 292 293 293 294 294 294 294 294 294 294 295 295 295 295 295 295 294 293 293 293 293 293 293 293 294 295 296 296 297 298 299 300 302 302 303 305 308 310
295 295 295 295 295 295 294 295 294 294 294 295 294 295 295 295 295 294 294 294 294 294 294 293 292 292 292 292 293 294 294 294 294 294 294 294 294 295 295 295 294 293 293 292 293 293 293 293 293 294 295 295 296 297 297 297 299 301 303 304 306 310 314
295 295 295 295 295 295 294 294 294 294 294 294 295 294 294 294 295 294 294 294 293 294 294 293 292 292 292 292 292 293 293 293 293 293 293 294 294 294 294 294 294 293 292 292 292 293 293 293 293 293 294 295 295 296 296 297 298 301 302 303 305 307 310
295 295 295 295 294 294 294 294 294 294 294 294 294 294 294 294 294 294 294 294 294 293 293 293 292 292 292 292 292 292 293 292 292 293 293 294 294 294 294 294 294 293 292 292 292 293 293 293 293 293 294 294 294 294 295 297 298 300 301 302 302 303 304
296 295 295 295 295 295 295 294 294 294 294 294 294 294 294 294 294 294 294 294 294 293 293 293 292 292 291 291 291 292 292 292 292 293 293 293 294 294 294 294 294 293 292 292 292 292 293 293 293 293 293 293 293 294 295 297 298 299 300 301 301 301 301
296 296 296 296 296 296 295 295 295 294 294 294 295 295 294 294 294 295 294 294 294 293 293 293 292 292 291 291 291 291 292 291 292 293 293 293 293 293 293 293 293 292 292 292 293 292 292 293 293 293 293 293 294 295 295 296 297 298 299 299 300 300 300
297 297 297 297 297 297 296 296 295 294 294 295 296 295 295 295 295 295 294 294 294 294 293 293 292 292 291 292 292 291 291 291 291 292 293 293 293 293 293 293 292 292 292 292 293 292 292 292 292 293 293 293 294 294 294 295 296 297 298 298 299 299 299
298 298 298 298 298 297 297 296 296 295 295 296 296 296 295 295 295 295 295 294 294 294 294 293 293 292 291 292 292 291 291 292 291 291 292 293 293 292 292 292 292 292 292 292 293 293 292 292 292 293 293 293 293 293 294 294 295 296 296 297 298 298 298

ECMWFFLT1_925_thetae_102.txt.gz
Theta_e
331 331 330 330 330 330 330 330 329 329 328 328 328 329 329 329 329 329 329 330 330 330 330 330 330 330 330 331 331 332 332 332 332 332 333 332 333 333 333 333 332 332 333 332 331 331 333 332 331 332 332 332 333 335 335 333 333 334 333 334 333 333 333
329 329 328 328 328 328 328 328 328 327 327 326 326 326 326 327 327 327 327 327 327 327 328 328 328 327 327 328 330 331 330 331 332 332 332 332 332 332 332 332 332 332 332 332 332 332 333 332 331 331 332 332 332 333 335 334 333 333 333 334 334 333 333
328 328 328 328 327 328 327 326 326 326 325 325 324 324 324 325 325 324 324 324 324 325 325 325 325 325 325 326 327 328 328 328 330 331 331 330 331 331 331 331 331 331 332 332 332 332 332 332 332 331 332 333 333 332 333 334 334 334 333 333 333 333 333
327 327 327 326 326 326 325 325 324 324 323 323 322 322 322 322 322 322 322 321 321 321 322 322 322 321 323 324 325 325 324 325 326 327 328 329 329 329 330 330 330 330 331 331 331 331 331 331 331 331 331 332 333 331 331 332 333 333 333 333 332 333 333
324 324 324 323 323 323 322 322 322 321 321 320 320 319 319 319 320 320 320 319 318 318 317 318 317 318 319 321 322 322 322 322 322 322 325 326 326 327 328 328 329 329 330 330 330 330 330 330 330 331 330 331 332 331 331 332 332 332 333 333 333 332 333
321 321 320 320 320 320 319 319 319 319 318 318 317 317 316 317 317 317 317 317 316 316 315 315 314 315 317 319 320 319 319 319 319 319 322 323 323 324 324 324 326 327 328 329 329 330 330 329 330 331 330 330 331 331 331 331 331 332 333 333 333 333 332
318 318 318 317 317 317 317 317 317 316 316 315 315 314 314 315 315 315 314 314 314 314 314 314 313 313 314 316 317 316 316 316 316 317 318 320 321 321 321 321 322 323 325 327 328 329 329 329 330 330 330 330 330 331 331 330 331 331 332 333 333 333 333
316 316 315 315 315 315 315 315 314 314 314 314 313 313 313 313 313 313 312 312 312 311 311 311 311 311 311 313 313 313 313 313 314 315 316 316 317 318 318 319 319 320 322 324 325 326 327 327 328 329 330 329 329 330 329 329 331 331 332 332 331 332 334
315 314 313 313 313 313 313 313 313 312 312 312 311 311 311 311 311 311 311 310 309 309 309 309 309 309 309 310 311 311 311 310 311 312 313 313 314 315 315 316 317 318 319 320 321 323 324 324 325 327 328 328 330 330 329 330 330 330 331 331 331 332 333
313 313 313 312 312 312 312 312 311 311 311 310 310 310 310 310 310 309 309 309 308 308 308 308 308 308 309 309 309 309 309 308 309 311 311 312 312 312 313 314 315 316 317 317 318 318 319 321 322 324 325 327 328 329 330 329 329 329 330 330 330 332 332
312 312 312 311 311 311 311 310 310 310 309 309 309 309 309 309 308 308 308 307 307 307 306 306 307 307 308 308 308 308 308 307 309 310 310 310 311 311 312 312 313 314 315 315 315 316 316 317 318 320 321 323 324 326 327 328 328 328 329 329 329 331 331
311 311 311 310 310 310 310 309 309 309 308 308 308 308 308 308 307 307 307 306 306 306 305 305 306 306 307 307 307 307 307 307 308 309 309 309 310 310 310 311 312 313 313 313 314 314 315 315 316 317 318 319 321 322 324 325 326 326 328 329 328 330 331
310 310 309 309 308 308 308 308 308 308 308 307 307 307 307 307 306 306 305 305 305 304 304 304 305 305 305 306 306 306 306 307 307 307 308 308 308 309 309 309 310 311 311 311 312 312 313 313 313 314 315 316 317 319 320 322 323 323 325 327 327 328 329
308 308 308 308 307 307 307 307 307 307 307 306 306 306 306 306 305 305 304 304 304 303 303 303 304 304 304 305 305 306 306 306 306 307 307 307 307 307 308 308 309 309 309 309 310 311 311 312 312 312 313 313 314 315 317 318 320 320 322 323 324 326 327
307 307 307 307 306 306 306 306 306 306 306 305 305 305 305 304 304 304 304 303 303 303 303 303 303 303 303 303 304 305 305 305 305 306 306 306 306 306 307 307 308 308 308 308 309 309 310 310 310 310 310 311 312 313 313 314 315 317 319 319 320 322 324
306 306 306 306 306 306 305 305 305 305 305 304 304 303 303 303 303 303 303 303 302 302 302 302 302 302 302 303 303 304 304 304 304 304 305 305 305 305 306 306 307 307 307 307 308 308 308 309 308 308 309 309 310 310 310 311 312 314 315 316 317 319 320
306 306 306 305 305 305 305 304 304 304 304 303 303 303 303 303 303 303 303 302 302 302 301 301 301 301 302 302 303 303 303 304 304 304 304 304 304 305 305 305 306 306 306 306 307 307 307 307 306 307 307 307 308 308 308 309 310 311 312 313 315 316 318
305 305 305 305 305 304 304 304 303 303 303 303 303 303 302 302 302 302 302 302 301 301 300 300 300 300 301 301 302 303 303 303 303 303 303 303 303 304 304 305 305 305 305 305 305 305 305 304 304 305 305 305 306 306 307 307 308 308 310 311 313 314 315
305 305 305 305 304 304 304 303 303 303 303 303 302 302 302 302 302 302 301 301 301 300 300 299 299 299 299 300 302 302 302 302 302 302 302 302 303 303 303 304 304 304 304 304 304 303 302 302 302 303 303 303 304 304 304 305 305 306 308 309 310 312 313
304 304 304 304 304 303 303 303 302 302 302 302 302 302 302 301 301 301 301 300 300 300 299 298 297 297 298 299 301 302 302 302 302 302 302 302 302 302 302 303 303 303 303 302 302 301 301 301 301 301 301 301 301 301 302 302 303 304 306 307 309 311 313
304 303 303 303 303 302 302 302 302 302 302 302 301 301 301 301 301 301 301 300 300 299 298 297 295 295 296 297 300 301 302 301 301 301 301 301 301 301 301 301 302 302 301 300 300 300 300 299 299 299 299 299 299 299 300 301 301 303 304 306 307 309 311
302 302 302 302 302 302 301 301 301 301 301 301 301 301 301 301 301 301 301 300 299 298 297 295 294 294 295 296 298 301 301 301 301 301 301 301 300 300 300 300 301 300 300 299 299 299 299 298 298 298 298 298 298 299 299 300 300 302 303 304 306 307 310
301 301 301 301 301 301 301 301 301 301 301 301 301 301 301 300 300 300 300 300 299 298 296 294 294 295 295 295 297 300 301 301 301 301 300 300 300 300 299 300 300 299 299 299 299 298 298 297 297 296 296 296 297 297 298 298 299 301 302 303 305 306 308
301 301 300 300 300 300 300 300 301 301 301 301 301 300 300 300 300 300 300 299 299 298 296 294 294 295 295 296 297 299 301 301 300 300 300 299 299 299 299 299 299 299 299 299 298 298 297 296 296 297 297 296 296 297 297 298 299 300 301 302 303 304 306
300 300 300 300 300 300 300 300 300 300 300 301 300 300 300 300 300 300 300 299 299 298 295 294 294 294 294 296 297 299 300 300 300 300 299 299 299 299 299 299 298 299 299 298 298 297 296 295 295 296 297 297 297 298 299 299 299 300 300 301 302 303 304
299 300 299 299 299 300 300 300 300 300 300 300 300 300 300 300 300 300 300 299 299 297 294 294 294 294 294 296 297 299 300 299 299 299 298 298 298 298 298 298 298 298 298 297 297 296 295 294 294 296 297 298 298 300 300 300 300 300 300 301 301 302 303
299 299 299 299 299 299 300 300 300 300 300 300 300 300 300 300 299 299 299 299 299 297 294 293 294 294 294 296 297 298 299 299 299 298 298 298 298 298 298 298 297 297 296 296 296 295 293 293 294 295 296 298 298 299 299 299 300 300 300 301 301 302 303
299 299 299 299 299 299 300 300 299 299 299 300 300 300 299 299 299 299 299 298 299 298 295 293 294 294 294 295 297 299 299 299 298 298 298 298 297 297 297 297 297 296 296 296 295 294 293 292 293 295 296 297 297 298 298 299 299 299 299 300 300 301 301
299 299 299 299 299 299 299 300 299 299 299 299 300 299 299 299 299 298 298 298 298 298 295 293 293 293 293 295 297 299 299 298 298 297 297 297 297 297 297 296 296 296 295 295 294 293 292 292 293 294 295 296 296 297 298 298 298 297 298 298 299 300 301
299 299 299 299 299 299 299 299 299 299 299 299 299 299 299 299 299 298 298 297 298 298 296 293 292 292 293 294 297 298 298 298 298 297 297 297 297 297 297 296 296 295 294 294 293 293 292 292 293 294 294 295 295 295 297 297 296 296 297 298 299 300 301
299 299 299 299 299 299 299 299 299 299 298 298 298 299 299 298 298 298 298 297 296 297 297 293 291 292 292 293 295 298 297 297 297 297 297 297 297 297 296 296 295 294 293 293 293 293 292 292 292 293 294 294 294 294 295 295 295 296 297 298 299 300 301
299 299 299 299 299 299 299 299 299 298 298 298 298 298 298 298 298 298 298 297 296 296 296 294 292 291 292 292 294 296 297 296 297 297 296 297 297 296 296 296 295 294 293 293 293 293 293 292 292 293 293 293 293 293 294 293 295 296 296 298 299 299 300
299 299 299 299 299 299 299 299 299 299 298 298 298 298 298 298 298 298 298 298 297 296 296 295 292 291 292 291 292 294 296 296 296 296 296 296 296 296 296 296 295 294 293 293 293 293 293 292 292 293 293 292 292 293 293 293 294 295 295 296 297 298 299
299 299 299 299 299 299 299 299 299 299 299 299 299 299 299 298 298 298 298 298 297 296 295 295 293 292 292 292 291 293 294 295 295 296 296 296 296 296 295 296 295 293 293 293 293 293 293 293 293 293 293 293 293 293 293 294 294 294 295 295 295 296 298
300 300 300 300 300 300 300 299 300 300 300 299 299 299 299 299 298 299 298 298 298 297 296 295 294 293 293 293 292 292 293 293 294 295 296 296 296 295 295 295 295 293 293 293 293 293 293 293 293 293 293 293 294 294 294 294 294 294 294 294 294 295 296
300 301 301 301 300 300 300 299 300 300 300 300 299 299 299 299 298 298 298 298 297 297 297 296 295 294 293 294 293 293 292 292 293 294 296 295 295 295 295 295 294 293 293 294 294 294 294 293 293 293 294 294 294 294 294 294 294 294 294 294 294 294 294
301 301 301 301 300 300 300 300 299 300 300 299 299 299 298 298 298 298 298 298 297 297 297 297 296 295 294 294 294 293 293 293 293 293 295 295 295 295 295 294 294 294 294 294 294 295 295 294 294 294 294 294 294 294 294 294 294 294 294 294 294 294 294

ECMWFFLT1_925_thetae_105.txt.gz
Theta_e
335 334 333 333 333 332 332 332 331 330 330 329 329 328 328 329 329 329 329 329 329 329 328 329 328 327 328 329 330 331 331 331 332 333 333 333 333 333 333 333 333 334 335 336 335 334 334 333 332 332 332 333 333 335 337 335 333 333 333 333 333 334 335
332 332 331 331 331 331 331 330 330 329 328 328 327 326 326 327 326 326 326 326 326 325 325 326 325 325 325 327 328 328 328 329 329 330 330 331 332 332 332 332 332 332 332 333 333 334 334 334 333 332 332 333 332 334 336 335 333 331 331 333 334 333 333
331 331 330 330 330 330 329 329 328 327 326 325 325 324 324 324 324 324 324 323 323 323 322 323 323 322 323 324 325 326 326 326 326 327 327 329 330 330 330 330 331 331 332 332 332 332 332 332 332 331 331 332 332 332 334 335 335 332 330 332 333 332 332
330 330 329 329 328 328 327 327 326 325 324 323 323 322 321 321 322 322 321 321 321 320 320 321 320 321 321 322 323 324 323 323 324 324 325 326 327 327 327 327 328 328 329 330 331 331 331 331 331 331 331 331 331 332 332 333 334 333 331 331 332 332 332
327 327 327 326 326 325 324 324 324 323 322 321 320 319 319 319 319 319 319 319 319 318 319 319 319 319 319 320 321 322 321 321 322 322 323 324 324 324 324 324 324 325 326 327 328 329 329 330 330 330 331 330 330 331 331 331 331 332 332 332 332 332 331
324 324 324 323 323 322 321 322 321 321 320 319 318 317 317 317 317 316 316 317 317 317 317 317 317 317 317 319 319 319 319 319 319 319 320 321 320 321 321 321 322 322 323 324 325 325 326 327 328 329 329 329 330 331 330 330 330 330 331 331 332 332 332
321 321 321 320 320 320 319 319 319 319 318 317 316 315 315 316 316 315 315 315 315 315 315 315 315 316 316 317 317 317 317 317 316 317 318 318 318 318 318 318 319 320 321 322 322 323 323 324 325 326 327 327 328 329 329 329 329 329 330 330 331 333 333
319 318 318 318 318 317 317 317 317 317 316 315 314 314 314 314 315 314 314 314 313 313 314 314 314 314 315 315 315 315 315 315 315 315 316 316 316 316 316 317 317 318 319 320 320 320 320 321 322 322 323 324 325 326 326 327 328 329 329 329 329 331 332
317 316 316 316 316 316 316 315 315 314 314 314 313 313 313 313 313 313 313 313 312 312 312 312 312 313 313 314 314 314 313 313 314 314 314 314 314 314 315 315 315 316 317 318 318 318 318 319 319 320 321 321 322 323 323 324 326 327 328 329 329 329 330
315 315 315 315 315 315 314 314 313 313 313 313 312 312 313 312 312 312 312 311 311 310 310 311 311 311 312 312 312 312 312 312 313 313 313 313 313 313 313 313 314 315 315 315 315 316 316 317 317 318 318 319 320 320 321 322 323 324 325 327 328 328 329
314 314 314 314 314 313 313 313 312 312 312 312 312 312 312 312 311 311 310 310 309 308 309 309 310 310 310 311 311 311 311 311 312 312 312 311 311 311 312 312 312 313 313 313 313 313 314 315 315 315 316 316 317 318 319 320 320 321 322 324 325 326 327
313 313 313 313 313 312 312 312 311 311 311 311 311 311 311 310 310 309 309 308 307 307 307 308 308 308 309 309 310 310 310 310 311 311 311 311 310 310 310 310 311 311 311 311 311 311 312 312 313 313 314 314 314 315 316 317 317 318 319 320 321 322 323
312 312 312 312 312 312 311 311 311 310 310 310 310 310 310 309 308 308 307 307 306 306 306 307 307 307 307 308 309 309 309 309 309 309 309 310 310 309 309 309 309 310 310 310 310 310 310 311 311 311 311 311 312 313 314 314 314 315 316 316 317 318 319
311 311 311 311 311 311 311 310 310 310 310 310 309 309 308 308 307 307 306 306 306 305 305 306 306 306 307 307 308 308 308 308 308 308 308 308 308 308 308 308 308 309 309 309 309 309 309 309 309 309 309 309 310 310 311 311 312 312 313 313 314 315 316
311 310 310 310 310 310 310 310 310 309 309 308 308 307 307 307 307 306 305 305 305 304 304 305 305 305 306 307 307 307 307 307 307 307 307 307 307 307 307 307 307 307 307 307 307 307 307 307 307 307 307 307 308 308 308 309 309 310 311 311 312 312 313
310 310 309 309 309 309 309 309 309 308 308 307 307 306 306 306 306 305 305 304 304 303 303 303 304 304 305 306 307 307 306 306 307 306 306 306 306 306 306 306 306 306 306 306 306 305 305 305 304 304 305 305 305 305 306 306 307 308 308 309 309 310 311
309 309 309 309 309 309 308 308 307 307 307 307 306 306 306 305 305 305 304 303 303 302 302 302 302 303 304 305 306 306 306 306 306 306 305 305 305 305 305 305 305 305 305 304 304 304 303 303 303 303 303 303 303 304 304 304 305 305 305 306 307 308 309
309 309 309 308 308 308 307 307 307 306 306 306 305 305 305 305 305 304 303 303 302 302 301 301 301 301 302 304 305 306 305 305 305 305 305 305 305 304 304 304 304 304 303 303 302 302 302 302 302 302 302 302 302 302 302 302 303 303 304 304 305 306 307
309 309 308 308 307 307 307 306 306 306 306 305 305 305 305 305 304 303 303 302 302 301 300 299 299 299 301 303 304 305 305 305 305 304 304 304 304 303 303 303 303 303 302 302 301 301 301 301 301 300 300 301 301 301 301 301 302 302 303 303 304 305 306
308 307 307 307 306 306 306 305 305 305 305 305 305 305 305 304 304 303 302 302 301 300 299 297 296 297 299 301 303 304 304 304 304 304 304 303 303 302 302 302 302 302 301 301 300 300 300 300 299 299 299 299 299 300 300 300 301 302 302 303 303 304 305
306 306 306 306 305 305 305 305 305 305 305 305 305 305 305 304 304 303 302 301 300 299 298 296 295 296 298 299 302 304 304 304 304 304 303 303 302 302 301 301 301 301 301 300 299 299 299 299 298 298 298 298 298 298 299 299 300 301 301 302 303 303 305
305 305 305 305 305 305 305 305 305 305 305 305 304 304 304 304 303 303 302 301 300 298 296 295 295 296 297 298 300 303 304 304 304 303 303 302 302 301 301 301 301 300 300 299 298 298 298 298 297 297 297 296 297 297 298 298 299 300 300 301 302 303 304
304 304 304 304 304 304 304 305 305 304 304 304 304 304 304 304 303 302 302 301 300 298 296 294 295 296 297 298 300 302 303 303 303 303 302 301 301 301 300 300 300 300 299 299 298 298 298 297 296 295 295 295 296 296 297 298 299 299 300 301 302 302 303
303 304 304 304 303 303 304 304 304 304 304 304 304 304 303 304 303 303 301 300 299 298 295 294 294 296 298 299 300 301 303 303 302 302 301 301 301 300 300 300 300 299 299 298 298 298 297 296 295 295 295 295 296 297 297 298 299 299 300 300 301 301 302
303 303 303 302 302 302 302 303 303 303 304 303 304 304 303 303 303 303 302 300 298 297 295 294 294 296 298 299 300 301 302 302 302 301 301 300 300 300 300 299 299 299 298 298 298 297 296 295 295 295 296 296 297 298 298 298 299 299 299 300 300 301 301
301 301 301 301 301 302 302 302 303 303 303 303 303 303 303 303 303 303 302 301 299 296 294 293 294 295 298 299 300 301 302 302 301 301 300 300 299 299 299 298 298 298 297 297 297 295 294 295 295 295 296 297 298 298 298 298 298 299 299 299 299 300 300
301 301 301 301 302 302 302 302 303 303 303 303 303 303 302 302 302 302 302 301 300 296 293 293 294 295 297 299 300 301 302 301 301 301 300 300 299 299 299 298 298 297 297 297 296 294 293 294 295 295 296 297 297 298 298 298 299 298 298 298 298 298 298
301 301 302 302 302 302 302 302 302 303 303 303 303 302 302 302 302 302 301 301 300 297 293 293 293 294 296 299 300 301 302 301 301 300 300 299 299 299 298 298 297 297 297 297 295 293 293 293 294 296 296 297 297 297 297 298 298 297 297 296 296 296 297
301 301 301 302 302 302 302 302 302 302 303 302 302 302 302 301 301 301 301 301 301 297 294 292 293 293 295 298 300 300 301 301 300 300 300 299 299 299 298 298 297 296 296 296 295 294 293 293 295 296 296 296 296 297 297 297 297 296 295 295 296 296 296
301 301 301 301 302 302 302 302 301 301 302 302 302 301 302 301 301 300 300 300 301 298 294 292 292 293 294 296 299 300 300 300 300 300 299 299 299 298 298 297 296 296 296 295 294 294 294 294 295 296 296 296 296 296 297 296 296 295 295 295 296 296 296
301 301 301 301 302 302 302 301 301 301 301 301 301 301 301 302 301 300 299 299 300 299 296 294 293 293 293 294 297 299 299 299 300 299 299 299 299 298 298 297 296 295 295 295 294 294 294 294 295 296 296 296 296 296 296 295 295 296 296 296 296 296 296
301 301 301 302 302 302 302 301 301 301 301 301 301 301 301 301 301 301 300 299 298 299 298 296 294 294 293 293 295 297 298 298 299 300 299 298 298 298 297 297 297 295 294 295 295 294 295 294 295 296 296 296 296 295 295 295 295 296 296 296 296 296 296
301 302 302 302 302 302 302 301 301 301 301 301 301 301 301 301 301 301 301 300 299 298 299 298 296 294 294 293 294 295 297 297 297 298 299 298 298 298 297 297 297 295 294 295 295 295 295 295 295 296 297 296 295 295 295 295 296 296 296 296 296 296 296
301 302 301 302 302 302 302 302 301 301 301 301 302 302 301 301 301 301 301 301 300 299 299 298 297 294 294 294 294 294 295 296 295 297 298 298 298 298 297 297 297 295 294 295 295 295 295 295 296 297 297 296 296 296 295 296 296 296 296 296 296 296 296
302 302 302 302 302 302 302 302 302 302 301 301 302 302 301 301 301 301 301 300 300 300 299 298 297 295 294 295 294 294 294 294 294 296 298 298 298 298 297 297 297 295 295 295 295 295 296 296 296 297 296 296 296 296 296 296 296 296 296 297 296 296 296
303 303 302 302 302 302 302 302 302 302 302 301 301 301 301 301 301 301 301 300 299 299 299 299 297 295 294 295 295 294 294 294 294 295 296 297 297 297 297 297 296 295 295 295 295 296 296 296 296 296 296 296 296 296 296 296 296 296 297 297 296 296 296
303 303 303 302 302 302 302 302 302 302 301 301 301 301 300 300 301 301 301 300 299 298 298 298 297 295 294 294 295 294 294 294 293 294 295 297 297 297 297 296 295 295 295 295 295 296 296 296 296 296 296 296 296 296 296 296 296 297 297 297 297 297 296

ECMWFFLT1_925_thetae_108.txt.gz
Theta_e
334 335 334 333 333 332 332 331 330 329 327 327 326 326 325 325 326 325 325 324 324 324 324 323 323 323 323 324 324 325 325 325 325 327 327 328 329 329 328 328 329 329 329 330 331 333 334 334 332 331 332 332 332 332 332 333 334 335 336 335 334 333 332
333 333 332 332 332 331 330 329 328 327 326 325 324 324 323 323 323 323 323 322 322 322 322 322 321 321 321 322 323 324 323 322 323 324 325 326 327 326 326 326 326 326 326 327 328 329 330 332 332 331 330 330 331 331 331 331 332 333 335 336 336 334 332
332 331 331 331 330 330 329 327 326 325 324 323 322 321 321 321 321 321 321 320 320 320 320 320 320 320 320 321 322 322 321 321 321 322 323 324 323 323 323 324 324 324 324 325 325 326 327 328 329 328 328 329 330 329 329 330 330 331 332 334 335 334 332
331 331 330 329 329 328 327 326 325 323 322 320 319 319 319 319 318 318 319 318 318 318 318 319 319 318 319 320 320 319 320 320 319 319 320 321 320 320 320 320 321 322 322 323 324 324 325 325 325 325 325 326 326 326 327 327 327 328 329 331 332 332 332
329 328 327 327 326 325 325 324 323 321 320 318 318 318 317 317 317 317 317 317 317 317 317 317 317 317 317 319 318 318 318 317 317 318 319 319 318 318 318 318 319 319 320 321 322 322 323 323 322 322 323 323 323 323 323 324 325 326 327 328 329 331 332
326 325 325 324 323 323 322 322 321 320 318 317 316 316 316 316 315 316 316 316 315 315 315 316 316 316 316 317 317 316 316 315 316 317 317 317 317 316 316 317 317 317 318 319 319 319 320 320 320 320 320 320 321 321 321 321 322 323 324 325 326 329 330
323 322 322 321 321 321 320 320 319 318 316 316 315 315 315 315 315 315 314 314 314 314 314 314 315 315 315 315 315 314 314 314 315 315 315 315 315 314 315 315 315 316 317 317 316 316 317 317 318 319 319 319 318 319 319 319 320 320 321 322 323 324 326
320 319 319 319 319 318 318 317 317 316 315 314 314 314 314 314 314 314 313 312 312 312 313 312 313 313 313 314 314 313 312 314 314 314 314 313 313 313 313 313 313 314 314 313 313 314 314 315 316 316 317 317 316 316 317 317 318 318 319 320 320 321 322
318 318 318 317 317 316 316 316 315 315 314 314 314 313 313 313 313 312 311 310 310 310 311 311 311 312 312 312 313 312 312 313 313 313 312 312 312 312 311 311 311 312 312 311 311 312 312 312 313 314 315 315 315 315 315 315 315 316 317 317 318 319 319
317 317 317 316 315 315 314 314 314 314 313 313 313 313 312 312 311 311 310 309 309 309 309 309 309 310 310 311 311 311 310 311 312 311 311 311 311 311 311 310 311 311 311 310 310 311 310 311 311 312 312 312 313 313 313 313 313 314 314 315 315 316 315
315 315 315 315 314 314 313 313 313 313 313 313 313 312 311 310 310 309 308 308 308 308 308 308 308 309 310 310 310 310 309 310 310 310 310 310 310 310 310 309 310 310 309 309 309 309 309 309 309 309 309 309 310 310 311 311 311 311 312 312 312 312 312
314 314 314 314 313 313 312 312 312 312 312 312 311 310 310 309 308 307 307 307 306 307 307 307 307 308 309 309 309 309 309 309 309 309 309 308 308 308 308 308 308 308 308 307 307 307 307 307 306 306 306 307 307 308 308 309 308 308 309 309 309 309 310
313 313 313 313 313 312 312 312 312 311 311 311 310 309 308 308 307 306 306 306 305 306 306 306 306 307 308 308 308 308 308 308 308 308 308 307 307 307 307 307 307 307 306 306 306 305 305 305 304 304 304 305 305 305 306 306 306 306 306 306 307 307 307
313 313 313 312 312 312 311 311 311 310 310 309 309 308 308 307 306 305 305 304 304 304 304 305 305 306 307 308 307 307 307 307 307 307 306 306 306 306 306 306 306 306 305 304 304 303 303 303 303 303 303 303 303 303 304 304 304 304 304 304 304 304 304
312 312 312 312 312 311 311 310 310 309 309 308 308 307 307 306 305 304 304 303 303 303 303 303 304 305 306 307 307 306 306 306 306 306 306 306 305 305 305 305 305 304 303 303 302 302 302 301 301 301 301 301 301 302 302 302 303 303 303 303 303 303 303
311 311 311 311 311 310 310 309 308 308 308 307 307 307 306 306 305 304 303 302 302 301 301 302 303 304 305 307 307 306 306 306 305 305 305 305 304 304 304 304 304 303 302 302 301 301 300 300 300 300 300 300 300 300 300 301 301 301 302 302 302 303 303
311 310 310 310 309 309 309 308 308 307 307 307 307 306 305 304 304 303 302 301 301 300 299 300 301 303 304 306 306 306 305 305 305 305 305 304 304 303 303 303 303 302 301 301 300 300 300 299 299 299 299 299 299 299 299 299 300 300 300 301 301 302 302
310 310 309 309 309 308 308 307 307 307 306 306 306 306 305 304 303 302 301 301 300 298 297 297 299 301 303 305 306 305 305 305 305 304 304 303 303 303 302 302 302 301 301 300 300 299 299 299 299 299 298 298 298 298 298 298 299 299 299 300 301 301 301
310 309 309 308 308 307 307 307 307 306 306 306 306 305 305 304 303 302 301 300 298 296 295 296 298 300 302 304 305 305 305 305 304 304 303 303 302 302 302 302 301 301 300 300 299 298 299 298 298 298 298 298 297 297 297 297 298 298 299 299 300 300 301
309 308 308 308 307 307 307 307 307 306 306 305 305 305 304 304 303 301 300 299 297 295 295 296 297 299 301 303 304 305 305 304 304 303 303 302 302 301 301 301 301 300 300 299 298 298 298 297 297 297 297 297 297 297 297 297 298 298 298 299 299 300 300
308 307 307 307 307 306 306 306 306 306 306 306 305 305 304 304 303 301 300 299 296 294 295 296 297 299 301 302 304 304 304 304 303 303 302 302 302 301 301 301 300 300 299 298 298 298 297 297 296 296 296 296 296 297 297 297 298 298 299 299 299 300 300
307 306 306 306 306 306 306 306 306 306 306 305 305 305 304 303 302 301 300 299 296 294 294 296 297 299 300 302 303 304 304 304 303 302 302 301 301 300 300 300 300 299 299 298 298 297 297 296 295 295 295 296 296 297 297 297 298 298 299 299 299 299 300
306 306 306 306 306 306 306 306 305 305 305 305 305 305 304 303 301 300 299 298 296 294 294 295 297 299 300 301 302 303 303 303 302 302 301 301 300 300 300 299 299 299 298 298 298 297 296 295 295 295 295 296 297 297 297 298 298 298 298 299 299 299 299
305 305 305 305 305 305 305 305 305 305 304 304 304 304 304 303 301 300 298 296 295 294 293 295 297 299 300 301 302 303 303 302 302 301 301 300 300 300 299 299 298 298 298 298 297 296 295 295 296 296 296 297 297 297 297 298 298 298 298 299 299 299 299
305 304 304 304 304 304 304 304 304 304 304 304 304 304 304 304 302 301 298 295 293 293 293 294 297 299 300 301 301 302 302 302 302 301 300 300 300 299 299 298 298 298 298 297 297 295 294 295 296 296 296 297 297 297 297 298 298 298 298 298 298 297 297
304 303 303 303 303 304 304 304 304 304 304 304 304 304 304 304 303 302 300 296 293 293 293 294 296 299 300 300 301 302 302 302 301 301 300 300 300 299 299 298 298 297 297 297 296 295 294 295 296 296 297 297 297 297 297 297 298 297 297 297 297 297 297
302 302 303 303 303 304 304 304 304 304 304 303 303 303 303 303 303 303 302 298 294 292 293 294 295 298 299 300 301 302 302 302 301 301 300 300 300 299 298 298 297 296 296 296 296 295 295 295 295 297 297 297 297 297 297 297 297 297 296 296 296 296 296
303 303 303 303 304 303 304 304 304 304 304 303 303 303 302 303 303 302 302 299 294 293 293 293 294 297 299 300 300 301 301 301 301 301 300 299 299 298 297 297 296 295 296 296 295 295 295 295 295 296 297 298 297 297 297 297 297 296 296 296 296 296 297
303 304 303 303 303 303 303 303 303 303 303 303 303 302 301 302 302 302 302 300 296 295 295 294 293 295 297 299 299 300 300 300 301 300 300 299 299 298 297 297 296 295 295 295 295 295 295 295 296 296 297 298 297 297 297 297 296 296 296 296 297 297 297
303 303 303 303 303 303 303 303 303 303 303 302 302 302 301 300 300 300 301 301 299 298 297 295 293 293 295 297 298 298 298 299 300 300 300 299 299 298 298 297 297 296 295 295 295 295 295 295 296 296 297 297 297 297 297 296 296 297 297 297 297 297 297
302 302 303 303 302 302 302 302 302 302 302 302 302 302 301 300 299 298 299 300 300 300 299 297 293 292 293 295 297 298 297 297 298 298 299 300 299 299 298 298 297 296 295 295 295 295 295 296 296 296 296 297 297 296 297 296 297 297 297 297 297 297 297
302 302 303 302 302 302 301 301 302 301 302 302 302 302 302 302 301 300 299 299 299 300 300 298 294 292 293 293 294 296 296 296 296 297 298 299 299 299 299 298 297 296 295 295 295 295 296 296 296 296 296 296 296 296 296 296 297 297 297 297 297 297 297
302 303 303 303 302 302 302 302 302 302 302 302 302 302 302 302 302 302 301 300 300 299 299 298 294 293 294 294 294 294 295 295 294 295 297 298 299 298 298 298 297 296 295 295 295 295 296 296 296 296 296 296 296 296 296 297 297 297 297 297 297 297 297
302 302 302 303 302 302 302 301 302 302 302 302 302 302 302 302 302 302 301 301 301 300 298 298 295 292 293 294 294 294 294 294 294 295 296 297 298 298 298 298 297 296 296 295 295 296 296 296 296 296 296 296 296 296 296 296 297 297 297 297 297 296 297
302 302 303 303 303 303 302 302 302 302 302 302 302 302 302 302 302 302 301 301 301 300 299 298 296 293 293 294 294 294 294 294 294 295 295 297 298 298 297 297 297 296 296 296 295 296 296 296 296 296 296 296 296 296 296 296 296 297 297 296 296 296 297
302 303 302 303 303 303 303 303 302 302 302 302 302 302 302 302 302 301 300 300 299 299 299 298 297 294 293 294 294 294 294 294 294 295 296 296 297 297 296 296 296 296 296 296 296 296 296 296 296 295 296 296 296 296 296 296 296 296 296 296 296 296 297
303 303 303 302 303 303 303 303 303 303 302 302 302 301 301 302 302 301 301 299 298 298 298 298 296 295 294 293 293 294 294 294 294 295 296 296 296 295 296 296 296 296 296 296 296 296 296 296 295 295 296 296 296 295 295 295 296 296 296 296 296 296 296

ECMWFFLT1_925_thetae_111.txt.gz
Theta_e
333 334 334 333 332 331 329 328 327 326 325 325 324 324 323 323 322 321 321 322 321 321 320 320 320 321 321 321 320 320 320 321 321 321 321 321 321 320 320 320 320 320 321 323 323 324 325 326 324 324 323 321 321 323 323 321 321 321 321 322 325 327 330
333 333 332 332 331 329 327 326 324 324 323 322 322 322 322 321 320 320 319 319 319 319 319 318 319 320 320 319 319 319 319 319 319 319 318 318 318 318 318 318 318 318 319 320 321 321 322 324 324 322 321 320 320 320 320 319 319 319 320 321 323 323 326
332 332 331 330 329 327 325 323 322 321 320 320 320 320 320 319 318 318 317 317 317 317 317 317 318 318 318 317 317 317 317 317 318 317 316 316 316 316 316 316 316 317 318 319 319 319 319 321 321 320 319 319 318 318 318 317 317 318 318 319 321 320 323
331 330 329 328 327 326 323 321 320 319 319 318 318 317 317 317 316 316 316 316 316 316 316 316 316 316 316 315 315 315 315 316 316 315 315 315 314 314 314 314 315 316 316 316 316 316 317 317 317 317 317 317 317 317 316 315 315 316 316 318 318 318 320
329 328 327 326 326 325 322 320 319 318 317 316 315 315 315 315 315 315 315 314 314 314 315 315 315 315 314 312 313 314 314 314 314 314 313 313 312 312 312 313 313 313 313 313 313 313 313 314 314 315 315 315 315 315 315 314 314 314 315 316 316 315 317
327 325 324 323 323 322 320 318 318 317 316 315 315 315 315 314 314 313 313 313 313 313 313 313 313 314 312 311 312 313 313 312 312 312 312 312 311 311 311 311 312 311 310 311 311 311 311 311 312 313 313 313 313 313 313 312 312 312 313 314 313 314 315
324 323 322 321 320 319 318 317 316 315 314 314 314 314 314 313 312 311 311 311 311 311 311 312 312 313 312 310 312 312 312 311 311 311 311 310 310 310 310 311 310 309 309 309 309 309 310 310 311 311 310 310 311 311 311 310 309 310 311 311 311 312 311
321 320 320 319 319 318 317 316 315 314 314 314 314 313 313 311 310 309 309 310 310 309 310 310 311 311 310 310 310 311 311 310 310 310 310 309 309 309 310 310 308 307 307 307 307 308 307 307 307 307 307 307 308 308 308 308 308 308 308 308 309 308 308
319 319 318 318 317 317 316 315 314 313 314 313 313 312 311 309 308 308 308 308 308 308 309 309 310 310 309 309 309 309 309 309 309 308 308 308 308 308 308 307 306 306 306 305 305 305 304 304 303 304 304 305 305 306 306 306 306 306 306 306 306 305 305
318 318 317 316 316 315 314 314 313 313 313 312 311 310 309 308 307 307 307 307 307 307 308 308 309 309 308 308 308 308 308 308 307 307 307 307 307 307 306 305 305 304 303 303 303 303 302 302 302 302 303 303 303 304 304 304 304 304 304 304 304 303 303
317 316 315 315 314 314 313 313 313 313 312 311 309 308 308 307 306 306 306 306 306 306 307 308 308 307 307 307 307 307 307 307 306 306 306 306 305 305 304 303 303 302 302 302 301 301 301 301 301 301 301 301 302 302 303 303 302 302 303 303 302 302 302
315 315 314 313 313 313 313 313 312 311 310 309 308 307 306 306 305 305 304 304 305 306 306 307 307 307 306 306 307 306 306 306 306 305 305 305 304 304 303 302 301 301 301 300 300 300 299 299 299 300 300 300 300 301 301 301 301 301 301 301 301 301 301
314 313 313 312 312 312 312 312 311 310 308 308 307 306 305 304 304 303 303 303 303 304 306 307 307 306 306 306 306 305 305 305 305 304 304 304 303 303 302 301 301 300 300 299 299 299 298 298 299 299 299 299 299 299 299 300 300 300 300 300 300 300 300
313 313 312 312 312 311 311 310 310 309 308 307 306 305 304 303 302 302 301 302 302 303 305 306 306 306 306 305 305 305 305 304 304 303 303 303 303 302 301 300 300 300 299 298 298 298 298 298 298 298 298 298 298 298 298 299 299 299 299 299 299 299 299
313 312 312 311 311 310 310 309 308 308 307 306 305 304 303 302 301 300 299 299 300 302 304 306 306 306 305 305 305 305 304 304 303 303 302 302 302 302 301 300 300 299 298 297 298 298 297 297 297 297 297 297 298 298 298 298 298 298 298 298 298 298 299
312 311 311 310 310 309 308 308 307 307 306 305 304 303 302 301 299 297 296 296 297 300 304 305 305 305 305 305 305 304 304 303 303 302 302 302 302 301 300 300 299 298 298 297 298 297 297 297 297 296 296 297 297 297 297 297 297 297 297 298 298 298 298
311 311 310 310 309 308 307 307 306 306 305 304 303 303 301 299 297 295 295 295 296 299 303 305 305 305 305 305 304 304 303 303 302 302 301 301 301 301 300 299 299 298 298 297 297 297 296 296 296 296 296 296 296 296 296 297 297 297 298 298 298 298 298
310 310 309 309 308 307 307 307 306 306 305 303 302 302 300 297 295 295 295 295 296 298 301 304 305 305 305 304 304 304 303 302 302 301 301 301 301 300 299 299 299 298 298 297 297 296 295 295 295 295 295 296 296 296 296 297 297 297 298 298 298 298 299
309 308 308 307 307 307 306 306 306 306 304 303 302 301 299 296 294 295 295 295 296 297 300 303 304 304 304 304 304 303 302 302 302 301 301 300 300 299 299 299 299 298 297 297 296 295 295 295 295 295 295 296 296 296 297 297 297 297 298 298 298 299 299
308 307 307 307 307 306 306 305 305 305 304 304 302 301 299 296 294 294 294 294 296 298 300 302 303 304 304 304 304 303 302 301 301 301 300 300 299 299 298 299 298 298 297 296 295 295 295 295 295 296 296 296 296 297 297 297 297 297 298 298 298 298 298
307 307 307 307 306 306 306 305 305 305 304 303 302 302 300 297 294 294 294 294 295 297 300 301 302 303 303 303 303 302 302 301 301 300 300 300 299 298 298 299 298 297 296 296 295 295 295 295 296 296 296 296 297 297 297 297 297 298 298 298 298 298 298
307 306 306 306 306 306 306 305 305 305 304 303 302 301 298 295 294 294 294 294 295 297 299 301 301 302 302 302 302 302 301 301 300 300 300 299 299 298 298 299 298 296 296 295 295 295 295 295 296 296 296 297 297 297 297 297 297 297 298 297 297 297 297
306 306 306 306 306 305 305 305 305 304 303 302 302 300 297 294 293 294 293 294 295 297 298 299 300 301 302 302 302 302 302 301 300 300 300 299 299 298 298 297 296 296 296 296 295 295 295 296 296 296 297 297 297 297 297 297 297 297 297 297 297 297 297
306 306 306 306 305 305 305 305 304 304 303 302 302 301 300 297 294 293 293 293 294 296 298 299 300 301 301 302 301 301 301 300 300 300 300 299 298 298 297 296 295 295 296 295 295 295 296 296 296 296 296 297 297 297 297 297 297 297 297 297 297 297 297
306 306 306 305 305 304 304 304 304 304 304 303 302 302 301 300 297 293 293 293 293 295 297 298 300 301 301 301 301 301 301 301 299 299 300 299 298 297 297 296 295 295 295 295 295 295 295 296 296 295 296 296 296 297 296 296 296 296 296 296 296 297 297
305 305 304 304 304 304 304 304 304 304 304 303 303 302 302 302 299 294 292 293 293 294 295 298 299 300 300 301 301 301 301 301 300 299 299 299 298 297 297 296 295 295 295 295 295 295 295 296 295 295 296 296 296 296 296 296 296 296 296 296 296 297 297
304 303 303 303 303 303 303 303 303 303 303 303 303 302 302 302 300 296 293 293 293 293 294 296 298 300 300 300 300 300 300 301 300 299 299 299 298 297 297 297 296 295 295 295 295 295 295 295 295 295 296 296 296 296 296 296 296 296 296 297 297 297 297
303 303 303 303 303 303 303 303 303 302 302 302 302 302 302 302 301 299 296 295 294 292 293 294 296 299 299 299 299 299 300 300 300 299 299 298 298 297 297 297 296 295 295 295 295 295 295 295 295 295 295 296 296 296 296 296 296 296 296 296 297 297 296
303 304 304 303 304 304 303 303 303 302 302 302 302 302 302 301 302 300 298 297 296 293 292 292 294 296 297 297 297 298 299 299 299 299 299 298 297 297 297 297 296 295 295 295 295 295 295 295 295 295 295 296 296 296 296 296 296 296 296 296 296 296 296
303 303 303 303 303 303 303 303 302 302 301 301 301 301 301 301 300 299 298 298 298 295 293 291 292 293 294 294 294 295 297 298 299 299 298 298 298 298 298 298 296 295 296 296 295 295 295 295 295 295 295 295 295 296 296 295 296 296 296 296 296 296 295
303 303 303 303 303 303 302 302 302 301 301 299 298 298 298 299 298 298 298 298 298 296 294 292 291 292 292 293 293 293 295 296 298 298 298 298 298 298 298 297 296 296 296 296 295 295 295 295 295 295 295 295 295 295 295 295 295 295 295 295 296 295 295
302 303 302 302 302 302 302 302 302 302 301 300 300 300 300 300 299 299 298 298 298 297 295 292 291 292 293 293 293 293 294 295 296 297 297 297 297 297 297 296 296 296 296 296 296 295 295 296 296 295 295 295 295 295 295 295 295 295 295 295 295 295 295
302 302 302 302 302 301 302 302 302 302 302 302 302 301 301 301 301 300 300 299 299 298 296 293 291 292 293 293 293 293 294 295 296 296 297 297 296 296 296 296 296 296 296 296 296 295 295 296 296 295 295 295 295 295 295 295 295 295 295 295 295 295 295
302 301 301 301 301 301 301 301 301 301 301 301 301 301 301 301 301 301 301 300 299 298 296 295 293 292 292 293 294 293 294 295 295 296 296 296 295 295 295 296 296 296 296 296 295 295 295 296 295 295 295 295 294 294 295 294 294 294 294 294 294 294 294
302 302 301 301 301 301 301 301 301 301 301 301 302 302 301 301 301 301 301 300 299 298 296 295 294 292 292 293 293 293 294 294 295 295 296 295 295 295 295 296 296 296 296 296 295 294 295 295 295 295 295 295 294 294 294 294 294 294 294 294 294 294 294
302 302 302 301 301 301 301 301 301 301 302 302 302 302 302 302 301 301 301 299 298 298 296 296 295 292 291 292 293 293 293 294 295 295 295 295 295 295 295 296 296 296 296 296 295 294 294 295 295 295 295 295 294 294 294 294 294 294 294 294 294 294 294
302 302 302 302 302 302 302 301 301 301 301 302 302 302 302 301 301 300 300 298 297 297 296 295 294 291 290 291 292 293 294 294 294 295 295 294 294 295 295 296 296 296 296 295 295 294 294 294 295 295 295 295 294 294 294 294 293 293 293 293 293 293 293

ECMWFFLT1_925_thetae_114.txt.gz
Theta_e
333 331 329 328 327 327 326 326 325 325 325 325 324 324 324 323 323 322 322 321 321 320 320 320 319 319 319 318 318 318 317 317 317 316 316 316 316 316 316 317 317 318 318 317 316 318 321 321 319 317 316 314 314 315 314 313 312 312 314 314 314 317 319
333 330 328 327 326 326 325 324 324 323 323 323 322 322 321 321 320 320 319 319 319 318 318 318 318 317 317 316 317 317 316 315 314 315 314 314 314 314 314 314 314 315 315 314 313 314 317 318 317 315 314 313 312 313 313 311 311 311 312 313 312 314 315
332 330 327 326 325 325 324 322 322 321 321 320 319 319 319 318 318 317 317 317 317 316 316 317 316 315 315 315 315 315 314 313 313 313 312 312 312 312 311 311 311 312 312 312 311 312 313 314 314 313 313 312 311 311 311 309 309 309 310 310 309 310 310
331 329 326 324 323 323 321 320 320 319 318 317 317 317 316 316 316 315 315 315 315 315 315 314 314 313 313 314 314 313 313 312 312 311 310 311 311 310 309 310 310 310 310 310 310 310 310 310 311 311 310 310 310 310 309 307 307 307 307 308 307 307 306
330 327 325 322 321 321 319 318 318 317 316 315 315 315 314 314 314 314 314 314 314 314 314 313 312 312 313 312 312 312 311 311 310 310 310 310 310 308 308 308 307 307 307 307 307 306 306 306 306 307 306 306 307 307 306 306 305 305 305 305 305 304 303
328 326 324 321 320 319 319 318 317 315 315 314 313 313 312 312 312 312 312 312 312 312 312 311 311 312 312 311 311 310 310 309 309 309 309 309 308 307 306 306 305 305 304 304 304 303 303 303 303 303 303 304 304 304 304 303 303 303 304 303 303 303 302
327 325 323 320 319 319 318 317 315 315 314 314 312 311 310 310 311 310 310 310 311 311 311 310 310 311 311 310 310 309 308 308 308 308 308 307 306 305 305 304 303 303 302 302 302 301 301 302 302 302 302 302 302 302 302 302 302 302 302 302 302 301 301
324 323 321 319 319 318 318 316 314 314 313 312 311 309 308 309 309 309 309 309 310 310 310 309 309 309 309 308 308 308 307 307 306 307 306 305 304 304 303 302 302 301 300 300 299 299 300 300 301 301 301 301 301 301 301 300 301 301 301 301 300 300 300
322 321 319 318 318 318 317 315 314 313 312 310 309 308 307 308 308 308 308 308 309 309 309 308 308 308 308 307 307 307 306 306 306 305 305 303 302 301 301 300 300 299 298 298 298 298 298 299 299 299 299 300 300 300 300 300 300 300 300 300 299 299 299
320 319 318 317 317 316 315 315 314 312 311 309 308 307 307 307 307 307 307 308 308 308 308 307 307 307 306 306 306 305 305 305 304 304 303 302 300 299 298 297 298 298 298 298 297 297 298 298 298 298 298 299 299 299 299 299 299 299 299 299 298 298 298
318 318 317 317 316 315 314 314 312 311 309 308 307 306 306 306 306 306 307 307 307 306 306 307 306 306 306 305 305 304 304 304 303 302 302 301 299 298 297 296 297 297 297 297 297 297 297 297 297 297 297 298 298 298 298 298 298 299 299 298 298 298 297
317 316 316 315 315 314 314 312 311 309 308 306 306 305 305 304 305 305 306 307 307 306 306 306 305 305 305 305 304 304 303 303 302 301 301 300 299 297 297 297 297 297 297 297 297 296 296 296 296 296 297 297 297 298 298 298 298 298 298 297 297 297 297
315 315 315 314 314 313 312 310 309 308 306 305 305 304 304 304 303 304 306 306 306 305 305 305 305 304 304 304 303 303 302 302 302 301 300 300 299 297 297 297 296 296 296 296 296 296 296 296 296 296 296 296 297 297 297 297 297 297 297 297 297 297 297
313 313 313 313 312 311 310 309 307 306 305 304 304 303 303 302 302 303 305 306 306 305 305 305 304 304 304 303 303 302 302 302 301 301 300 300 298 297 297 297 296 296 296 296 296 296 296 295 295 295 296 296 296 296 296 296 297 297 297 297 297 297 297
312 312 312 312 311 309 308 307 306 305 304 303 303 302 301 300 300 301 304 305 306 305 305 304 304 304 303 303 302 302 302 301 301 300 300 299 297 297 297 296 296 296 296 295 295 296 296 295 295 295 295 296 296 296 296 297 297 297 297 298 298 298 298
312 311 311 310 310 308 307 306 305 304 303 302 302 300 298 297 297 299 302 305 305 305 304 304 304 304 303 303 302 301 301 301 300 300 300 298 297 297 297 296 296 295 295 295 295 296 296 296 296 296 296 296 296 296 296 297 297 297 297 298 298 298 298
311 311 310 309 308 307 306 305 304 303 302 302 300 297 295 296 296 297 301 304 305 305 304 304 304 303 303 302 302 301 301 301 300 300 299 298 297 298 297 296 295 295 295 295 295 296 296 296 296 296 296 296 296 296 296 296 297 297 297 298 298 298 298
311 310 309 308 307 306 305 304 303 303 302 300 297 295 295 295 295 297 301 304 305 304 304 304 304 303 302 302 301 301 300 300 300 299 298 297 298 298 297 296 295 295 295 295 295 295 296 296 296 296 296 296 296 296 296 296 296 297 297 297 298 297 297
310 309 308 307 306 306 304 303 303 302 300 297 295 295 295 295 295 296 300 303 304 304 304 304 303 303 302 302 301 301 300 300 300 299 298 297 298 298 297 295 295 295 295 295 295 295 295 296 296 296 296 296 297 296 296 296 296 296 297 297 297 297 297
309 308 307 307 306 305 304 303 302 301 299 295 294 295 294 295 295 296 299 302 303 304 304 303 303 302 302 301 301 300 300 300 299 299 298 298 298 297 296 295 295 295 295 295 295 295 295 295 296 296 296 296 297 296 296 296 296 296 296 297 297 296 296
308 307 307 306 306 305 304 303 302 301 299 295 294 294 294 294 295 297 299 301 302 303 303 303 303 302 301 301 300 300 300 300 299 298 298 298 298 296 295 295 295 295 295 295 295 295 295 295 295 296 296 296 296 296 296 296 296 296 296 296 296 296 296
307 306 306 306 305 304 303 303 302 302 299 296 294 294 294 294 294 296 299 300 301 302 302 303 302 302 301 301 300 300 300 300 299 298 298 298 297 296 295 295 295 295 295 295 295 295 295 295 295 295 295 296 296 296 296 296 296 296 296 296 296 296 296
306 306 306 305 305 304 303 303 303 301 298 294 293 293 294 294 294 295 297 299 301 301 302 302 302 301 301 301 300 299 299 300 299 298 298 297 296 295 295 295 295 295 295 295 295 295 295 295 295 295 295 295 295 296 296 296 296 296 296 296 296 296 296
306 306 305 305 305 304 303 303 302 300 297 294 294 293 293 293 294 294 296 298 300 301 301 301 301 301 301 301 300 299 299 299 299 299 298 297 296 296 295 295 295 295 295 295 295 295 295 295 295 295 295 295 295 295 295 296 296 296 296 295 295 295 295
306 306 305 305 305 304 303 302 301 300 299 298 296 293 293 293 293 294 296 297 299 300 300 301 301 301 301 301 300 300 300 299 299 299 297 296 296 296 295 295 295 295 295 295 295 295 295 295 295 295 295 295 295 295 295 295 295 295 295 295 295 295 295
306 305 305 305 304 303 302 302 301 301 301 300 298 294 293 293 293 293 295 297 298 299 299 300 300 301 300 300 300 300 300 299 299 298 297 297 297 296 296 295 295 295 295 295 295 295 295 295 295 295 295 295 295 295 295 295 295 295 295 295 295 295 295
305 305 305 304 304 303 302 302 302 302 302 301 299 295 293 293 293 293 293 295 297 298 299 299 300 300 300 300 300 300 300 299 299 298 297 297 297 297 296 296 295 295 295 295 295 295 295 295 295 295 295 295 295 295 295 294 294 294 294 294 294 294 294
305 304 304 304 304 304 303 302 302 302 302 302 301 297 294 293 293 292 292 293 294 296 298 298 299 299 299 299 299 299 299 299 299 298 297 297 297 297 297 296 295 295 295 295 296 295 295 295 295 295 294 294 294 294 294 294 294 294 294 294 294 294 294
305 304 304 304 304 303 303 303 302 302 302 302 301 300 297 295 294 293 292 292 292 293 295 296 297 297 297 298 299 299 298 298 298 298 297 297 297 297 297 296 295 296 296 295 295 295 295 295 295 295 294 294 294 294 294 294 294 294 294 294 294 294 294
304 304 304 303 304 303 303 303 302 302 302 301 301 301 299 296 295 294 293 291 291 292 292 293 293 294 294 295 297 298 298 298 298 298 297 297 297 297 296 295 295 296 296 295 295 294 295 295 295 294 294 294 294 294 293 293 294 294 294 294 294 294 294
303 303 303 303 303 302 302 302 302 302 302 301 301 301 298 296 296 296 295 293 291 291 292 292 292 292 293 294 295 297 298 298 297 297 296 296 296 295 295 296 296 296 296 295 294 295 295 295 294 294 294 294 294 294 293 293 293 294 294 294 294 294 294
302 302 302 302 302 302 302 301 301 302 302 301 300 298 297 296 297 297 296 294 293 291 291 292 292 292 293 294 295 296 297 297 296 295 295 295 295 296 296 296 296 296 296 294 294 294 295 295 294 294 294 294 293 293 293 293 293 293 293 293 293 293 294
302 302 303 303 302 302 302 300 299 300 300 299 298 297 298 298 298 298 297 296 294 293 292 291 292 292 293 294 295 295 296 296 295 295 295 296 296 296 296 296 296 295 295 294 294 294 294 295 294 294 294 294 293 293 293 293 293 293 293 293 293 293 293
303 303 303 303 302 302 301 299 297 297 298 298 298 299 300 299 299 299 298 296 295 294 293 292 291 292 292 293 294 295 295 294 295 295 295 295 295 295 296 296 295 295 294 294 294 293 294 295 294 294 294 294 293 292 292 293 293 293 293 293 293 293 293
303 303 303 302 302 301 301 300 299 299 299 300 300 300 300 300 300 299 298 297 295 295 294 293 291 291 291 292 294 294 294 294 295 295 295 295 295 295 295 295 295 295 294 294 294 293 294 294 293 293 294 293 292 291 292 292 293 293 292 292 292 292 293
303 302 302 302 302 302 301 301 301 300 300 300 300 300 301 300 300 299 299 297 295 295 294 293 291 290 291 292 293 294 294 294 294 295 295 295 295 295 295 295 295 295 294 294 293 293 294 293 292 293 293 292 291 291 292 292 292 292 292 292 292 292 292
302 302 302 302 302 301 301 301 301 301 301 301 301 301 301 301 300 300 299 297 295 295 294 292 290 290 291 293 293 294 294 294 294 294 295 295 295 295 295 295 295 294 294 294 293 293 293 293 292 292 292 291 290 291 291 292 292 291 291 291 291 291 291

ECMWFFLT1_925_thetae_117.txt.gz
Theta_e
330 327 326 327 327 326 325 325 324 323 323 323 323 322 322 322 321 321 320 320 319 319 318 318 317 317 316 316 315 315 314 314 314 314 313 313 313 312 313 314 312 311 311 310 310 313 315 315 314 311 309 308 307 306 306 303 302 304 305 304 304 302 301
329 327 326 326 325 325 324 323 322 321 320 320 320 320 319 319 319 319 319 318 318 317 316 316 315 316 315 314 313 313 312 312 312 312 311 310 310 310 310 310 309 309 308 308 307 308 310 311 311 309 306 305 304 303 303 301 300 302 304 303 301 300 301
328 326 325 324 324 324 323 321 320 319 318 318 317 317 317 317 317 317 317 316 316 315 314 314 314 314 313 312 312 311 311 310 310 310 309 309 308 307 307 307 306 306 306 306 305 305 306 307 306 305 304 303 302 302 302 300 299 301 303 301 299 300 300
327 325 324 323 322 322 321 319 318 317 317 316 316 315 315 315 315 315 315 314 314 313 313 313 313 312 311 311 310 309 310 310 309 308 307 307 306 306 305 304 303 303 303 303 302 303 303 303 303 302 302 301 301 301 301 299 299 300 302 300 299 300 300
327 326 324 322 321 321 319 317 316 316 315 314 314 314 314 314 314 314 314 313 313 312 312 312 312 311 310 309 309 309 309 309 307 307 306 305 304 304 303 302 301 301 301 301 301 301 301 301 301 300 300 300 300 300 299 299 299 300 301 299 298 299 299
326 326 325 323 321 320 318 316 316 314 314 313 312 312 312 312 312 313 312 312 311 311 311 311 310 310 309 308 308 308 308 307 306 305 304 304 303 302 301 300 299 299 299 299 299 299 299 299 299 299 299 299 299 299 299 299 299 299 300 299 298 298 298
326 325 324 322 320 319 317 316 315 314 313 311 311 310 310 311 311 311 311 310 310 311 310 310 309 308 308 307 307 307 306 305 305 304 302 301 301 299 298 298 297 297 298 298 298 298 298 298 298 298 298 298 298 299 298 298 298 298 299 298 297 298 297
326 325 323 321 319 318 317 316 314 313 311 310 309 309 309 310 310 310 310 309 309 309 309 309 308 307 307 306 306 305 304 304 303 301 299 298 298 297 297 297 297 297 297 297 297 297 297 297 297 297 298 298 298 298 298 298 298 298 298 297 297 297 297
325 323 321 319 318 317 316 315 312 311 310 309 308 308 309 309 309 309 309 308 308 308 308 307 307 306 306 305 305 304 303 302 300 298 296 296 296 296 296 297 297 296 296 297 296 296 296 297 297 297 297 297 298 298 298 298 298 297 297 297 296 297 297
323 322 320 318 316 315 314 313 311 309 308 308 307 308 308 308 308 308 308 308 307 307 307 306 306 306 305 304 304 303 301 299 297 296 295 296 296 296 296 296 297 297 296 296 296 296 296 296 296 297 297 297 298 298 297 297 297 297 297 296 296 296 296
322 320 318 316 315 314 312 311 310 309 308 307 307 307 307 307 307 307 307 307 306 306 306 305 305 305 304 303 302 301 300 299 296 295 295 296 296 296 296 296 297 297 296 296 296 295 295 295 296 296 296 296 297 297 296 296 296 296 297 296 296 296 296
320 318 317 315 314 313 311 310 309 308 307 306 306 306 307 307 306 306 306 306 306 305 305 304 304 304 303 302 301 301 300 298 296 295 296 296 296 296 296 296 296 296 296 295 295 295 295 295 295 295 295 296 296 296 296 296 296 296 296 296 296 296 297
318 317 315 314 313 312 311 310 308 307 306 305 305 305 306 306 306 305 305 305 305 305 304 304 303 303 302 301 301 300 300 298 296 295 296 296 296 296 296 296 296 296 296 296 296 296 295 295 295 295 295 295 296 296 296 296 296 296 296 296 296 297 297
316 315 314 314 313 311 309 308 307 306 305 305 304 304 305 305 306 305 304 305 304 304 304 303 302 302 302 301 301 300 299 297 296 296 296 295 296 296 296 296 296 296 296 296 296 296 296 296 296 296 296 296 296 296 296 296 296 296 296 296 296 296 296
315 314 313 313 311 309 308 307 306 305 304 304 304 303 303 305 305 305 304 304 304 304 303 303 302 302 301 301 300 300 299 297 296 296 296 295 295 296 296 295 295 295 295 296 296 296 296 296 296 296 296 296 296 296 296 296 296 296 296 296 296 296 296
314 314 312 311 309 308 307 305 305 305 304 303 303 302 302 304 305 305 304 304 304 303 303 302 302 301 301 301 300 299 298 296 296 296 296 295 295 295 295 295 295 295 295 295 295 295 296 296 296 296 296 296 296 296 296 296 296 296 296 296 296 296 296
313 312 310 308 307 306 305 304 304 304 303 301 300 299 300 303 305 305 304 304 304 303 303 302 302 301 301 300 300 299 297 296 296 296 296 295 295 295 295 295 295 295 295 295 295 295 295 295 295 296 296 296 296 296 296 296 296 296 295 295 296 296 296
311 309 308 307 306 305 304 304 304 303 302 299 297 296 299 303 304 304 304 304 303 303 302 302 301 301 301 300 300 299 298 297 297 296 296 295 295 295 295 295 295 295 295 295 295 295 295 295 295 295 295 295 295 296 296 296 296 296 295 295 295 295 295
309 307 306 305 305 304 303 303 303 302 300 297 295 295 298 302 304 304 304 304 303 303 302 302 301 301 300 300 299 298 298 297 297 297 296 295 295 295 295 295 295 295 295 295 295 295 295 295 295 295 295 295 295 295 295 295 295 295 295 295 295 295 295
308 307 306 305 304 303 303 303 302 300 298 296 295 296 299 302 304 304 304 303 303 303 302 301 301 301 300 300 299 298 298 298 297 297 296 295 295 295 295 295 295 295 295 295 295 295 295 295 295 295 295 295 295 294 294 295 295 295 295 295 295 295 295
307 306 305 304 304 303 303 301 299 297 295 295 295 296 299 302 303 303 303 303 303 302 302 301 300 300 300 299 299 299 298 298 297 297 296 295 295 295 295 295 295 295 295 295 295 295 295 295 295 295 295 294 294 294 294 294 294 295 294 294 294 294 294
307 306 305 304 303 302 301 299 296 295 294 294 295 296 299 301 303 303 303 303 303 302 302 301 300 300 300 299 299 299 299 298 298 297 296 295 295 295 295 295 295 295 295 295 295 295 295 295 295 295 295 294 294 294 294 294 294 294 294 294 294 294 294
306 305 304 303 302 302 300 297 295 294 294 294 295 296 298 300 302 302 302 302 302 302 302 301 300 300 299 299 299 299 299 298 298 297 296 296 295 295 295 295 295 295 295 295 295 295 295 295 295 295 294 294 294 294 294 294 294 294 294 294 294 294 293
306 305 304 302 302 302 300 297 294 294 294 294 294 296 298 300 301 301 302 302 302 302 301 301 300 300 299 299 299 299 299 299 297 296 296 296 295 295 295 295 295 295 295 295 295 295 295 295 295 295 294 294 294 294 294 294 293 293 293 293 293 293 293
305 305 304 302 302 302 300 296 294 293 293 293 294 295 297 299 300 301 301 301 301 301 301 301 300 300 300 299 299 299 299 299 298 296 296 297 296 295 295 295 295 295 295 295 295 295 295 295 295 294 294 294 294 293 293 293 293 293 293 293 293 293 293
305 304 303 303 302 301 298 295 294 293 293 293 293 294 296 298 299 300 300 301 301 300 301 301 300 300 300 299 299 299 299 298 298 297 297 297 297 296 295 295 295 295 295 295 294 295 295 295 294 294 294 294 294 293 292 293 293 293 293 293 293 293 293
305 304 303 302 302 300 298 296 294 293 293 293 293 294 295 296 298 299 299 299 300 300 300 300 300 300 300 300 300 300 299 298 298 297 297 297 297 296 295 295 295 295 295 295 294 294 295 294 294 294 294 294 294 293 292 293 293 293 293 293 293 293 293
305 304 303 302 301 300 298 298 296 294 293 293 293 293 293 295 296 298 299 299 299 299 299 299 300 300 299 300 300 300 299 298 298 297 297 297 297 296 296 295 295 295 295 294 294 294 294 294 294 294 294 294 294 292 292 293 293 293 293 294 293 293 293
305 304 303 302 301 300 299 299 298 295 293 292 292 292 292 293 294 295 297 298 298 298 298 299 299 299 299 299 299 299 299 298 298 297 297 297 297 296 295 295 295 295 294 294 294 294 294 294 293 294 294 294 293 292 291 292 293 293 294 294 294 294 294
304 304 303 302 301 300 301 301 299 298 295 293 292 292 292 292 292 293 294 295 296 296 296 297 297 298 298 298 298 299 298 298 298 298 297 296 295 295 295 295 296 295 294 294 293 293 294 294 293 293 294 293 292 291 291 292 293 293 294 294 294 295 295
304 304 303 302 301 301 301 301 301 300 298 294 293 292 292 291 291 291 292 292 292 293 293 293 293 294 295 297 298 298 298 298 298 297 296 295 295 295 295 295 295 294 294 294 293 294 294 293 293 293 293 292 291 291 291 292 293 293 293 294 294 295 295
304 304 303 302 302 302 302 301 301 301 300 297 294 293 293 292 291 291 291 291 291 291 291 292 292 293 294 296 297 297 297 297 297 296 295 295 295 295 295 295 294 294 294 294 293 294 294 293 292 293 292 291 290 291 291 292 293 293 293 293 294 294 294
304 304 304 303 303 302 302 302 302 301 301 300 296 294 295 295 293 292 292 291 291 290 291 291 292 293 294 295 296 297 297 296 296 295 295 295 295 295 295 294 294 294 294 293 293 293 293 292 292 292 291 290 290 290 291 292 293 293 293 293 293 293 293
304 304 304 303 303 303 302 302 302 301 301 300 296 295 296 296 295 294 293 292 292 291 291 291 292 293 294 295 295 296 296 295 295 295 295 295 295 295 295 294 294 293 293 293 293 293 292 292 291 291 290 290 290 291 292 292 292 293 293 293 293 293 293
304 304 304 303 303 303 302 302 302 301 301 299 296 296 297 297 296 295 294 293 293 292 291 291 291 292 293 294 294 294 295 295 295 295 295 295 295 295 295 294 294 293 293 293 292 292 292 291 290 290 290 289 289 290 292 292 292 293 293 293 292 292 292
304 304 303 303 302 302 301 301 301 301 299 297 297 297 298 298 297 296 294 294 294 293 292 291 291 291 292 293 294 294 294 295 295 295 294 294 295 294 295 295 294 293 293 293 292 292 291 290 289 289 289 288 289 290 291 291 292 292 293 293 292 291 291
303 303 303 302 302 301 301 301 301 300 298 297 298 299 298 298 298 297 295 294 294 293 292 291 290 290 292 293 294 294 294 294 294 294 294 294 295 294 295 294 294 293 293 293 292 292 291 290 289 288 288 288 288 290 291 291 291 291 292 292 291 290 291

ECMWFFLT1_925_thetae_120.txt.gz
Theta_e
329 327 328 328 328 328 327 326 325 325 325 325 325 324 324 324 323 322 322 321 321 319 318 317 316 315 314 314 313 312 312 312 312 311 310 310 310 308 308 308 307 305 304 305 307 310 311 310 308 303 300 299 299 299 298 298 301 301 298 297 299 298 296
328 327 327 326 325 326 325 323 323 323 322 322 322 322 321 321 320 320 319 319 318 317 316 315 314 313 312 312 311 311 311 310 309 309 308 307 306 305 305 304 303 302 301 301 302 304 305 307 307 303 300 299 299 299 298 298 300 300 297 297 298 297 296
326 325 325 324 323 324 323 321 321 321 320 320 320 319 319 318 318 318 317 316 316 315 314 313 312 311 311 310 310 309 309 308 307 307 306 305 304 303 302 301 300 300 301 300 300 301 301 303 304 301 299 299 300 299 298 297 299 300 298 296 297 297 296
326 325 324 322 322 322 321 320 319 319 318 318 318 317 317 316 316 315 315 314 314 313 313 311 311 310 309 309 308 308 307 306 306 305 304 303 302 301 301 300 300 299 300 300 299 299 300 300 300 301 299 298 299 299 298 297 298 299 297 296 296 296 296
328 326 324 322 321 322 321 319 318 317 316 316 316 315 315 315 314 314 313 313 312 312 311 310 309 309 309 308 307 306 306 305 304 304 302 301 300 299 299 299 299 298 298 298 298 298 298 298 299 299 298 298 298 298 297 297 297 298 297 296 296 296 296
327 326 325 322 321 321 320 318 317 316 315 314 314 314 313 313 313 313 312 312 311 310 310 309 308 308 307 307 306 305 304 303 302 300 299 298 298 297 297 297 297 297 297 297 297 297 298 298 297 298 298 297 298 298 297 297 297 297 296 296 296 296 296
325 325 324 322 321 320 319 317 316 315 314 313 313 313 312 312 312 312 311 311 310 309 308 308 307 306 306 305 304 303 301 300 298 297 297 297 297 297 297 297 297 297 297 297 297 297 297 297 297 297 297 297 297 297 297 296 296 296 296 296 296 296 296
325 325 323 322 321 319 317 316 314 314 313 312 311 311 311 311 311 311 310 310 309 308 307 306 306 305 304 303 302 300 298 297 297 297 297 297 297 297 297 297 297 297 297 297 297 297 297 297 296 296 296 297 297 297 297 296 296 296 296 296 296 296 296
326 325 322 320 319 317 316 315 313 312 311 310 310 310 310 310 310 310 309 308 308 307 306 305 304 304 303 301 299 297 296 296 296 296 297 297 297 297 297 297 296 296 296 296 296 296 296 296 295 295 296 296 297 297 296 296 296 296 296 296 296 296 295
325 324 322 319 317 316 314 314 312 311 310 310 310 310 309 309 309 309 308 307 307 306 305 304 303 302 301 299 297 296 296 296 296 296 296 297 297 296 296 296 296 295 295 295 295 295 295 295 295 295 295 296 296 296 296 296 296 296 296 296 296 296 295
324 322 320 318 316 314 313 312 311 310 310 309 309 309 308 308 308 308 307 306 306 305 304 303 302 301 300 297 296 295 296 296 296 296 296 296 296 296 296 296 295 295 295 295 295 295 295 295 295 295 295 295 296 296 296 296 296 296 296 296 295 295 295
323 320 318 316 314 313 312 311 310 310 309 308 308 308 308 307 307 307 306 305 305 304 303 302 301 300 298 296 295 295 295 296 296 296 296 296 296 296 296 295 295 295 295 295 295 295 295 295 295 295 295 296 295 296 296 296 296 296 296 295 295 295 295
320 318 316 314 313 312 311 310 310 309 308 307 307 307 307 307 306 306 305 304 304 303 302 301 300 299 297 295 295 295 295 295 296 296 296 296 296 295 295 295 295 295 295 295 295 295 295 295 296 295 295 295 295 296 296 296 296 296 295 295 295 295 295
318 316 314 313 313 312 310 310 309 308 307 307 307 307 306 306 305 305 304 304 303 302 302 301 300 299 297 295 295 295 295 295 295 295 295 295 295 295 295 295 295 295 295 295 295 295 295 295 295 295 295 295 295 295 295 295 296 296 295 295 295 295 294
316 314 313 313 312 311 310 309 308 307 306 306 306 306 305 305 305 304 304 303 303 302 301 300 300 298 296 295 295 294 294 295 295 295 295 295 295 294 295 295 295 295 295 295 295 295 295 295 295 295 295 295 295 294 295 295 295 295 295 295 294 294 294
314 313 312 312 311 310 309 307 306 306 305 305 305 305 305 305 304 304 303 303 302 301 301 300 300 298 296 295 295 295 294 295 295 295 295 295 295 294 294 295 294 295 295 295 295 294 295 295 295 295 294 294 294 294 294 294 294 294 295 295 294 294 294
313 313 311 311 310 309 307 306 305 305 304 304 305 305 304 304 304 303 303 302 302 301 300 300 299 297 295 295 295 295 295 295 295 295 295 295 295 294 294 294 294 295 295 295 295 295 295 295 294 295 294 294 294 294 294 294 294 294 294 294 294 294 294
312 311 311 310 308 307 306 305 304 304 303 303 304 305 304 304 303 303 303 302 302 301 301 300 299 297 296 296 296 295 295 295 295 294 295 295 295 295 295 295 294 295 295 295 295 295 295 295 294 294 294 294 294 294 294 294 293 293 293 294 294 293 294
311 311 310 308 307 305 305 304 304 303 301 301 303 304 304 304 303 303 303 302 302 301 300 300 299 298 297 297 296 296 295 295 295 295 295 295 295 295 295 295 294 295 295 295 295 295 295 295 295 294 294 294 294 294 293 293 293 293 293 293 293 293 293
310 309 308 307 305 304 304 303 303 301 298 298 302 304 304 304 303 303 302 302 302 301 300 300 299 297 297 297 297 296 296 295 295 295 295 295 295 295 295 294 295 295 295 295 295 295 295 294 294 294 294 294 294 293 293 293 293 293 293 293 293 293 293
308 307 306 305 304 303 303 303 302 299 296 297 300 304 304 303 303 303 302 302 301 301 300 300 299 298 298 298 297 297 296 296 296 295 295 295 294 294 295 295 295 295 295 295 295 294 295 294 294 294 294 294 293 292 292 292 292 293 292 292 293 293 293
306 305 304 304 303 303 302 302 300 297 295 296 300 303 304 303 303 303 302 302 301 301 300 300 299 299 298 298 298 297 296 296 296 296 295 294 294 294 295 294 295 295 295 295 295 295 295 294 294 294 294 293 293 292 292 292 292 292 292 292 293 292 293
304 304 304 303 302 302 301 299 297 295 295 297 300 303 303 303 303 303 302 302 301 300 300 299 299 299 299 299 298 298 297 296 296 296 295 295 294 294 295 295 295 295 295 295 295 295 295 294 294 294 294 293 293 292 292 292 292 292 292 292 292 292 292
304 303 303 302 301 300 299 297 295 295 295 298 301 303 303 303 303 302 302 301 301 300 299 299 299 299 299 299 299 298 297 296 296 296 296 295 295 294 295 295 295 295 294 294 294 294 294 294 293 293 294 294 293 292 291 292 292 292 292 292 292 292 292
303 303 302 301 300 298 297 295 294 294 295 298 301 302 302 302 302 302 302 301 301 300 300 299 299 299 298 298 299 298 298 297 296 297 297 296 295 294 295 295 295 295 294 294 294 294 294 294 294 293 293 294 293 291 291 292 292 292 291 292 291 292 292
303 302 301 300 299 297 296 295 294 294 295 297 300 301 301 302 302 302 302 301 301 300 300 300 299 299 298 298 299 298 298 297 297 297 297 297 295 294 295 295 295 294 294 294 294 294 294 294 294 293 292 292 291 290 291 292 293 292 292 292 291 292 292
303 302 301 300 300 299 299 296 294 293 295 297 299 300 301 301 301 301 302 301 301 300 300 300 300 299 299 299 299 299 298 298 297 297 297 297 295 294 295 295 295 295 294 293 294 294 294 294 294 292 291 291 290 290 291 292 293 293 293 293 292 292 293
303 302 302 302 301 301 299 295 293 293 294 296 298 299 300 300 301 301 301 301 301 300 300 300 300 300 299 299 299 299 298 298 297 297 297 297 295 294 295 295 295 294 293 293 293 293 294 294 293 292 291 290 289 290 291 292 292 293 293 293 293 293 293
303 302 302 301 299 298 296 294 292 293 294 295 297 298 299 300 300 300 300 300 300 300 300 299 300 300 299 299 299 299 298 298 298 297 297 296 295 294 295 295 295 294 293 293 293 293 293 293 292 292 291 290 289 290 291 292 292 293 293 293 294 294 294
303 302 301 299 297 296 296 294 293 293 293 294 296 297 298 298 299 299 299 299 299 299 299 299 299 299 299 299 299 299 299 298 298 297 297 295 294 295 295 295 294 294 293 293 293 293 293 293 292 291 290 289 289 290 290 291 292 293 293 293 294 294 294
304 303 301 300 299 298 297 295 293 293 293 293 294 295 297 297 298 298 298 298 298 298 298 298 298 298 298 298 298 299 298 298 297 297 296 294 294 295 295 294 294 294 293 293 293 292 292 292 291 290 290 289 289 289 290 291 292 292 293 293 293 294 294
304 303 301 301 300 298 297 296 294 293 292 292 292 293 294 295 296 296 297 297 296 296 295 295 295 295 296 297 297 298 298 298 297 297 295 294 295 295 294 294 294 293 293 293 292 292 292 291 290 290 289 289 289 289 290 291 291 292 292 293 293 293 294
304 303 302 301 300 299 299 298 295 293 292 292 291 291 292 292 293 293 293 293 293 292 292 292 292 293 295 296 297 297 297 297 297 296 294 295 295 295 294 294 294 293 293 293 292 292 291 290 289 289 289 288 289 289 290 290 291 291 292 293 293 293 293
304 303 302 302 301 300 300 299 297 295 293 292 291 291 291 291 291 291 291 291 291 291 292 292 292 293 294 296 297 297 297 297 296 295 294 295 295 294 294 294 293 293 293 292 292 292 290 289 288 288 288 288 288 289 290 290 290 290 291 292 293 293 293
304 304 303 302 302 301 300 300 300 298 295 292 292 292 291 291 291 291 291 291 291 291 291 292 293 294 294 295 296 296 296 296 295 295 295 295 294 294 294 294 293 293 293 292 292 291 290 288 288 288 288 288 288 289 289 289 289 289 290 291 292 293 293
304 304 303 303 302 301 300 300 300 300 298 295 293 293 293 292 292 292 291 291 291 291 291 291 292 293 294 295 295 295 295 295 295 295 295 294 294 294 294 294 294 293 293 292 292 291 289 289 289 289 289 289 289 289 289 288 288 288 288 290 291 292 292
304 304 303 302 302 301 301 301 300 301 300 297 294 295 295 293 292 292 292 292 292 291 291 290 291 292 293 294 294 294 294 295 295 294 294 294 294 294 294 294 294 293 293 292 292 291 290 290 290 290 290 290 290 290 289 289 288 288 288 288 290 291 292